<?xml version="1.0" encoding="utf-8"?>
<gpx xmlns:xsi="http://www.w3.org/2001/XMLSchema-instance" xmlns:xsd="http://www.w3.org/2001/XMLSchema" version="1.1" creator="Shapelink.com" xmlns="http://www.topografix.com/GPX/1/1" xmlns:gpxtpx="http://www.garmin.com/xmlschemas/TrackPointExtension/v1">
  <metadata>
    <name>Løping 10.21 km, 2014-05-20</name>
    <desc></desc>
    <author><name>Mikael Blom</name></author> 
    <time>2014-05-20T18:31:40Z</time>
  </metadata>
  <trk>
    <name>Løping 10.21 km, 2014-05-20</name>
    <trkseg>
      <trkpt lat="59.8463789" lon="17.6491703">
        <ele>11.1925</ele>
        <time>2014-05-20T18:31:40Z</time>
      </trkpt>
      <trkpt lat="59.8463669" lon="17.6491285">
        <ele>10.7118</ele>
        <time>2014-05-20T18:31:41Z</time>
      </trkpt>
      <trkpt lat="59.8463518" lon="17.6490858">
        <ele>10.7118</ele>
        <time>2014-05-20T18:31:42Z</time>
      </trkpt>
      <trkpt lat="59.846335" lon="17.649046">
        <ele>10.2312</ele>
        <time>2014-05-20T18:31:43Z</time>
      </trkpt>
      <trkpt lat="59.8463223" lon="17.6490078">
        <ele>10.7118</ele>
        <time>2014-05-20T18:31:44Z</time>
      </trkpt>
      <trkpt lat="59.8463089" lon="17.6489689">
        <ele>10.7118</ele>
        <time>2014-05-20T18:31:45Z</time>
      </trkpt>
      <trkpt lat="59.8462907" lon="17.648913">
        <ele>10.2312</ele>
        <time>2014-05-20T18:31:46Z</time>
      </trkpt>
      <trkpt lat="59.8462733" lon="17.6488451">
        <ele>10.2312</ele>
        <time>2014-05-20T18:31:47Z</time>
      </trkpt>
      <trkpt lat="59.8462574" lon="17.6487853">
        <ele>10.2312</ele>
        <time>2014-05-20T18:31:48Z</time>
      </trkpt>
      <trkpt lat="59.846236" lon="17.6487295">
        <ele>10.2312</ele>
        <time>2014-05-20T18:31:49Z</time>
      </trkpt>
      <trkpt lat="59.8462095" lon="17.6486726">
        <ele>10.2312</ele>
        <time>2014-05-20T18:31:50Z</time>
      </trkpt>
      <trkpt lat="59.8461909" lon="17.6486272">
        <ele>10.7118</ele>
        <time>2014-05-20T18:31:51Z</time>
      </trkpt>
      <trkpt lat="59.8461759" lon="17.6485891">
        <ele>10.7118</ele>
        <time>2014-05-20T18:31:52Z</time>
      </trkpt>
      <trkpt lat="59.8461538" lon="17.6485475">
        <ele>10.7118</ele>
        <time>2014-05-20T18:31:53Z</time>
      </trkpt>
      <trkpt lat="59.8461303" lon="17.6485026">
        <ele>10.7118</ele>
        <time>2014-05-20T18:31:54Z</time>
      </trkpt>
      <trkpt lat="59.8461106" lon="17.6484731">
        <ele>10.7118</ele>
        <time>2014-05-20T18:31:55Z</time>
      </trkpt>
      <trkpt lat="59.8460975" lon="17.6484659">
        <ele>11.1925</ele>
        <time>2014-05-20T18:31:56Z</time>
      </trkpt>
      <trkpt lat="59.8460813" lon="17.6484647">
        <ele>11.6732</ele>
        <time>2014-05-20T18:31:57Z</time>
      </trkpt>
      <trkpt lat="59.8460535" lon="17.6484606">
        <ele>11.1925</ele>
        <time>2014-05-20T18:31:58Z</time>
      </trkpt>
      <trkpt lat="59.8460194" lon="17.6484613">
        <ele>11.1925</ele>
        <time>2014-05-20T18:31:59Z</time>
      </trkpt>
      <trkpt lat="59.845983" lon="17.6484662">
        <ele>11.1925</ele>
        <time>2014-05-20T18:32:00Z</time>
      </trkpt>
      <trkpt lat="59.8459492" lon="17.6484836">
        <ele>11.6732</ele>
        <time>2014-05-20T18:32:01Z</time>
      </trkpt>
      <trkpt lat="59.8459184" lon="17.6485097">
        <ele>11.1925</ele>
        <time>2014-05-20T18:32:02Z</time>
      </trkpt>
      <trkpt lat="59.8458899" lon="17.6485466">
        <ele>11.6732</ele>
        <time>2014-05-20T18:32:03Z</time>
      </trkpt>
      <trkpt lat="59.8458619" lon="17.6485977">
        <ele>12.1538</ele>
        <time>2014-05-20T18:32:04Z</time>
      </trkpt>
      <trkpt lat="59.8458332" lon="17.6486353">
        <ele>11.6732</ele>
        <time>2014-05-20T18:32:05Z</time>
      </trkpt>
      <trkpt lat="59.8458065" lon="17.6486588">
        <ele>12.1538</ele>
        <time>2014-05-20T18:32:06Z</time>
      </trkpt>
      <trkpt lat="59.8457795" lon="17.6486829">
        <ele>12.1538</ele>
        <time>2014-05-20T18:32:07Z</time>
      </trkpt>
      <trkpt lat="59.8457547" lon="17.6487053">
        <ele>12.1538</ele>
        <time>2014-05-20T18:32:08Z</time>
      </trkpt>
      <trkpt lat="59.8457353" lon="17.6487363">
        <ele>12.1538</ele>
        <time>2014-05-20T18:32:09Z</time>
      </trkpt>
      <trkpt lat="59.8457117" lon="17.6487715">
        <ele>12.1538</ele>
        <time>2014-05-20T18:32:10Z</time>
      </trkpt>
      <trkpt lat="59.8456854" lon="17.6488042">
        <ele>12.1538</ele>
        <time>2014-05-20T18:32:11Z</time>
      </trkpt>
      <trkpt lat="59.8456603" lon="17.6488404">
        <ele>12.1538</ele>
        <time>2014-05-20T18:32:12Z</time>
      </trkpt>
      <trkpt lat="59.8456353" lon="17.6488771">
        <ele>12.6344</ele>
        <time>2014-05-20T18:32:13Z</time>
      </trkpt>
      <trkpt lat="59.8456102" lon="17.6489132">
        <ele>13.1151</ele>
        <time>2014-05-20T18:32:14Z</time>
      </trkpt>
      <trkpt lat="59.845584" lon="17.6489406">
        <ele>13.5958</ele>
        <time>2014-05-20T18:32:15Z</time>
      </trkpt>
      <trkpt lat="59.8455588" lon="17.6489593">
        <ele>13.5958</ele>
        <time>2014-05-20T18:32:16Z</time>
      </trkpt>
      <trkpt lat="59.8455333" lon="17.648973">
        <ele>13.5958</ele>
        <time>2014-05-20T18:32:17Z</time>
      </trkpt>
      <trkpt lat="59.8455098" lon="17.648989">
        <ele>14.0764</ele>
        <time>2014-05-20T18:32:18Z</time>
      </trkpt>
      <trkpt lat="59.845491" lon="17.6489989">
        <ele>14.0764</ele>
        <time>2014-05-20T18:32:19Z</time>
      </trkpt>
      <trkpt lat="59.8454696" lon="17.6490086">
        <ele>13.5958</ele>
        <time>2014-05-20T18:32:20Z</time>
      </trkpt>
      <trkpt lat="59.8454463" lon="17.6490216">
        <ele>13.5958</ele>
        <time>2014-05-20T18:32:21Z</time>
      </trkpt>
      <trkpt lat="59.8454248" lon="17.6490377">
        <ele>13.5958</ele>
        <time>2014-05-20T18:32:22Z</time>
      </trkpt>
      <trkpt lat="59.8454033" lon="17.6490665">
        <ele>13.1151</ele>
        <time>2014-05-20T18:32:23Z</time>
      </trkpt>
      <trkpt lat="59.8453827" lon="17.6490915">
        <ele>13.1151</ele>
        <time>2014-05-20T18:32:24Z</time>
      </trkpt>
      <trkpt lat="59.8453593" lon="17.6491174">
        <ele>11.6732</ele>
        <time>2014-05-20T18:32:25Z</time>
      </trkpt>
      <trkpt lat="59.8453356" lon="17.649143">
        <ele>10.7118</ele>
        <time>2014-05-20T18:32:26Z</time>
      </trkpt>
      <trkpt lat="59.8453097" lon="17.6491738">
        <ele>10.7118</ele>
        <time>2014-05-20T18:32:27Z</time>
      </trkpt>
      <trkpt lat="59.8452816" lon="17.6492105">
        <ele>9.75061</ele>
        <time>2014-05-20T18:32:28Z</time>
      </trkpt>
      <trkpt lat="59.8452496" lon="17.6492418">
        <ele>9.2699</ele>
        <time>2014-05-20T18:32:29Z</time>
      </trkpt>
      <trkpt lat="59.8452176" lon="17.649266">
        <ele>7.82788</ele>
        <time>2014-05-20T18:32:30Z</time>
      </trkpt>
      <trkpt lat="59.8451905" lon="17.649296">
        <ele>6.86646</ele>
        <time>2014-05-20T18:32:31Z</time>
      </trkpt>
      <trkpt lat="59.8451604" lon="17.6493304">
        <ele>5.90527</ele>
        <time>2014-05-20T18:32:32Z</time>
      </trkpt>
      <trkpt lat="59.8451334" lon="17.6493621">
        <ele>5.42456</ele>
        <time>2014-05-20T18:32:33Z</time>
      </trkpt>
      <trkpt lat="59.8451077" lon="17.649387">
        <ele>5.42456</ele>
        <time>2014-05-20T18:32:34Z</time>
      </trkpt>
      <trkpt lat="59.8450823" lon="17.6494064">
        <ele>4.94385</ele>
        <time>2014-05-20T18:32:35Z</time>
      </trkpt>
      <trkpt lat="59.8450577" lon="17.6494261">
        <ele>4.46326</ele>
        <time>2014-05-20T18:32:36Z</time>
      </trkpt>
      <trkpt lat="59.8450352" lon="17.6494624">
        <ele>4.46326</ele>
        <time>2014-05-20T18:32:37Z</time>
      </trkpt>
      <trkpt lat="59.8450104" lon="17.6494989">
        <ele>4.94385</ele>
        <time>2014-05-20T18:32:38Z</time>
      </trkpt>
      <trkpt lat="59.8449837" lon="17.6495324">
        <ele>4.94385</ele>
        <time>2014-05-20T18:32:39Z</time>
      </trkpt>
      <trkpt lat="59.8449574" lon="17.6495659">
        <ele>4.94385</ele>
        <time>2014-05-20T18:32:40Z</time>
      </trkpt>
      <trkpt lat="59.844932" lon="17.6496076">
        <ele>5.42456</ele>
        <time>2014-05-20T18:32:41Z</time>
      </trkpt>
      <trkpt lat="59.844907" lon="17.6496509">
        <ele>6.38586</ele>
        <time>2014-05-20T18:32:42Z</time>
      </trkpt>
      <trkpt lat="59.844884" lon="17.6496894">
        <ele>6.38586</ele>
        <time>2014-05-20T18:32:43Z</time>
      </trkpt>
      <trkpt lat="59.8448628" lon="17.6497215">
        <ele>5.90527</ele>
        <time>2014-05-20T18:32:44Z</time>
      </trkpt>
      <trkpt lat="59.8448438" lon="17.6497418">
        <ele>5.90527</ele>
        <time>2014-05-20T18:32:45Z</time>
      </trkpt>
      <trkpt lat="59.8448241" lon="17.649786">
        <ele>7.34717</ele>
        <time>2014-05-20T18:32:46Z</time>
      </trkpt>
      <trkpt lat="59.8448003" lon="17.6498218">
        <ele>8.30859</ele>
        <time>2014-05-20T18:32:47Z</time>
      </trkpt>
      <trkpt lat="59.8447716" lon="17.6498578">
        <ele>8.78918</ele>
        <time>2014-05-20T18:32:48Z</time>
      </trkpt>
      <trkpt lat="59.8447451" lon="17.6498841">
        <ele>8.30859</ele>
        <time>2014-05-20T18:32:49Z</time>
      </trkpt>
      <trkpt lat="59.8447186" lon="17.6499153">
        <ele>8.78918</ele>
        <time>2014-05-20T18:32:50Z</time>
      </trkpt>
      <trkpt lat="59.844691" lon="17.6499383">
        <ele>9.2699</ele>
        <time>2014-05-20T18:32:51Z</time>
      </trkpt>
      <trkpt lat="59.8446635" lon="17.6499577">
        <ele>10.2312</ele>
        <time>2014-05-20T18:32:52Z</time>
      </trkpt>
      <trkpt lat="59.8446316" lon="17.6499856">
        <ele>10.2312</ele>
        <time>2014-05-20T18:32:53Z</time>
      </trkpt>
      <trkpt lat="59.8446057" lon="17.6500178">
        <ele>11.1925</ele>
        <time>2014-05-20T18:32:54Z</time>
      </trkpt>
      <trkpt lat="59.8445812" lon="17.6500541">
        <ele>11.1925</ele>
        <time>2014-05-20T18:32:55Z</time>
      </trkpt>
      <trkpt lat="59.8445589" lon="17.6500797">
        <ele>11.6732</ele>
        <time>2014-05-20T18:32:56Z</time>
      </trkpt>
      <trkpt lat="59.844529" lon="17.6501075">
        <ele>12.1538</ele>
        <time>2014-05-20T18:32:57Z</time>
      </trkpt>
      <trkpt lat="59.8444957" lon="17.6501315">
        <ele>12.1538</ele>
        <time>2014-05-20T18:32:58Z</time>
      </trkpt>
      <trkpt lat="59.8444715" lon="17.6501743">
        <ele>13.1151</ele>
        <time>2014-05-20T18:32:59Z</time>
      </trkpt>
      <trkpt lat="59.8444496" lon="17.6502147">
        <ele>13.1151</ele>
        <time>2014-05-20T18:33:00Z</time>
      </trkpt>
      <trkpt lat="59.8444244" lon="17.6502494">
        <ele>13.5958</ele>
        <time>2014-05-20T18:33:01Z</time>
      </trkpt>
      <trkpt lat="59.844399" lon="17.6502892">
        <ele>14.0764</ele>
        <time>2014-05-20T18:33:02Z</time>
      </trkpt>
      <trkpt lat="59.8443762" lon="17.6503347">
        <ele>13.5958</ele>
        <time>2014-05-20T18:33:03Z</time>
      </trkpt>
      <trkpt lat="59.8443509" lon="17.6503737">
        <ele>13.5958</ele>
        <time>2014-05-20T18:33:04Z</time>
      </trkpt>
      <trkpt lat="59.8443256" lon="17.6504181">
        <ele>14.0764</ele>
        <time>2014-05-20T18:33:05Z</time>
      </trkpt>
      <trkpt lat="59.844299" lon="17.6504493">
        <ele>13.5958</ele>
        <time>2014-05-20T18:33:06Z</time>
      </trkpt>
      <trkpt lat="59.8442712" lon="17.6504917">
        <ele>14.0764</ele>
        <time>2014-05-20T18:33:07Z</time>
      </trkpt>
      <trkpt lat="59.8442436" lon="17.6505568">
        <ele>14.557</ele>
        <time>2014-05-20T18:33:08Z</time>
      </trkpt>
      <trkpt lat="59.8442182" lon="17.650611">
        <ele>15.999</ele>
        <time>2014-05-20T18:33:09Z</time>
      </trkpt>
      <trkpt lat="59.8441959" lon="17.6506664">
        <ele>17.4412</ele>
        <time>2014-05-20T18:33:10Z</time>
      </trkpt>
      <trkpt lat="59.8441738" lon="17.6507">
        <ele>17.4412</ele>
        <time>2014-05-20T18:33:11Z</time>
      </trkpt>
      <trkpt lat="59.8441541" lon="17.650744">
        <ele>17.4412</ele>
        <time>2014-05-20T18:33:12Z</time>
      </trkpt>
      <trkpt lat="59.8441379" lon="17.6507736">
        <ele>16.9604</ele>
        <time>2014-05-20T18:33:13Z</time>
      </trkpt>
      <trkpt lat="59.8441193" lon="17.6508032">
        <ele>16.9604</ele>
        <time>2014-05-20T18:33:14Z</time>
      </trkpt>
      <trkpt lat="59.8441005" lon="17.6508247">
        <ele>16.9604</ele>
        <time>2014-05-20T18:33:15Z</time>
      </trkpt>
      <trkpt lat="59.8440818" lon="17.6508475">
        <ele>16.9604</ele>
        <time>2014-05-20T18:33:16Z</time>
      </trkpt>
      <trkpt lat="59.8440626" lon="17.6508735">
        <ele>16.9604</ele>
        <time>2014-05-20T18:33:17Z</time>
      </trkpt>
      <trkpt lat="59.8440417" lon="17.6509186">
        <ele>16.9604</ele>
        <time>2014-05-20T18:33:18Z</time>
      </trkpt>
      <trkpt lat="59.844023" lon="17.6509804">
        <ele>17.4412</ele>
        <time>2014-05-20T18:33:19Z</time>
      </trkpt>
      <trkpt lat="59.8440089" lon="17.6510263">
        <ele>17.9218</ele>
        <time>2014-05-20T18:33:20Z</time>
      </trkpt>
      <trkpt lat="59.843992" lon="17.6510565">
        <ele>17.9218</ele>
        <time>2014-05-20T18:33:21Z</time>
      </trkpt>
      <trkpt lat="59.8439751" lon="17.6510818">
        <ele>17.9218</ele>
        <time>2014-05-20T18:33:22Z</time>
      </trkpt>
      <trkpt lat="59.8439515" lon="17.6511181">
        <ele>17.9218</ele>
        <time>2014-05-20T18:33:23Z</time>
      </trkpt>
      <trkpt lat="59.8439296" lon="17.651159">
        <ele>17.9218</ele>
        <time>2014-05-20T18:33:24Z</time>
      </trkpt>
      <trkpt lat="59.8439069" lon="17.6511925">
        <ele>16.9604</ele>
        <time>2014-05-20T18:33:25Z</time>
      </trkpt>
      <trkpt lat="59.8438855" lon="17.651221">
        <ele>16.4797</ele>
        <time>2014-05-20T18:33:26Z</time>
      </trkpt>
      <trkpt lat="59.8438624" lon="17.6512465">
        <ele>16.4797</ele>
        <time>2014-05-20T18:33:27Z</time>
      </trkpt>
      <trkpt lat="59.8438376" lon="17.6512743">
        <ele>16.4797</ele>
        <time>2014-05-20T18:33:28Z</time>
      </trkpt>
      <trkpt lat="59.8438105" lon="17.6513064">
        <ele>15.5184</ele>
        <time>2014-05-20T18:33:29Z</time>
      </trkpt>
      <trkpt lat="59.8437837" lon="17.6513418">
        <ele>15.5184</ele>
        <time>2014-05-20T18:33:30Z</time>
      </trkpt>
      <trkpt lat="59.8437581" lon="17.6513781">
        <ele>15.0377</ele>
        <time>2014-05-20T18:33:31Z</time>
      </trkpt>
      <trkpt lat="59.8437317" lon="17.6514176">
        <ele>15.0377</ele>
        <time>2014-05-20T18:33:32Z</time>
      </trkpt>
      <trkpt lat="59.8437019" lon="17.6514537">
        <ele>15.0377</ele>
        <time>2014-05-20T18:33:33Z</time>
      </trkpt>
      <trkpt lat="59.8436779" lon="17.6514779">
        <ele>14.0764</ele>
        <time>2014-05-20T18:33:34Z</time>
      </trkpt>
      <trkpt lat="59.8436536" lon="17.6515101">
        <ele>14.0764</ele>
        <time>2014-05-20T18:33:35Z</time>
      </trkpt>
      <trkpt lat="59.8436297" lon="17.6515407">
        <ele>14.0764</ele>
        <time>2014-05-20T18:33:36Z</time>
      </trkpt>
      <trkpt lat="59.8436065" lon="17.6515561">
        <ele>14.0764</ele>
        <time>2014-05-20T18:33:37Z</time>
      </trkpt>
      <trkpt lat="59.8435857" lon="17.6515737">
        <ele>15.0377</ele>
        <time>2014-05-20T18:33:38Z</time>
      </trkpt>
      <trkpt lat="59.843565" lon="17.6515927">
        <ele>15.5184</ele>
        <time>2014-05-20T18:33:39Z</time>
      </trkpt>
      <trkpt lat="59.8435412" lon="17.6516129">
        <ele>15.999</ele>
        <time>2014-05-20T18:33:40Z</time>
      </trkpt>
      <trkpt lat="59.8435148" lon="17.6516407">
        <ele>16.4797</ele>
        <time>2014-05-20T18:33:41Z</time>
      </trkpt>
      <trkpt lat="59.8434941" lon="17.6516603">
        <ele>16.9604</ele>
        <time>2014-05-20T18:33:42Z</time>
      </trkpt>
      <trkpt lat="59.8434738" lon="17.651677">
        <ele>16.4797</ele>
        <time>2014-05-20T18:33:43Z</time>
      </trkpt>
      <trkpt lat="59.8434511" lon="17.6516903">
        <ele>15.5184</ele>
        <time>2014-05-20T18:33:44Z</time>
      </trkpt>
      <trkpt lat="59.8434242" lon="17.6517064">
        <ele>15.0377</ele>
        <time>2014-05-20T18:33:45Z</time>
      </trkpt>
      <trkpt lat="59.8434003" lon="17.6517283">
        <ele>14.557</ele>
        <time>2014-05-20T18:33:46Z</time>
      </trkpt>
      <trkpt lat="59.8433786" lon="17.6517614">
        <ele>14.557</ele>
        <time>2014-05-20T18:33:47Z</time>
      </trkpt>
      <trkpt lat="59.8433588" lon="17.6517895">
        <ele>14.0764</ele>
        <time>2014-05-20T18:33:48Z</time>
      </trkpt>
      <trkpt lat="59.8433335" lon="17.6518194">
        <ele>13.5958</ele>
        <time>2014-05-20T18:33:49Z</time>
      </trkpt>
      <trkpt lat="59.8433066" lon="17.6518342">
        <ele>13.1151</ele>
        <time>2014-05-20T18:33:50Z</time>
      </trkpt>
      <trkpt lat="59.8432807" lon="17.6518562">
        <ele>13.5958</ele>
        <time>2014-05-20T18:33:51Z</time>
      </trkpt>
      <trkpt lat="59.8432514" lon="17.6518857">
        <ele>13.5958</ele>
        <time>2014-05-20T18:33:52Z</time>
      </trkpt>
      <trkpt lat="59.8432201" lon="17.6519066">
        <ele>12.1538</ele>
        <time>2014-05-20T18:33:53Z</time>
      </trkpt>
      <trkpt lat="59.8431943" lon="17.6519302">
        <ele>12.1538</ele>
        <time>2014-05-20T18:33:54Z</time>
      </trkpt>
      <trkpt lat="59.8431592" lon="17.6519474">
        <ele>11.6732</ele>
        <time>2014-05-20T18:33:55Z</time>
      </trkpt>
      <trkpt lat="59.8431283" lon="17.6519607">
        <ele>11.6732</ele>
        <time>2014-05-20T18:33:56Z</time>
      </trkpt>
      <trkpt lat="59.8431038" lon="17.6519656">
        <ele>11.1925</ele>
        <time>2014-05-20T18:33:57Z</time>
      </trkpt>
      <trkpt lat="59.843077" lon="17.6519759">
        <ele>10.2312</ele>
        <time>2014-05-20T18:33:58Z</time>
      </trkpt>
      <trkpt lat="59.8430525" lon="17.6519917">
        <ele>10.2312</ele>
        <time>2014-05-20T18:33:59Z</time>
      </trkpt>
      <trkpt lat="59.8430237" lon="17.6520093">
        <ele>10.2312</ele>
        <time>2014-05-20T18:34:00Z</time>
      </trkpt>
      <trkpt lat="59.8429917" lon="17.6520158">
        <ele>9.75061</ele>
        <time>2014-05-20T18:34:01Z</time>
      </trkpt>
      <trkpt lat="59.8429563" lon="17.6520307">
        <ele>8.30859</ele>
        <time>2014-05-20T18:34:02Z</time>
      </trkpt>
      <trkpt lat="59.8429252" lon="17.6520468">
        <ele>7.82788</ele>
        <time>2014-05-20T18:34:03Z</time>
      </trkpt>
      <trkpt lat="59.8428947" lon="17.6520536">
        <ele>7.82788</ele>
        <time>2014-05-20T18:34:04Z</time>
      </trkpt>
      <trkpt lat="59.8428704" lon="17.6520494">
        <ele>7.82788</ele>
        <time>2014-05-20T18:34:05Z</time>
      </trkpt>
      <trkpt lat="59.8428455" lon="17.6520506">
        <ele>7.82788</ele>
        <time>2014-05-20T18:34:06Z</time>
      </trkpt>
      <trkpt lat="59.8428182" lon="17.6520494">
        <ele>7.34717</ele>
        <time>2014-05-20T18:34:07Z</time>
      </trkpt>
      <trkpt lat="59.84279" lon="17.6520525">
        <ele>7.82788</ele>
        <time>2014-05-20T18:34:08Z</time>
      </trkpt>
      <trkpt lat="59.8427601" lon="17.6520639">
        <ele>7.34717</ele>
        <time>2014-05-20T18:34:09Z</time>
      </trkpt>
      <trkpt lat="59.8427319" lon="17.6520969">
        <ele>7.82788</ele>
        <time>2014-05-20T18:34:10Z</time>
      </trkpt>
      <trkpt lat="59.842705" lon="17.6521143">
        <ele>8.30859</ele>
        <time>2014-05-20T18:34:11Z</time>
      </trkpt>
      <trkpt lat="59.8426725" lon="17.6521292">
        <ele>8.30859</ele>
        <time>2014-05-20T18:34:12Z</time>
      </trkpt>
      <trkpt lat="59.8426374" lon="17.6521458">
        <ele>7.82788</ele>
        <time>2014-05-20T18:34:13Z</time>
      </trkpt>
      <trkpt lat="59.8426071" lon="17.652166">
        <ele>8.30859</ele>
        <time>2014-05-20T18:34:14Z</time>
      </trkpt>
      <trkpt lat="59.8425777" lon="17.6521712">
        <ele>7.82788</ele>
        <time>2014-05-20T18:34:15Z</time>
      </trkpt>
      <trkpt lat="59.8425498" lon="17.6521805">
        <ele>6.86646</ele>
        <time>2014-05-20T18:34:16Z</time>
      </trkpt>
      <trkpt lat="59.8425222" lon="17.6521877">
        <ele>6.86646</ele>
        <time>2014-05-20T18:34:17Z</time>
      </trkpt>
      <trkpt lat="59.8424903" lon="17.6521818">
        <ele>5.90527</ele>
        <time>2014-05-20T18:34:18Z</time>
      </trkpt>
      <trkpt lat="59.8424613" lon="17.6521834">
        <ele>5.90527</ele>
        <time>2014-05-20T18:34:19Z</time>
      </trkpt>
      <trkpt lat="59.8424332" lon="17.6522018">
        <ele>5.90527</ele>
        <time>2014-05-20T18:34:20Z</time>
      </trkpt>
      <trkpt lat="59.8423988" lon="17.6522136">
        <ele>6.38586</ele>
        <time>2014-05-20T18:34:21Z</time>
      </trkpt>
      <trkpt lat="59.8423665" lon="17.65222">
        <ele>6.38586</ele>
        <time>2014-05-20T18:34:22Z</time>
      </trkpt>
      <trkpt lat="59.8423312" lon="17.6522395">
        <ele>6.38586</ele>
        <time>2014-05-20T18:34:23Z</time>
      </trkpt>
      <trkpt lat="59.8422985" lon="17.652251">
        <ele>6.38586</ele>
        <time>2014-05-20T18:34:24Z</time>
      </trkpt>
      <trkpt lat="59.8422695" lon="17.6522706">
        <ele>6.86646</ele>
        <time>2014-05-20T18:34:25Z</time>
      </trkpt>
      <trkpt lat="59.8422424" lon="17.6522927">
        <ele>8.30859</ele>
        <time>2014-05-20T18:34:26Z</time>
      </trkpt>
      <trkpt lat="59.8422176" lon="17.6523079">
        <ele>8.78918</ele>
        <time>2014-05-20T18:34:27Z</time>
      </trkpt>
      <trkpt lat="59.8421921" lon="17.652339">
        <ele>10.2312</ele>
        <time>2014-05-20T18:34:28Z</time>
      </trkpt>
      <trkpt lat="59.8421632" lon="17.6523531">
        <ele>10.7118</ele>
        <time>2014-05-20T18:34:29Z</time>
      </trkpt>
      <trkpt lat="59.8421362" lon="17.6523617">
        <ele>10.7118</ele>
        <time>2014-05-20T18:34:30Z</time>
      </trkpt>
      <trkpt lat="59.8421099" lon="17.6523836">
        <ele>10.7118</ele>
        <time>2014-05-20T18:34:31Z</time>
      </trkpt>
      <trkpt lat="59.8420846" lon="17.6524132">
        <ele>11.1925</ele>
        <time>2014-05-20T18:34:32Z</time>
      </trkpt>
      <trkpt lat="59.8420577" lon="17.6524426">
        <ele>11.6732</ele>
        <time>2014-05-20T18:34:33Z</time>
      </trkpt>
      <trkpt lat="59.8420318" lon="17.6524647">
        <ele>11.1925</ele>
        <time>2014-05-20T18:34:34Z</time>
      </trkpt>
      <trkpt lat="59.8420059" lon="17.6524913">
        <ele>11.1925</ele>
        <time>2014-05-20T18:34:35Z</time>
      </trkpt>
      <trkpt lat="59.8419782" lon="17.6525331">
        <ele>11.1925</ele>
        <time>2014-05-20T18:34:36Z</time>
      </trkpt>
      <trkpt lat="59.8419488" lon="17.6525794">
        <ele>11.1925</ele>
        <time>2014-05-20T18:34:37Z</time>
      </trkpt>
      <trkpt lat="59.8419214" lon="17.652642">
        <ele>12.6344</ele>
        <time>2014-05-20T18:34:38Z</time>
      </trkpt>
      <trkpt lat="59.8418991" lon="17.652697">
        <ele>13.1151</ele>
        <time>2014-05-20T18:34:39Z</time>
      </trkpt>
      <trkpt lat="59.8418741" lon="17.6527275">
        <ele>13.1151</ele>
        <time>2014-05-20T18:34:40Z</time>
      </trkpt>
      <trkpt lat="59.8418473" lon="17.6527518">
        <ele>13.1151</ele>
        <time>2014-05-20T18:34:41Z</time>
      </trkpt>
      <trkpt lat="59.8418244" lon="17.6527696">
        <ele>12.6344</ele>
        <time>2014-05-20T18:34:42Z</time>
      </trkpt>
      <trkpt lat="59.8418068" lon="17.6527822">
        <ele>12.6344</ele>
        <time>2014-05-20T18:34:43Z</time>
      </trkpt>
      <trkpt lat="59.8417898" lon="17.6527977">
        <ele>12.6344</ele>
        <time>2014-05-20T18:34:44Z</time>
      </trkpt>
      <trkpt lat="59.8417682" lon="17.6528131">
        <ele>12.6344</ele>
        <time>2014-05-20T18:34:45Z</time>
      </trkpt>
      <trkpt lat="59.8417414" lon="17.6528309">
        <ele>12.1538</ele>
        <time>2014-05-20T18:34:46Z</time>
      </trkpt>
      <trkpt lat="59.8417138" lon="17.6528544">
        <ele>12.1538</ele>
        <time>2014-05-20T18:34:47Z</time>
      </trkpt>
      <trkpt lat="59.8416831" lon="17.6528886">
        <ele>12.1538</ele>
        <time>2014-05-20T18:34:48Z</time>
      </trkpt>
      <trkpt lat="59.8416568" lon="17.6529239">
        <ele>12.6344</ele>
        <time>2014-05-20T18:34:49Z</time>
      </trkpt>
      <trkpt lat="59.8416334" lon="17.6529543">
        <ele>13.1151</ele>
        <time>2014-05-20T18:34:50Z</time>
      </trkpt>
      <trkpt lat="59.8416106" lon="17.6529858">
        <ele>13.5958</ele>
        <time>2014-05-20T18:34:51Z</time>
      </trkpt>
      <trkpt lat="59.8415863" lon="17.6530158">
        <ele>14.0764</ele>
        <time>2014-05-20T18:34:52Z</time>
      </trkpt>
      <trkpt lat="59.8415579" lon="17.6530464">
        <ele>14.0764</ele>
        <time>2014-05-20T18:34:53Z</time>
      </trkpt>
      <trkpt lat="59.8415287" lon="17.6530702">
        <ele>14.557</ele>
        <time>2014-05-20T18:34:54Z</time>
      </trkpt>
      <trkpt lat="59.8415006" lon="17.6530984">
        <ele>15.0377</ele>
        <time>2014-05-20T18:34:55Z</time>
      </trkpt>
      <trkpt lat="59.8414736" lon="17.653126">
        <ele>15.5184</ele>
        <time>2014-05-20T18:34:56Z</time>
      </trkpt>
      <trkpt lat="59.8414462" lon="17.6531531">
        <ele>15.5184</ele>
        <time>2014-05-20T18:34:57Z</time>
      </trkpt>
      <trkpt lat="59.8414177" lon="17.6531688">
        <ele>15.999</ele>
        <time>2014-05-20T18:34:58Z</time>
      </trkpt>
      <trkpt lat="59.8413908" lon="17.6531803">
        <ele>15.999</ele>
        <time>2014-05-20T18:34:59Z</time>
      </trkpt>
      <trkpt lat="59.8413645" lon="17.6531958">
        <ele>16.4797</ele>
        <time>2014-05-20T18:35:00Z</time>
      </trkpt>
      <trkpt lat="59.8413366" lon="17.6532006">
        <ele>16.4797</ele>
        <time>2014-05-20T18:35:01Z</time>
      </trkpt>
      <trkpt lat="59.8413084" lon="17.6532046">
        <ele>16.4797</ele>
        <time>2014-05-20T18:35:02Z</time>
      </trkpt>
      <trkpt lat="59.8412801" lon="17.6532139">
        <ele>16.9604</ele>
        <time>2014-05-20T18:35:03Z</time>
      </trkpt>
      <trkpt lat="59.8412495" lon="17.6532212">
        <ele>16.9604</ele>
        <time>2014-05-20T18:35:04Z</time>
      </trkpt>
      <trkpt lat="59.8412194" lon="17.653233">
        <ele>17.4412</ele>
        <time>2014-05-20T18:35:05Z</time>
      </trkpt>
      <trkpt lat="59.8411884" lon="17.6532383">
        <ele>17.9218</ele>
        <time>2014-05-20T18:35:06Z</time>
      </trkpt>
      <trkpt lat="59.8411576" lon="17.6532542">
        <ele>18.4023</ele>
        <time>2014-05-20T18:35:07Z</time>
      </trkpt>
      <trkpt lat="59.8411235" lon="17.6532782">
        <ele>19.3638</ele>
        <time>2014-05-20T18:35:08Z</time>
      </trkpt>
      <trkpt lat="59.8410884" lon="17.653307">
        <ele>19.8444</ele>
        <time>2014-05-20T18:35:09Z</time>
      </trkpt>
      <trkpt lat="59.8410558" lon="17.6533249">
        <ele>19.8444</ele>
        <time>2014-05-20T18:35:10Z</time>
      </trkpt>
      <trkpt lat="59.8410238" lon="17.6533243">
        <ele>19.3638</ele>
        <time>2014-05-20T18:35:11Z</time>
      </trkpt>
      <trkpt lat="59.8410019" lon="17.6533091">
        <ele>19.3638</ele>
        <time>2014-05-20T18:35:12Z</time>
      </trkpt>
      <trkpt lat="59.8409812" lon="17.6533056">
        <ele>18.8831</ele>
        <time>2014-05-20T18:35:13Z</time>
      </trkpt>
      <trkpt lat="59.8409506" lon="17.6532902">
        <ele>17.9218</ele>
        <time>2014-05-20T18:35:14Z</time>
      </trkpt>
      <trkpt lat="59.8409163" lon="17.653316">
        <ele>16.9604</ele>
        <time>2014-05-20T18:35:15Z</time>
      </trkpt>
      <trkpt lat="59.840888" lon="17.6533209">
        <ele>16.9604</ele>
        <time>2014-05-20T18:35:16Z</time>
      </trkpt>
      <trkpt lat="59.840861" lon="17.6533337">
        <ele>16.4797</ele>
        <time>2014-05-20T18:35:17Z</time>
      </trkpt>
      <trkpt lat="59.8408347" lon="17.6533446">
        <ele>16.4797</ele>
        <time>2014-05-20T18:35:18Z</time>
      </trkpt>
      <trkpt lat="59.840803" lon="17.6533552">
        <ele>16.4797</ele>
        <time>2014-05-20T18:35:19Z</time>
      </trkpt>
      <trkpt lat="59.8407689" lon="17.6533704">
        <ele>16.9604</ele>
        <time>2014-05-20T18:35:20Z</time>
      </trkpt>
      <trkpt lat="59.8407326" lon="17.6533786">
        <ele>16.4797</ele>
        <time>2014-05-20T18:35:21Z</time>
      </trkpt>
      <trkpt lat="59.8406979" lon="17.6533938">
        <ele>16.4797</ele>
        <time>2014-05-20T18:35:22Z</time>
      </trkpt>
      <trkpt lat="59.8406673" lon="17.6534005">
        <ele>15.999</ele>
        <time>2014-05-20T18:35:23Z</time>
      </trkpt>
      <trkpt lat="59.8406357" lon="17.6534046">
        <ele>15.999</ele>
        <time>2014-05-20T18:35:24Z</time>
      </trkpt>
      <trkpt lat="59.8406032" lon="17.6534056">
        <ele>15.999</ele>
        <time>2014-05-20T18:35:25Z</time>
      </trkpt>
      <trkpt lat="59.8405731" lon="17.6534051">
        <ele>15.5184</ele>
        <time>2014-05-20T18:35:26Z</time>
      </trkpt>
      <trkpt lat="59.840543" lon="17.653417">
        <ele>15.5184</ele>
        <time>2014-05-20T18:35:27Z</time>
      </trkpt>
      <trkpt lat="59.8405146" lon="17.653436">
        <ele>15.5184</ele>
        <time>2014-05-20T18:35:28Z</time>
      </trkpt>
      <trkpt lat="59.8404896" lon="17.6534539">
        <ele>15.5184</ele>
        <time>2014-05-20T18:35:29Z</time>
      </trkpt>
      <trkpt lat="59.8404618" lon="17.6534738">
        <ele>15.999</ele>
        <time>2014-05-20T18:35:30Z</time>
      </trkpt>
      <trkpt lat="59.8404324" lon="17.6534874">
        <ele>16.4797</ele>
        <time>2014-05-20T18:35:31Z</time>
      </trkpt>
      <trkpt lat="59.8404009" lon="17.6535067">
        <ele>16.4797</ele>
        <time>2014-05-20T18:35:32Z</time>
      </trkpt>
      <trkpt lat="59.8403661" lon="17.6535267">
        <ele>17.4412</ele>
        <time>2014-05-20T18:35:33Z</time>
      </trkpt>
      <trkpt lat="59.8403366" lon="17.653546">
        <ele>17.9218</ele>
        <time>2014-05-20T18:35:34Z</time>
      </trkpt>
      <trkpt lat="59.8403094" lon="17.6535544">
        <ele>17.4412</ele>
        <time>2014-05-20T18:35:35Z</time>
      </trkpt>
      <trkpt lat="59.8402824" lon="17.6535548">
        <ele>17.4412</ele>
        <time>2014-05-20T18:35:36Z</time>
      </trkpt>
      <trkpt lat="59.8402518" lon="17.653563">
        <ele>17.9218</ele>
        <time>2014-05-20T18:35:37Z</time>
      </trkpt>
      <trkpt lat="59.8402182" lon="17.6535756">
        <ele>18.8831</ele>
        <time>2014-05-20T18:35:38Z</time>
      </trkpt>
      <trkpt lat="59.8401855" lon="17.6535858">
        <ele>18.8831</ele>
        <time>2014-05-20T18:35:39Z</time>
      </trkpt>
      <trkpt lat="59.8401565" lon="17.6535879">
        <ele>17.4412</ele>
        <time>2014-05-20T18:35:40Z</time>
      </trkpt>
      <trkpt lat="59.8401339" lon="17.6535868">
        <ele>16.4797</ele>
        <time>2014-05-20T18:35:41Z</time>
      </trkpt>
      <trkpt lat="59.8401042" lon="17.6535915">
        <ele>15.999</ele>
        <time>2014-05-20T18:35:42Z</time>
      </trkpt>
      <trkpt lat="59.8400724" lon="17.6535936">
        <ele>15.999</ele>
        <time>2014-05-20T18:35:43Z</time>
      </trkpt>
      <trkpt lat="59.8400442" lon="17.6535944">
        <ele>15.5184</ele>
        <time>2014-05-20T18:35:44Z</time>
      </trkpt>
      <trkpt lat="59.8400149" lon="17.6536013">
        <ele>15.5184</ele>
        <time>2014-05-20T18:35:45Z</time>
      </trkpt>
      <trkpt lat="59.8399847" lon="17.6536033">
        <ele>15.0377</ele>
        <time>2014-05-20T18:35:46Z</time>
      </trkpt>
      <trkpt lat="59.8399569" lon="17.6536132">
        <ele>14.557</ele>
        <time>2014-05-20T18:35:47Z</time>
      </trkpt>
      <trkpt lat="59.8399307" lon="17.6536123">
        <ele>13.5958</ele>
        <time>2014-05-20T18:35:48Z</time>
      </trkpt>
      <trkpt lat="59.8399053" lon="17.6536198">
        <ele>13.5958</ele>
        <time>2014-05-20T18:35:49Z</time>
      </trkpt>
      <trkpt lat="59.8398762" lon="17.6536252">
        <ele>13.5958</ele>
        <time>2014-05-20T18:35:50Z</time>
      </trkpt>
      <trkpt lat="59.8398441" lon="17.6536318">
        <ele>14.0764</ele>
        <time>2014-05-20T18:35:51Z</time>
      </trkpt>
      <trkpt lat="59.8398141" lon="17.6536403">
        <ele>13.5958</ele>
        <time>2014-05-20T18:35:52Z</time>
      </trkpt>
      <trkpt lat="59.8397837" lon="17.6536519">
        <ele>13.1151</ele>
        <time>2014-05-20T18:35:53Z</time>
      </trkpt>
      <trkpt lat="59.8397561" lon="17.653652">
        <ele>12.6344</ele>
        <time>2014-05-20T18:35:54Z</time>
      </trkpt>
      <trkpt lat="59.8397305" lon="17.6536515">
        <ele>11.6732</ele>
        <time>2014-05-20T18:35:55Z</time>
      </trkpt>
      <trkpt lat="59.839701" lon="17.6536552">
        <ele>11.1925</ele>
        <time>2014-05-20T18:35:56Z</time>
      </trkpt>
      <trkpt lat="59.839671" lon="17.6536588">
        <ele>10.7118</ele>
        <time>2014-05-20T18:35:57Z</time>
      </trkpt>
      <trkpt lat="59.8396406" lon="17.6536688">
        <ele>10.7118</ele>
        <time>2014-05-20T18:35:58Z</time>
      </trkpt>
      <trkpt lat="59.8396147" lon="17.6536806">
        <ele>10.7118</ele>
        <time>2014-05-20T18:35:59Z</time>
      </trkpt>
      <trkpt lat="59.8395887" lon="17.6536781">
        <ele>10.2312</ele>
        <time>2014-05-20T18:36:00Z</time>
      </trkpt>
      <trkpt lat="59.8395608" lon="17.6536775">
        <ele>10.2312</ele>
        <time>2014-05-20T18:36:01Z</time>
      </trkpt>
      <trkpt lat="59.8395303" lon="17.6536796">
        <ele>9.75061</ele>
        <time>2014-05-20T18:36:02Z</time>
      </trkpt>
      <trkpt lat="59.8395019" lon="17.653678">
        <ele>10.2312</ele>
        <time>2014-05-20T18:36:03Z</time>
      </trkpt>
      <trkpt lat="59.8394742" lon="17.6536734">
        <ele>10.2312</ele>
        <time>2014-05-20T18:36:04Z</time>
      </trkpt>
      <trkpt lat="59.8394463" lon="17.6536744">
        <ele>9.75061</ele>
        <time>2014-05-20T18:36:05Z</time>
      </trkpt>
      <trkpt lat="59.8394199" lon="17.6536698">
        <ele>9.75061</ele>
        <time>2014-05-20T18:36:06Z</time>
      </trkpt>
      <trkpt lat="59.8393935" lon="17.6536696">
        <ele>9.75061</ele>
        <time>2014-05-20T18:36:07Z</time>
      </trkpt>
      <trkpt lat="59.8393666" lon="17.653669">
        <ele>9.2699</ele>
        <time>2014-05-20T18:36:08Z</time>
      </trkpt>
      <trkpt lat="59.8393379" lon="17.6536619">
        <ele>9.2699</ele>
        <time>2014-05-20T18:36:09Z</time>
      </trkpt>
      <trkpt lat="59.8393135" lon="17.6536584">
        <ele>8.78918</ele>
        <time>2014-05-20T18:36:10Z</time>
      </trkpt>
      <trkpt lat="59.8392883" lon="17.6536625">
        <ele>8.78918</ele>
        <time>2014-05-20T18:36:11Z</time>
      </trkpt>
      <trkpt lat="59.839263" lon="17.6536723">
        <ele>9.2699</ele>
        <time>2014-05-20T18:36:12Z</time>
      </trkpt>
      <trkpt lat="59.8392386" lon="17.6536775">
        <ele>8.78918</ele>
        <time>2014-05-20T18:36:13Z</time>
      </trkpt>
      <trkpt lat="59.8392144" lon="17.6536843">
        <ele>8.30859</ele>
        <time>2014-05-20T18:36:14Z</time>
      </trkpt>
      <trkpt lat="59.8391925" lon="17.6536877">
        <ele>8.78918</ele>
        <time>2014-05-20T18:36:15Z</time>
      </trkpt>
      <trkpt lat="59.8391726" lon="17.6536905">
        <ele>9.2699</ele>
        <time>2014-05-20T18:36:16Z</time>
      </trkpt>
      <trkpt lat="59.839149" lon="17.6536978">
        <ele>9.75061</ele>
        <time>2014-05-20T18:36:17Z</time>
      </trkpt>
      <trkpt lat="59.8391255" lon="17.6537205">
        <ele>9.75061</ele>
        <time>2014-05-20T18:36:18Z</time>
      </trkpt>
      <trkpt lat="59.839105" lon="17.6537403">
        <ele>10.2312</ele>
        <time>2014-05-20T18:36:19Z</time>
      </trkpt>
      <trkpt lat="59.8390761" lon="17.6537369">
        <ele>11.1925</ele>
        <time>2014-05-20T18:36:20Z</time>
      </trkpt>
      <trkpt lat="59.8390475" lon="17.6537157">
        <ele>11.6732</ele>
        <time>2014-05-20T18:36:21Z</time>
      </trkpt>
      <trkpt lat="59.8390174" lon="17.6536987">
        <ele>12.1538</ele>
        <time>2014-05-20T18:36:22Z</time>
      </trkpt>
      <trkpt lat="59.8389874" lon="17.6536771">
        <ele>12.1538</ele>
        <time>2014-05-20T18:36:23Z</time>
      </trkpt>
      <trkpt lat="59.8389585" lon="17.6536616">
        <ele>12.6344</ele>
        <time>2014-05-20T18:36:24Z</time>
      </trkpt>
      <trkpt lat="59.838929" lon="17.6536473">
        <ele>13.5958</ele>
        <time>2014-05-20T18:36:25Z</time>
      </trkpt>
      <trkpt lat="59.8389003" lon="17.6536348">
        <ele>13.5958</ele>
        <time>2014-05-20T18:36:26Z</time>
      </trkpt>
      <trkpt lat="59.8388722" lon="17.6536277">
        <ele>14.557</ele>
        <time>2014-05-20T18:36:27Z</time>
      </trkpt>
      <trkpt lat="59.8388401" lon="17.6536226">
        <ele>15.0377</ele>
        <time>2014-05-20T18:36:28Z</time>
      </trkpt>
      <trkpt lat="59.8388045" lon="17.6536314">
        <ele>16.9604</ele>
        <time>2014-05-20T18:36:29Z</time>
      </trkpt>
      <trkpt lat="59.8387756" lon="17.6536366">
        <ele>18.4023</ele>
        <time>2014-05-20T18:36:30Z</time>
      </trkpt>
      <trkpt lat="59.8387513" lon="17.6536356">
        <ele>20.325</ele>
        <time>2014-05-20T18:36:31Z</time>
      </trkpt>
      <trkpt lat="59.8387236" lon="17.6536289">
        <ele>21.2864</ele>
        <time>2014-05-20T18:36:32Z</time>
      </trkpt>
      <trkpt lat="59.8387018" lon="17.6536153">
        <ele>21.767</ele>
        <time>2014-05-20T18:36:33Z</time>
      </trkpt>
      <trkpt lat="59.8386808" lon="17.6536071">
        <ele>22.2476</ele>
        <time>2014-05-20T18:36:34Z</time>
      </trkpt>
      <trkpt lat="59.8386533" lon="17.6536098">
        <ele>22.7283</ele>
        <time>2014-05-20T18:36:35Z</time>
      </trkpt>
      <trkpt lat="59.8386258" lon="17.6536155">
        <ele>23.209</ele>
        <time>2014-05-20T18:36:36Z</time>
      </trkpt>
      <trkpt lat="59.8385932" lon="17.6536108">
        <ele>22.2476</ele>
        <time>2014-05-20T18:36:37Z</time>
      </trkpt>
      <trkpt lat="59.8385673" lon="17.6536172">
        <ele>22.7283</ele>
        <time>2014-05-20T18:36:38Z</time>
      </trkpt>
      <trkpt lat="59.8385455" lon="17.6536366">
        <ele>23.209</ele>
        <time>2014-05-20T18:36:39Z</time>
      </trkpt>
      <trkpt lat="59.8385166" lon="17.6536541">
        <ele>23.209</ele>
        <time>2014-05-20T18:36:40Z</time>
      </trkpt>
      <trkpt lat="59.8384821" lon="17.6536765">
        <ele>23.6896</ele>
        <time>2014-05-20T18:36:41Z</time>
      </trkpt>
      <trkpt lat="59.8384503" lon="17.6536924">
        <ele>23.6896</ele>
        <time>2014-05-20T18:36:42Z</time>
      </trkpt>
      <trkpt lat="59.8384186" lon="17.6537041">
        <ele>23.6896</ele>
        <time>2014-05-20T18:36:43Z</time>
      </trkpt>
      <trkpt lat="59.838384" lon="17.6537269">
        <ele>23.209</ele>
        <time>2014-05-20T18:36:44Z</time>
      </trkpt>
      <trkpt lat="59.8383497" lon="17.6537465">
        <ele>23.209</ele>
        <time>2014-05-20T18:36:45Z</time>
      </trkpt>
      <trkpt lat="59.8383181" lon="17.6537568">
        <ele>23.6896</ele>
        <time>2014-05-20T18:36:46Z</time>
      </trkpt>
      <trkpt lat="59.8382901" lon="17.6537688">
        <ele>22.7283</ele>
        <time>2014-05-20T18:36:47Z</time>
      </trkpt>
      <trkpt lat="59.8382632" lon="17.6537747">
        <ele>22.7283</ele>
        <time>2014-05-20T18:36:48Z</time>
      </trkpt>
      <trkpt lat="59.8382366" lon="17.6537841">
        <ele>22.7283</ele>
        <time>2014-05-20T18:36:49Z</time>
      </trkpt>
      <trkpt lat="59.8382094" lon="17.6537882">
        <ele>22.2476</ele>
        <time>2014-05-20T18:36:50Z</time>
      </trkpt>
      <trkpt lat="59.8381806" lon="17.65379">
        <ele>22.2476</ele>
        <time>2014-05-20T18:36:51Z</time>
      </trkpt>
      <trkpt lat="59.8381488" lon="17.6537966">
        <ele>22.7283</ele>
        <time>2014-05-20T18:36:52Z</time>
      </trkpt>
      <trkpt lat="59.8381165" lon="17.653803">
        <ele>22.2476</ele>
        <time>2014-05-20T18:36:53Z</time>
      </trkpt>
      <trkpt lat="59.8380862" lon="17.6538089">
        <ele>22.2476</ele>
        <time>2014-05-20T18:36:54Z</time>
      </trkpt>
      <trkpt lat="59.838056" lon="17.6538058">
        <ele>22.2476</ele>
        <time>2014-05-20T18:36:55Z</time>
      </trkpt>
      <trkpt lat="59.8380254" lon="17.6538044">
        <ele>22.2476</ele>
        <time>2014-05-20T18:36:56Z</time>
      </trkpt>
      <trkpt lat="59.8379921" lon="17.6538086">
        <ele>21.767</ele>
        <time>2014-05-20T18:36:57Z</time>
      </trkpt>
      <trkpt lat="59.8379584" lon="17.6538089">
        <ele>21.2864</ele>
        <time>2014-05-20T18:36:58Z</time>
      </trkpt>
      <trkpt lat="59.8379278" lon="17.6537992">
        <ele>21.2864</ele>
        <time>2014-05-20T18:36:59Z</time>
      </trkpt>
      <trkpt lat="59.8378975" lon="17.6537887">
        <ele>21.2864</ele>
        <time>2014-05-20T18:37:00Z</time>
      </trkpt>
      <trkpt lat="59.8378675" lon="17.6537717">
        <ele>21.2864</ele>
        <time>2014-05-20T18:37:01Z</time>
      </trkpt>
      <trkpt lat="59.8378413" lon="17.6537489">
        <ele>20.8057</ele>
        <time>2014-05-20T18:37:02Z</time>
      </trkpt>
      <trkpt lat="59.8378131" lon="17.6537281">
        <ele>20.325</ele>
        <time>2014-05-20T18:37:03Z</time>
      </trkpt>
      <trkpt lat="59.8377872" lon="17.6537116">
        <ele>20.325</ele>
        <time>2014-05-20T18:37:04Z</time>
      </trkpt>
      <trkpt lat="59.8377653" lon="17.6536958">
        <ele>20.325</ele>
        <time>2014-05-20T18:37:05Z</time>
      </trkpt>
      <trkpt lat="59.8377412" lon="17.6536728">
        <ele>19.8444</ele>
        <time>2014-05-20T18:37:06Z</time>
      </trkpt>
      <trkpt lat="59.8377182" lon="17.6536532">
        <ele>19.3638</ele>
        <time>2014-05-20T18:37:07Z</time>
      </trkpt>
      <trkpt lat="59.8376924" lon="17.6536418">
        <ele>19.8444</ele>
        <time>2014-05-20T18:37:08Z</time>
      </trkpt>
      <trkpt lat="59.8376639" lon="17.6536217">
        <ele>18.8831</ele>
        <time>2014-05-20T18:37:09Z</time>
      </trkpt>
      <trkpt lat="59.8376369" lon="17.6536108">
        <ele>19.3638</ele>
        <time>2014-05-20T18:37:10Z</time>
      </trkpt>
      <trkpt lat="59.8376105" lon="17.6535967">
        <ele>19.3638</ele>
        <time>2014-05-20T18:37:11Z</time>
      </trkpt>
      <trkpt lat="59.8375824" lon="17.6535776">
        <ele>18.8831</ele>
        <time>2014-05-20T18:37:12Z</time>
      </trkpt>
      <trkpt lat="59.8375555" lon="17.6535672">
        <ele>18.8831</ele>
        <time>2014-05-20T18:37:13Z</time>
      </trkpt>
      <trkpt lat="59.8375282" lon="17.653543">
        <ele>18.4023</ele>
        <time>2014-05-20T18:37:14Z</time>
      </trkpt>
      <trkpt lat="59.8375054" lon="17.6535307">
        <ele>18.4023</ele>
        <time>2014-05-20T18:37:15Z</time>
      </trkpt>
      <trkpt lat="59.8374795" lon="17.6535215">
        <ele>17.9218</ele>
        <time>2014-05-20T18:37:16Z</time>
      </trkpt>
      <trkpt lat="59.8374523" lon="17.6535097">
        <ele>17.4412</ele>
        <time>2014-05-20T18:37:17Z</time>
      </trkpt>
      <trkpt lat="59.837426" lon="17.6534957">
        <ele>17.4412</ele>
        <time>2014-05-20T18:37:18Z</time>
      </trkpt>
      <trkpt lat="59.8373992" lon="17.6534836">
        <ele>17.4412</ele>
        <time>2014-05-20T18:37:19Z</time>
      </trkpt>
      <trkpt lat="59.8373717" lon="17.6534673">
        <ele>17.4412</ele>
        <time>2014-05-20T18:37:20Z</time>
      </trkpt>
      <trkpt lat="59.8373389" lon="17.6534453">
        <ele>16.9604</ele>
        <time>2014-05-20T18:37:21Z</time>
      </trkpt>
      <trkpt lat="59.8373101" lon="17.6534303">
        <ele>16.4797</ele>
        <time>2014-05-20T18:37:22Z</time>
      </trkpt>
      <trkpt lat="59.8372831" lon="17.6534183">
        <ele>16.4797</ele>
        <time>2014-05-20T18:37:23Z</time>
      </trkpt>
      <trkpt lat="59.8372534" lon="17.6534059">
        <ele>15.999</ele>
        <time>2014-05-20T18:37:24Z</time>
      </trkpt>
      <trkpt lat="59.8372276" lon="17.6533864">
        <ele>15.5184</ele>
        <time>2014-05-20T18:37:25Z</time>
      </trkpt>
      <trkpt lat="59.8372013" lon="17.6533676">
        <ele>15.5184</ele>
        <time>2014-05-20T18:37:26Z</time>
      </trkpt>
      <trkpt lat="59.8371765" lon="17.6533529">
        <ele>15.0377</ele>
        <time>2014-05-20T18:37:27Z</time>
      </trkpt>
      <trkpt lat="59.8371506" lon="17.6533347">
        <ele>15.0377</ele>
        <time>2014-05-20T18:37:28Z</time>
      </trkpt>
      <trkpt lat="59.8371268" lon="17.6533251">
        <ele>15.5184</ele>
        <time>2014-05-20T18:37:29Z</time>
      </trkpt>
      <trkpt lat="59.8371016" lon="17.6533082">
        <ele>15.5184</ele>
        <time>2014-05-20T18:37:30Z</time>
      </trkpt>
      <trkpt lat="59.8370739" lon="17.6532988">
        <ele>15.5184</ele>
        <time>2014-05-20T18:37:31Z</time>
      </trkpt>
      <trkpt lat="59.837045" lon="17.6532968">
        <ele>15.0377</ele>
        <time>2014-05-20T18:37:32Z</time>
      </trkpt>
      <trkpt lat="59.837017" lon="17.6532894">
        <ele>14.557</ele>
        <time>2014-05-20T18:37:33Z</time>
      </trkpt>
      <trkpt lat="59.8369894" lon="17.6532839">
        <ele>15.0377</ele>
        <time>2014-05-20T18:37:34Z</time>
      </trkpt>
      <trkpt lat="59.8369646" lon="17.6532624">
        <ele>15.5184</ele>
        <time>2014-05-20T18:37:35Z</time>
      </trkpt>
      <trkpt lat="59.836939" lon="17.6532508">
        <ele>15.0377</ele>
        <time>2014-05-20T18:37:36Z</time>
      </trkpt>
      <trkpt lat="59.8369086" lon="17.6532467">
        <ele>14.557</ele>
        <time>2014-05-20T18:37:37Z</time>
      </trkpt>
      <trkpt lat="59.8368817" lon="17.653235">
        <ele>14.557</ele>
        <time>2014-05-20T18:37:38Z</time>
      </trkpt>
      <trkpt lat="59.8368546" lon="17.6532196">
        <ele>14.0764</ele>
        <time>2014-05-20T18:37:39Z</time>
      </trkpt>
      <trkpt lat="59.8368333" lon="17.6532082">
        <ele>14.0764</ele>
        <time>2014-05-20T18:37:40Z</time>
      </trkpt>
      <trkpt lat="59.8368147" lon="17.6532033">
        <ele>14.0764</ele>
        <time>2014-05-20T18:37:41Z</time>
      </trkpt>
      <trkpt lat="59.8367977" lon="17.6531961">
        <ele>13.5958</ele>
        <time>2014-05-20T18:37:42Z</time>
      </trkpt>
      <trkpt lat="59.8367828" lon="17.6531948">
        <ele>13.1151</ele>
        <time>2014-05-20T18:37:43Z</time>
      </trkpt>
      <trkpt lat="59.8367646" lon="17.653204">
        <ele>14.0764</ele>
        <time>2014-05-20T18:37:44Z</time>
      </trkpt>
      <trkpt lat="59.8367497" lon="17.6532087">
        <ele>14.557</ele>
        <time>2014-05-20T18:37:45Z</time>
      </trkpt>
      <trkpt lat="59.8367309" lon="17.6531875">
        <ele>14.0764</ele>
        <time>2014-05-20T18:37:46Z</time>
      </trkpt>
      <trkpt lat="59.8367092" lon="17.6531663">
        <ele>13.5958</ele>
        <time>2014-05-20T18:37:47Z</time>
      </trkpt>
      <trkpt lat="59.8366883" lon="17.6531532">
        <ele>13.5958</ele>
        <time>2014-05-20T18:37:48Z</time>
      </trkpt>
      <trkpt lat="59.8366641" lon="17.6531539">
        <ele>14.0764</ele>
        <time>2014-05-20T18:37:49Z</time>
      </trkpt>
      <trkpt lat="59.836636" lon="17.6531403">
        <ele>13.5958</ele>
        <time>2014-05-20T18:37:50Z</time>
      </trkpt>
      <trkpt lat="59.8366057" lon="17.6531252">
        <ele>13.5958</ele>
        <time>2014-05-20T18:37:51Z</time>
      </trkpt>
      <trkpt lat="59.836575" lon="17.653113">
        <ele>14.0764</ele>
        <time>2014-05-20T18:37:52Z</time>
      </trkpt>
      <trkpt lat="59.836542" lon="17.6530931">
        <ele>13.1151</ele>
        <time>2014-05-20T18:37:53Z</time>
      </trkpt>
      <trkpt lat="59.8365087" lon="17.6530767">
        <ele>13.1151</ele>
        <time>2014-05-20T18:37:54Z</time>
      </trkpt>
      <trkpt lat="59.8364751" lon="17.653059">
        <ele>13.1151</ele>
        <time>2014-05-20T18:37:55Z</time>
      </trkpt>
      <trkpt lat="59.8364418" lon="17.6530381">
        <ele>13.1151</ele>
        <time>2014-05-20T18:37:56Z</time>
      </trkpt>
      <trkpt lat="59.8364104" lon="17.6530166">
        <ele>13.1151</ele>
        <time>2014-05-20T18:37:57Z</time>
      </trkpt>
      <trkpt lat="59.8363798" lon="17.6529957">
        <ele>13.1151</ele>
        <time>2014-05-20T18:37:58Z</time>
      </trkpt>
      <trkpt lat="59.8363486" lon="17.6529811">
        <ele>13.1151</ele>
        <time>2014-05-20T18:37:59Z</time>
      </trkpt>
      <trkpt lat="59.83632" lon="17.6529539">
        <ele>13.1151</ele>
        <time>2014-05-20T18:38:00Z</time>
      </trkpt>
      <trkpt lat="59.8362909" lon="17.652939">
        <ele>13.1151</ele>
        <time>2014-05-20T18:38:01Z</time>
      </trkpt>
      <trkpt lat="59.83626" lon="17.6529233">
        <ele>13.5958</ele>
        <time>2014-05-20T18:38:02Z</time>
      </trkpt>
      <trkpt lat="59.8362284" lon="17.652904">
        <ele>13.5958</ele>
        <time>2014-05-20T18:38:03Z</time>
      </trkpt>
      <trkpt lat="59.8361977" lon="17.6528875">
        <ele>14.0764</ele>
        <time>2014-05-20T18:38:04Z</time>
      </trkpt>
      <trkpt lat="59.8361664" lon="17.6528589">
        <ele>13.5958</ele>
        <time>2014-05-20T18:38:05Z</time>
      </trkpt>
      <trkpt lat="59.8361363" lon="17.6528385">
        <ele>14.0764</ele>
        <time>2014-05-20T18:38:06Z</time>
      </trkpt>
      <trkpt lat="59.8361076" lon="17.6528258">
        <ele>15.0377</ele>
        <time>2014-05-20T18:38:07Z</time>
      </trkpt>
      <trkpt lat="59.8360793" lon="17.6528074">
        <ele>15.0377</ele>
        <time>2014-05-20T18:38:08Z</time>
      </trkpt>
      <trkpt lat="59.8360503" lon="17.6527886">
        <ele>15.5184</ele>
        <time>2014-05-20T18:38:09Z</time>
      </trkpt>
      <trkpt lat="59.8360243" lon="17.6527664">
        <ele>15.5184</ele>
        <time>2014-05-20T18:38:10Z</time>
      </trkpt>
      <trkpt lat="59.8359981" lon="17.6527489">
        <ele>15.999</ele>
        <time>2014-05-20T18:38:11Z</time>
      </trkpt>
      <trkpt lat="59.8359705" lon="17.652728">
        <ele>16.4797</ele>
        <time>2014-05-20T18:38:12Z</time>
      </trkpt>
      <trkpt lat="59.835944" lon="17.6527069">
        <ele>16.4797</ele>
        <time>2014-05-20T18:38:13Z</time>
      </trkpt>
      <trkpt lat="59.8359171" lon="17.6526928">
        <ele>16.9604</ele>
        <time>2014-05-20T18:38:14Z</time>
      </trkpt>
      <trkpt lat="59.8358906" lon="17.6526796">
        <ele>16.9604</ele>
        <time>2014-05-20T18:38:15Z</time>
      </trkpt>
      <trkpt lat="59.8358648" lon="17.6526726">
        <ele>17.4412</ele>
        <time>2014-05-20T18:38:16Z</time>
      </trkpt>
      <trkpt lat="59.8358363" lon="17.6526694">
        <ele>17.4412</ele>
        <time>2014-05-20T18:38:17Z</time>
      </trkpt>
      <trkpt lat="59.8358095" lon="17.6526622">
        <ele>17.4412</ele>
        <time>2014-05-20T18:38:18Z</time>
      </trkpt>
      <trkpt lat="59.8357841" lon="17.6526617">
        <ele>17.9218</ele>
        <time>2014-05-20T18:38:19Z</time>
      </trkpt>
      <trkpt lat="59.8357559" lon="17.652666">
        <ele>17.9218</ele>
        <time>2014-05-20T18:38:20Z</time>
      </trkpt>
      <trkpt lat="59.8357264" lon="17.6526679">
        <ele>17.9218</ele>
        <time>2014-05-20T18:38:21Z</time>
      </trkpt>
      <trkpt lat="59.8356978" lon="17.6526731">
        <ele>18.4023</ele>
        <time>2014-05-20T18:38:22Z</time>
      </trkpt>
      <trkpt lat="59.8356683" lon="17.6526771">
        <ele>18.8831</ele>
        <time>2014-05-20T18:38:23Z</time>
      </trkpt>
      <trkpt lat="59.8356403" lon="17.6526822">
        <ele>18.8831</ele>
        <time>2014-05-20T18:38:24Z</time>
      </trkpt>
      <trkpt lat="59.8356127" lon="17.6526944">
        <ele>19.3638</ele>
        <time>2014-05-20T18:38:25Z</time>
      </trkpt>
      <trkpt lat="59.835582" lon="17.6527011">
        <ele>19.3638</ele>
        <time>2014-05-20T18:38:26Z</time>
      </trkpt>
      <trkpt lat="59.8355521" lon="17.6527057">
        <ele>18.8831</ele>
        <time>2014-05-20T18:38:27Z</time>
      </trkpt>
      <trkpt lat="59.8355222" lon="17.6527178">
        <ele>18.8831</ele>
        <time>2014-05-20T18:38:28Z</time>
      </trkpt>
      <trkpt lat="59.8354918" lon="17.6527263">
        <ele>18.8831</ele>
        <time>2014-05-20T18:38:29Z</time>
      </trkpt>
      <trkpt lat="59.8354658" lon="17.6527274">
        <ele>18.8831</ele>
        <time>2014-05-20T18:38:30Z</time>
      </trkpt>
      <trkpt lat="59.835436" lon="17.6527343">
        <ele>18.8831</ele>
        <time>2014-05-20T18:38:31Z</time>
      </trkpt>
      <trkpt lat="59.8354053" lon="17.6527394">
        <ele>18.8831</ele>
        <time>2014-05-20T18:38:32Z</time>
      </trkpt>
      <trkpt lat="59.835379" lon="17.6527419">
        <ele>18.8831</ele>
        <time>2014-05-20T18:38:33Z</time>
      </trkpt>
      <trkpt lat="59.8353488" lon="17.6527485">
        <ele>19.3638</ele>
        <time>2014-05-20T18:38:34Z</time>
      </trkpt>
      <trkpt lat="59.8353187" lon="17.6527471">
        <ele>18.4023</ele>
        <time>2014-05-20T18:38:35Z</time>
      </trkpt>
      <trkpt lat="59.8352913" lon="17.6527503">
        <ele>18.4023</ele>
        <time>2014-05-20T18:38:36Z</time>
      </trkpt>
      <trkpt lat="59.8352639" lon="17.6527508">
        <ele>17.9218</ele>
        <time>2014-05-20T18:38:37Z</time>
      </trkpt>
      <trkpt lat="59.8352387" lon="17.652755">
        <ele>17.4412</ele>
        <time>2014-05-20T18:38:38Z</time>
      </trkpt>
      <trkpt lat="59.8352116" lon="17.6527632">
        <ele>17.4412</ele>
        <time>2014-05-20T18:38:39Z</time>
      </trkpt>
      <trkpt lat="59.8351815" lon="17.6527809">
        <ele>17.9218</ele>
        <time>2014-05-20T18:38:40Z</time>
      </trkpt>
      <trkpt lat="59.8351563" lon="17.652786">
        <ele>18.4023</ele>
        <time>2014-05-20T18:38:41Z</time>
      </trkpt>
      <trkpt lat="59.835133" lon="17.6527827">
        <ele>18.4023</ele>
        <time>2014-05-20T18:38:42Z</time>
      </trkpt>
      <trkpt lat="59.8351058" lon="17.6527858">
        <ele>18.4023</ele>
        <time>2014-05-20T18:38:43Z</time>
      </trkpt>
      <trkpt lat="59.8350776" lon="17.6527994">
        <ele>18.8831</ele>
        <time>2014-05-20T18:38:44Z</time>
      </trkpt>
      <trkpt lat="59.8350493" lon="17.6528009">
        <ele>18.4023</ele>
        <time>2014-05-20T18:38:45Z</time>
      </trkpt>
      <trkpt lat="59.8350203" lon="17.6528068">
        <ele>18.4023</ele>
        <time>2014-05-20T18:38:46Z</time>
      </trkpt>
      <trkpt lat="59.8349929" lon="17.6528217">
        <ele>18.8831</ele>
        <time>2014-05-20T18:38:47Z</time>
      </trkpt>
      <trkpt lat="59.8349635" lon="17.6528363">
        <ele>19.3638</ele>
        <time>2014-05-20T18:38:48Z</time>
      </trkpt>
      <trkpt lat="59.8349363" lon="17.6528501">
        <ele>19.3638</ele>
        <time>2014-05-20T18:38:49Z</time>
      </trkpt>
      <trkpt lat="59.8349084" lon="17.6528616">
        <ele>19.3638</ele>
        <time>2014-05-20T18:38:50Z</time>
      </trkpt>
      <trkpt lat="59.8348792" lon="17.6528693">
        <ele>19.3638</ele>
        <time>2014-05-20T18:38:51Z</time>
      </trkpt>
      <trkpt lat="59.8348517" lon="17.6528778">
        <ele>18.8831</ele>
        <time>2014-05-20T18:38:52Z</time>
      </trkpt>
      <trkpt lat="59.8348245" lon="17.6528827">
        <ele>19.3638</ele>
        <time>2014-05-20T18:38:53Z</time>
      </trkpt>
      <trkpt lat="59.8348001" lon="17.652882">
        <ele>18.8831</ele>
        <time>2014-05-20T18:38:54Z</time>
      </trkpt>
      <trkpt lat="59.8347761" lon="17.6528977">
        <ele>19.3638</ele>
        <time>2014-05-20T18:38:55Z</time>
      </trkpt>
      <trkpt lat="59.8347499" lon="17.6529042">
        <ele>18.4023</ele>
        <time>2014-05-20T18:38:56Z</time>
      </trkpt>
      <trkpt lat="59.8347255" lon="17.652916">
        <ele>18.8831</ele>
        <time>2014-05-20T18:38:57Z</time>
      </trkpt>
      <trkpt lat="59.8346998" lon="17.6529299">
        <ele>18.8831</ele>
        <time>2014-05-20T18:38:58Z</time>
      </trkpt>
      <trkpt lat="59.8346718" lon="17.6529347">
        <ele>18.8831</ele>
        <time>2014-05-20T18:38:59Z</time>
      </trkpt>
      <trkpt lat="59.8346454" lon="17.6529393">
        <ele>18.8831</ele>
        <time>2014-05-20T18:39:00Z</time>
      </trkpt>
      <trkpt lat="59.8346175" lon="17.6529428">
        <ele>18.8831</ele>
        <time>2014-05-20T18:39:01Z</time>
      </trkpt>
      <trkpt lat="59.8345909" lon="17.6529428">
        <ele>18.4023</ele>
        <time>2014-05-20T18:39:02Z</time>
      </trkpt>
      <trkpt lat="59.8345657" lon="17.6529502">
        <ele>18.4023</ele>
        <time>2014-05-20T18:39:03Z</time>
      </trkpt>
      <trkpt lat="59.8345392" lon="17.6529491">
        <ele>18.4023</ele>
        <time>2014-05-20T18:39:04Z</time>
      </trkpt>
      <trkpt lat="59.8345127" lon="17.6529451">
        <ele>17.9218</ele>
        <time>2014-05-20T18:39:05Z</time>
      </trkpt>
      <trkpt lat="59.8344847" lon="17.6529424">
        <ele>17.9218</ele>
        <time>2014-05-20T18:39:06Z</time>
      </trkpt>
      <trkpt lat="59.8344553" lon="17.6529397">
        <ele>17.4412</ele>
        <time>2014-05-20T18:39:07Z</time>
      </trkpt>
      <trkpt lat="59.8344243" lon="17.6529447">
        <ele>16.9604</ele>
        <time>2014-05-20T18:39:08Z</time>
      </trkpt>
      <trkpt lat="59.8343968" lon="17.6529449">
        <ele>16.4797</ele>
        <time>2014-05-20T18:39:09Z</time>
      </trkpt>
      <trkpt lat="59.8343718" lon="17.6529378">
        <ele>16.4797</ele>
        <time>2014-05-20T18:39:10Z</time>
      </trkpt>
      <trkpt lat="59.8343454" lon="17.6529363">
        <ele>15.999</ele>
        <time>2014-05-20T18:39:11Z</time>
      </trkpt>
      <trkpt lat="59.8343212" lon="17.6529357">
        <ele>15.999</ele>
        <time>2014-05-20T18:39:12Z</time>
      </trkpt>
      <trkpt lat="59.8342927" lon="17.6529364">
        <ele>15.5184</ele>
        <time>2014-05-20T18:39:13Z</time>
      </trkpt>
      <trkpt lat="59.8342611" lon="17.6529338">
        <ele>15.0377</ele>
        <time>2014-05-20T18:39:14Z</time>
      </trkpt>
      <trkpt lat="59.8342365" lon="17.6529295">
        <ele>15.0377</ele>
        <time>2014-05-20T18:39:15Z</time>
      </trkpt>
      <trkpt lat="59.8342142" lon="17.6529249">
        <ele>15.5184</ele>
        <time>2014-05-20T18:39:16Z</time>
      </trkpt>
      <trkpt lat="59.8341849" lon="17.6529207">
        <ele>15.999</ele>
        <time>2014-05-20T18:39:17Z</time>
      </trkpt>
      <trkpt lat="59.8341569" lon="17.6529056">
        <ele>15.5184</ele>
        <time>2014-05-20T18:39:18Z</time>
      </trkpt>
      <trkpt lat="59.8341316" lon="17.6528974">
        <ele>16.4797</ele>
        <time>2014-05-20T18:39:19Z</time>
      </trkpt>
      <trkpt lat="59.8341051" lon="17.6528894">
        <ele>17.4412</ele>
        <time>2014-05-20T18:39:20Z</time>
      </trkpt>
      <trkpt lat="59.8340786" lon="17.6528772">
        <ele>17.9218</ele>
        <time>2014-05-20T18:39:21Z</time>
      </trkpt>
      <trkpt lat="59.8340508" lon="17.6528601">
        <ele>17.9218</ele>
        <time>2014-05-20T18:39:22Z</time>
      </trkpt>
      <trkpt lat="59.8340228" lon="17.6528454">
        <ele>18.4023</ele>
        <time>2014-05-20T18:39:23Z</time>
      </trkpt>
      <trkpt lat="59.8339995" lon="17.6528278">
        <ele>18.4023</ele>
        <time>2014-05-20T18:39:24Z</time>
      </trkpt>
      <trkpt lat="59.8339801" lon="17.6528095">
        <ele>19.3638</ele>
        <time>2014-05-20T18:39:25Z</time>
      </trkpt>
      <trkpt lat="59.8339568" lon="17.6527937">
        <ele>19.3638</ele>
        <time>2014-05-20T18:39:26Z</time>
      </trkpt>
      <trkpt lat="59.833935" lon="17.6527809">
        <ele>19.3638</ele>
        <time>2014-05-20T18:39:27Z</time>
      </trkpt>
      <trkpt lat="59.8339125" lon="17.652777">
        <ele>19.3638</ele>
        <time>2014-05-20T18:39:28Z</time>
      </trkpt>
      <trkpt lat="59.8338894" lon="17.6527729">
        <ele>19.8444</ele>
        <time>2014-05-20T18:39:29Z</time>
      </trkpt>
      <trkpt lat="59.8338669" lon="17.6527658">
        <ele>20.8057</ele>
        <time>2014-05-20T18:39:30Z</time>
      </trkpt>
      <trkpt lat="59.833846" lon="17.6527788">
        <ele>22.7283</ele>
        <time>2014-05-20T18:39:31Z</time>
      </trkpt>
      <trkpt lat="59.8338207" lon="17.6527849">
        <ele>23.6896</ele>
        <time>2014-05-20T18:39:32Z</time>
      </trkpt>
      <trkpt lat="59.8337865" lon="17.6527985">
        <ele>24.1703</ele>
        <time>2014-05-20T18:39:33Z</time>
      </trkpt>
      <trkpt lat="59.833756" lon="17.6528004">
        <ele>24.1703</ele>
        <time>2014-05-20T18:39:34Z</time>
      </trkpt>
      <trkpt lat="59.8337332" lon="17.6528025">
        <ele>24.651</ele>
        <time>2014-05-20T18:39:35Z</time>
      </trkpt>
      <trkpt lat="59.8337095" lon="17.6528182">
        <ele>26.0929</ele>
        <time>2014-05-20T18:39:36Z</time>
      </trkpt>
      <trkpt lat="59.8336955" lon="17.6528217">
        <ele>28.0155</ele>
        <time>2014-05-20T18:39:37Z</time>
      </trkpt>
      <trkpt lat="59.8336774" lon="17.6528222">
        <ele>27.5349</ele>
        <time>2014-05-20T18:39:38Z</time>
      </trkpt>
      <trkpt lat="59.8336581" lon="17.6528222">
        <ele>26.5736</ele>
        <time>2014-05-20T18:39:39Z</time>
      </trkpt>
      <trkpt lat="59.8336415" lon="17.6528254">
        <ele>26.5736</ele>
        <time>2014-05-20T18:39:40Z</time>
      </trkpt>
      <trkpt lat="59.8336254" lon="17.6528244">
        <ele>27.0543</ele>
        <time>2014-05-20T18:39:41Z</time>
      </trkpt>
      <trkpt lat="59.8336079" lon="17.6528209">
        <ele>27.0543</ele>
        <time>2014-05-20T18:39:42Z</time>
      </trkpt>
      <trkpt lat="59.8335887" lon="17.6528104">
        <ele>27.5349</ele>
        <time>2014-05-20T18:39:43Z</time>
      </trkpt>
      <trkpt lat="59.8335597" lon="17.6528124">
        <ele>27.5349</ele>
        <time>2014-05-20T18:39:44Z</time>
      </trkpt>
      <trkpt lat="59.8335313" lon="17.6528071">
        <ele>27.5349</ele>
        <time>2014-05-20T18:39:45Z</time>
      </trkpt>
      <trkpt lat="59.833503" lon="17.6528037">
        <ele>27.0543</ele>
        <time>2014-05-20T18:39:46Z</time>
      </trkpt>
      <trkpt lat="59.8334878" lon="17.6528081">
        <ele>28.0155</ele>
        <time>2014-05-20T18:39:47Z</time>
      </trkpt>
      <trkpt lat="59.8334711" lon="17.6528203">
        <ele>28.4962</ele>
        <time>2014-05-20T18:39:48Z</time>
      </trkpt>
      <trkpt lat="59.8334378" lon="17.6528258">
        <ele>28.0155</ele>
        <time>2014-05-20T18:39:49Z</time>
      </trkpt>
      <trkpt lat="59.8334079" lon="17.6528309">
        <ele>27.5349</ele>
        <time>2014-05-20T18:39:50Z</time>
      </trkpt>
      <trkpt lat="59.8333804" lon="17.652855">
        <ele>27.5349</ele>
        <time>2014-05-20T18:39:51Z</time>
      </trkpt>
      <trkpt lat="59.8333556" lon="17.6528601">
        <ele>27.5349</ele>
        <time>2014-05-20T18:39:52Z</time>
      </trkpt>
      <trkpt lat="59.8333348" lon="17.6528726">
        <ele>28.0155</ele>
        <time>2014-05-20T18:39:53Z</time>
      </trkpt>
      <trkpt lat="59.8333121" lon="17.6528798">
        <ele>28.9769</ele>
        <time>2014-05-20T18:39:54Z</time>
      </trkpt>
      <trkpt lat="59.83328" lon="17.6528756">
        <ele>27.5349</ele>
        <time>2014-05-20T18:39:55Z</time>
      </trkpt>
      <trkpt lat="59.8332544" lon="17.6528903">
        <ele>28.4962</ele>
        <time>2014-05-20T18:39:56Z</time>
      </trkpt>
      <trkpt lat="59.8332264" lon="17.6529092">
        <ele>27.5349</ele>
        <time>2014-05-20T18:39:57Z</time>
      </trkpt>
      <trkpt lat="59.8331977" lon="17.6529274">
        <ele>27.5349</ele>
        <time>2014-05-20T18:39:58Z</time>
      </trkpt>
      <trkpt lat="59.8331686" lon="17.6529418">
        <ele>28.0155</ele>
        <time>2014-05-20T18:39:59Z</time>
      </trkpt>
      <trkpt lat="59.833138" lon="17.6529561">
        <ele>28.0155</ele>
        <time>2014-05-20T18:40:00Z</time>
      </trkpt>
      <trkpt lat="59.8331059" lon="17.6529645">
        <ele>28.4962</ele>
        <time>2014-05-20T18:40:01Z</time>
      </trkpt>
      <trkpt lat="59.833077" lon="17.6529735">
        <ele>28.9769</ele>
        <time>2014-05-20T18:40:02Z</time>
      </trkpt>
      <trkpt lat="59.8330494" lon="17.6529813">
        <ele>29.9381</ele>
        <time>2014-05-20T18:40:03Z</time>
      </trkpt>
      <trkpt lat="59.833027" lon="17.6529766">
        <ele>29.4575</ele>
        <time>2014-05-20T18:40:04Z</time>
      </trkpt>
      <trkpt lat="59.8330043" lon="17.6529791">
        <ele>29.4575</ele>
        <time>2014-05-20T18:40:05Z</time>
      </trkpt>
      <trkpt lat="59.8329759" lon="17.6529757">
        <ele>28.9769</ele>
        <time>2014-05-20T18:40:06Z</time>
      </trkpt>
      <trkpt lat="59.8329474" lon="17.6529863">
        <ele>29.9381</ele>
        <time>2014-05-20T18:40:07Z</time>
      </trkpt>
      <trkpt lat="59.8329168" lon="17.6529824">
        <ele>29.4575</ele>
        <time>2014-05-20T18:40:08Z</time>
      </trkpt>
      <trkpt lat="59.8328965" lon="17.6529829">
        <ele>29.9381</ele>
        <time>2014-05-20T18:40:09Z</time>
      </trkpt>
      <trkpt lat="59.8328768" lon="17.6530098">
        <ele>31.3801</ele>
        <time>2014-05-20T18:40:10Z</time>
      </trkpt>
      <trkpt lat="59.8328512" lon="17.6530264">
        <ele>31.3801</ele>
        <time>2014-05-20T18:40:11Z</time>
      </trkpt>
      <trkpt lat="59.8328237" lon="17.6530391">
        <ele>30.8995</ele>
        <time>2014-05-20T18:40:12Z</time>
      </trkpt>
      <trkpt lat="59.8327955" lon="17.6530476">
        <ele>29.9381</ele>
        <time>2014-05-20T18:40:13Z</time>
      </trkpt>
      <trkpt lat="59.8327674" lon="17.6530568">
        <ele>29.4575</ele>
        <time>2014-05-20T18:40:14Z</time>
      </trkpt>
      <trkpt lat="59.8327372" lon="17.6530869">
        <ele>30.4188</ele>
        <time>2014-05-20T18:40:15Z</time>
      </trkpt>
      <trkpt lat="59.8327107" lon="17.6531031">
        <ele>30.8995</ele>
        <time>2014-05-20T18:40:16Z</time>
      </trkpt>
      <trkpt lat="59.832681" lon="17.6531342">
        <ele>31.8607</ele>
        <time>2014-05-20T18:40:17Z</time>
      </trkpt>
      <trkpt lat="59.8326578" lon="17.6531607">
        <ele>31.8607</ele>
        <time>2014-05-20T18:40:18Z</time>
      </trkpt>
      <trkpt lat="59.8326341" lon="17.6531832">
        <ele>31.8607</ele>
        <time>2014-05-20T18:40:19Z</time>
      </trkpt>
      <trkpt lat="59.8326096" lon="17.653214">
        <ele>31.8607</ele>
        <time>2014-05-20T18:40:20Z</time>
      </trkpt>
      <trkpt lat="59.8325884" lon="17.6532438">
        <ele>33.3029</ele>
        <time>2014-05-20T18:40:21Z</time>
      </trkpt>
      <trkpt lat="59.8325615" lon="17.6532558">
        <ele>32.3416</ele>
        <time>2014-05-20T18:40:22Z</time>
      </trkpt>
      <trkpt lat="59.8325372" lon="17.6532759">
        <ele>32.8223</ele>
        <time>2014-05-20T18:40:23Z</time>
      </trkpt>
      <trkpt lat="59.8325141" lon="17.6532751">
        <ele>31.8607</ele>
        <time>2014-05-20T18:40:24Z</time>
      </trkpt>
      <trkpt lat="59.8324877" lon="17.6532962">
        <ele>31.8607</ele>
        <time>2014-05-20T18:40:25Z</time>
      </trkpt>
      <trkpt lat="59.8324651" lon="17.6533035">
        <ele>31.3801</ele>
        <time>2014-05-20T18:40:26Z</time>
      </trkpt>
      <trkpt lat="59.8324419" lon="17.6533175">
        <ele>31.3801</ele>
        <time>2014-05-20T18:40:27Z</time>
      </trkpt>
      <trkpt lat="59.8324158" lon="17.6533381">
        <ele>30.8995</ele>
        <time>2014-05-20T18:40:28Z</time>
      </trkpt>
      <trkpt lat="59.8323914" lon="17.6533605">
        <ele>29.9381</ele>
        <time>2014-05-20T18:40:29Z</time>
      </trkpt>
      <trkpt lat="59.8323729" lon="17.6533833">
        <ele>30.4188</ele>
        <time>2014-05-20T18:40:30Z</time>
      </trkpt>
      <trkpt lat="59.8323599" lon="17.6534072">
        <ele>31.3801</ele>
        <time>2014-05-20T18:40:31Z</time>
      </trkpt>
      <trkpt lat="59.8323478" lon="17.6534171">
        <ele>31.8607</ele>
        <time>2014-05-20T18:40:32Z</time>
      </trkpt>
      <trkpt lat="59.8323268" lon="17.6534342">
        <ele>31.8607</ele>
        <time>2014-05-20T18:40:33Z</time>
      </trkpt>
      <trkpt lat="59.832306" lon="17.6534595">
        <ele>31.8607</ele>
        <time>2014-05-20T18:40:34Z</time>
      </trkpt>
      <trkpt lat="59.8322843" lon="17.6534927">
        <ele>31.3801</ele>
        <time>2014-05-20T18:40:35Z</time>
      </trkpt>
      <trkpt lat="59.8322651" lon="17.6535162">
        <ele>31.8607</ele>
        <time>2014-05-20T18:40:36Z</time>
      </trkpt>
      <trkpt lat="59.8322499" lon="17.6535324">
        <ele>31.8607</ele>
        <time>2014-05-20T18:40:37Z</time>
      </trkpt>
      <trkpt lat="59.832238" lon="17.6535536">
        <ele>31.8607</ele>
        <time>2014-05-20T18:40:38Z</time>
      </trkpt>
      <trkpt lat="59.8322178" lon="17.6535727">
        <ele>31.3801</ele>
        <time>2014-05-20T18:40:39Z</time>
      </trkpt>
      <trkpt lat="59.8321989" lon="17.6535848">
        <ele>30.8995</ele>
        <time>2014-05-20T18:40:40Z</time>
      </trkpt>
      <trkpt lat="59.8321729" lon="17.6536018">
        <ele>29.9381</ele>
        <time>2014-05-20T18:40:41Z</time>
      </trkpt>
      <trkpt lat="59.8321455" lon="17.6536278">
        <ele>29.9381</ele>
        <time>2014-05-20T18:40:42Z</time>
      </trkpt>
      <trkpt lat="59.8321232" lon="17.6536494">
        <ele>29.9381</ele>
        <time>2014-05-20T18:40:43Z</time>
      </trkpt>
      <trkpt lat="59.8320947" lon="17.6536614">
        <ele>28.9769</ele>
        <time>2014-05-20T18:40:44Z</time>
      </trkpt>
      <trkpt lat="59.832063" lon="17.6536857">
        <ele>28.9769</ele>
        <time>2014-05-20T18:40:45Z</time>
      </trkpt>
      <trkpt lat="59.8320335" lon="17.6537094">
        <ele>28.4962</ele>
        <time>2014-05-20T18:40:46Z</time>
      </trkpt>
      <trkpt lat="59.8320097" lon="17.6537205">
        <ele>28.4962</ele>
        <time>2014-05-20T18:40:47Z</time>
      </trkpt>
      <trkpt lat="59.8319906" lon="17.6537307">
        <ele>28.9769</ele>
        <time>2014-05-20T18:40:48Z</time>
      </trkpt>
      <trkpt lat="59.8319724" lon="17.6537489">
        <ele>29.4575</ele>
        <time>2014-05-20T18:40:49Z</time>
      </trkpt>
      <trkpt lat="59.8319563" lon="17.6537697">
        <ele>30.4188</ele>
        <time>2014-05-20T18:40:50Z</time>
      </trkpt>
      <trkpt lat="59.8319336" lon="17.6537971">
        <ele>30.8995</ele>
        <time>2014-05-20T18:40:51Z</time>
      </trkpt>
      <trkpt lat="59.8319083" lon="17.6538131">
        <ele>31.3801</ele>
        <time>2014-05-20T18:40:52Z</time>
      </trkpt>
      <trkpt lat="59.831884" lon="17.653827">
        <ele>31.8607</ele>
        <time>2014-05-20T18:40:53Z</time>
      </trkpt>
      <trkpt lat="59.8318684" lon="17.6538355">
        <ele>32.3416</ele>
        <time>2014-05-20T18:40:54Z</time>
      </trkpt>
      <trkpt lat="59.8318581" lon="17.6538428">
        <ele>33.3029</ele>
        <time>2014-05-20T18:40:55Z</time>
      </trkpt>
      <trkpt lat="59.831839" lon="17.653876">
        <ele>33.7834</ele>
        <time>2014-05-20T18:40:56Z</time>
      </trkpt>
      <trkpt lat="59.8318166" lon="17.6539013">
        <ele>34.2642</ele>
        <time>2014-05-20T18:40:57Z</time>
      </trkpt>
      <trkpt lat="59.8317885" lon="17.6539252">
        <ele>33.7834</ele>
        <time>2014-05-20T18:40:58Z</time>
      </trkpt>
      <trkpt lat="59.8317626" lon="17.6539571">
        <ele>34.7449</ele>
        <time>2014-05-20T18:40:59Z</time>
      </trkpt>
      <trkpt lat="59.8317358" lon="17.6539824">
        <ele>34.2642</ele>
        <time>2014-05-20T18:41:00Z</time>
      </trkpt>
      <trkpt lat="59.8317133" lon="17.6540064">
        <ele>34.2642</ele>
        <time>2014-05-20T18:41:01Z</time>
      </trkpt>
      <trkpt lat="59.831684" lon="17.6540422">
        <ele>33.7834</ele>
        <time>2014-05-20T18:41:02Z</time>
      </trkpt>
      <trkpt lat="59.8316595" lon="17.6540757">
        <ele>32.8223</ele>
        <time>2014-05-20T18:41:03Z</time>
      </trkpt>
      <trkpt lat="59.8316397" lon="17.654122">
        <ele>32.8223</ele>
        <time>2014-05-20T18:41:04Z</time>
      </trkpt>
      <trkpt lat="59.8316182" lon="17.6541649">
        <ele>33.3029</ele>
        <time>2014-05-20T18:41:05Z</time>
      </trkpt>
      <trkpt lat="59.8316015" lon="17.6542065">
        <ele>33.3029</ele>
        <time>2014-05-20T18:41:06Z</time>
      </trkpt>
      <trkpt lat="59.8315892" lon="17.6542531">
        <ele>33.3029</ele>
        <time>2014-05-20T18:41:07Z</time>
      </trkpt>
      <trkpt lat="59.8315792" lon="17.6543064">
        <ele>33.3029</ele>
        <time>2014-05-20T18:41:08Z</time>
      </trkpt>
      <trkpt lat="59.8315637" lon="17.6543582">
        <ele>32.8223</ele>
        <time>2014-05-20T18:41:09Z</time>
      </trkpt>
      <trkpt lat="59.8315477" lon="17.6544021">
        <ele>32.8223</ele>
        <time>2014-05-20T18:41:10Z</time>
      </trkpt>
      <trkpt lat="59.8315323" lon="17.6544458">
        <ele>32.8223</ele>
        <time>2014-05-20T18:41:11Z</time>
      </trkpt>
      <trkpt lat="59.8315176" lon="17.6544913">
        <ele>32.8223</ele>
        <time>2014-05-20T18:41:12Z</time>
      </trkpt>
      <trkpt lat="59.831504" lon="17.6545341">
        <ele>33.3029</ele>
        <time>2014-05-20T18:41:13Z</time>
      </trkpt>
      <trkpt lat="59.8314866" lon="17.6545731">
        <ele>32.3416</ele>
        <time>2014-05-20T18:41:14Z</time>
      </trkpt>
      <trkpt lat="59.8314663" lon="17.6546208">
        <ele>31.8607</ele>
        <time>2014-05-20T18:41:15Z</time>
      </trkpt>
      <trkpt lat="59.8314461" lon="17.6546768">
        <ele>31.8607</ele>
        <time>2014-05-20T18:41:16Z</time>
      </trkpt>
      <trkpt lat="59.831429" lon="17.6547305">
        <ele>31.8607</ele>
        <time>2014-05-20T18:41:17Z</time>
      </trkpt>
      <trkpt lat="59.8314145" lon="17.6547737">
        <ele>31.8607</ele>
        <time>2014-05-20T18:41:18Z</time>
      </trkpt>
      <trkpt lat="59.8314037" lon="17.6548258">
        <ele>32.3416</ele>
        <time>2014-05-20T18:41:19Z</time>
      </trkpt>
      <trkpt lat="59.8313927" lon="17.6548745">
        <ele>31.3801</ele>
        <time>2014-05-20T18:41:20Z</time>
      </trkpt>
      <trkpt lat="59.8313866" lon="17.6549182">
        <ele>30.8995</ele>
        <time>2014-05-20T18:41:21Z</time>
      </trkpt>
      <trkpt lat="59.8313881" lon="17.6549595">
        <ele>29.9381</ele>
        <time>2014-05-20T18:41:22Z</time>
      </trkpt>
      <trkpt lat="59.831397" lon="17.6550056">
        <ele>30.4188</ele>
        <time>2014-05-20T18:41:23Z</time>
      </trkpt>
      <trkpt lat="59.8314053" lon="17.6550465">
        <ele>30.4188</ele>
        <time>2014-05-20T18:41:24Z</time>
      </trkpt>
      <trkpt lat="59.8314128" lon="17.655084">
        <ele>30.4188</ele>
        <time>2014-05-20T18:41:25Z</time>
      </trkpt>
      <trkpt lat="59.8314263" lon="17.6551105">
        <ele>31.3801</ele>
        <time>2014-05-20T18:41:26Z</time>
      </trkpt>
      <trkpt lat="59.8314344" lon="17.6551507">
        <ele>31.3801</ele>
        <time>2014-05-20T18:41:27Z</time>
      </trkpt>
      <trkpt lat="59.8314483" lon="17.6551999">
        <ele>31.8607</ele>
        <time>2014-05-20T18:41:28Z</time>
      </trkpt>
      <trkpt lat="59.8314585" lon="17.6552559">
        <ele>32.3416</ele>
        <time>2014-05-20T18:41:29Z</time>
      </trkpt>
      <trkpt lat="59.8314576" lon="17.6553135">
        <ele>31.8607</ele>
        <time>2014-05-20T18:41:30Z</time>
      </trkpt>
      <trkpt lat="59.8314579" lon="17.6553671">
        <ele>31.3801</ele>
        <time>2014-05-20T18:41:31Z</time>
      </trkpt>
      <trkpt lat="59.8314678" lon="17.6554163">
        <ele>31.8607</ele>
        <time>2014-05-20T18:41:32Z</time>
      </trkpt>
      <trkpt lat="59.831488" lon="17.6554647">
        <ele>31.8607</ele>
        <time>2014-05-20T18:41:33Z</time>
      </trkpt>
      <trkpt lat="59.8315068" lon="17.6555161">
        <ele>31.3801</ele>
        <time>2014-05-20T18:41:34Z</time>
      </trkpt>
      <trkpt lat="59.8315191" lon="17.6555723">
        <ele>31.3801</ele>
        <time>2014-05-20T18:41:35Z</time>
      </trkpt>
      <trkpt lat="59.8315282" lon="17.6556331">
        <ele>31.3801</ele>
        <time>2014-05-20T18:41:36Z</time>
      </trkpt>
      <trkpt lat="59.8315284" lon="17.6557003">
        <ele>29.9381</ele>
        <time>2014-05-20T18:41:37Z</time>
      </trkpt>
      <trkpt lat="59.831533" lon="17.6557637">
        <ele>28.9769</ele>
        <time>2014-05-20T18:41:38Z</time>
      </trkpt>
      <trkpt lat="59.8315368" lon="17.6558265">
        <ele>27.0543</ele>
        <time>2014-05-20T18:41:39Z</time>
      </trkpt>
      <trkpt lat="59.8315426" lon="17.6558827">
        <ele>26.5736</ele>
        <time>2014-05-20T18:41:40Z</time>
      </trkpt>
      <trkpt lat="59.8315517" lon="17.6559319">
        <ele>26.0929</ele>
        <time>2014-05-20T18:41:41Z</time>
      </trkpt>
      <trkpt lat="59.8315566" lon="17.655983">
        <ele>25.6123</ele>
        <time>2014-05-20T18:41:42Z</time>
      </trkpt>
      <trkpt lat="59.8315564" lon="17.6560381">
        <ele>24.651</ele>
        <time>2014-05-20T18:41:43Z</time>
      </trkpt>
      <trkpt lat="59.8315584" lon="17.6560873">
        <ele>23.6896</ele>
        <time>2014-05-20T18:41:44Z</time>
      </trkpt>
      <trkpt lat="59.8315529" lon="17.6561315">
        <ele>22.2476</ele>
        <time>2014-05-20T18:41:45Z</time>
      </trkpt>
      <trkpt lat="59.8315461" lon="17.6561743">
        <ele>21.2864</ele>
        <time>2014-05-20T18:41:46Z</time>
      </trkpt>
      <trkpt lat="59.831542" lon="17.6562245">
        <ele>21.2864</ele>
        <time>2014-05-20T18:41:47Z</time>
      </trkpt>
      <trkpt lat="59.831548" lon="17.6562795">
        <ele>21.767</ele>
        <time>2014-05-20T18:41:48Z</time>
      </trkpt>
      <trkpt lat="59.8315524" lon="17.6563292">
        <ele>21.2864</ele>
        <time>2014-05-20T18:41:49Z</time>
      </trkpt>
      <trkpt lat="59.8315529" lon="17.6563765">
        <ele>20.325</ele>
        <time>2014-05-20T18:41:50Z</time>
      </trkpt>
      <trkpt lat="59.8315518" lon="17.65643">
        <ele>19.3638</ele>
        <time>2014-05-20T18:41:51Z</time>
      </trkpt>
      <trkpt lat="59.831552" lon="17.6564839">
        <ele>18.8831</ele>
        <time>2014-05-20T18:41:52Z</time>
      </trkpt>
      <trkpt lat="59.8315488" lon="17.6565329">
        <ele>17.4412</ele>
        <time>2014-05-20T18:41:53Z</time>
      </trkpt>
      <trkpt lat="59.8315473" lon="17.6565799">
        <ele>17.4412</ele>
        <time>2014-05-20T18:41:54Z</time>
      </trkpt>
      <trkpt lat="59.8315509" lon="17.6566248">
        <ele>16.9604</ele>
        <time>2014-05-20T18:41:55Z</time>
      </trkpt>
      <trkpt lat="59.8315544" lon="17.656679">
        <ele>15.999</ele>
        <time>2014-05-20T18:41:56Z</time>
      </trkpt>
      <trkpt lat="59.831561" lon="17.656743">
        <ele>16.4797</ele>
        <time>2014-05-20T18:41:57Z</time>
      </trkpt>
      <trkpt lat="59.8315758" lon="17.6567926">
        <ele>16.9604</ele>
        <time>2014-05-20T18:41:58Z</time>
      </trkpt>
      <trkpt lat="59.8315959" lon="17.6568394">
        <ele>17.4412</ele>
        <time>2014-05-20T18:41:59Z</time>
      </trkpt>
      <trkpt lat="59.8316134" lon="17.6568885">
        <ele>17.4412</ele>
        <time>2014-05-20T18:42:00Z</time>
      </trkpt>
      <trkpt lat="59.831628" lon="17.6569271">
        <ele>16.9604</ele>
        <time>2014-05-20T18:42:01Z</time>
      </trkpt>
      <trkpt lat="59.8316446" lon="17.6569629">
        <ele>16.9604</ele>
        <time>2014-05-20T18:42:02Z</time>
      </trkpt>
      <trkpt lat="59.8316613" lon="17.6570073">
        <ele>16.9604</ele>
        <time>2014-05-20T18:42:03Z</time>
      </trkpt>
      <trkpt lat="59.8316819" lon="17.6570471">
        <ele>17.4412</ele>
        <time>2014-05-20T18:42:04Z</time>
      </trkpt>
      <trkpt lat="59.8317034" lon="17.6570809">
        <ele>17.9218</ele>
        <time>2014-05-20T18:42:05Z</time>
      </trkpt>
      <trkpt lat="59.8317306" lon="17.6571148">
        <ele>18.8831</ele>
        <time>2014-05-20T18:42:06Z</time>
      </trkpt>
      <trkpt lat="59.831757" lon="17.6571473">
        <ele>18.4023</ele>
        <time>2014-05-20T18:42:07Z</time>
      </trkpt>
      <trkpt lat="59.8317834" lon="17.6571869">
        <ele>18.4023</ele>
        <time>2014-05-20T18:42:08Z</time>
      </trkpt>
      <trkpt lat="59.8318021" lon="17.6572337">
        <ele>17.9218</ele>
        <time>2014-05-20T18:42:09Z</time>
      </trkpt>
      <trkpt lat="59.8318228" lon="17.6572851">
        <ele>18.4023</ele>
        <time>2014-05-20T18:42:10Z</time>
      </trkpt>
      <trkpt lat="59.8318421" lon="17.6573308">
        <ele>18.4023</ele>
        <time>2014-05-20T18:42:11Z</time>
      </trkpt>
      <trkpt lat="59.8318627" lon="17.6573746">
        <ele>17.9218</ele>
        <time>2014-05-20T18:42:12Z</time>
      </trkpt>
      <trkpt lat="59.8318824" lon="17.6574228">
        <ele>17.9218</ele>
        <time>2014-05-20T18:42:13Z</time>
      </trkpt>
      <trkpt lat="59.8319041" lon="17.6574818">
        <ele>18.4023</ele>
        <time>2014-05-20T18:42:14Z</time>
      </trkpt>
      <trkpt lat="59.8319296" lon="17.6575485">
        <ele>18.8831</ele>
        <time>2014-05-20T18:42:15Z</time>
      </trkpt>
      <trkpt lat="59.8319564" lon="17.657616">
        <ele>18.8831</ele>
        <time>2014-05-20T18:42:16Z</time>
      </trkpt>
      <trkpt lat="59.8319828" lon="17.6576724">
        <ele>18.8831</ele>
        <time>2014-05-20T18:42:17Z</time>
      </trkpt>
      <trkpt lat="59.8320125" lon="17.6577135">
        <ele>19.8444</ele>
        <time>2014-05-20T18:42:18Z</time>
      </trkpt>
      <trkpt lat="59.8320355" lon="17.6577692">
        <ele>19.8444</ele>
        <time>2014-05-20T18:42:19Z</time>
      </trkpt>
      <trkpt lat="59.8320548" lon="17.65782">
        <ele>18.8831</ele>
        <time>2014-05-20T18:42:20Z</time>
      </trkpt>
      <trkpt lat="59.8320772" lon="17.6578737">
        <ele>19.3638</ele>
        <time>2014-05-20T18:42:21Z</time>
      </trkpt>
      <trkpt lat="59.8320959" lon="17.6579299">
        <ele>19.3638</ele>
        <time>2014-05-20T18:42:22Z</time>
      </trkpt>
      <trkpt lat="59.832115" lon="17.6579869">
        <ele>19.3638</ele>
        <time>2014-05-20T18:42:23Z</time>
      </trkpt>
      <trkpt lat="59.8321362" lon="17.6580506">
        <ele>18.8831</ele>
        <time>2014-05-20T18:42:24Z</time>
      </trkpt>
      <trkpt lat="59.8321552" lon="17.658109">
        <ele>18.8831</ele>
        <time>2014-05-20T18:42:25Z</time>
      </trkpt>
      <trkpt lat="59.8321735" lon="17.6581558">
        <ele>17.9218</ele>
        <time>2014-05-20T18:42:26Z</time>
      </trkpt>
      <trkpt lat="59.8321961" lon="17.6582049">
        <ele>17.4412</ele>
        <time>2014-05-20T18:42:27Z</time>
      </trkpt>
      <trkpt lat="59.8322209" lon="17.6582569">
        <ele>16.9604</ele>
        <time>2014-05-20T18:42:28Z</time>
      </trkpt>
      <trkpt lat="59.8322454" lon="17.6583071">
        <ele>16.9604</ele>
        <time>2014-05-20T18:42:29Z</time>
      </trkpt>
      <trkpt lat="59.8322745" lon="17.6583555">
        <ele>15.999</ele>
        <time>2014-05-20T18:42:30Z</time>
      </trkpt>
      <trkpt lat="59.8323026" lon="17.6584152">
        <ele>15.5184</ele>
        <time>2014-05-20T18:42:31Z</time>
      </trkpt>
      <trkpt lat="59.832324" lon="17.6584753">
        <ele>14.557</ele>
        <time>2014-05-20T18:42:32Z</time>
      </trkpt>
      <trkpt lat="59.8323473" lon="17.6585363">
        <ele>14.557</ele>
        <time>2014-05-20T18:42:33Z</time>
      </trkpt>
      <trkpt lat="59.8323649" lon="17.6585925">
        <ele>13.5958</ele>
        <time>2014-05-20T18:42:34Z</time>
      </trkpt>
      <trkpt lat="59.8323934" lon="17.6586411">
        <ele>14.557</ele>
        <time>2014-05-20T18:42:35Z</time>
      </trkpt>
      <trkpt lat="59.8324123" lon="17.6586941">
        <ele>14.0764</ele>
        <time>2014-05-20T18:42:36Z</time>
      </trkpt>
      <trkpt lat="59.8324305" lon="17.6587479">
        <ele>13.5958</ele>
        <time>2014-05-20T18:42:37Z</time>
      </trkpt>
      <trkpt lat="59.83245" lon="17.6587933">
        <ele>12.6344</ele>
        <time>2014-05-20T18:42:38Z</time>
      </trkpt>
      <trkpt lat="59.8324691" lon="17.6588348">
        <ele>12.1538</ele>
        <time>2014-05-20T18:42:39Z</time>
      </trkpt>
      <trkpt lat="59.8324821" lon="17.6588746">
        <ele>11.6732</ele>
        <time>2014-05-20T18:42:40Z</time>
      </trkpt>
      <trkpt lat="59.8324951" lon="17.6589145">
        <ele>10.7118</ele>
        <time>2014-05-20T18:42:41Z</time>
      </trkpt>
      <trkpt lat="59.8325067" lon="17.6589487">
        <ele>9.75061</ele>
        <time>2014-05-20T18:42:42Z</time>
      </trkpt>
      <trkpt lat="59.8325207" lon="17.6589939">
        <ele>9.75061</ele>
        <time>2014-05-20T18:42:43Z</time>
      </trkpt>
      <trkpt lat="59.832535" lon="17.6590411">
        <ele>9.75061</ele>
        <time>2014-05-20T18:42:44Z</time>
      </trkpt>
      <trkpt lat="59.8325499" lon="17.6590907">
        <ele>10.2312</ele>
        <time>2014-05-20T18:42:45Z</time>
      </trkpt>
      <trkpt lat="59.8325656" lon="17.6591399">
        <ele>9.75061</ele>
        <time>2014-05-20T18:42:46Z</time>
      </trkpt>
      <trkpt lat="59.8325882" lon="17.6591812">
        <ele>10.2312</ele>
        <time>2014-05-20T18:42:47Z</time>
      </trkpt>
      <trkpt lat="59.8326046" lon="17.6592145">
        <ele>10.2312</ele>
        <time>2014-05-20T18:42:48Z</time>
      </trkpt>
      <trkpt lat="59.8326241" lon="17.6592521">
        <ele>9.75061</ele>
        <time>2014-05-20T18:42:49Z</time>
      </trkpt>
      <trkpt lat="59.8326355" lon="17.659299">
        <ele>9.75061</ele>
        <time>2014-05-20T18:42:50Z</time>
      </trkpt>
      <trkpt lat="59.8326334" lon="17.6593503">
        <ele>9.75061</ele>
        <time>2014-05-20T18:42:51Z</time>
      </trkpt>
      <trkpt lat="59.8326209" lon="17.6593965">
        <ele>10.2312</ele>
        <time>2014-05-20T18:42:52Z</time>
      </trkpt>
      <trkpt lat="59.8326013" lon="17.6594309">
        <ele>10.2312</ele>
        <time>2014-05-20T18:42:53Z</time>
      </trkpt>
      <trkpt lat="59.8325779" lon="17.6594658">
        <ele>10.2312</ele>
        <time>2014-05-20T18:42:54Z</time>
      </trkpt>
      <trkpt lat="59.8325548" lon="17.6594983">
        <ele>10.7118</ele>
        <time>2014-05-20T18:42:55Z</time>
      </trkpt>
      <trkpt lat="59.8325323" lon="17.6595337">
        <ele>10.7118</ele>
        <time>2014-05-20T18:42:56Z</time>
      </trkpt>
      <trkpt lat="59.8325133" lon="17.6595702">
        <ele>11.1925</ele>
        <time>2014-05-20T18:42:57Z</time>
      </trkpt>
      <trkpt lat="59.8324906" lon="17.659603">
        <ele>10.7118</ele>
        <time>2014-05-20T18:42:58Z</time>
      </trkpt>
      <trkpt lat="59.8324667" lon="17.6596399">
        <ele>10.7118</ele>
        <time>2014-05-20T18:42:59Z</time>
      </trkpt>
      <trkpt lat="59.8324448" lon="17.6596562">
        <ele>9.75061</ele>
        <time>2014-05-20T18:43:00Z</time>
      </trkpt>
      <trkpt lat="59.8324259" lon="17.6596881">
        <ele>9.75061</ele>
        <time>2014-05-20T18:43:01Z</time>
      </trkpt>
      <trkpt lat="59.8324064" lon="17.6597305">
        <ele>9.75061</ele>
        <time>2014-05-20T18:43:02Z</time>
      </trkpt>
      <trkpt lat="59.8323797" lon="17.6597779">
        <ele>10.2312</ele>
        <time>2014-05-20T18:43:03Z</time>
      </trkpt>
      <trkpt lat="59.8323487" lon="17.6598227">
        <ele>10.7118</ele>
        <time>2014-05-20T18:43:04Z</time>
      </trkpt>
      <trkpt lat="59.832319" lon="17.6598569">
        <ele>10.7118</ele>
        <time>2014-05-20T18:43:05Z</time>
      </trkpt>
      <trkpt lat="59.83229" lon="17.659886">
        <ele>10.2312</ele>
        <time>2014-05-20T18:43:06Z</time>
      </trkpt>
      <trkpt lat="59.8322657" lon="17.6599189">
        <ele>10.2312</ele>
        <time>2014-05-20T18:43:07Z</time>
      </trkpt>
      <trkpt lat="59.832246" lon="17.6599489">
        <ele>10.7118</ele>
        <time>2014-05-20T18:43:08Z</time>
      </trkpt>
      <trkpt lat="59.8322289" lon="17.6599769">
        <ele>10.7118</ele>
        <time>2014-05-20T18:43:09Z</time>
      </trkpt>
      <trkpt lat="59.8322114" lon="17.6600087">
        <ele>11.1925</ele>
        <time>2014-05-20T18:43:10Z</time>
      </trkpt>
      <trkpt lat="59.8321994" lon="17.6600424">
        <ele>12.1538</ele>
        <time>2014-05-20T18:43:11Z</time>
      </trkpt>
      <trkpt lat="59.83218" lon="17.6600786">
        <ele>12.1538</ele>
        <time>2014-05-20T18:43:12Z</time>
      </trkpt>
      <trkpt lat="59.8321635" lon="17.6601082">
        <ele>11.6732</ele>
        <time>2014-05-20T18:43:13Z</time>
      </trkpt>
      <trkpt lat="59.8321424" lon="17.6601344">
        <ele>11.6732</ele>
        <time>2014-05-20T18:43:14Z</time>
      </trkpt>
      <trkpt lat="59.8321165" lon="17.6601552">
        <ele>11.6732</ele>
        <time>2014-05-20T18:43:15Z</time>
      </trkpt>
      <trkpt lat="59.8320897" lon="17.6601753">
        <ele>11.1925</ele>
        <time>2014-05-20T18:43:16Z</time>
      </trkpt>
      <trkpt lat="59.8320664" lon="17.6601967">
        <ele>11.6732</ele>
        <time>2014-05-20T18:43:17Z</time>
      </trkpt>
      <trkpt lat="59.8320428" lon="17.660234">
        <ele>11.6732</ele>
        <time>2014-05-20T18:43:18Z</time>
      </trkpt>
      <trkpt lat="59.8320168" lon="17.6602791">
        <ele>11.6732</ele>
        <time>2014-05-20T18:43:19Z</time>
      </trkpt>
      <trkpt lat="59.8319923" lon="17.660304">
        <ele>11.1925</ele>
        <time>2014-05-20T18:43:20Z</time>
      </trkpt>
      <trkpt lat="59.8319702" lon="17.6603216">
        <ele>11.1925</ele>
        <time>2014-05-20T18:43:21Z</time>
      </trkpt>
      <trkpt lat="59.8319475" lon="17.6603371">
        <ele>11.1925</ele>
        <time>2014-05-20T18:43:22Z</time>
      </trkpt>
      <trkpt lat="59.8319247" lon="17.6603542">
        <ele>11.1925</ele>
        <time>2014-05-20T18:43:23Z</time>
      </trkpt>
      <trkpt lat="59.8318995" lon="17.6603672">
        <ele>10.2312</ele>
        <time>2014-05-20T18:43:24Z</time>
      </trkpt>
      <trkpt lat="59.8318801" lon="17.6603924">
        <ele>10.2312</ele>
        <time>2014-05-20T18:43:25Z</time>
      </trkpt>
      <trkpt lat="59.8318591" lon="17.6604172">
        <ele>9.75061</ele>
        <time>2014-05-20T18:43:26Z</time>
      </trkpt>
      <trkpt lat="59.8318331" lon="17.6604407">
        <ele>9.2699</ele>
        <time>2014-05-20T18:43:27Z</time>
      </trkpt>
      <trkpt lat="59.8318047" lon="17.6604605">
        <ele>8.30859</ele>
        <time>2014-05-20T18:43:28Z</time>
      </trkpt>
      <trkpt lat="59.8317761" lon="17.6604824">
        <ele>8.30859</ele>
        <time>2014-05-20T18:43:29Z</time>
      </trkpt>
      <trkpt lat="59.8317457" lon="17.6605034">
        <ele>7.82788</ele>
        <time>2014-05-20T18:43:30Z</time>
      </trkpt>
      <trkpt lat="59.8317145" lon="17.660522">
        <ele>6.86646</ele>
        <time>2014-05-20T18:43:31Z</time>
      </trkpt>
      <trkpt lat="59.8316871" lon="17.660541">
        <ele>6.86646</ele>
        <time>2014-05-20T18:43:32Z</time>
      </trkpt>
      <trkpt lat="59.8316599" lon="17.6605613">
        <ele>6.86646</ele>
        <time>2014-05-20T18:43:33Z</time>
      </trkpt>
      <trkpt lat="59.8316311" lon="17.6605826">
        <ele>6.38586</ele>
        <time>2014-05-20T18:43:34Z</time>
      </trkpt>
      <trkpt lat="59.8316031" lon="17.6606029">
        <ele>5.90527</ele>
        <time>2014-05-20T18:43:35Z</time>
      </trkpt>
      <trkpt lat="59.8315736" lon="17.6606344">
        <ele>5.42456</ele>
        <time>2014-05-20T18:43:36Z</time>
      </trkpt>
      <trkpt lat="59.8315458" lon="17.6606669">
        <ele>5.42456</ele>
        <time>2014-05-20T18:43:37Z</time>
      </trkpt>
      <trkpt lat="59.8315208" lon="17.6606982">
        <ele>5.42456</ele>
        <time>2014-05-20T18:43:38Z</time>
      </trkpt>
      <trkpt lat="59.8314934" lon="17.6607292">
        <ele>5.42456</ele>
        <time>2014-05-20T18:43:39Z</time>
      </trkpt>
      <trkpt lat="59.8314654" lon="17.6607671">
        <ele>4.94385</ele>
        <time>2014-05-20T18:43:40Z</time>
      </trkpt>
      <trkpt lat="59.8314385" lon="17.6608084">
        <ele>3.98267</ele>
        <time>2014-05-20T18:43:41Z</time>
      </trkpt>
      <trkpt lat="59.8314154" lon="17.6608531">
        <ele>3.98267</ele>
        <time>2014-05-20T18:43:42Z</time>
      </trkpt>
      <trkpt lat="59.8313978" lon="17.660896">
        <ele>4.46326</ele>
        <time>2014-05-20T18:43:43Z</time>
      </trkpt>
      <trkpt lat="59.8313763" lon="17.6609363">
        <ele>3.98267</ele>
        <time>2014-05-20T18:43:44Z</time>
      </trkpt>
      <trkpt lat="59.8313576" lon="17.6609803">
        <ele>3.98267</ele>
        <time>2014-05-20T18:43:45Z</time>
      </trkpt>
      <trkpt lat="59.8313435" lon="17.661021">
        <ele>3.98267</ele>
        <time>2014-05-20T18:43:46Z</time>
      </trkpt>
      <trkpt lat="59.8313277" lon="17.6610647">
        <ele>3.98267</ele>
        <time>2014-05-20T18:43:47Z</time>
      </trkpt>
      <trkpt lat="59.831314" lon="17.6611098">
        <ele>3.98267</ele>
        <time>2014-05-20T18:43:48Z</time>
      </trkpt>
      <trkpt lat="59.8313005" lon="17.6611502">
        <ele>4.46326</ele>
        <time>2014-05-20T18:43:49Z</time>
      </trkpt>
      <trkpt lat="59.8312794" lon="17.661195">
        <ele>3.98267</ele>
        <time>2014-05-20T18:43:50Z</time>
      </trkpt>
      <trkpt lat="59.8312569" lon="17.6612436">
        <ele>4.46326</ele>
        <time>2014-05-20T18:43:51Z</time>
      </trkpt>
      <trkpt lat="59.8312348" lon="17.6612892">
        <ele>4.46326</ele>
        <time>2014-05-20T18:43:52Z</time>
      </trkpt>
      <trkpt lat="59.8312084" lon="17.6613249">
        <ele>4.46326</ele>
        <time>2014-05-20T18:43:53Z</time>
      </trkpt>
      <trkpt lat="59.8311815" lon="17.6613606">
        <ele>4.46326</ele>
        <time>2014-05-20T18:43:54Z</time>
      </trkpt>
      <trkpt lat="59.8311612" lon="17.6613947">
        <ele>4.94385</ele>
        <time>2014-05-20T18:43:55Z</time>
      </trkpt>
      <trkpt lat="59.8311441" lon="17.661429">
        <ele>4.94385</ele>
        <time>2014-05-20T18:43:56Z</time>
      </trkpt>
      <trkpt lat="59.8311272" lon="17.6614618">
        <ele>5.90527</ele>
        <time>2014-05-20T18:43:57Z</time>
      </trkpt>
      <trkpt lat="59.8311058" lon="17.6614958">
        <ele>5.90527</ele>
        <time>2014-05-20T18:43:58Z</time>
      </trkpt>
      <trkpt lat="59.8310825" lon="17.6615326">
        <ele>5.90527</ele>
        <time>2014-05-20T18:43:59Z</time>
      </trkpt>
      <trkpt lat="59.8310587" lon="17.661563">
        <ele>5.42456</ele>
        <time>2014-05-20T18:44:00Z</time>
      </trkpt>
      <trkpt lat="59.8310407" lon="17.6616046">
        <ele>5.42456</ele>
        <time>2014-05-20T18:44:01Z</time>
      </trkpt>
      <trkpt lat="59.8310257" lon="17.6616345">
        <ele>5.42456</ele>
        <time>2014-05-20T18:44:02Z</time>
      </trkpt>
      <trkpt lat="59.8310062" lon="17.6616601">
        <ele>5.42456</ele>
        <time>2014-05-20T18:44:03Z</time>
      </trkpt>
      <trkpt lat="59.8309836" lon="17.6616895">
        <ele>5.42456</ele>
        <time>2014-05-20T18:44:04Z</time>
      </trkpt>
      <trkpt lat="59.8309575" lon="17.6617169">
        <ele>5.42456</ele>
        <time>2014-05-20T18:44:05Z</time>
      </trkpt>
      <trkpt lat="59.8309344" lon="17.6617448">
        <ele>4.94385</ele>
        <time>2014-05-20T18:44:06Z</time>
      </trkpt>
      <trkpt lat="59.8309121" lon="17.6617674">
        <ele>4.46326</ele>
        <time>2014-05-20T18:44:07Z</time>
      </trkpt>
      <trkpt lat="59.8308899" lon="17.6617764">
        <ele>4.94385</ele>
        <time>2014-05-20T18:44:08Z</time>
      </trkpt>
      <trkpt lat="59.830865" lon="17.6617967">
        <ele>4.94385</ele>
        <time>2014-05-20T18:44:09Z</time>
      </trkpt>
      <trkpt lat="59.830835" lon="17.6618222">
        <ele>3.98267</ele>
        <time>2014-05-20T18:44:10Z</time>
      </trkpt>
      <trkpt lat="59.8308033" lon="17.6618463">
        <ele>3.98267</ele>
        <time>2014-05-20T18:44:11Z</time>
      </trkpt>
      <trkpt lat="59.8307727" lon="17.6618648">
        <ele>3.98267</ele>
        <time>2014-05-20T18:44:12Z</time>
      </trkpt>
      <trkpt lat="59.8307483" lon="17.6618769">
        <ele>3.98267</ele>
        <time>2014-05-20T18:44:13Z</time>
      </trkpt>
      <trkpt lat="59.8307239" lon="17.6618931">
        <ele>3.50195</ele>
        <time>2014-05-20T18:44:14Z</time>
      </trkpt>
      <trkpt lat="59.8306954" lon="17.6619165">
        <ele>3.50195</ele>
        <time>2014-05-20T18:44:15Z</time>
      </trkpt>
      <trkpt lat="59.8306662" lon="17.6619248">
        <ele>3.02124</ele>
        <time>2014-05-20T18:44:16Z</time>
      </trkpt>
      <trkpt lat="59.8306379" lon="17.6619268">
        <ele>2.54065</ele>
        <time>2014-05-20T18:44:17Z</time>
      </trkpt>
      <trkpt lat="59.8306101" lon="17.6619417">
        <ele>2.54065</ele>
        <time>2014-05-20T18:44:18Z</time>
      </trkpt>
      <trkpt lat="59.8305854" lon="17.6619559">
        <ele>3.50195</ele>
        <time>2014-05-20T18:44:19Z</time>
      </trkpt>
      <trkpt lat="59.8305614" lon="17.6619639">
        <ele>4.46326</ele>
        <time>2014-05-20T18:44:20Z</time>
      </trkpt>
      <trkpt lat="59.830535" lon="17.6619688">
        <ele>4.46326</ele>
        <time>2014-05-20T18:44:21Z</time>
      </trkpt>
      <trkpt lat="59.8305086" lon="17.6619775">
        <ele>4.46326</ele>
        <time>2014-05-20T18:44:22Z</time>
      </trkpt>
      <trkpt lat="59.83048" lon="17.6619855">
        <ele>4.46326</ele>
        <time>2014-05-20T18:44:23Z</time>
      </trkpt>
      <trkpt lat="59.8304519" lon="17.6619824">
        <ele>4.46326</ele>
        <time>2014-05-20T18:44:24Z</time>
      </trkpt>
      <trkpt lat="59.8304247" lon="17.6620109">
        <ele>5.42456</ele>
        <time>2014-05-20T18:44:25Z</time>
      </trkpt>
      <trkpt lat="59.8303976" lon="17.6620299">
        <ele>5.42456</ele>
        <time>2014-05-20T18:44:26Z</time>
      </trkpt>
      <trkpt lat="59.8303694" lon="17.6620532">
        <ele>5.90527</ele>
        <time>2014-05-20T18:44:27Z</time>
      </trkpt>
      <trkpt lat="59.8303435" lon="17.6620707">
        <ele>5.42456</ele>
        <time>2014-05-20T18:44:28Z</time>
      </trkpt>
      <trkpt lat="59.830315" lon="17.6621023">
        <ele>6.38586</ele>
        <time>2014-05-20T18:44:29Z</time>
      </trkpt>
      <trkpt lat="59.8302916" lon="17.6621272">
        <ele>6.86646</ele>
        <time>2014-05-20T18:44:30Z</time>
      </trkpt>
      <trkpt lat="59.8302662" lon="17.662152">
        <ele>6.86646</ele>
        <time>2014-05-20T18:44:31Z</time>
      </trkpt>
      <trkpt lat="59.8302419" lon="17.6621786">
        <ele>7.34717</ele>
        <time>2014-05-20T18:44:32Z</time>
      </trkpt>
      <trkpt lat="59.8302157" lon="17.6622035">
        <ele>7.34717</ele>
        <time>2014-05-20T18:44:33Z</time>
      </trkpt>
      <trkpt lat="59.8301849" lon="17.6622222">
        <ele>6.86646</ele>
        <time>2014-05-20T18:44:34Z</time>
      </trkpt>
      <trkpt lat="59.8301552" lon="17.6622433">
        <ele>6.86646</ele>
        <time>2014-05-20T18:44:35Z</time>
      </trkpt>
      <trkpt lat="59.8301305" lon="17.6622651">
        <ele>7.82788</ele>
        <time>2014-05-20T18:44:36Z</time>
      </trkpt>
      <trkpt lat="59.830101" lon="17.6622839">
        <ele>7.34717</ele>
        <time>2014-05-20T18:44:37Z</time>
      </trkpt>
      <trkpt lat="59.830072" lon="17.6623081">
        <ele>7.82788</ele>
        <time>2014-05-20T18:44:38Z</time>
      </trkpt>
      <trkpt lat="59.8300403" lon="17.6623279">
        <ele>7.34717</ele>
        <time>2014-05-20T18:44:39Z</time>
      </trkpt>
      <trkpt lat="59.8300116" lon="17.6623457">
        <ele>7.82788</ele>
        <time>2014-05-20T18:44:40Z</time>
      </trkpt>
      <trkpt lat="59.8299842" lon="17.6623585">
        <ele>7.82788</ele>
        <time>2014-05-20T18:44:41Z</time>
      </trkpt>
      <trkpt lat="59.8299559" lon="17.6623669">
        <ele>7.82788</ele>
        <time>2014-05-20T18:44:42Z</time>
      </trkpt>
      <trkpt lat="59.829929" lon="17.6623863">
        <ele>8.30859</ele>
        <time>2014-05-20T18:44:43Z</time>
      </trkpt>
      <trkpt lat="59.8298971" lon="17.6624116">
        <ele>7.82788</ele>
        <time>2014-05-20T18:44:44Z</time>
      </trkpt>
      <trkpt lat="59.8298646" lon="17.6624335">
        <ele>7.82788</ele>
        <time>2014-05-20T18:44:45Z</time>
      </trkpt>
      <trkpt lat="59.8298373" lon="17.662454">
        <ele>8.30859</ele>
        <time>2014-05-20T18:44:46Z</time>
      </trkpt>
      <trkpt lat="59.8298099" lon="17.662469">
        <ele>7.82788</ele>
        <time>2014-05-20T18:44:47Z</time>
      </trkpt>
      <trkpt lat="59.8297845" lon="17.6624835">
        <ele>7.82788</ele>
        <time>2014-05-20T18:44:48Z</time>
      </trkpt>
      <trkpt lat="59.8297574" lon="17.6624889">
        <ele>6.38586</ele>
        <time>2014-05-20T18:44:49Z</time>
      </trkpt>
      <trkpt lat="59.8297305" lon="17.6625055">
        <ele>5.90527</ele>
        <time>2014-05-20T18:44:50Z</time>
      </trkpt>
      <trkpt lat="59.8297067" lon="17.6625118">
        <ele>5.42456</ele>
        <time>2014-05-20T18:44:51Z</time>
      </trkpt>
      <trkpt lat="59.829687" lon="17.6625236">
        <ele>5.42456</ele>
        <time>2014-05-20T18:44:52Z</time>
      </trkpt>
      <trkpt lat="59.829669" lon="17.6625406">
        <ele>5.90527</ele>
        <time>2014-05-20T18:44:53Z</time>
      </trkpt>
      <trkpt lat="59.8296472" lon="17.6625527">
        <ele>6.38586</ele>
        <time>2014-05-20T18:44:54Z</time>
      </trkpt>
      <trkpt lat="59.8296248" lon="17.6625608">
        <ele>5.90527</ele>
        <time>2014-05-20T18:44:55Z</time>
      </trkpt>
      <trkpt lat="59.8296003" lon="17.6625583">
        <ele>5.42456</ele>
        <time>2014-05-20T18:44:56Z</time>
      </trkpt>
      <trkpt lat="59.8295757" lon="17.6625654">
        <ele>4.46326</ele>
        <time>2014-05-20T18:44:57Z</time>
      </trkpt>
      <trkpt lat="59.829556" lon="17.6625775">
        <ele>4.94385</ele>
        <time>2014-05-20T18:44:58Z</time>
      </trkpt>
      <trkpt lat="59.8295311" lon="17.6625775">
        <ele>3.98267</ele>
        <time>2014-05-20T18:44:59Z</time>
      </trkpt>
      <trkpt lat="59.8295052" lon="17.6625858">
        <ele>3.98267</ele>
        <time>2014-05-20T18:45:00Z</time>
      </trkpt>
      <trkpt lat="59.8294807" lon="17.6625978">
        <ele>3.98267</ele>
        <time>2014-05-20T18:45:01Z</time>
      </trkpt>
      <trkpt lat="59.8294581" lon="17.6626054">
        <ele>4.46326</ele>
        <time>2014-05-20T18:45:02Z</time>
      </trkpt>
      <trkpt lat="59.829432" lon="17.6626159">
        <ele>3.98267</ele>
        <time>2014-05-20T18:45:03Z</time>
      </trkpt>
      <trkpt lat="59.8294064" lon="17.6626249">
        <ele>3.98267</ele>
        <time>2014-05-20T18:45:04Z</time>
      </trkpt>
      <trkpt lat="59.8293782" lon="17.6626249">
        <ele>3.50195</ele>
        <time>2014-05-20T18:45:05Z</time>
      </trkpt>
      <trkpt lat="59.8293544" lon="17.6626354">
        <ele>3.50195</ele>
        <time>2014-05-20T18:45:06Z</time>
      </trkpt>
      <trkpt lat="59.8293276" lon="17.6626418">
        <ele>3.02124</ele>
        <time>2014-05-20T18:45:07Z</time>
      </trkpt>
      <trkpt lat="59.8293002" lon="17.6626477">
        <ele>3.02124</ele>
        <time>2014-05-20T18:45:08Z</time>
      </trkpt>
      <trkpt lat="59.8292733" lon="17.6626578">
        <ele>3.02124</ele>
        <time>2014-05-20T18:45:09Z</time>
      </trkpt>
      <trkpt lat="59.8292501" lon="17.6626686">
        <ele>3.50195</ele>
        <time>2014-05-20T18:45:10Z</time>
      </trkpt>
      <trkpt lat="59.8292375" lon="17.6626869">
        <ele>5.90527</ele>
        <time>2014-05-20T18:45:11Z</time>
      </trkpt>
      <trkpt lat="59.8292171" lon="17.6627049">
        <ele>6.38586</ele>
        <time>2014-05-20T18:45:12Z</time>
      </trkpt>
      <trkpt lat="59.8291927" lon="17.6627193">
        <ele>6.38586</ele>
        <time>2014-05-20T18:45:13Z</time>
      </trkpt>
      <trkpt lat="59.8291628" lon="17.6627318">
        <ele>6.38586</ele>
        <time>2014-05-20T18:45:14Z</time>
      </trkpt>
      <trkpt lat="59.8291301" lon="17.6627405">
        <ele>5.90527</ele>
        <time>2014-05-20T18:45:15Z</time>
      </trkpt>
      <trkpt lat="59.8291016" lon="17.662753">
        <ele>5.42456</ele>
        <time>2014-05-20T18:45:16Z</time>
      </trkpt>
      <trkpt lat="59.8290702" lon="17.6627627">
        <ele>5.42456</ele>
        <time>2014-05-20T18:45:17Z</time>
      </trkpt>
      <trkpt lat="59.8290405" lon="17.6627743">
        <ele>4.94385</ele>
        <time>2014-05-20T18:45:18Z</time>
      </trkpt>
      <trkpt lat="59.8290126" lon="17.6627914">
        <ele>4.94385</ele>
        <time>2014-05-20T18:45:19Z</time>
      </trkpt>
      <trkpt lat="59.828983" lon="17.6628085">
        <ele>4.46326</ele>
        <time>2014-05-20T18:45:20Z</time>
      </trkpt>
      <trkpt lat="59.8289538" lon="17.6628236">
        <ele>3.98267</ele>
        <time>2014-05-20T18:45:21Z</time>
      </trkpt>
      <trkpt lat="59.828923" lon="17.6628337">
        <ele>3.50195</ele>
        <time>2014-05-20T18:45:22Z</time>
      </trkpt>
      <trkpt lat="59.8288959" lon="17.6628494">
        <ele>3.02124</ele>
        <time>2014-05-20T18:45:23Z</time>
      </trkpt>
      <trkpt lat="59.8288696" lon="17.6628673">
        <ele>3.02124</ele>
        <time>2014-05-20T18:45:24Z</time>
      </trkpt>
      <trkpt lat="59.8288409" lon="17.6628795">
        <ele>2.06006</ele>
        <time>2014-05-20T18:45:25Z</time>
      </trkpt>
      <trkpt lat="59.8288147" lon="17.6628935">
        <ele>2.06006</ele>
        <time>2014-05-20T18:45:26Z</time>
      </trkpt>
      <trkpt lat="59.8287878" lon="17.6629098">
        <ele>2.06006</ele>
        <time>2014-05-20T18:45:27Z</time>
      </trkpt>
      <trkpt lat="59.8287594" lon="17.6629318">
        <ele>2.06006</ele>
        <time>2014-05-20T18:45:28Z</time>
      </trkpt>
      <trkpt lat="59.8287307" lon="17.6629575">
        <ele>2.06006</ele>
        <time>2014-05-20T18:45:29Z</time>
      </trkpt>
      <trkpt lat="59.8287018" lon="17.6629761">
        <ele>1.57935</ele>
        <time>2014-05-20T18:45:30Z</time>
      </trkpt>
      <trkpt lat="59.8286762" lon="17.6629991">
        <ele>2.06006</ele>
        <time>2014-05-20T18:45:31Z</time>
      </trkpt>
      <trkpt lat="59.8286496" lon="17.6630238">
        <ele>2.06006</ele>
        <time>2014-05-20T18:45:32Z</time>
      </trkpt>
      <trkpt lat="59.8286235" lon="17.6630471">
        <ele>2.06006</ele>
        <time>2014-05-20T18:45:33Z</time>
      </trkpt>
      <trkpt lat="59.8285978" lon="17.6630635">
        <ele>1.57935</ele>
        <time>2014-05-20T18:45:34Z</time>
      </trkpt>
      <trkpt lat="59.8285733" lon="17.6630825">
        <ele>1.57935</ele>
        <time>2014-05-20T18:45:35Z</time>
      </trkpt>
      <trkpt lat="59.8285494" lon="17.6630976">
        <ele>1.09863</ele>
        <time>2014-05-20T18:45:36Z</time>
      </trkpt>
      <trkpt lat="59.8285237" lon="17.6631152">
        <ele>1.09863</ele>
        <time>2014-05-20T18:45:37Z</time>
      </trkpt>
      <trkpt lat="59.8284982" lon="17.6631327">
        <ele>1.09863</ele>
        <time>2014-05-20T18:45:38Z</time>
      </trkpt>
      <trkpt lat="59.8284744" lon="17.663153">
        <ele>1.09863</ele>
        <time>2014-05-20T18:45:39Z</time>
      </trkpt>
      <trkpt lat="59.8284495" lon="17.6631728">
        <ele>1.09863</ele>
        <time>2014-05-20T18:45:40Z</time>
      </trkpt>
      <trkpt lat="59.8284263" lon="17.6631856">
        <ele>0.618042</ele>
        <time>2014-05-20T18:45:41Z</time>
      </trkpt>
      <trkpt lat="59.8284056" lon="17.6632037">
        <ele>1.09863</ele>
        <time>2014-05-20T18:45:42Z</time>
      </trkpt>
      <trkpt lat="59.8283833" lon="17.6632232">
        <ele>1.09863</ele>
        <time>2014-05-20T18:45:43Z</time>
      </trkpt>
      <trkpt lat="59.8283532" lon="17.663239">
        <ele>0.618042</ele>
        <time>2014-05-20T18:45:44Z</time>
      </trkpt>
      <trkpt lat="59.8283212" lon="17.6632611">
        <ele>0.618042</ele>
        <time>2014-05-20T18:45:45Z</time>
      </trkpt>
      <trkpt lat="59.82829" lon="17.6632902">
        <ele>0.618042</ele>
        <time>2014-05-20T18:45:46Z</time>
      </trkpt>
      <trkpt lat="59.8282589" lon="17.6633141">
        <ele>0.618042</ele>
        <time>2014-05-20T18:45:47Z</time>
      </trkpt>
      <trkpt lat="59.8282304" lon="17.6633359">
        <ele>0.618042</ele>
        <time>2014-05-20T18:45:48Z</time>
      </trkpt>
      <trkpt lat="59.8282004" lon="17.6633543">
        <ele>0.137451</ele>
        <time>2014-05-20T18:45:49Z</time>
      </trkpt>
      <trkpt lat="59.8281746" lon="17.6633768">
        <ele>0.618042</ele>
        <time>2014-05-20T18:45:50Z</time>
      </trkpt>
      <trkpt lat="59.8281485" lon="17.6633953">
        <ele>0.618042</ele>
        <time>2014-05-20T18:45:51Z</time>
      </trkpt>
      <trkpt lat="59.8281215" lon="17.6634172">
        <ele>0.618042</ele>
        <time>2014-05-20T18:45:52Z</time>
      </trkpt>
      <trkpt lat="59.8280939" lon="17.6634318">
        <ele>0.137451</ele>
        <time>2014-05-20T18:45:53Z</time>
      </trkpt>
      <trkpt lat="59.8280642" lon="17.6634485">
        <ele>0</ele>
        <time>2014-05-20T18:45:54Z</time>
      </trkpt>
      <trkpt lat="59.8280385" lon="17.6634602">
        <ele>0.137451</ele>
        <time>2014-05-20T18:45:55Z</time>
      </trkpt>
      <trkpt lat="59.8280121" lon="17.6634685">
        <ele>0.137451</ele>
        <time>2014-05-20T18:45:56Z</time>
      </trkpt>
      <trkpt lat="59.8279844" lon="17.6634828">
        <ele>0.137451</ele>
        <time>2014-05-20T18:45:57Z</time>
      </trkpt>
      <trkpt lat="59.827958" lon="17.6634979">
        <ele>0.618042</ele>
        <time>2014-05-20T18:45:58Z</time>
      </trkpt>
      <trkpt lat="59.8279306" lon="17.6635149">
        <ele>1.09863</ele>
        <time>2014-05-20T18:45:59Z</time>
      </trkpt>
      <trkpt lat="59.8279028" lon="17.6635337">
        <ele>1.09863</ele>
        <time>2014-05-20T18:46:00Z</time>
      </trkpt>
      <trkpt lat="59.8278769" lon="17.6635633">
        <ele>1.57935</ele>
        <time>2014-05-20T18:46:01Z</time>
      </trkpt>
      <trkpt lat="59.827848" lon="17.6635797">
        <ele>1.57935</ele>
        <time>2014-05-20T18:46:02Z</time>
      </trkpt>
      <trkpt lat="59.8278211" lon="17.6635922">
        <ele>1.57935</ele>
        <time>2014-05-20T18:46:03Z</time>
      </trkpt>
      <trkpt lat="59.8277942" lon="17.6636114">
        <ele>1.57935</ele>
        <time>2014-05-20T18:46:04Z</time>
      </trkpt>
      <trkpt lat="59.8277672" lon="17.6636311">
        <ele>2.06006</ele>
        <time>2014-05-20T18:46:05Z</time>
      </trkpt>
      <trkpt lat="59.8277435" lon="17.6636523">
        <ele>2.54065</ele>
        <time>2014-05-20T18:46:06Z</time>
      </trkpt>
      <trkpt lat="59.8277154" lon="17.6636663">
        <ele>2.06006</ele>
        <time>2014-05-20T18:46:07Z</time>
      </trkpt>
      <trkpt lat="59.8276875" lon="17.6636856">
        <ele>2.06006</ele>
        <time>2014-05-20T18:46:08Z</time>
      </trkpt>
      <trkpt lat="59.8276628" lon="17.6637094">
        <ele>2.54065</ele>
        <time>2014-05-20T18:46:09Z</time>
      </trkpt>
      <trkpt lat="59.8276357" lon="17.6637326">
        <ele>2.54065</ele>
        <time>2014-05-20T18:46:10Z</time>
      </trkpt>
      <trkpt lat="59.8276086" lon="17.663754">
        <ele>2.54065</ele>
        <time>2014-05-20T18:46:11Z</time>
      </trkpt>
      <trkpt lat="59.8275809" lon="17.6637747">
        <ele>3.02124</ele>
        <time>2014-05-20T18:46:12Z</time>
      </trkpt>
      <trkpt lat="59.8275544" lon="17.6637932">
        <ele>3.50195</ele>
        <time>2014-05-20T18:46:13Z</time>
      </trkpt>
      <trkpt lat="59.8275307" lon="17.6638026">
        <ele>3.50195</ele>
        <time>2014-05-20T18:46:14Z</time>
      </trkpt>
      <trkpt lat="59.8275051" lon="17.6638106">
        <ele>3.50195</ele>
        <time>2014-05-20T18:46:15Z</time>
      </trkpt>
      <trkpt lat="59.8274799" lon="17.6638304">
        <ele>3.50195</ele>
        <time>2014-05-20T18:46:16Z</time>
      </trkpt>
      <trkpt lat="59.8274534" lon="17.6638498">
        <ele>3.50195</ele>
        <time>2014-05-20T18:46:17Z</time>
      </trkpt>
      <trkpt lat="59.8274257" lon="17.6638724">
        <ele>3.02124</ele>
        <time>2014-05-20T18:46:18Z</time>
      </trkpt>
      <trkpt lat="59.8274001" lon="17.6638995">
        <ele>3.50195</ele>
        <time>2014-05-20T18:46:19Z</time>
      </trkpt>
      <trkpt lat="59.8273725" lon="17.6639192">
        <ele>3.50195</ele>
        <time>2014-05-20T18:46:20Z</time>
      </trkpt>
      <trkpt lat="59.8273472" lon="17.6639352">
        <ele>3.02124</ele>
        <time>2014-05-20T18:46:21Z</time>
      </trkpt>
      <trkpt lat="59.8273232" lon="17.6639528">
        <ele>3.02124</ele>
        <time>2014-05-20T18:46:22Z</time>
      </trkpt>
      <trkpt lat="59.8272986" lon="17.6639767">
        <ele>3.02124</ele>
        <time>2014-05-20T18:46:23Z</time>
      </trkpt>
      <trkpt lat="59.8272741" lon="17.6640046">
        <ele>3.50195</ele>
        <time>2014-05-20T18:46:24Z</time>
      </trkpt>
      <trkpt lat="59.8272477" lon="17.6640292">
        <ele>3.50195</ele>
        <time>2014-05-20T18:46:25Z</time>
      </trkpt>
      <trkpt lat="59.8272237" lon="17.6640487">
        <ele>3.02124</ele>
        <time>2014-05-20T18:46:26Z</time>
      </trkpt>
      <trkpt lat="59.8272012" lon="17.6640698">
        <ele>3.50195</ele>
        <time>2014-05-20T18:46:27Z</time>
      </trkpt>
      <trkpt lat="59.8271743" lon="17.6640893">
        <ele>3.02124</ele>
        <time>2014-05-20T18:46:28Z</time>
      </trkpt>
      <trkpt lat="59.8271501" lon="17.6641087">
        <ele>3.02124</ele>
        <time>2014-05-20T18:46:29Z</time>
      </trkpt>
      <trkpt lat="59.8271268" lon="17.6641272">
        <ele>3.50195</ele>
        <time>2014-05-20T18:46:30Z</time>
      </trkpt>
      <trkpt lat="59.827101" lon="17.6641469">
        <ele>3.02124</ele>
        <time>2014-05-20T18:46:31Z</time>
      </trkpt>
      <trkpt lat="59.8270789" lon="17.664167">
        <ele>3.02124</ele>
        <time>2014-05-20T18:46:32Z</time>
      </trkpt>
      <trkpt lat="59.8270561" lon="17.6641881">
        <ele>3.02124</ele>
        <time>2014-05-20T18:46:33Z</time>
      </trkpt>
      <trkpt lat="59.8270331" lon="17.6642132">
        <ele>3.02124</ele>
        <time>2014-05-20T18:46:34Z</time>
      </trkpt>
      <trkpt lat="59.82701" lon="17.6642434">
        <ele>3.02124</ele>
        <time>2014-05-20T18:46:35Z</time>
      </trkpt>
      <trkpt lat="59.8269851" lon="17.6642717">
        <ele>3.50195</ele>
        <time>2014-05-20T18:46:36Z</time>
      </trkpt>
      <trkpt lat="59.8269612" lon="17.6642993">
        <ele>3.50195</ele>
        <time>2014-05-20T18:46:37Z</time>
      </trkpt>
      <trkpt lat="59.8269372" lon="17.6643236">
        <ele>3.50195</ele>
        <time>2014-05-20T18:46:38Z</time>
      </trkpt>
      <trkpt lat="59.8269152" lon="17.664352">
        <ele>3.50195</ele>
        <time>2014-05-20T18:46:39Z</time>
      </trkpt>
      <trkpt lat="59.8268917" lon="17.6643825">
        <ele>3.50195</ele>
        <time>2014-05-20T18:46:40Z</time>
      </trkpt>
      <trkpt lat="59.826867" lon="17.6644112">
        <ele>3.50195</ele>
        <time>2014-05-20T18:46:41Z</time>
      </trkpt>
      <trkpt lat="59.8268435" lon="17.66444">
        <ele>3.98267</ele>
        <time>2014-05-20T18:46:42Z</time>
      </trkpt>
      <trkpt lat="59.8268188" lon="17.6644631">
        <ele>3.98267</ele>
        <time>2014-05-20T18:46:43Z</time>
      </trkpt>
      <trkpt lat="59.8267949" lon="17.664488">
        <ele>3.98267</ele>
        <time>2014-05-20T18:46:44Z</time>
      </trkpt>
      <trkpt lat="59.8267706" lon="17.6645169">
        <ele>3.98267</ele>
        <time>2014-05-20T18:46:45Z</time>
      </trkpt>
      <trkpt lat="59.8267479" lon="17.6645498">
        <ele>4.46326</ele>
        <time>2014-05-20T18:46:46Z</time>
      </trkpt>
      <trkpt lat="59.8267267" lon="17.6645863">
        <ele>4.94385</ele>
        <time>2014-05-20T18:46:47Z</time>
      </trkpt>
      <trkpt lat="59.8267023" lon="17.6646195">
        <ele>4.46326</ele>
        <time>2014-05-20T18:46:48Z</time>
      </trkpt>
      <trkpt lat="59.8266784" lon="17.6646411">
        <ele>3.98267</ele>
        <time>2014-05-20T18:46:49Z</time>
      </trkpt>
      <trkpt lat="59.8266583" lon="17.6646645">
        <ele>4.46326</ele>
        <time>2014-05-20T18:46:50Z</time>
      </trkpt>
      <trkpt lat="59.8266344" lon="17.6646941">
        <ele>4.94385</ele>
        <time>2014-05-20T18:46:51Z</time>
      </trkpt>
      <trkpt lat="59.8266093" lon="17.6647232">
        <ele>4.94385</ele>
        <time>2014-05-20T18:46:52Z</time>
      </trkpt>
      <trkpt lat="59.8265858" lon="17.6647454">
        <ele>4.46326</ele>
        <time>2014-05-20T18:46:53Z</time>
      </trkpt>
      <trkpt lat="59.8265598" lon="17.664776">
        <ele>4.46326</ele>
        <time>2014-05-20T18:46:54Z</time>
      </trkpt>
      <trkpt lat="59.826537" lon="17.6648068">
        <ele>4.46326</ele>
        <time>2014-05-20T18:46:55Z</time>
      </trkpt>
      <trkpt lat="59.8265101" lon="17.664828">
        <ele>4.46326</ele>
        <time>2014-05-20T18:46:56Z</time>
      </trkpt>
      <trkpt lat="59.8264848" lon="17.6648465">
        <ele>3.98267</ele>
        <time>2014-05-20T18:46:57Z</time>
      </trkpt>
      <trkpt lat="59.8264622" lon="17.6648748">
        <ele>3.98267</ele>
        <time>2014-05-20T18:46:58Z</time>
      </trkpt>
      <trkpt lat="59.8264376" lon="17.6648957">
        <ele>3.98267</ele>
        <time>2014-05-20T18:46:59Z</time>
      </trkpt>
      <trkpt lat="59.8264152" lon="17.664924">
        <ele>4.46326</ele>
        <time>2014-05-20T18:47:00Z</time>
      </trkpt>
      <trkpt lat="59.8263933" lon="17.6649506">
        <ele>4.46326</ele>
        <time>2014-05-20T18:47:01Z</time>
      </trkpt>
      <trkpt lat="59.826369" lon="17.664976">
        <ele>4.46326</ele>
        <time>2014-05-20T18:47:02Z</time>
      </trkpt>
      <trkpt lat="59.8263444" lon="17.6650013">
        <ele>4.46326</ele>
        <time>2014-05-20T18:47:03Z</time>
      </trkpt>
      <trkpt lat="59.8263203" lon="17.6650265">
        <ele>4.46326</ele>
        <time>2014-05-20T18:47:04Z</time>
      </trkpt>
      <trkpt lat="59.8262975" lon="17.665057">
        <ele>4.46326</ele>
        <time>2014-05-20T18:47:05Z</time>
      </trkpt>
      <trkpt lat="59.8262753" lon="17.6650857">
        <ele>4.46326</ele>
        <time>2014-05-20T18:47:06Z</time>
      </trkpt>
      <trkpt lat="59.8262509" lon="17.6651077">
        <ele>4.46326</ele>
        <time>2014-05-20T18:47:07Z</time>
      </trkpt>
      <trkpt lat="59.8262273" lon="17.665135">
        <ele>4.94385</ele>
        <time>2014-05-20T18:47:08Z</time>
      </trkpt>
      <trkpt lat="59.8262032" lon="17.6651572">
        <ele>4.46326</ele>
        <time>2014-05-20T18:47:09Z</time>
      </trkpt>
      <trkpt lat="59.8261773" lon="17.6651907">
        <ele>4.46326</ele>
        <time>2014-05-20T18:47:10Z</time>
      </trkpt>
      <trkpt lat="59.8261512" lon="17.6652204">
        <ele>4.46326</ele>
        <time>2014-05-20T18:47:11Z</time>
      </trkpt>
      <trkpt lat="59.8261231" lon="17.665244">
        <ele>3.98267</ele>
        <time>2014-05-20T18:47:12Z</time>
      </trkpt>
      <trkpt lat="59.8260952" lon="17.6652753">
        <ele>3.50195</ele>
        <time>2014-05-20T18:47:13Z</time>
      </trkpt>
      <trkpt lat="59.8260688" lon="17.6653068">
        <ele>3.50195</ele>
        <time>2014-05-20T18:47:14Z</time>
      </trkpt>
      <trkpt lat="59.8260412" lon="17.6653258">
        <ele>2.54065</ele>
        <time>2014-05-20T18:47:15Z</time>
      </trkpt>
      <trkpt lat="59.8260154" lon="17.6653474">
        <ele>2.54065</ele>
        <time>2014-05-20T18:47:16Z</time>
      </trkpt>
      <trkpt lat="59.8259925" lon="17.6653628">
        <ele>2.06006</ele>
        <time>2014-05-20T18:47:17Z</time>
      </trkpt>
      <trkpt lat="59.8259692" lon="17.6653752">
        <ele>1.09863</ele>
        <time>2014-05-20T18:47:18Z</time>
      </trkpt>
      <trkpt lat="59.8259463" lon="17.6653949">
        <ele>1.57935</ele>
        <time>2014-05-20T18:47:19Z</time>
      </trkpt>
      <trkpt lat="59.8259225" lon="17.665417">
        <ele>1.57935</ele>
        <time>2014-05-20T18:47:20Z</time>
      </trkpt>
      <trkpt lat="59.8258977" lon="17.6654387">
        <ele>1.09863</ele>
        <time>2014-05-20T18:47:21Z</time>
      </trkpt>
      <trkpt lat="59.8258729" lon="17.6654638">
        <ele>0.137451</ele>
        <time>2014-05-20T18:47:22Z</time>
      </trkpt>
      <trkpt lat="59.8258455" lon="17.6654908">
        <ele>0</ele>
        <time>2014-05-20T18:47:23Z</time>
      </trkpt>
      <trkpt lat="59.8258204" lon="17.6655199">
        <ele>0</ele>
        <time>2014-05-20T18:47:24Z</time>
      </trkpt>
      <trkpt lat="59.8257964" lon="17.6655408">
        <ele>0</ele>
        <time>2014-05-20T18:47:25Z</time>
      </trkpt>
      <trkpt lat="59.8257731" lon="17.6655607">
        <ele>0</ele>
        <time>2014-05-20T18:47:26Z</time>
      </trkpt>
      <trkpt lat="59.825751" lon="17.6655773">
        <ele>0</ele>
        <time>2014-05-20T18:47:27Z</time>
      </trkpt>
      <trkpt lat="59.8257289" lon="17.6656011">
        <ele>0</ele>
        <time>2014-05-20T18:47:28Z</time>
      </trkpt>
      <trkpt lat="59.8257061" lon="17.6656234">
        <ele>0</ele>
        <time>2014-05-20T18:47:29Z</time>
      </trkpt>
      <trkpt lat="59.8256858" lon="17.6656465">
        <ele>0</ele>
        <time>2014-05-20T18:47:30Z</time>
      </trkpt>
      <trkpt lat="59.8256657" lon="17.6656632">
        <ele>0</ele>
        <time>2014-05-20T18:47:31Z</time>
      </trkpt>
      <trkpt lat="59.8256444" lon="17.6656845">
        <ele>0</ele>
        <time>2014-05-20T18:47:32Z</time>
      </trkpt>
      <trkpt lat="59.8256221" lon="17.6657083">
        <ele>0</ele>
        <time>2014-05-20T18:47:33Z</time>
      </trkpt>
      <trkpt lat="59.8256002" lon="17.6657337">
        <ele>0</ele>
        <time>2014-05-20T18:47:34Z</time>
      </trkpt>
      <trkpt lat="59.8255803" lon="17.6657507">
        <ele>0</ele>
        <time>2014-05-20T18:47:35Z</time>
      </trkpt>
      <trkpt lat="59.8255615" lon="17.6657646">
        <ele>0</ele>
        <time>2014-05-20T18:47:36Z</time>
      </trkpt>
      <trkpt lat="59.8255439" lon="17.6657845">
        <ele>0</ele>
        <time>2014-05-20T18:47:37Z</time>
      </trkpt>
      <trkpt lat="59.8255243" lon="17.665806">
        <ele>0</ele>
        <time>2014-05-20T18:47:38Z</time>
      </trkpt>
      <trkpt lat="59.8255001" lon="17.665827">
        <ele>0</ele>
        <time>2014-05-20T18:47:39Z</time>
      </trkpt>
      <trkpt lat="59.8254783" lon="17.6658471">
        <ele>0</ele>
        <time>2014-05-20T18:47:40Z</time>
      </trkpt>
      <trkpt lat="59.8254579" lon="17.6658732">
        <ele>0</ele>
        <time>2014-05-20T18:47:41Z</time>
      </trkpt>
      <trkpt lat="59.8254342" lon="17.6659016">
        <ele>0</ele>
        <time>2014-05-20T18:47:42Z</time>
      </trkpt>
      <trkpt lat="59.8254105" lon="17.6659253">
        <ele>0</ele>
        <time>2014-05-20T18:47:43Z</time>
      </trkpt>
      <trkpt lat="59.8253881" lon="17.6659472">
        <ele>0</ele>
        <time>2014-05-20T18:47:44Z</time>
      </trkpt>
      <trkpt lat="59.8253662" lon="17.6659684">
        <ele>0</ele>
        <time>2014-05-20T18:47:45Z</time>
      </trkpt>
      <trkpt lat="59.8253455" lon="17.6659869">
        <ele>0</ele>
        <time>2014-05-20T18:47:46Z</time>
      </trkpt>
      <trkpt lat="59.8253233" lon="17.6660024">
        <ele>0</ele>
        <time>2014-05-20T18:47:47Z</time>
      </trkpt>
      <trkpt lat="59.825299" lon="17.66602">
        <ele>0</ele>
        <time>2014-05-20T18:47:48Z</time>
      </trkpt>
      <trkpt lat="59.825277" lon="17.6660439">
        <ele>0</ele>
        <time>2014-05-20T18:47:49Z</time>
      </trkpt>
      <trkpt lat="59.8252518" lon="17.6660616">
        <ele>0.137451</ele>
        <time>2014-05-20T18:47:50Z</time>
      </trkpt>
      <trkpt lat="59.8252283" lon="17.6660765">
        <ele>0.618042</ele>
        <time>2014-05-20T18:47:51Z</time>
      </trkpt>
      <trkpt lat="59.8252037" lon="17.6660975">
        <ele>0.618042</ele>
        <time>2014-05-20T18:47:52Z</time>
      </trkpt>
      <trkpt lat="59.8251788" lon="17.6661187">
        <ele>0.618042</ele>
        <time>2014-05-20T18:47:53Z</time>
      </trkpt>
      <trkpt lat="59.825155" lon="17.6661415">
        <ele>0.618042</ele>
        <time>2014-05-20T18:47:54Z</time>
      </trkpt>
      <trkpt lat="59.8251344" lon="17.6661662">
        <ele>1.09863</ele>
        <time>2014-05-20T18:47:55Z</time>
      </trkpt>
      <trkpt lat="59.8251123" lon="17.6661926">
        <ele>1.57935</ele>
        <time>2014-05-20T18:47:56Z</time>
      </trkpt>
      <trkpt lat="59.8250911" lon="17.6662175">
        <ele>2.06006</ele>
        <time>2014-05-20T18:47:57Z</time>
      </trkpt>
      <trkpt lat="59.8250705" lon="17.6662406">
        <ele>2.06006</ele>
        <time>2014-05-20T18:47:58Z</time>
      </trkpt>
      <trkpt lat="59.8250484" lon="17.6662662">
        <ele>2.54065</ele>
        <time>2014-05-20T18:47:59Z</time>
      </trkpt>
      <trkpt lat="59.8250274" lon="17.666289">
        <ele>2.54065</ele>
        <time>2014-05-20T18:48:00Z</time>
      </trkpt>
      <trkpt lat="59.8250079" lon="17.6663166">
        <ele>2.54065</ele>
        <time>2014-05-20T18:48:01Z</time>
      </trkpt>
      <trkpt lat="59.8249891" lon="17.6663443">
        <ele>3.02124</ele>
        <time>2014-05-20T18:48:02Z</time>
      </trkpt>
      <trkpt lat="59.8249703" lon="17.6663635">
        <ele>3.50195</ele>
        <time>2014-05-20T18:48:03Z</time>
      </trkpt>
      <trkpt lat="59.8249481" lon="17.6663915">
        <ele>3.50195</ele>
        <time>2014-05-20T18:48:04Z</time>
      </trkpt>
      <trkpt lat="59.824923" lon="17.6664206">
        <ele>3.50195</ele>
        <time>2014-05-20T18:48:05Z</time>
      </trkpt>
      <trkpt lat="59.8249007" lon="17.6664453">
        <ele>3.98267</ele>
        <time>2014-05-20T18:48:06Z</time>
      </trkpt>
      <trkpt lat="59.8248799" lon="17.6664642">
        <ele>3.98267</ele>
        <time>2014-05-20T18:48:07Z</time>
      </trkpt>
      <trkpt lat="59.8248574" lon="17.6664842">
        <ele>3.98267</ele>
        <time>2014-05-20T18:48:08Z</time>
      </trkpt>
      <trkpt lat="59.8248342" lon="17.6665117">
        <ele>4.46326</ele>
        <time>2014-05-20T18:48:09Z</time>
      </trkpt>
      <trkpt lat="59.824807" lon="17.6665375">
        <ele>4.46326</ele>
        <time>2014-05-20T18:48:10Z</time>
      </trkpt>
      <trkpt lat="59.8247779" lon="17.6665656">
        <ele>3.98267</ele>
        <time>2014-05-20T18:48:11Z</time>
      </trkpt>
      <trkpt lat="59.8247523" lon="17.6665909">
        <ele>4.46326</ele>
        <time>2014-05-20T18:48:12Z</time>
      </trkpt>
      <trkpt lat="59.8247245" lon="17.6666108">
        <ele>3.98267</ele>
        <time>2014-05-20T18:48:13Z</time>
      </trkpt>
      <trkpt lat="59.8246965" lon="17.6666318">
        <ele>3.98267</ele>
        <time>2014-05-20T18:48:14Z</time>
      </trkpt>
      <trkpt lat="59.8246704" lon="17.6666527">
        <ele>3.98267</ele>
        <time>2014-05-20T18:48:15Z</time>
      </trkpt>
      <trkpt lat="59.8246428" lon="17.6666625">
        <ele>3.50195</ele>
        <time>2014-05-20T18:48:16Z</time>
      </trkpt>
      <trkpt lat="59.8246179" lon="17.6666709">
        <ele>3.50195</ele>
        <time>2014-05-20T18:48:17Z</time>
      </trkpt>
      <trkpt lat="59.8245956" lon="17.666678">
        <ele>3.50195</ele>
        <time>2014-05-20T18:48:18Z</time>
      </trkpt>
      <trkpt lat="59.8245707" lon="17.6666867">
        <ele>3.02124</ele>
        <time>2014-05-20T18:48:19Z</time>
      </trkpt>
      <trkpt lat="59.8245452" lon="17.6666936">
        <ele>2.54065</ele>
        <time>2014-05-20T18:48:20Z</time>
      </trkpt>
      <trkpt lat="59.824519" lon="17.666708">
        <ele>2.54065</ele>
        <time>2014-05-20T18:48:21Z</time>
      </trkpt>
      <trkpt lat="59.8244918" lon="17.6667075">
        <ele>2.54065</ele>
        <time>2014-05-20T18:48:22Z</time>
      </trkpt>
      <trkpt lat="59.8244655" lon="17.6667045">
        <ele>2.54065</ele>
        <time>2014-05-20T18:48:23Z</time>
      </trkpt>
      <trkpt lat="59.8244397" lon="17.6667085">
        <ele>3.02124</ele>
        <time>2014-05-20T18:48:24Z</time>
      </trkpt>
      <trkpt lat="59.8244133" lon="17.6666996">
        <ele>2.54065</ele>
        <time>2014-05-20T18:48:25Z</time>
      </trkpt>
      <trkpt lat="59.8243882" lon="17.6667019">
        <ele>2.54065</ele>
        <time>2014-05-20T18:48:26Z</time>
      </trkpt>
      <trkpt lat="59.8243635" lon="17.6667063">
        <ele>2.54065</ele>
        <time>2014-05-20T18:48:27Z</time>
      </trkpt>
      <trkpt lat="59.824338" lon="17.6667105">
        <ele>2.54065</ele>
        <time>2014-05-20T18:48:28Z</time>
      </trkpt>
      <trkpt lat="59.8243145" lon="17.6667164">
        <ele>2.54065</ele>
        <time>2014-05-20T18:48:29Z</time>
      </trkpt>
      <trkpt lat="59.8242918" lon="17.6667219">
        <ele>3.02124</ele>
        <time>2014-05-20T18:48:30Z</time>
      </trkpt>
      <trkpt lat="59.8242685" lon="17.6667236">
        <ele>3.02124</ele>
        <time>2014-05-20T18:48:31Z</time>
      </trkpt>
      <trkpt lat="59.8242469" lon="17.6667279">
        <ele>3.02124</ele>
        <time>2014-05-20T18:48:32Z</time>
      </trkpt>
      <trkpt lat="59.8242231" lon="17.6667289">
        <ele>3.02124</ele>
        <time>2014-05-20T18:48:33Z</time>
      </trkpt>
      <trkpt lat="59.8242001" lon="17.6667343">
        <ele>3.02124</ele>
        <time>2014-05-20T18:48:34Z</time>
      </trkpt>
      <trkpt lat="59.8241737" lon="17.6667412">
        <ele>3.02124</ele>
        <time>2014-05-20T18:48:35Z</time>
      </trkpt>
      <trkpt lat="59.8241433" lon="17.6667505">
        <ele>3.02124</ele>
        <time>2014-05-20T18:48:36Z</time>
      </trkpt>
      <trkpt lat="59.8241143" lon="17.6667696">
        <ele>3.02124</ele>
        <time>2014-05-20T18:48:37Z</time>
      </trkpt>
      <trkpt lat="59.8240851" lon="17.6667892">
        <ele>3.02124</ele>
        <time>2014-05-20T18:48:38Z</time>
      </trkpt>
      <trkpt lat="59.8240568" lon="17.6668167">
        <ele>2.54065</ele>
        <time>2014-05-20T18:48:39Z</time>
      </trkpt>
      <trkpt lat="59.8240302" lon="17.6668448">
        <ele>2.54065</ele>
        <time>2014-05-20T18:48:40Z</time>
      </trkpt>
      <trkpt lat="59.8240029" lon="17.6668646">
        <ele>2.54065</ele>
        <time>2014-05-20T18:48:41Z</time>
      </trkpt>
      <trkpt lat="59.8239779" lon="17.6668819">
        <ele>2.54065</ele>
        <time>2014-05-20T18:48:42Z</time>
      </trkpt>
      <trkpt lat="59.8239526" lon="17.6669024">
        <ele>2.06006</ele>
        <time>2014-05-20T18:48:43Z</time>
      </trkpt>
      <trkpt lat="59.8239266" lon="17.6669273">
        <ele>2.06006</ele>
        <time>2014-05-20T18:48:44Z</time>
      </trkpt>
      <trkpt lat="59.8239025" lon="17.6669449">
        <ele>2.06006</ele>
        <time>2014-05-20T18:48:45Z</time>
      </trkpt>
      <trkpt lat="59.823879" lon="17.6669635">
        <ele>2.06006</ele>
        <time>2014-05-20T18:48:46Z</time>
      </trkpt>
      <trkpt lat="59.823854" lon="17.6669819">
        <ele>2.06006</ele>
        <time>2014-05-20T18:48:47Z</time>
      </trkpt>
      <trkpt lat="59.8238304" lon="17.667">
        <ele>2.06006</ele>
        <time>2014-05-20T18:48:48Z</time>
      </trkpt>
      <trkpt lat="59.8238057" lon="17.6670173">
        <ele>2.06006</ele>
        <time>2014-05-20T18:48:49Z</time>
      </trkpt>
      <trkpt lat="59.8237771" lon="17.6670338">
        <ele>1.09863</ele>
        <time>2014-05-20T18:48:50Z</time>
      </trkpt>
      <trkpt lat="59.8237517" lon="17.6670549">
        <ele>1.09863</ele>
        <time>2014-05-20T18:48:51Z</time>
      </trkpt>
      <trkpt lat="59.8237278" lon="17.6670681">
        <ele>0.618042</ele>
        <time>2014-05-20T18:48:52Z</time>
      </trkpt>
      <trkpt lat="59.8237024" lon="17.667087">
        <ele>0.618042</ele>
        <time>2014-05-20T18:48:53Z</time>
      </trkpt>
      <trkpt lat="59.8236813" lon="17.6671033">
        <ele>0.618042</ele>
        <time>2014-05-20T18:48:54Z</time>
      </trkpt>
      <trkpt lat="59.8236574" lon="17.6671221">
        <ele>0.137451</ele>
        <time>2014-05-20T18:48:55Z</time>
      </trkpt>
      <trkpt lat="59.8236334" lon="17.6671381">
        <ele>0.137451</ele>
        <time>2014-05-20T18:48:56Z</time>
      </trkpt>
      <trkpt lat="59.8236108" lon="17.6671572">
        <ele>0.137451</ele>
        <time>2014-05-20T18:48:57Z</time>
      </trkpt>
      <trkpt lat="59.8235883" lon="17.6671732">
        <ele>0.618042</ele>
        <time>2014-05-20T18:48:58Z</time>
      </trkpt>
      <trkpt lat="59.823566" lon="17.6671896">
        <ele>0.618042</ele>
        <time>2014-05-20T18:48:59Z</time>
      </trkpt>
      <trkpt lat="59.8235463" lon="17.6672069">
        <ele>1.09863</ele>
        <time>2014-05-20T18:49:00Z</time>
      </trkpt>
      <trkpt lat="59.8235242" lon="17.667223">
        <ele>1.57935</ele>
        <time>2014-05-20T18:49:01Z</time>
      </trkpt>
      <trkpt lat="59.8235024" lon="17.6672354">
        <ele>2.54065</ele>
        <time>2014-05-20T18:49:02Z</time>
      </trkpt>
      <trkpt lat="59.8234781" lon="17.6672525">
        <ele>2.54065</ele>
        <time>2014-05-20T18:49:03Z</time>
      </trkpt>
      <trkpt lat="59.8234528" lon="17.6672701">
        <ele>2.54065</ele>
        <time>2014-05-20T18:49:04Z</time>
      </trkpt>
      <trkpt lat="59.8234326" lon="17.6672836">
        <ele>2.54065</ele>
        <time>2014-05-20T18:49:05Z</time>
      </trkpt>
      <trkpt lat="59.8234083" lon="17.6673022">
        <ele>3.02124</ele>
        <time>2014-05-20T18:49:06Z</time>
      </trkpt>
      <trkpt lat="59.8233916" lon="17.6673205">
        <ele>4.46326</ele>
        <time>2014-05-20T18:49:07Z</time>
      </trkpt>
      <trkpt lat="59.823374" lon="17.6673358">
        <ele>5.90527</ele>
        <time>2014-05-20T18:49:08Z</time>
      </trkpt>
      <trkpt lat="59.8233547" lon="17.6673536">
        <ele>6.38586</ele>
        <time>2014-05-20T18:49:09Z</time>
      </trkpt>
      <trkpt lat="59.8233419" lon="17.6673701">
        <ele>7.82788</ele>
        <time>2014-05-20T18:49:10Z</time>
      </trkpt>
      <trkpt lat="59.8233241" lon="17.667388">
        <ele>8.30859</ele>
        <time>2014-05-20T18:49:11Z</time>
      </trkpt>
      <trkpt lat="59.8232965" lon="17.6673985">
        <ele>7.82788</ele>
        <time>2014-05-20T18:49:12Z</time>
      </trkpt>
      <trkpt lat="59.8232679" lon="17.667402">
        <ele>7.82788</ele>
        <time>2014-05-20T18:49:13Z</time>
      </trkpt>
      <trkpt lat="59.8232436" lon="17.6674141">
        <ele>7.82788</ele>
        <time>2014-05-20T18:49:14Z</time>
      </trkpt>
      <trkpt lat="59.8232181" lon="17.6674178">
        <ele>7.34717</ele>
        <time>2014-05-20T18:49:15Z</time>
      </trkpt>
      <trkpt lat="59.8231903" lon="17.6674289">
        <ele>7.34717</ele>
        <time>2014-05-20T18:49:16Z</time>
      </trkpt>
      <trkpt lat="59.8231622" lon="17.6674436">
        <ele>7.34717</ele>
        <time>2014-05-20T18:49:17Z</time>
      </trkpt>
      <trkpt lat="59.8231353" lon="17.6674503">
        <ele>6.86646</ele>
        <time>2014-05-20T18:49:18Z</time>
      </trkpt>
      <trkpt lat="59.8231128" lon="17.6674628">
        <ele>7.34717</ele>
        <time>2014-05-20T18:49:19Z</time>
      </trkpt>
      <trkpt lat="59.8230896" lon="17.667485">
        <ele>7.82788</ele>
        <time>2014-05-20T18:49:20Z</time>
      </trkpt>
      <trkpt lat="59.8230594" lon="17.6674974">
        <ele>7.34717</ele>
        <time>2014-05-20T18:49:21Z</time>
      </trkpt>
      <trkpt lat="59.82303" lon="17.6675043">
        <ele>6.86646</ele>
        <time>2014-05-20T18:49:22Z</time>
      </trkpt>
      <trkpt lat="59.8230019" lon="17.6675037">
        <ele>6.86646</ele>
        <time>2014-05-20T18:49:23Z</time>
      </trkpt>
      <trkpt lat="59.8229773" lon="17.6675126">
        <ele>6.86646</ele>
        <time>2014-05-20T18:49:24Z</time>
      </trkpt>
      <trkpt lat="59.8229504" lon="17.6675172">
        <ele>5.90527</ele>
        <time>2014-05-20T18:49:25Z</time>
      </trkpt>
      <trkpt lat="59.8229278" lon="17.6675338">
        <ele>6.38586</ele>
        <time>2014-05-20T18:49:26Z</time>
      </trkpt>
      <trkpt lat="59.8229009" lon="17.6675405">
        <ele>5.90527</ele>
        <time>2014-05-20T18:49:27Z</time>
      </trkpt>
      <trkpt lat="59.8228742" lon="17.6675545">
        <ele>5.90527</ele>
        <time>2014-05-20T18:49:28Z</time>
      </trkpt>
      <trkpt lat="59.8228466" lon="17.6675513">
        <ele>5.90527</ele>
        <time>2014-05-20T18:49:29Z</time>
      </trkpt>
      <trkpt lat="59.8228225" lon="17.6675556">
        <ele>5.90527</ele>
        <time>2014-05-20T18:49:30Z</time>
      </trkpt>
      <trkpt lat="59.8227975" lon="17.667561">
        <ele>5.90527</ele>
        <time>2014-05-20T18:49:31Z</time>
      </trkpt>
      <trkpt lat="59.8227727" lon="17.6675694">
        <ele>6.38586</ele>
        <time>2014-05-20T18:49:32Z</time>
      </trkpt>
      <trkpt lat="59.8227477" lon="17.6675726">
        <ele>5.90527</ele>
        <time>2014-05-20T18:49:33Z</time>
      </trkpt>
      <trkpt lat="59.8227244" lon="17.6675778">
        <ele>5.90527</ele>
        <time>2014-05-20T18:49:34Z</time>
      </trkpt>
      <trkpt lat="59.8227022" lon="17.6675817">
        <ele>5.90527</ele>
        <time>2014-05-20T18:49:35Z</time>
      </trkpt>
      <trkpt lat="59.8226795" lon="17.6675845">
        <ele>6.38586</ele>
        <time>2014-05-20T18:49:36Z</time>
      </trkpt>
      <trkpt lat="59.8226557" lon="17.6675862">
        <ele>5.90527</ele>
        <time>2014-05-20T18:49:37Z</time>
      </trkpt>
      <trkpt lat="59.8226281" lon="17.6675841">
        <ele>5.42456</ele>
        <time>2014-05-20T18:49:38Z</time>
      </trkpt>
      <trkpt lat="59.8226022" lon="17.6675908">
        <ele>5.90527</ele>
        <time>2014-05-20T18:49:39Z</time>
      </trkpt>
      <trkpt lat="59.8225732" lon="17.6675892">
        <ele>5.42456</ele>
        <time>2014-05-20T18:49:40Z</time>
      </trkpt>
      <trkpt lat="59.8225458" lon="17.6675886">
        <ele>5.42456</ele>
        <time>2014-05-20T18:49:41Z</time>
      </trkpt>
      <trkpt lat="59.8225168" lon="17.6675869">
        <ele>4.94385</ele>
        <time>2014-05-20T18:49:42Z</time>
      </trkpt>
      <trkpt lat="59.8224861" lon="17.6675913">
        <ele>4.46326</ele>
        <time>2014-05-20T18:49:43Z</time>
      </trkpt>
      <trkpt lat="59.8224554" lon="17.6675904">
        <ele>3.50195</ele>
        <time>2014-05-20T18:49:44Z</time>
      </trkpt>
      <trkpt lat="59.8224295" lon="17.6676012">
        <ele>3.98267</ele>
        <time>2014-05-20T18:49:45Z</time>
      </trkpt>
      <trkpt lat="59.8224017" lon="17.6676048">
        <ele>3.98267</ele>
        <time>2014-05-20T18:49:46Z</time>
      </trkpt>
      <trkpt lat="59.8223769" lon="17.6676068">
        <ele>3.98267</ele>
        <time>2014-05-20T18:49:47Z</time>
      </trkpt>
      <trkpt lat="59.822352" lon="17.6676047">
        <ele>3.98267</ele>
        <time>2014-05-20T18:49:48Z</time>
      </trkpt>
      <trkpt lat="59.8223267" lon="17.667601">
        <ele>3.98267</ele>
        <time>2014-05-20T18:49:49Z</time>
      </trkpt>
      <trkpt lat="59.8223018" lon="17.667599">
        <ele>3.50195</ele>
        <time>2014-05-20T18:49:50Z</time>
      </trkpt>
      <trkpt lat="59.8222753" lon="17.6675991">
        <ele>3.98267</ele>
        <time>2014-05-20T18:49:51Z</time>
      </trkpt>
      <trkpt lat="59.8222504" lon="17.6675985">
        <ele>3.98267</ele>
        <time>2014-05-20T18:49:52Z</time>
      </trkpt>
      <trkpt lat="59.8222261" lon="17.6676017">
        <ele>3.98267</ele>
        <time>2014-05-20T18:49:53Z</time>
      </trkpt>
      <trkpt lat="59.8222002" lon="17.6676109">
        <ele>4.46326</ele>
        <time>2014-05-20T18:49:54Z</time>
      </trkpt>
      <trkpt lat="59.8221747" lon="17.6676104">
        <ele>3.98267</ele>
        <time>2014-05-20T18:49:55Z</time>
      </trkpt>
      <trkpt lat="59.8221516" lon="17.667615">
        <ele>4.46326</ele>
        <time>2014-05-20T18:49:56Z</time>
      </trkpt>
      <trkpt lat="59.8221283" lon="17.6676171">
        <ele>4.94385</ele>
        <time>2014-05-20T18:49:57Z</time>
      </trkpt>
      <trkpt lat="59.8221029" lon="17.6676182">
        <ele>5.42456</ele>
        <time>2014-05-20T18:49:58Z</time>
      </trkpt>
      <trkpt lat="59.8220784" lon="17.6676251">
        <ele>5.42456</ele>
        <time>2014-05-20T18:49:59Z</time>
      </trkpt>
      <trkpt lat="59.8220541" lon="17.6676204">
        <ele>5.42456</ele>
        <time>2014-05-20T18:50:00Z</time>
      </trkpt>
      <trkpt lat="59.8220298" lon="17.6676229">
        <ele>5.42456</ele>
        <time>2014-05-20T18:50:01Z</time>
      </trkpt>
      <trkpt lat="59.8220065" lon="17.6676295">
        <ele>5.90527</ele>
        <time>2014-05-20T18:50:02Z</time>
      </trkpt>
      <trkpt lat="59.8219819" lon="17.6676336">
        <ele>6.86646</ele>
        <time>2014-05-20T18:50:03Z</time>
      </trkpt>
      <trkpt lat="59.8219576" lon="17.6676341">
        <ele>6.86646</ele>
        <time>2014-05-20T18:50:04Z</time>
      </trkpt>
      <trkpt lat="59.8219335" lon="17.6676421">
        <ele>6.86646</ele>
        <time>2014-05-20T18:50:05Z</time>
      </trkpt>
      <trkpt lat="59.821909" lon="17.6676558">
        <ele>7.34717</ele>
        <time>2014-05-20T18:50:06Z</time>
      </trkpt>
      <trkpt lat="59.8218837" lon="17.6676669">
        <ele>7.34717</ele>
        <time>2014-05-20T18:50:07Z</time>
      </trkpt>
      <trkpt lat="59.8218589" lon="17.6676825">
        <ele>7.82788</ele>
        <time>2014-05-20T18:50:08Z</time>
      </trkpt>
      <trkpt lat="59.8218319" lon="17.6676876">
        <ele>7.82788</ele>
        <time>2014-05-20T18:50:09Z</time>
      </trkpt>
      <trkpt lat="59.8218048" lon="17.6676938">
        <ele>7.34717</ele>
        <time>2014-05-20T18:50:10Z</time>
      </trkpt>
      <trkpt lat="59.8217796" lon="17.6676975">
        <ele>7.82788</ele>
        <time>2014-05-20T18:50:11Z</time>
      </trkpt>
      <trkpt lat="59.8217523" lon="17.6676981">
        <ele>8.30859</ele>
        <time>2014-05-20T18:50:12Z</time>
      </trkpt>
      <trkpt lat="59.8217232" lon="17.6677089">
        <ele>8.30859</ele>
        <time>2014-05-20T18:50:13Z</time>
      </trkpt>
      <trkpt lat="59.8216941" lon="17.6677227">
        <ele>7.82788</ele>
        <time>2014-05-20T18:50:14Z</time>
      </trkpt>
      <trkpt lat="59.8216662" lon="17.6677269">
        <ele>7.82788</ele>
        <time>2014-05-20T18:50:15Z</time>
      </trkpt>
      <trkpt lat="59.8216402" lon="17.6677274">
        <ele>7.82788</ele>
        <time>2014-05-20T18:50:16Z</time>
      </trkpt>
      <trkpt lat="59.8216159" lon="17.6677368">
        <ele>7.82788</ele>
        <time>2014-05-20T18:50:17Z</time>
      </trkpt>
      <trkpt lat="59.8215904" lon="17.6677519">
        <ele>8.30859</ele>
        <time>2014-05-20T18:50:18Z</time>
      </trkpt>
      <trkpt lat="59.8215689" lon="17.6677595">
        <ele>8.30859</ele>
        <time>2014-05-20T18:50:19Z</time>
      </trkpt>
      <trkpt lat="59.8215466" lon="17.6677685">
        <ele>8.78918</ele>
        <time>2014-05-20T18:50:20Z</time>
      </trkpt>
      <trkpt lat="59.8215217" lon="17.6677729">
        <ele>8.30859</ele>
        <time>2014-05-20T18:50:21Z</time>
      </trkpt>
      <trkpt lat="59.8214981" lon="17.6677771">
        <ele>8.30859</ele>
        <time>2014-05-20T18:50:22Z</time>
      </trkpt>
      <trkpt lat="59.821472" lon="17.6677796">
        <ele>7.82788</ele>
        <time>2014-05-20T18:50:23Z</time>
      </trkpt>
      <trkpt lat="59.821445" lon="17.6677853">
        <ele>7.34717</ele>
        <time>2014-05-20T18:50:24Z</time>
      </trkpt>
      <trkpt lat="59.8214222" lon="17.6677939">
        <ele>6.86646</ele>
        <time>2014-05-20T18:50:25Z</time>
      </trkpt>
      <trkpt lat="59.8214015" lon="17.6678079">
        <ele>6.86646</ele>
        <time>2014-05-20T18:50:26Z</time>
      </trkpt>
      <trkpt lat="59.8213813" lon="17.6678247">
        <ele>7.34717</ele>
        <time>2014-05-20T18:50:27Z</time>
      </trkpt>
      <trkpt lat="59.8213604" lon="17.6678398">
        <ele>7.82788</ele>
        <time>2014-05-20T18:50:28Z</time>
      </trkpt>
      <trkpt lat="59.8213391" lon="17.6678556">
        <ele>8.30859</ele>
        <time>2014-05-20T18:50:29Z</time>
      </trkpt>
      <trkpt lat="59.8213134" lon="17.6678662">
        <ele>8.30859</ele>
        <time>2014-05-20T18:50:30Z</time>
      </trkpt>
      <trkpt lat="59.8212871" lon="17.6678742">
        <ele>7.82788</ele>
        <time>2014-05-20T18:50:31Z</time>
      </trkpt>
      <trkpt lat="59.8212657" lon="17.6678891">
        <ele>7.82788</ele>
        <time>2014-05-20T18:50:32Z</time>
      </trkpt>
      <trkpt lat="59.8212398" lon="17.6678975">
        <ele>7.34717</ele>
        <time>2014-05-20T18:50:33Z</time>
      </trkpt>
      <trkpt lat="59.8212168" lon="17.6679056">
        <ele>7.34717</ele>
        <time>2014-05-20T18:50:34Z</time>
      </trkpt>
      <trkpt lat="59.8211958" lon="17.6679161">
        <ele>7.82788</ele>
        <time>2014-05-20T18:50:35Z</time>
      </trkpt>
      <trkpt lat="59.8211713" lon="17.667927">
        <ele>8.30859</ele>
        <time>2014-05-20T18:50:36Z</time>
      </trkpt>
      <trkpt lat="59.8211456" lon="17.6679353">
        <ele>7.82788</ele>
        <time>2014-05-20T18:50:37Z</time>
      </trkpt>
      <trkpt lat="59.8211237" lon="17.6679518">
        <ele>7.82788</ele>
        <time>2014-05-20T18:50:38Z</time>
      </trkpt>
      <trkpt lat="59.8210964" lon="17.6679652">
        <ele>7.82788</ele>
        <time>2014-05-20T18:50:39Z</time>
      </trkpt>
      <trkpt lat="59.8210692" lon="17.667977">
        <ele>6.86646</ele>
        <time>2014-05-20T18:50:40Z</time>
      </trkpt>
      <trkpt lat="59.8210459" lon="17.6679855">
        <ele>6.86646</ele>
        <time>2014-05-20T18:50:41Z</time>
      </trkpt>
      <trkpt lat="59.8210214" lon="17.6679983">
        <ele>7.34717</ele>
        <time>2014-05-20T18:50:42Z</time>
      </trkpt>
      <trkpt lat="59.8209943" lon="17.6680166">
        <ele>7.34717</ele>
        <time>2014-05-20T18:50:43Z</time>
      </trkpt>
      <trkpt lat="59.8209705" lon="17.6680358">
        <ele>7.34717</ele>
        <time>2014-05-20T18:50:44Z</time>
      </trkpt>
      <trkpt lat="59.8209465" lon="17.668048">
        <ele>7.82788</ele>
        <time>2014-05-20T18:50:45Z</time>
      </trkpt>
      <trkpt lat="59.8209219" lon="17.6680565">
        <ele>7.34717</ele>
        <time>2014-05-20T18:50:46Z</time>
      </trkpt>
      <trkpt lat="59.8209" lon="17.6680672">
        <ele>6.86646</ele>
        <time>2014-05-20T18:50:47Z</time>
      </trkpt>
      <trkpt lat="59.8208745" lon="17.6680771">
        <ele>6.86646</ele>
        <time>2014-05-20T18:50:48Z</time>
      </trkpt>
      <trkpt lat="59.8208493" lon="17.6680879">
        <ele>6.38586</ele>
        <time>2014-05-20T18:50:49Z</time>
      </trkpt>
      <trkpt lat="59.8208266" lon="17.6681008">
        <ele>6.38586</ele>
        <time>2014-05-20T18:50:50Z</time>
      </trkpt>
      <trkpt lat="59.820802" lon="17.668112">
        <ele>6.38586</ele>
        <time>2014-05-20T18:50:51Z</time>
      </trkpt>
      <trkpt lat="59.8207819" lon="17.6681284">
        <ele>6.86646</ele>
        <time>2014-05-20T18:50:52Z</time>
      </trkpt>
      <trkpt lat="59.8207659" lon="17.6681403">
        <ele>6.86646</ele>
        <time>2014-05-20T18:50:53Z</time>
      </trkpt>
      <trkpt lat="59.8207461" lon="17.6681431">
        <ele>6.38586</ele>
        <time>2014-05-20T18:50:54Z</time>
      </trkpt>
      <trkpt lat="59.820718" lon="17.6681487">
        <ele>5.90527</ele>
        <time>2014-05-20T18:50:55Z</time>
      </trkpt>
      <trkpt lat="59.8206882" lon="17.6681611">
        <ele>5.42456</ele>
        <time>2014-05-20T18:50:56Z</time>
      </trkpt>
      <trkpt lat="59.8206553" lon="17.6681761">
        <ele>4.94385</ele>
        <time>2014-05-20T18:50:57Z</time>
      </trkpt>
      <trkpt lat="59.8206269" lon="17.6681984">
        <ele>4.94385</ele>
        <time>2014-05-20T18:50:58Z</time>
      </trkpt>
      <trkpt lat="59.8205995" lon="17.6682127">
        <ele>4.94385</ele>
        <time>2014-05-20T18:50:59Z</time>
      </trkpt>
      <trkpt lat="59.8205701" lon="17.6682284">
        <ele>4.94385</ele>
        <time>2014-05-20T18:51:00Z</time>
      </trkpt>
      <trkpt lat="59.8205409" lon="17.6682538">
        <ele>4.94385</ele>
        <time>2014-05-20T18:51:01Z</time>
      </trkpt>
      <trkpt lat="59.8205089" lon="17.6682745">
        <ele>4.94385</ele>
        <time>2014-05-20T18:51:02Z</time>
      </trkpt>
      <trkpt lat="59.8204804" lon="17.6682906">
        <ele>4.94385</ele>
        <time>2014-05-20T18:51:03Z</time>
      </trkpt>
      <trkpt lat="59.8204517" lon="17.6683031">
        <ele>4.46326</ele>
        <time>2014-05-20T18:51:04Z</time>
      </trkpt>
      <trkpt lat="59.820426" lon="17.6683206">
        <ele>4.46326</ele>
        <time>2014-05-20T18:51:05Z</time>
      </trkpt>
      <trkpt lat="59.820402" lon="17.6683391">
        <ele>3.98267</ele>
        <time>2014-05-20T18:51:06Z</time>
      </trkpt>
      <trkpt lat="59.8203763" lon="17.6683534">
        <ele>4.46326</ele>
        <time>2014-05-20T18:51:07Z</time>
      </trkpt>
      <trkpt lat="59.8203478" lon="17.6683625">
        <ele>3.98267</ele>
        <time>2014-05-20T18:51:08Z</time>
      </trkpt>
      <trkpt lat="59.8203189" lon="17.6683712">
        <ele>3.98267</ele>
        <time>2014-05-20T18:51:09Z</time>
      </trkpt>
      <trkpt lat="59.8202877" lon="17.6683774">
        <ele>2.54065</ele>
        <time>2014-05-20T18:51:10Z</time>
      </trkpt>
      <trkpt lat="59.8202624" lon="17.6683902">
        <ele>2.54065</ele>
        <time>2014-05-20T18:51:11Z</time>
      </trkpt>
      <trkpt lat="59.8202391" lon="17.6684077">
        <ele>3.02124</ele>
        <time>2014-05-20T18:51:12Z</time>
      </trkpt>
      <trkpt lat="59.820213" lon="17.6684222">
        <ele>3.50195</ele>
        <time>2014-05-20T18:51:13Z</time>
      </trkpt>
      <trkpt lat="59.8201897" lon="17.6684315">
        <ele>3.02124</ele>
        <time>2014-05-20T18:51:14Z</time>
      </trkpt>
      <trkpt lat="59.8201685" lon="17.6684496">
        <ele>3.50195</ele>
        <time>2014-05-20T18:51:15Z</time>
      </trkpt>
      <trkpt lat="59.8201396" lon="17.6684693">
        <ele>3.50195</ele>
        <time>2014-05-20T18:51:16Z</time>
      </trkpt>
      <trkpt lat="59.8201147" lon="17.6684905">
        <ele>3.50195</ele>
        <time>2014-05-20T18:51:17Z</time>
      </trkpt>
      <trkpt lat="59.8200922" lon="17.6685121">
        <ele>3.50195</ele>
        <time>2014-05-20T18:51:18Z</time>
      </trkpt>
      <trkpt lat="59.8200684" lon="17.6685284">
        <ele>3.98267</ele>
        <time>2014-05-20T18:51:19Z</time>
      </trkpt>
      <trkpt lat="59.8200421" lon="17.6685434">
        <ele>4.46326</ele>
        <time>2014-05-20T18:51:20Z</time>
      </trkpt>
      <trkpt lat="59.8200153" lon="17.6685549">
        <ele>4.46326</ele>
        <time>2014-05-20T18:51:21Z</time>
      </trkpt>
      <trkpt lat="59.819989" lon="17.6685714">
        <ele>4.46326</ele>
        <time>2014-05-20T18:51:22Z</time>
      </trkpt>
      <trkpt lat="59.8199646" lon="17.6685924">
        <ele>4.94385</ele>
        <time>2014-05-20T18:51:23Z</time>
      </trkpt>
      <trkpt lat="59.8199401" lon="17.6686119">
        <ele>4.94385</ele>
        <time>2014-05-20T18:51:24Z</time>
      </trkpt>
      <trkpt lat="59.8199163" lon="17.6686312">
        <ele>5.42456</ele>
        <time>2014-05-20T18:51:25Z</time>
      </trkpt>
      <trkpt lat="59.8198934" lon="17.6686464">
        <ele>4.94385</ele>
        <time>2014-05-20T18:51:26Z</time>
      </trkpt>
      <trkpt lat="59.8198698" lon="17.6686585">
        <ele>4.46326</ele>
        <time>2014-05-20T18:51:27Z</time>
      </trkpt>
      <trkpt lat="59.8198444" lon="17.6686686">
        <ele>3.98267</ele>
        <time>2014-05-20T18:51:28Z</time>
      </trkpt>
      <trkpt lat="59.819819" lon="17.6686806">
        <ele>3.98267</ele>
        <time>2014-05-20T18:51:29Z</time>
      </trkpt>
      <trkpt lat="59.8197935" lon="17.6686936">
        <ele>3.50195</ele>
        <time>2014-05-20T18:51:30Z</time>
      </trkpt>
      <trkpt lat="59.819767" lon="17.6686904">
        <ele>3.02124</ele>
        <time>2014-05-20T18:51:31Z</time>
      </trkpt>
      <trkpt lat="59.819738" lon="17.6686946">
        <ele>2.54065</ele>
        <time>2014-05-20T18:51:32Z</time>
      </trkpt>
      <trkpt lat="59.8197147" lon="17.6687081">
        <ele>3.02124</ele>
        <time>2014-05-20T18:51:33Z</time>
      </trkpt>
      <trkpt lat="59.8196885" lon="17.6687064">
        <ele>2.06006</ele>
        <time>2014-05-20T18:51:34Z</time>
      </trkpt>
      <trkpt lat="59.8196652" lon="17.6686967">
        <ele>1.57935</ele>
        <time>2014-05-20T18:51:35Z</time>
      </trkpt>
      <trkpt lat="59.8196397" lon="17.6686957">
        <ele>1.09863</ele>
        <time>2014-05-20T18:51:36Z</time>
      </trkpt>
      <trkpt lat="59.8196158" lon="17.6686972">
        <ele>0.137451</ele>
        <time>2014-05-20T18:51:37Z</time>
      </trkpt>
      <trkpt lat="59.8195909" lon="17.6686957">
        <ele>0</ele>
        <time>2014-05-20T18:51:38Z</time>
      </trkpt>
      <trkpt lat="59.8195716" lon="17.6686899">
        <ele>0.137451</ele>
        <time>2014-05-20T18:51:39Z</time>
      </trkpt>
      <trkpt lat="59.8195502" lon="17.6686924">
        <ele>0.137451</ele>
        <time>2014-05-20T18:51:40Z</time>
      </trkpt>
      <trkpt lat="59.8195258" lon="17.6686869">
        <ele>0.618042</ele>
        <time>2014-05-20T18:51:41Z</time>
      </trkpt>
      <trkpt lat="59.8195004" lon="17.6686753">
        <ele>0.618042</ele>
        <time>2014-05-20T18:51:42Z</time>
      </trkpt>
      <trkpt lat="59.8194734" lon="17.668672">
        <ele>0.137451</ele>
        <time>2014-05-20T18:51:43Z</time>
      </trkpt>
      <trkpt lat="59.8194474" lon="17.6686764">
        <ele>0.137451</ele>
        <time>2014-05-20T18:51:44Z</time>
      </trkpt>
      <trkpt lat="59.8194231" lon="17.6686755">
        <ele>0.137451</ele>
        <time>2014-05-20T18:51:45Z</time>
      </trkpt>
      <trkpt lat="59.8193973" lon="17.6686862">
        <ele>1.09863</ele>
        <time>2014-05-20T18:51:46Z</time>
      </trkpt>
      <trkpt lat="59.8193725" lon="17.6686957">
        <ele>1.09863</ele>
        <time>2014-05-20T18:51:47Z</time>
      </trkpt>
      <trkpt lat="59.8193522" lon="17.6687043">
        <ele>1.57935</ele>
        <time>2014-05-20T18:51:48Z</time>
      </trkpt>
      <trkpt lat="59.8193346" lon="17.6687098">
        <ele>1.57935</ele>
        <time>2014-05-20T18:51:49Z</time>
      </trkpt>
      <trkpt lat="59.8193135" lon="17.6687195">
        <ele>2.06006</ele>
        <time>2014-05-20T18:51:50Z</time>
      </trkpt>
      <trkpt lat="59.8192844" lon="17.6687222">
        <ele>1.09863</ele>
        <time>2014-05-20T18:51:51Z</time>
      </trkpt>
      <trkpt lat="59.819261" lon="17.6687248">
        <ele>1.09863</ele>
        <time>2014-05-20T18:51:52Z</time>
      </trkpt>
      <trkpt lat="59.8192396" lon="17.6687299">
        <ele>1.57935</ele>
        <time>2014-05-20T18:51:53Z</time>
      </trkpt>
      <trkpt lat="59.8192144" lon="17.6687319">
        <ele>1.57935</ele>
        <time>2014-05-20T18:51:54Z</time>
      </trkpt>
      <trkpt lat="59.819193" lon="17.668736">
        <ele>2.54065</ele>
        <time>2014-05-20T18:51:55Z</time>
      </trkpt>
      <trkpt lat="59.8191683" lon="17.6687402">
        <ele>2.54065</ele>
        <time>2014-05-20T18:51:56Z</time>
      </trkpt>
      <trkpt lat="59.8191398" lon="17.6687485">
        <ele>2.54065</ele>
        <time>2014-05-20T18:51:57Z</time>
      </trkpt>
      <trkpt lat="59.8191175" lon="17.6687559">
        <ele>3.50195</ele>
        <time>2014-05-20T18:51:58Z</time>
      </trkpt>
      <trkpt lat="59.8190901" lon="17.6687602">
        <ele>3.02124</ele>
        <time>2014-05-20T18:51:59Z</time>
      </trkpt>
      <trkpt lat="59.8190698" lon="17.6687609">
        <ele>3.50195</ele>
        <time>2014-05-20T18:52:00Z</time>
      </trkpt>
      <trkpt lat="59.8190486" lon="17.668759">
        <ele>2.54065</ele>
        <time>2014-05-20T18:52:01Z</time>
      </trkpt>
      <trkpt lat="59.8190248" lon="17.6687573">
        <ele>1.57935</ele>
        <time>2014-05-20T18:52:02Z</time>
      </trkpt>
      <trkpt lat="59.8189975" lon="17.6687671">
        <ele>1.09863</ele>
        <time>2014-05-20T18:52:03Z</time>
      </trkpt>
      <trkpt lat="59.8189596" lon="17.6687687">
        <ele>0</ele>
        <time>2014-05-20T18:52:04Z</time>
      </trkpt>
      <trkpt lat="59.8189311" lon="17.6687748">
        <ele>0</ele>
        <time>2014-05-20T18:52:05Z</time>
      </trkpt>
      <trkpt lat="59.8188984" lon="17.6687723">
        <ele>0</ele>
        <time>2014-05-20T18:52:06Z</time>
      </trkpt>
      <trkpt lat="59.8188715" lon="17.6687776">
        <ele>0</ele>
        <time>2014-05-20T18:52:07Z</time>
      </trkpt>
      <trkpt lat="59.8188399" lon="17.6687782">
        <ele>0</ele>
        <time>2014-05-20T18:52:08Z</time>
      </trkpt>
      <trkpt lat="59.8188118" lon="17.6687827">
        <ele>0</ele>
        <time>2014-05-20T18:52:09Z</time>
      </trkpt>
      <trkpt lat="59.818784" lon="17.6687889">
        <ele>0</ele>
        <time>2014-05-20T18:52:10Z</time>
      </trkpt>
      <trkpt lat="59.8187601" lon="17.6688041">
        <ele>0</ele>
        <time>2014-05-20T18:52:11Z</time>
      </trkpt>
      <trkpt lat="59.8187388" lon="17.668808">
        <ele>0</ele>
        <time>2014-05-20T18:52:12Z</time>
      </trkpt>
      <trkpt lat="59.8187164" lon="17.6688064">
        <ele>0</ele>
        <time>2014-05-20T18:52:13Z</time>
      </trkpt>
      <trkpt lat="59.8186952" lon="17.6688045">
        <ele>0</ele>
        <time>2014-05-20T18:52:14Z</time>
      </trkpt>
      <trkpt lat="59.8186705" lon="17.6688009">
        <ele>0</ele>
        <time>2014-05-20T18:52:15Z</time>
      </trkpt>
      <trkpt lat="59.8186503" lon="17.6688018">
        <ele>0</ele>
        <time>2014-05-20T18:52:16Z</time>
      </trkpt>
      <trkpt lat="59.8186297" lon="17.6688074">
        <ele>0</ele>
        <time>2014-05-20T18:52:17Z</time>
      </trkpt>
      <trkpt lat="59.8186079" lon="17.6688094">
        <ele>0</ele>
        <time>2014-05-20T18:52:18Z</time>
      </trkpt>
      <trkpt lat="59.8185857" lon="17.6688163">
        <ele>0</ele>
        <time>2014-05-20T18:52:19Z</time>
      </trkpt>
      <trkpt lat="59.8185602" lon="17.6688096">
        <ele>0</ele>
        <time>2014-05-20T18:52:20Z</time>
      </trkpt>
      <trkpt lat="59.8185311" lon="17.6687991">
        <ele>0</ele>
        <time>2014-05-20T18:52:21Z</time>
      </trkpt>
      <trkpt lat="59.8185032" lon="17.6687946">
        <ele>0</ele>
        <time>2014-05-20T18:52:22Z</time>
      </trkpt>
      <trkpt lat="59.8184784" lon="17.6687873">
        <ele>0</ele>
        <time>2014-05-20T18:52:23Z</time>
      </trkpt>
      <trkpt lat="59.8184487" lon="17.6687822">
        <ele>0</ele>
        <time>2014-05-20T18:52:24Z</time>
      </trkpt>
      <trkpt lat="59.8184196" lon="17.6687722">
        <ele>0</ele>
        <time>2014-05-20T18:52:25Z</time>
      </trkpt>
      <trkpt lat="59.8183908" lon="17.6687566">
        <ele>0</ele>
        <time>2014-05-20T18:52:26Z</time>
      </trkpt>
      <trkpt lat="59.8183644" lon="17.6687419">
        <ele>0</ele>
        <time>2014-05-20T18:52:27Z</time>
      </trkpt>
      <trkpt lat="59.8183421" lon="17.6687361">
        <ele>0</ele>
        <time>2014-05-20T18:52:28Z</time>
      </trkpt>
      <trkpt lat="59.8183178" lon="17.6687198">
        <ele>0</ele>
        <time>2014-05-20T18:52:29Z</time>
      </trkpt>
      <trkpt lat="59.8182955" lon="17.6687029">
        <ele>0</ele>
        <time>2014-05-20T18:52:30Z</time>
      </trkpt>
      <trkpt lat="59.8182701" lon="17.668696">
        <ele>0.618042</ele>
        <time>2014-05-20T18:52:31Z</time>
      </trkpt>
      <trkpt lat="59.8182459" lon="17.6686856">
        <ele>0.618042</ele>
        <time>2014-05-20T18:52:32Z</time>
      </trkpt>
      <trkpt lat="59.8182198" lon="17.6686738">
        <ele>1.09863</ele>
        <time>2014-05-20T18:52:33Z</time>
      </trkpt>
      <trkpt lat="59.8181964" lon="17.6686542">
        <ele>1.57935</ele>
        <time>2014-05-20T18:52:34Z</time>
      </trkpt>
      <trkpt lat="59.8181706" lon="17.6686237">
        <ele>1.09863</ele>
        <time>2014-05-20T18:52:35Z</time>
      </trkpt>
      <trkpt lat="59.8181416" lon="17.668593">
        <ele>0.618042</ele>
        <time>2014-05-20T18:52:36Z</time>
      </trkpt>
      <trkpt lat="59.8181155" lon="17.6685834">
        <ele>0.618042</ele>
        <time>2014-05-20T18:52:37Z</time>
      </trkpt>
      <trkpt lat="59.8180918" lon="17.6685738">
        <ele>2.06006</ele>
        <time>2014-05-20T18:52:38Z</time>
      </trkpt>
      <trkpt lat="59.8180639" lon="17.6685708">
        <ele>1.57935</ele>
        <time>2014-05-20T18:52:39Z</time>
      </trkpt>
      <trkpt lat="59.8180354" lon="17.6685598">
        <ele>2.06006</ele>
        <time>2014-05-20T18:52:40Z</time>
      </trkpt>
      <trkpt lat="59.8180062" lon="17.6685417">
        <ele>2.06006</ele>
        <time>2014-05-20T18:52:41Z</time>
      </trkpt>
      <trkpt lat="59.8179753" lon="17.6685128">
        <ele>1.57935</ele>
        <time>2014-05-20T18:52:42Z</time>
      </trkpt>
      <trkpt lat="59.8179492" lon="17.6684885">
        <ele>1.09863</ele>
        <time>2014-05-20T18:52:43Z</time>
      </trkpt>
      <trkpt lat="59.817921" lon="17.6684713">
        <ele>0.618042</ele>
        <time>2014-05-20T18:52:44Z</time>
      </trkpt>
      <trkpt lat="59.8178945" lon="17.6684568">
        <ele>0.137451</ele>
        <time>2014-05-20T18:52:45Z</time>
      </trkpt>
      <trkpt lat="59.8178697" lon="17.6684476">
        <ele>0.137451</ele>
        <time>2014-05-20T18:52:46Z</time>
      </trkpt>
      <trkpt lat="59.8178412" lon="17.668438">
        <ele>0.618042</ele>
        <time>2014-05-20T18:52:47Z</time>
      </trkpt>
      <trkpt lat="59.8178137" lon="17.6684284">
        <ele>0.137451</ele>
        <time>2014-05-20T18:52:48Z</time>
      </trkpt>
      <trkpt lat="59.8177918" lon="17.6684185">
        <ele>0.618042</ele>
        <time>2014-05-20T18:52:49Z</time>
      </trkpt>
      <trkpt lat="59.8177662" lon="17.668402">
        <ele>0.618042</ele>
        <time>2014-05-20T18:52:50Z</time>
      </trkpt>
      <trkpt lat="59.8177453" lon="17.6683907">
        <ele>0.618042</ele>
        <time>2014-05-20T18:52:51Z</time>
      </trkpt>
      <trkpt lat="59.8177225" lon="17.6683869">
        <ele>0.618042</ele>
        <time>2014-05-20T18:52:52Z</time>
      </trkpt>
      <trkpt lat="59.8176921" lon="17.6683902">
        <ele>0.618042</ele>
        <time>2014-05-20T18:52:53Z</time>
      </trkpt>
      <trkpt lat="59.8176643" lon="17.6683933">
        <ele>0.618042</ele>
        <time>2014-05-20T18:52:54Z</time>
      </trkpt>
      <trkpt lat="59.8176391" lon="17.6683979">
        <ele>0.137451</ele>
        <time>2014-05-20T18:52:55Z</time>
      </trkpt>
      <trkpt lat="59.8176163" lon="17.6684">
        <ele>0</ele>
        <time>2014-05-20T18:52:56Z</time>
      </trkpt>
      <trkpt lat="59.8175892" lon="17.6684036">
        <ele>0</ele>
        <time>2014-05-20T18:52:57Z</time>
      </trkpt>
      <trkpt lat="59.8175616" lon="17.6683999">
        <ele>0</ele>
        <time>2014-05-20T18:52:58Z</time>
      </trkpt>
      <trkpt lat="59.8175335" lon="17.6683942">
        <ele>0</ele>
        <time>2014-05-20T18:52:59Z</time>
      </trkpt>
      <trkpt lat="59.817512" lon="17.6683863">
        <ele>0</ele>
        <time>2014-05-20T18:53:00Z</time>
      </trkpt>
      <trkpt lat="59.8174905" lon="17.6683647">
        <ele>0</ele>
        <time>2014-05-20T18:53:01Z</time>
      </trkpt>
      <trkpt lat="59.8174583" lon="17.668327">
        <ele>0</ele>
        <time>2014-05-20T18:53:02Z</time>
      </trkpt>
      <trkpt lat="59.8174335" lon="17.6682811">
        <ele>0</ele>
        <time>2014-05-20T18:53:03Z</time>
      </trkpt>
      <trkpt lat="59.8174121" lon="17.6682357">
        <ele>0</ele>
        <time>2014-05-20T18:53:04Z</time>
      </trkpt>
      <trkpt lat="59.8173926" lon="17.6682058">
        <ele>0</ele>
        <time>2014-05-20T18:53:05Z</time>
      </trkpt>
      <trkpt lat="59.8173689" lon="17.6681852">
        <ele>0</ele>
        <time>2014-05-20T18:53:06Z</time>
      </trkpt>
      <trkpt lat="59.8173433" lon="17.6681764">
        <ele>0</ele>
        <time>2014-05-20T18:53:07Z</time>
      </trkpt>
      <trkpt lat="59.8173178" lon="17.6681733">
        <ele>0</ele>
        <time>2014-05-20T18:53:08Z</time>
      </trkpt>
      <trkpt lat="59.8172867" lon="17.6681679">
        <ele>0</ele>
        <time>2014-05-20T18:53:09Z</time>
      </trkpt>
      <trkpt lat="59.8172561" lon="17.6681669">
        <ele>0</ele>
        <time>2014-05-20T18:53:10Z</time>
      </trkpt>
      <trkpt lat="59.8172252" lon="17.6681631">
        <ele>0</ele>
        <time>2014-05-20T18:53:11Z</time>
      </trkpt>
      <trkpt lat="59.8171963" lon="17.6681625">
        <ele>0</ele>
        <time>2014-05-20T18:53:12Z</time>
      </trkpt>
      <trkpt lat="59.817166" lon="17.6681631">
        <ele>0</ele>
        <time>2014-05-20T18:53:13Z</time>
      </trkpt>
      <trkpt lat="59.8171399" lon="17.6681668">
        <ele>0</ele>
        <time>2014-05-20T18:53:14Z</time>
      </trkpt>
      <trkpt lat="59.817117" lon="17.6681715">
        <ele>0</ele>
        <time>2014-05-20T18:53:15Z</time>
      </trkpt>
      <trkpt lat="59.8170879" lon="17.6681678">
        <ele>0</ele>
        <time>2014-05-20T18:53:16Z</time>
      </trkpt>
      <trkpt lat="59.8170617" lon="17.6681655">
        <ele>0</ele>
        <time>2014-05-20T18:53:17Z</time>
      </trkpt>
      <trkpt lat="59.8170348" lon="17.6681589">
        <ele>0</ele>
        <time>2014-05-20T18:53:18Z</time>
      </trkpt>
      <trkpt lat="59.8170101" lon="17.6681518">
        <ele>0</ele>
        <time>2014-05-20T18:53:19Z</time>
      </trkpt>
      <trkpt lat="59.8169879" lon="17.6681397">
        <ele>0</ele>
        <time>2014-05-20T18:53:20Z</time>
      </trkpt>
      <trkpt lat="59.8169657" lon="17.6681324">
        <ele>0</ele>
        <time>2014-05-20T18:53:21Z</time>
      </trkpt>
      <trkpt lat="59.8169367" lon="17.6681327">
        <ele>0</ele>
        <time>2014-05-20T18:53:22Z</time>
      </trkpt>
      <trkpt lat="59.8169123" lon="17.6681249">
        <ele>0</ele>
        <time>2014-05-20T18:53:23Z</time>
      </trkpt>
      <trkpt lat="59.816888" lon="17.6681283">
        <ele>0</ele>
        <time>2014-05-20T18:53:24Z</time>
      </trkpt>
      <trkpt lat="59.8168637" lon="17.6681285">
        <ele>0</ele>
        <time>2014-05-20T18:53:25Z</time>
      </trkpt>
      <trkpt lat="59.8168372" lon="17.6681285">
        <ele>0</ele>
        <time>2014-05-20T18:53:26Z</time>
      </trkpt>
      <trkpt lat="59.8168092" lon="17.6681362">
        <ele>1.09863</ele>
        <time>2014-05-20T18:53:27Z</time>
      </trkpt>
      <trkpt lat="59.8167787" lon="17.668119">
        <ele>1.09863</ele>
        <time>2014-05-20T18:53:28Z</time>
      </trkpt>
      <trkpt lat="59.816747" lon="17.6680982">
        <ele>0.618042</ele>
        <time>2014-05-20T18:53:29Z</time>
      </trkpt>
      <trkpt lat="59.8167351" lon="17.6680962">
        <ele>2.54065</ele>
        <time>2014-05-20T18:53:30Z</time>
      </trkpt>
      <trkpt lat="59.816718" lon="17.6680931">
        <ele>3.02124</ele>
        <time>2014-05-20T18:53:31Z</time>
      </trkpt>
      <trkpt lat="59.8166886" lon="17.6681029">
        <ele>3.50195</ele>
        <time>2014-05-20T18:53:32Z</time>
      </trkpt>
      <trkpt lat="59.8166568" lon="17.6681166">
        <ele>3.98267</ele>
        <time>2014-05-20T18:53:33Z</time>
      </trkpt>
      <trkpt lat="59.8166276" lon="17.668128">
        <ele>4.94385</ele>
        <time>2014-05-20T18:53:34Z</time>
      </trkpt>
      <trkpt lat="59.8166029" lon="17.6681241">
        <ele>5.90527</ele>
        <time>2014-05-20T18:53:35Z</time>
      </trkpt>
      <trkpt lat="59.8165739" lon="17.6681076">
        <ele>6.38586</ele>
        <time>2014-05-20T18:53:36Z</time>
      </trkpt>
      <trkpt lat="59.8165503" lon="17.668086">
        <ele>7.34717</ele>
        <time>2014-05-20T18:53:37Z</time>
      </trkpt>
      <trkpt lat="59.8165176" lon="17.6680699">
        <ele>7.34717</ele>
        <time>2014-05-20T18:53:38Z</time>
      </trkpt>
      <trkpt lat="59.8164893" lon="17.6680597">
        <ele>7.82788</ele>
        <time>2014-05-20T18:53:39Z</time>
      </trkpt>
      <trkpt lat="59.8164567" lon="17.6680488">
        <ele>7.82788</ele>
        <time>2014-05-20T18:53:40Z</time>
      </trkpt>
      <trkpt lat="59.8164213" lon="17.6680336">
        <ele>6.86646</ele>
        <time>2014-05-20T18:53:41Z</time>
      </trkpt>
      <trkpt lat="59.8163901" lon="17.6680238">
        <ele>6.86646</ele>
        <time>2014-05-20T18:53:42Z</time>
      </trkpt>
      <trkpt lat="59.8163634" lon="17.6680146">
        <ele>8.30859</ele>
        <time>2014-05-20T18:53:43Z</time>
      </trkpt>
      <trkpt lat="59.8163437" lon="17.6680045">
        <ele>8.78918</ele>
        <time>2014-05-20T18:53:44Z</time>
      </trkpt>
      <trkpt lat="59.816317" lon="17.6679984">
        <ele>8.78918</ele>
        <time>2014-05-20T18:53:45Z</time>
      </trkpt>
      <trkpt lat="59.8162851" lon="17.6679887">
        <ele>8.30859</ele>
        <time>2014-05-20T18:53:46Z</time>
      </trkpt>
      <trkpt lat="59.8162616" lon="17.6679715">
        <ele>7.34717</ele>
        <time>2014-05-20T18:53:47Z</time>
      </trkpt>
      <trkpt lat="59.8162465" lon="17.6679575">
        <ele>7.82788</ele>
        <time>2014-05-20T18:53:48Z</time>
      </trkpt>
      <trkpt lat="59.8162234" lon="17.6679513">
        <ele>7.82788</ele>
        <time>2014-05-20T18:53:49Z</time>
      </trkpt>
      <trkpt lat="59.8161916" lon="17.6679404">
        <ele>6.86646</ele>
        <time>2014-05-20T18:53:50Z</time>
      </trkpt>
      <trkpt lat="59.8161681" lon="17.6679257">
        <ele>5.90527</ele>
        <time>2014-05-20T18:53:51Z</time>
      </trkpt>
      <trkpt lat="59.8161472" lon="17.6679143">
        <ele>4.94385</ele>
        <time>2014-05-20T18:53:52Z</time>
      </trkpt>
      <trkpt lat="59.8161233" lon="17.667914">
        <ele>5.90527</ele>
        <time>2014-05-20T18:53:53Z</time>
      </trkpt>
      <trkpt lat="59.8160917" lon="17.6679027">
        <ele>5.90527</ele>
        <time>2014-05-20T18:53:54Z</time>
      </trkpt>
      <trkpt lat="59.8160587" lon="17.6678786">
        <ele>4.94385</ele>
        <time>2014-05-20T18:53:55Z</time>
      </trkpt>
      <trkpt lat="59.8160267" lon="17.6678601">
        <ele>4.94385</ele>
        <time>2014-05-20T18:53:56Z</time>
      </trkpt>
      <trkpt lat="59.8159954" lon="17.6678473">
        <ele>5.42456</ele>
        <time>2014-05-20T18:53:57Z</time>
      </trkpt>
      <trkpt lat="59.8159651" lon="17.6678514">
        <ele>5.90527</ele>
        <time>2014-05-20T18:53:58Z</time>
      </trkpt>
      <trkpt lat="59.815936" lon="17.6678511">
        <ele>5.90527</ele>
        <time>2014-05-20T18:53:59Z</time>
      </trkpt>
      <trkpt lat="59.8159098" lon="17.6678527">
        <ele>6.38586</ele>
        <time>2014-05-20T18:54:00Z</time>
      </trkpt>
      <trkpt lat="59.8158816" lon="17.6678481">
        <ele>5.90527</ele>
        <time>2014-05-20T18:54:01Z</time>
      </trkpt>
      <trkpt lat="59.8158519" lon="17.6678356">
        <ele>5.90527</ele>
        <time>2014-05-20T18:54:02Z</time>
      </trkpt>
      <trkpt lat="59.8158239" lon="17.6678198">
        <ele>5.90527</ele>
        <time>2014-05-20T18:54:03Z</time>
      </trkpt>
      <trkpt lat="59.815793" lon="17.6678129">
        <ele>5.90527</ele>
        <time>2014-05-20T18:54:04Z</time>
      </trkpt>
      <trkpt lat="59.8157598" lon="17.6678104">
        <ele>5.90527</ele>
        <time>2014-05-20T18:54:05Z</time>
      </trkpt>
      <trkpt lat="59.8157267" lon="17.667803">
        <ele>5.42456</ele>
        <time>2014-05-20T18:54:06Z</time>
      </trkpt>
      <trkpt lat="59.8156975" lon="17.6677897">
        <ele>4.94385</ele>
        <time>2014-05-20T18:54:07Z</time>
      </trkpt>
      <trkpt lat="59.8156703" lon="17.6677746">
        <ele>4.46326</ele>
        <time>2014-05-20T18:54:08Z</time>
      </trkpt>
      <trkpt lat="59.8156447" lon="17.6677581">
        <ele>4.46326</ele>
        <time>2014-05-20T18:54:09Z</time>
      </trkpt>
      <trkpt lat="59.8156175" lon="17.6677397">
        <ele>4.46326</ele>
        <time>2014-05-20T18:54:10Z</time>
      </trkpt>
      <trkpt lat="59.8155874" lon="17.6677301">
        <ele>3.98267</ele>
        <time>2014-05-20T18:54:11Z</time>
      </trkpt>
      <trkpt lat="59.8155591" lon="17.6677265">
        <ele>3.50195</ele>
        <time>2014-05-20T18:54:12Z</time>
      </trkpt>
      <trkpt lat="59.8155309" lon="17.6677204">
        <ele>3.98267</ele>
        <time>2014-05-20T18:54:13Z</time>
      </trkpt>
      <trkpt lat="59.8155028" lon="17.6677028">
        <ele>4.46326</ele>
        <time>2014-05-20T18:54:14Z</time>
      </trkpt>
      <trkpt lat="59.8154753" lon="17.6676885">
        <ele>4.46326</ele>
        <time>2014-05-20T18:54:15Z</time>
      </trkpt>
      <trkpt lat="59.8154494" lon="17.6676782">
        <ele>4.94385</ele>
        <time>2014-05-20T18:54:16Z</time>
      </trkpt>
      <trkpt lat="59.8154258" lon="17.6676695">
        <ele>5.42456</ele>
        <time>2014-05-20T18:54:17Z</time>
      </trkpt>
      <trkpt lat="59.8154008" lon="17.6676632">
        <ele>5.90527</ele>
        <time>2014-05-20T18:54:18Z</time>
      </trkpt>
      <trkpt lat="59.8153738" lon="17.6676405">
        <ele>5.42456</ele>
        <time>2014-05-20T18:54:19Z</time>
      </trkpt>
      <trkpt lat="59.815346" lon="17.6676176">
        <ele>4.94385</ele>
        <time>2014-05-20T18:54:20Z</time>
      </trkpt>
      <trkpt lat="59.8153234" lon="17.6676016">
        <ele>5.42456</ele>
        <time>2014-05-20T18:54:21Z</time>
      </trkpt>
      <trkpt lat="59.8152982" lon="17.6675779">
        <ele>4.94385</ele>
        <time>2014-05-20T18:54:22Z</time>
      </trkpt>
      <trkpt lat="59.8152734" lon="17.6675556">
        <ele>4.94385</ele>
        <time>2014-05-20T18:54:23Z</time>
      </trkpt>
      <trkpt lat="59.8152499" lon="17.6675339">
        <ele>5.42456</ele>
        <time>2014-05-20T18:54:24Z</time>
      </trkpt>
      <trkpt lat="59.8152258" lon="17.6675191">
        <ele>5.42456</ele>
        <time>2014-05-20T18:54:25Z</time>
      </trkpt>
      <trkpt lat="59.8152007" lon="17.667512">
        <ele>6.38586</ele>
        <time>2014-05-20T18:54:26Z</time>
      </trkpt>
      <trkpt lat="59.8151791" lon="17.6675017">
        <ele>7.34717</ele>
        <time>2014-05-20T18:54:27Z</time>
      </trkpt>
      <trkpt lat="59.8151658" lon="17.6674702">
        <ele>7.82788</ele>
        <time>2014-05-20T18:54:28Z</time>
      </trkpt>
      <trkpt lat="59.8151481" lon="17.6674368">
        <ele>7.82788</ele>
        <time>2014-05-20T18:54:29Z</time>
      </trkpt>
      <trkpt lat="59.8151294" lon="17.6673911">
        <ele>7.82788</ele>
        <time>2014-05-20T18:54:30Z</time>
      </trkpt>
      <trkpt lat="59.8151082" lon="17.6673457">
        <ele>7.34717</ele>
        <time>2014-05-20T18:54:31Z</time>
      </trkpt>
      <trkpt lat="59.8150938" lon="17.6672956">
        <ele>7.34717</ele>
        <time>2014-05-20T18:54:32Z</time>
      </trkpt>
      <trkpt lat="59.815088" lon="17.6672383">
        <ele>6.86646</ele>
        <time>2014-05-20T18:54:33Z</time>
      </trkpt>
      <trkpt lat="59.8150821" lon="17.6671903">
        <ele>7.34717</ele>
        <time>2014-05-20T18:54:34Z</time>
      </trkpt>
      <trkpt lat="59.8150682" lon="17.6671448">
        <ele>7.34717</ele>
        <time>2014-05-20T18:54:35Z</time>
      </trkpt>
      <trkpt lat="59.8150615" lon="17.6670984">
        <ele>7.82788</ele>
        <time>2014-05-20T18:54:36Z</time>
      </trkpt>
      <trkpt lat="59.8150522" lon="17.6670474">
        <ele>6.86646</ele>
        <time>2014-05-20T18:54:37Z</time>
      </trkpt>
      <trkpt lat="59.8150446" lon="17.6669959">
        <ele>6.86646</ele>
        <time>2014-05-20T18:54:38Z</time>
      </trkpt>
      <trkpt lat="59.8150402" lon="17.6669457">
        <ele>6.86646</ele>
        <time>2014-05-20T18:54:39Z</time>
      </trkpt>
      <trkpt lat="59.8150404" lon="17.6669008">
        <ele>6.86646</ele>
        <time>2014-05-20T18:54:40Z</time>
      </trkpt>
      <trkpt lat="59.815038" lon="17.6668503">
        <ele>6.86646</ele>
        <time>2014-05-20T18:54:41Z</time>
      </trkpt>
      <trkpt lat="59.8150346" lon="17.6668039">
        <ele>7.34717</ele>
        <time>2014-05-20T18:54:42Z</time>
      </trkpt>
      <trkpt lat="59.8150329" lon="17.6667553">
        <ele>6.86646</ele>
        <time>2014-05-20T18:54:43Z</time>
      </trkpt>
      <trkpt lat="59.8150331" lon="17.6667007">
        <ele>6.86646</ele>
        <time>2014-05-20T18:54:44Z</time>
      </trkpt>
      <trkpt lat="59.8150301" lon="17.6666437">
        <ele>6.38586</ele>
        <time>2014-05-20T18:54:45Z</time>
      </trkpt>
      <trkpt lat="59.8150299" lon="17.6665895">
        <ele>6.38586</ele>
        <time>2014-05-20T18:54:46Z</time>
      </trkpt>
      <trkpt lat="59.8150259" lon="17.6665326">
        <ele>5.90527</ele>
        <time>2014-05-20T18:54:47Z</time>
      </trkpt>
      <trkpt lat="59.8150227" lon="17.6664774">
        <ele>5.90527</ele>
        <time>2014-05-20T18:54:48Z</time>
      </trkpt>
      <trkpt lat="59.8150293" lon="17.6664308">
        <ele>6.38586</ele>
        <time>2014-05-20T18:54:49Z</time>
      </trkpt>
      <trkpt lat="59.8150332" lon="17.6663798">
        <ele>6.38586</ele>
        <time>2014-05-20T18:54:50Z</time>
      </trkpt>
      <trkpt lat="59.8150367" lon="17.6663299">
        <ele>6.38586</ele>
        <time>2014-05-20T18:54:51Z</time>
      </trkpt>
      <trkpt lat="59.815036" lon="17.6662781">
        <ele>6.86646</ele>
        <time>2014-05-20T18:54:52Z</time>
      </trkpt>
      <trkpt lat="59.815037" lon="17.6662279">
        <ele>7.34717</ele>
        <time>2014-05-20T18:54:53Z</time>
      </trkpt>
      <trkpt lat="59.8150381" lon="17.6661808">
        <ele>7.34717</ele>
        <time>2014-05-20T18:54:54Z</time>
      </trkpt>
      <trkpt lat="59.8150413" lon="17.666137">
        <ele>8.30859</ele>
        <time>2014-05-20T18:54:55Z</time>
      </trkpt>
      <trkpt lat="59.8150362" lon="17.6660849">
        <ele>7.82788</ele>
        <time>2014-05-20T18:54:56Z</time>
      </trkpt>
      <trkpt lat="59.8150341" lon="17.6660377">
        <ele>8.30859</ele>
        <time>2014-05-20T18:54:57Z</time>
      </trkpt>
      <trkpt lat="59.8150335" lon="17.6659943">
        <ele>8.78918</ele>
        <time>2014-05-20T18:54:58Z</time>
      </trkpt>
      <trkpt lat="59.8150246" lon="17.6659443">
        <ele>8.78918</ele>
        <time>2014-05-20T18:54:59Z</time>
      </trkpt>
      <trkpt lat="59.8150111" lon="17.665899">
        <ele>8.78918</ele>
        <time>2014-05-20T18:55:00Z</time>
      </trkpt>
      <trkpt lat="59.8150123" lon="17.6658601">
        <ele>8.78918</ele>
        <time>2014-05-20T18:55:01Z</time>
      </trkpt>
      <trkpt lat="59.8150191" lon="17.6658176">
        <ele>9.2699</ele>
        <time>2014-05-20T18:55:02Z</time>
      </trkpt>
      <trkpt lat="59.81503" lon="17.6657754">
        <ele>9.75061</ele>
        <time>2014-05-20T18:55:03Z</time>
      </trkpt>
      <trkpt lat="59.8150418" lon="17.6657302">
        <ele>10.2312</ele>
        <time>2014-05-20T18:55:04Z</time>
      </trkpt>
      <trkpt lat="59.8150396" lon="17.6656755">
        <ele>9.2699</ele>
        <time>2014-05-20T18:55:05Z</time>
      </trkpt>
      <trkpt lat="59.8150556" lon="17.6656399">
        <ele>9.2699</ele>
        <time>2014-05-20T18:55:06Z</time>
      </trkpt>
      <trkpt lat="59.8150755" lon="17.6656188">
        <ele>9.75061</ele>
        <time>2014-05-20T18:55:07Z</time>
      </trkpt>
      <trkpt lat="59.8150962" lon="17.6656171">
        <ele>9.75061</ele>
        <time>2014-05-20T18:55:08Z</time>
      </trkpt>
      <trkpt lat="59.8151165" lon="17.6656166">
        <ele>9.75061</ele>
        <time>2014-05-20T18:55:09Z</time>
      </trkpt>
      <trkpt lat="59.8151466" lon="17.6656131">
        <ele>10.2312</ele>
        <time>2014-05-20T18:55:10Z</time>
      </trkpt>
      <trkpt lat="59.8151753" lon="17.6656124">
        <ele>10.7118</ele>
        <time>2014-05-20T18:55:11Z</time>
      </trkpt>
      <trkpt lat="59.8151992" lon="17.6656097">
        <ele>10.7118</ele>
        <time>2014-05-20T18:55:12Z</time>
      </trkpt>
      <trkpt lat="59.8152273" lon="17.6656074">
        <ele>11.1925</ele>
        <time>2014-05-20T18:55:13Z</time>
      </trkpt>
      <trkpt lat="59.8152501" lon="17.6656089">
        <ele>11.1925</ele>
        <time>2014-05-20T18:55:14Z</time>
      </trkpt>
      <trkpt lat="59.8152702" lon="17.6656079">
        <ele>11.1925</ele>
        <time>2014-05-20T18:55:15Z</time>
      </trkpt>
      <trkpt lat="59.8152918" lon="17.665601">
        <ele>11.1925</ele>
        <time>2014-05-20T18:55:16Z</time>
      </trkpt>
      <trkpt lat="59.8153155" lon="17.6655922">
        <ele>10.7118</ele>
        <time>2014-05-20T18:55:17Z</time>
      </trkpt>
      <trkpt lat="59.8153414" lon="17.6655888">
        <ele>11.1925</ele>
        <time>2014-05-20T18:55:18Z</time>
      </trkpt>
      <trkpt lat="59.8153649" lon="17.6655923">
        <ele>11.6732</ele>
        <time>2014-05-20T18:55:19Z</time>
      </trkpt>
      <trkpt lat="59.8153903" lon="17.665602">
        <ele>12.1538</ele>
        <time>2014-05-20T18:55:20Z</time>
      </trkpt>
      <trkpt lat="59.8154221" lon="17.6656083">
        <ele>13.1151</ele>
        <time>2014-05-20T18:55:21Z</time>
      </trkpt>
      <trkpt lat="59.8154469" lon="17.6656089">
        <ele>13.1151</ele>
        <time>2014-05-20T18:55:22Z</time>
      </trkpt>
      <trkpt lat="59.8154631" lon="17.665611">
        <ele>12.6344</ele>
        <time>2014-05-20T18:55:23Z</time>
      </trkpt>
      <trkpt lat="59.8154858" lon="17.6656124">
        <ele>12.6344</ele>
        <time>2014-05-20T18:55:24Z</time>
      </trkpt>
      <trkpt lat="59.8155075" lon="17.6656171">
        <ele>12.6344</ele>
        <time>2014-05-20T18:55:25Z</time>
      </trkpt>
      <trkpt lat="59.8155287" lon="17.6656229">
        <ele>13.1151</ele>
        <time>2014-05-20T18:55:26Z</time>
      </trkpt>
      <trkpt lat="59.815548" lon="17.6656244">
        <ele>12.6344</ele>
        <time>2014-05-20T18:55:27Z</time>
      </trkpt>
      <trkpt lat="59.8155733" lon="17.6656261">
        <ele>13.1151</ele>
        <time>2014-05-20T18:55:28Z</time>
      </trkpt>
      <trkpt lat="59.8155966" lon="17.6656223">
        <ele>13.1151</ele>
        <time>2014-05-20T18:55:29Z</time>
      </trkpt>
      <trkpt lat="59.815618" lon="17.6656212">
        <ele>13.1151</ele>
        <time>2014-05-20T18:55:30Z</time>
      </trkpt>
      <trkpt lat="59.8156431" lon="17.6656223">
        <ele>13.1151</ele>
        <time>2014-05-20T18:55:31Z</time>
      </trkpt>
      <trkpt lat="59.8156697" lon="17.6656185">
        <ele>12.6344</ele>
        <time>2014-05-20T18:55:32Z</time>
      </trkpt>
      <trkpt lat="59.8156921" lon="17.6656161">
        <ele>12.6344</ele>
        <time>2014-05-20T18:55:33Z</time>
      </trkpt>
      <trkpt lat="59.815714" lon="17.6656207">
        <ele>13.1151</ele>
        <time>2014-05-20T18:55:34Z</time>
      </trkpt>
      <trkpt lat="59.8157375" lon="17.665627">
        <ele>13.1151</ele>
        <time>2014-05-20T18:55:35Z</time>
      </trkpt>
      <trkpt lat="59.8157614" lon="17.6656285">
        <ele>13.1151</ele>
        <time>2014-05-20T18:55:36Z</time>
      </trkpt>
      <trkpt lat="59.8157898" lon="17.6656291">
        <ele>14.557</ele>
        <time>2014-05-20T18:55:37Z</time>
      </trkpt>
      <trkpt lat="59.815808" lon="17.6656274">
        <ele>14.557</ele>
        <time>2014-05-20T18:55:38Z</time>
      </trkpt>
      <trkpt lat="59.8158283" lon="17.6656273">
        <ele>14.557</ele>
        <time>2014-05-20T18:55:39Z</time>
      </trkpt>
      <trkpt lat="59.8158468" lon="17.6656291">
        <ele>14.557</ele>
        <time>2014-05-20T18:55:40Z</time>
      </trkpt>
      <trkpt lat="59.8158646" lon="17.665633">
        <ele>13.5958</ele>
        <time>2014-05-20T18:55:41Z</time>
      </trkpt>
      <trkpt lat="59.8158826" lon="17.6656399">
        <ele>14.557</ele>
        <time>2014-05-20T18:55:42Z</time>
      </trkpt>
      <trkpt lat="59.8158965" lon="17.6656491">
        <ele>15.0377</ele>
        <time>2014-05-20T18:55:43Z</time>
      </trkpt>
      <trkpt lat="59.8159193" lon="17.6656563">
        <ele>15.5184</ele>
        <time>2014-05-20T18:55:44Z</time>
      </trkpt>
      <trkpt lat="59.8159426" lon="17.665662">
        <ele>15.5184</ele>
        <time>2014-05-20T18:55:45Z</time>
      </trkpt>
      <trkpt lat="59.8159638" lon="17.6656659">
        <ele>15.999</ele>
        <time>2014-05-20T18:55:46Z</time>
      </trkpt>
      <trkpt lat="59.8159857" lon="17.6656721">
        <ele>16.4797</ele>
        <time>2014-05-20T18:55:47Z</time>
      </trkpt>
      <trkpt lat="59.8160069" lon="17.6656766">
        <ele>16.9604</ele>
        <time>2014-05-20T18:55:48Z</time>
      </trkpt>
      <trkpt lat="59.8160256" lon="17.6656817">
        <ele>17.4412</ele>
        <time>2014-05-20T18:55:49Z</time>
      </trkpt>
      <trkpt lat="59.8160406" lon="17.6656814">
        <ele>17.4412</ele>
        <time>2014-05-20T18:55:50Z</time>
      </trkpt>
      <trkpt lat="59.8160551" lon="17.6656762">
        <ele>16.9604</ele>
        <time>2014-05-20T18:55:51Z</time>
      </trkpt>
      <trkpt lat="59.816074" lon="17.6656689">
        <ele>16.9604</ele>
        <time>2014-05-20T18:55:52Z</time>
      </trkpt>
      <trkpt lat="59.8160972" lon="17.6656652">
        <ele>17.4412</ele>
        <time>2014-05-20T18:55:53Z</time>
      </trkpt>
      <trkpt lat="59.8161225" lon="17.6656658">
        <ele>18.4023</ele>
        <time>2014-05-20T18:55:54Z</time>
      </trkpt>
      <trkpt lat="59.8161562" lon="17.6656653">
        <ele>20.325</ele>
        <time>2014-05-20T18:55:55Z</time>
      </trkpt>
      <trkpt lat="59.8161916" lon="17.6656615">
        <ele>22.2476</ele>
        <time>2014-05-20T18:55:56Z</time>
      </trkpt>
      <trkpt lat="59.8162172" lon="17.6656499">
        <ele>22.7283</ele>
        <time>2014-05-20T18:55:57Z</time>
      </trkpt>
      <trkpt lat="59.8162342" lon="17.6656373">
        <ele>22.7283</ele>
        <time>2014-05-20T18:55:58Z</time>
      </trkpt>
      <trkpt lat="59.8162509" lon="17.6656212">
        <ele>22.2476</ele>
        <time>2014-05-20T18:55:59Z</time>
      </trkpt>
      <trkpt lat="59.8162745" lon="17.6656052">
        <ele>22.2476</ele>
        <time>2014-05-20T18:56:00Z</time>
      </trkpt>
      <trkpt lat="59.8162986" lon="17.6655923">
        <ele>22.2476</ele>
        <time>2014-05-20T18:56:01Z</time>
      </trkpt>
      <trkpt lat="59.8163299" lon="17.6655824">
        <ele>24.651</ele>
        <time>2014-05-20T18:56:02Z</time>
      </trkpt>
      <trkpt lat="59.8163509" lon="17.66557">
        <ele>25.6123</ele>
        <time>2014-05-20T18:56:03Z</time>
      </trkpt>
      <trkpt lat="59.8163665" lon="17.6655572">
        <ele>25.6123</ele>
        <time>2014-05-20T18:56:04Z</time>
      </trkpt>
      <trkpt lat="59.816384" lon="17.6655396">
        <ele>24.651</ele>
        <time>2014-05-20T18:56:05Z</time>
      </trkpt>
      <trkpt lat="59.8163981" lon="17.6655255">
        <ele>25.1317</ele>
        <time>2014-05-20T18:56:06Z</time>
      </trkpt>
      <trkpt lat="59.8164104" lon="17.6655032">
        <ele>25.1317</ele>
        <time>2014-05-20T18:56:07Z</time>
      </trkpt>
      <trkpt lat="59.8164339" lon="17.6654783">
        <ele>26.0929</ele>
        <time>2014-05-20T18:56:08Z</time>
      </trkpt>
      <trkpt lat="59.8164623" lon="17.6654493">
        <ele>27.5349</ele>
        <time>2014-05-20T18:56:09Z</time>
      </trkpt>
      <trkpt lat="59.8164892" lon="17.6654173">
        <ele>28.4962</ele>
        <time>2014-05-20T18:56:10Z</time>
      </trkpt>
      <trkpt lat="59.8165204" lon="17.6653854">
        <ele>30.4188</ele>
        <time>2014-05-20T18:56:11Z</time>
      </trkpt>
      <trkpt lat="59.8165447" lon="17.6653565">
        <ele>31.8607</ele>
        <time>2014-05-20T18:56:12Z</time>
      </trkpt>
      <trkpt lat="59.8165726" lon="17.6653281">
        <ele>33.7834</ele>
        <time>2014-05-20T18:56:13Z</time>
      </trkpt>
      <trkpt lat="59.816595" lon="17.6652956">
        <ele>32.8223</ele>
        <time>2014-05-20T18:56:14Z</time>
      </trkpt>
      <trkpt lat="59.8166126" lon="17.6652627">
        <ele>31.8607</ele>
        <time>2014-05-20T18:56:15Z</time>
      </trkpt>
      <trkpt lat="59.8166258" lon="17.6652363">
        <ele>29.9381</ele>
        <time>2014-05-20T18:56:16Z</time>
      </trkpt>
      <trkpt lat="59.8166395" lon="17.6652147">
        <ele>28.9769</ele>
        <time>2014-05-20T18:56:17Z</time>
      </trkpt>
      <trkpt lat="59.8166544" lon="17.6651907">
        <ele>28.9769</ele>
        <time>2014-05-20T18:56:18Z</time>
      </trkpt>
      <trkpt lat="59.8166669" lon="17.6651697">
        <ele>28.0155</ele>
        <time>2014-05-20T18:56:19Z</time>
      </trkpt>
      <trkpt lat="59.8166806" lon="17.6651577">
        <ele>27.5349</ele>
        <time>2014-05-20T18:56:20Z</time>
      </trkpt>
      <trkpt lat="59.8166967" lon="17.6651508">
        <ele>28.0155</ele>
        <time>2014-05-20T18:56:21Z</time>
      </trkpt>
      <trkpt lat="59.8167138" lon="17.6651406">
        <ele>28.0155</ele>
        <time>2014-05-20T18:56:22Z</time>
      </trkpt>
      <trkpt lat="59.8167218" lon="17.6651308">
        <ele>26.5736</ele>
        <time>2014-05-20T18:56:23Z</time>
      </trkpt>
      <trkpt lat="59.8167357" lon="17.6651254">
        <ele>26.5736</ele>
        <time>2014-05-20T18:56:24Z</time>
      </trkpt>
      <trkpt lat="59.8167462" lon="17.6651151">
        <ele>25.6123</ele>
        <time>2014-05-20T18:56:25Z</time>
      </trkpt>
      <trkpt lat="59.8167607" lon="17.6650906">
        <ele>24.1703</ele>
        <time>2014-05-20T18:56:26Z</time>
      </trkpt>
      <trkpt lat="59.8167747" lon="17.6650643">
        <ele>23.6896</ele>
        <time>2014-05-20T18:56:27Z</time>
      </trkpt>
      <trkpt lat="59.8167989" lon="17.6650328">
        <ele>23.209</ele>
        <time>2014-05-20T18:56:28Z</time>
      </trkpt>
      <trkpt lat="59.8168166" lon="17.6650033">
        <ele>23.209</ele>
        <time>2014-05-20T18:56:29Z</time>
      </trkpt>
      <trkpt lat="59.8168345" lon="17.6649757">
        <ele>22.7283</ele>
        <time>2014-05-20T18:56:30Z</time>
      </trkpt>
      <trkpt lat="59.8168516" lon="17.6649504">
        <ele>22.7283</ele>
        <time>2014-05-20T18:56:31Z</time>
      </trkpt>
      <trkpt lat="59.8168637" lon="17.6649323">
        <ele>22.7283</ele>
        <time>2014-05-20T18:56:32Z</time>
      </trkpt>
      <trkpt lat="59.8168786" lon="17.664908">
        <ele>21.767</ele>
        <time>2014-05-20T18:56:33Z</time>
      </trkpt>
      <trkpt lat="59.8169019" lon="17.6648922">
        <ele>20.8057</ele>
        <time>2014-05-20T18:56:34Z</time>
      </trkpt>
      <trkpt lat="59.8169232" lon="17.6648717">
        <ele>21.2864</ele>
        <time>2014-05-20T18:56:35Z</time>
      </trkpt>
      <trkpt lat="59.8169431" lon="17.6648442">
        <ele>22.2476</ele>
        <time>2014-05-20T18:56:36Z</time>
      </trkpt>
      <trkpt lat="59.8169549" lon="17.6648101">
        <ele>21.2864</ele>
        <time>2014-05-20T18:56:37Z</time>
      </trkpt>
      <trkpt lat="59.8169743" lon="17.6647722">
        <ele>20.325</ele>
        <time>2014-05-20T18:56:38Z</time>
      </trkpt>
      <trkpt lat="59.8170081" lon="17.6647403">
        <ele>21.767</ele>
        <time>2014-05-20T18:56:39Z</time>
      </trkpt>
      <trkpt lat="59.8170258" lon="17.664706">
        <ele>21.767</ele>
        <time>2014-05-20T18:56:40Z</time>
      </trkpt>
      <trkpt lat="59.817046" lon="17.6646714">
        <ele>23.209</ele>
        <time>2014-05-20T18:56:41Z</time>
      </trkpt>
      <trkpt lat="59.8170754" lon="17.664634">
        <ele>26.0929</ele>
        <time>2014-05-20T18:56:42Z</time>
      </trkpt>
      <trkpt lat="59.8171007" lon="17.6645934">
        <ele>28.4962</ele>
        <time>2014-05-20T18:56:43Z</time>
      </trkpt>
      <trkpt lat="59.8171309" lon="17.664562">
        <ele>30.4188</ele>
        <time>2014-05-20T18:56:44Z</time>
      </trkpt>
      <trkpt lat="59.8171585" lon="17.6645398">
        <ele>32.3416</ele>
        <time>2014-05-20T18:56:45Z</time>
      </trkpt>
      <trkpt lat="59.8171698" lon="17.6645115">
        <ele>31.8607</ele>
        <time>2014-05-20T18:56:46Z</time>
      </trkpt>
      <trkpt lat="59.8171915" lon="17.6644755">
        <ele>33.3029</ele>
        <time>2014-05-20T18:56:47Z</time>
      </trkpt>
      <trkpt lat="59.81721" lon="17.6644417">
        <ele>33.3029</ele>
        <time>2014-05-20T18:56:48Z</time>
      </trkpt>
      <trkpt lat="59.8172242" lon="17.6644097">
        <ele>32.8223</ele>
        <time>2014-05-20T18:56:49Z</time>
      </trkpt>
      <trkpt lat="59.8172398" lon="17.6643758">
        <ele>33.3029</ele>
        <time>2014-05-20T18:56:50Z</time>
      </trkpt>
      <trkpt lat="59.8172565" lon="17.6643475">
        <ele>32.3416</ele>
        <time>2014-05-20T18:56:51Z</time>
      </trkpt>
      <trkpt lat="59.8172698" lon="17.6643232">
        <ele>32.3416</ele>
        <time>2014-05-20T18:56:52Z</time>
      </trkpt>
      <trkpt lat="59.8172852" lon="17.6643031">
        <ele>32.3416</ele>
        <time>2014-05-20T18:56:53Z</time>
      </trkpt>
      <trkpt lat="59.8173204" lon="17.6642838">
        <ele>36.1868</ele>
        <time>2014-05-20T18:56:54Z</time>
      </trkpt>
      <trkpt lat="59.8173618" lon="17.6642676">
        <ele>40.5128</ele>
        <time>2014-05-20T18:56:55Z</time>
      </trkpt>
      <trkpt lat="59.817397" lon="17.6642512">
        <ele>43.3966</ele>
        <time>2014-05-20T18:56:56Z</time>
      </trkpt>
      <trkpt lat="59.8174231" lon="17.664239">
        <ele>45.7999</ele>
        <time>2014-05-20T18:56:57Z</time>
      </trkpt>
      <trkpt lat="59.8174428" lon="17.6642171">
        <ele>46.2806</ele>
        <time>2014-05-20T18:56:58Z</time>
      </trkpt>
      <trkpt lat="59.8174637" lon="17.6642066">
        <ele>46.7612</ele>
        <time>2014-05-20T18:56:59Z</time>
      </trkpt>
      <trkpt lat="59.8174827" lon="17.664205">
        <ele>46.2806</ele>
        <time>2014-05-20T18:57:00Z</time>
      </trkpt>
      <trkpt lat="59.8175017" lon="17.6641957">
        <ele>45.7999</ele>
        <time>2014-05-20T18:57:01Z</time>
      </trkpt>
      <trkpt lat="59.817521" lon="17.6641863">
        <ele>45.7999</ele>
        <time>2014-05-20T18:57:02Z</time>
      </trkpt>
      <trkpt lat="59.817537" lon="17.6641771">
        <ele>44.8386</ele>
        <time>2014-05-20T18:57:03Z</time>
      </trkpt>
      <trkpt lat="59.817564" lon="17.6641626">
        <ele>46.2806</ele>
        <time>2014-05-20T18:57:04Z</time>
      </trkpt>
      <trkpt lat="59.8176017" lon="17.6641482">
        <ele>49.1646</ele>
        <time>2014-05-20T18:57:05Z</time>
      </trkpt>
      <trkpt lat="59.8176287" lon="17.6641356">
        <ele>50.126</ele>
        <time>2014-05-20T18:57:06Z</time>
      </trkpt>
      <trkpt lat="59.8176481" lon="17.6641214">
        <ele>50.126</ele>
        <time>2014-05-20T18:57:07Z</time>
      </trkpt>
      <trkpt lat="59.817662" lon="17.6641009">
        <ele>49.1646</ele>
        <time>2014-05-20T18:57:08Z</time>
      </trkpt>
      <trkpt lat="59.8176857" lon="17.6640893">
        <ele>49.1646</ele>
        <time>2014-05-20T18:57:09Z</time>
      </trkpt>
      <trkpt lat="59.8177073" lon="17.6640722">
        <ele>49.6453</ele>
        <time>2014-05-20T18:57:10Z</time>
      </trkpt>
      <trkpt lat="59.8177283" lon="17.6640652">
        <ele>49.1646</ele>
        <time>2014-05-20T18:57:11Z</time>
      </trkpt>
      <trkpt lat="59.8177455" lon="17.6640637">
        <ele>47.7225</ele>
        <time>2014-05-20T18:57:12Z</time>
      </trkpt>
      <trkpt lat="59.8177636" lon="17.6640655">
        <ele>47.2418</ele>
        <time>2014-05-20T18:57:13Z</time>
      </trkpt>
      <trkpt lat="59.8177851" lon="17.6640569">
        <ele>47.2418</ele>
        <time>2014-05-20T18:57:14Z</time>
      </trkpt>
      <trkpt lat="59.8178047" lon="17.664046">
        <ele>46.2806</ele>
        <time>2014-05-20T18:57:15Z</time>
      </trkpt>
      <trkpt lat="59.8178292" lon="17.6640326">
        <ele>46.2806</ele>
        <time>2014-05-20T18:57:16Z</time>
      </trkpt>
      <trkpt lat="59.8178465" lon="17.6640304">
        <ele>45.7999</ele>
        <time>2014-05-20T18:57:17Z</time>
      </trkpt>
      <trkpt lat="59.8178629" lon="17.6640282">
        <ele>44.358</ele>
        <time>2014-05-20T18:57:18Z</time>
      </trkpt>
      <trkpt lat="59.8178863" lon="17.6640185">
        <ele>44.358</ele>
        <time>2014-05-20T18:57:19Z</time>
      </trkpt>
      <trkpt lat="59.8179178" lon="17.6640128">
        <ele>45.3192</ele>
        <time>2014-05-20T18:57:20Z</time>
      </trkpt>
      <trkpt lat="59.8179454" lon="17.6640125">
        <ele>46.7612</ele>
        <time>2014-05-20T18:57:21Z</time>
      </trkpt>
      <trkpt lat="59.8179646" lon="17.6640041">
        <ele>46.2806</ele>
        <time>2014-05-20T18:57:22Z</time>
      </trkpt>
      <trkpt lat="59.8179837" lon="17.6639951">
        <ele>45.7999</ele>
        <time>2014-05-20T18:57:23Z</time>
      </trkpt>
      <trkpt lat="59.8180043" lon="17.6639875">
        <ele>45.3192</ele>
        <time>2014-05-20T18:57:24Z</time>
      </trkpt>
      <trkpt lat="59.8180252" lon="17.6639808">
        <ele>45.3192</ele>
        <time>2014-05-20T18:57:25Z</time>
      </trkpt>
      <trkpt lat="59.8180463" lon="17.6639782">
        <ele>44.358</ele>
        <time>2014-05-20T18:57:26Z</time>
      </trkpt>
      <trkpt lat="59.8180716" lon="17.6639798">
        <ele>44.358</ele>
        <time>2014-05-20T18:57:27Z</time>
      </trkpt>
      <trkpt lat="59.8180894" lon="17.6639735">
        <ele>43.3966</ele>
        <time>2014-05-20T18:57:28Z</time>
      </trkpt>
      <trkpt lat="59.8181101" lon="17.6639674">
        <ele>42.916</ele>
        <time>2014-05-20T18:57:29Z</time>
      </trkpt>
      <trkpt lat="59.818126" lon="17.6639589">
        <ele>41.9547</ele>
        <time>2014-05-20T18:57:30Z</time>
      </trkpt>
      <trkpt lat="59.8181497" lon="17.6639491">
        <ele>41.9547</ele>
        <time>2014-05-20T18:57:31Z</time>
      </trkpt>
      <trkpt lat="59.8181763" lon="17.6639446">
        <ele>41.9547</ele>
        <time>2014-05-20T18:57:32Z</time>
      </trkpt>
      <trkpt lat="59.8182033" lon="17.6639471">
        <ele>41.9547</ele>
        <time>2014-05-20T18:57:33Z</time>
      </trkpt>
      <trkpt lat="59.8182338" lon="17.6639498">
        <ele>42.916</ele>
        <time>2014-05-20T18:57:34Z</time>
      </trkpt>
      <trkpt lat="59.8182654" lon="17.6639523">
        <ele>43.3966</ele>
        <time>2014-05-20T18:57:35Z</time>
      </trkpt>
      <trkpt lat="59.8182886" lon="17.6639518">
        <ele>42.4354</ele>
        <time>2014-05-20T18:57:36Z</time>
      </trkpt>
      <trkpt lat="59.8183096" lon="17.663946">
        <ele>42.4354</ele>
        <time>2014-05-20T18:57:37Z</time>
      </trkpt>
      <trkpt lat="59.8183281" lon="17.6639439">
        <ele>41.9547</ele>
        <time>2014-05-20T18:57:38Z</time>
      </trkpt>
      <trkpt lat="59.8183442" lon="17.6639436">
        <ele>41.474</ele>
        <time>2014-05-20T18:57:39Z</time>
      </trkpt>
      <trkpt lat="59.8183607" lon="17.6639441">
        <ele>40.5128</ele>
        <time>2014-05-20T18:57:40Z</time>
      </trkpt>
      <trkpt lat="59.8183788" lon="17.6639498">
        <ele>40.0321</ele>
        <time>2014-05-20T18:57:41Z</time>
      </trkpt>
      <trkpt lat="59.8183966" lon="17.6639517">
        <ele>39.0707</ele>
        <time>2014-05-20T18:57:42Z</time>
      </trkpt>
      <trkpt lat="59.8184177" lon="17.6639467">
        <ele>38.5901</ele>
        <time>2014-05-20T18:57:43Z</time>
      </trkpt>
      <trkpt lat="59.8184352" lon="17.663944">
        <ele>37.6287</ele>
        <time>2014-05-20T18:57:44Z</time>
      </trkpt>
      <trkpt lat="59.818453" lon="17.663943">
        <ele>37.1481</ele>
        <time>2014-05-20T18:57:45Z</time>
      </trkpt>
      <trkpt lat="59.8184768" lon="17.6639455">
        <ele>36.1868</ele>
        <time>2014-05-20T18:57:46Z</time>
      </trkpt>
      <trkpt lat="59.8185005" lon="17.6639518">
        <ele>35.7061</ele>
        <time>2014-05-20T18:57:47Z</time>
      </trkpt>
      <trkpt lat="59.8185296" lon="17.6639554">
        <ele>35.7061</ele>
        <time>2014-05-20T18:57:48Z</time>
      </trkpt>
      <trkpt lat="59.8185611" lon="17.6639563">
        <ele>35.7061</ele>
        <time>2014-05-20T18:57:49Z</time>
      </trkpt>
      <trkpt lat="59.818584" lon="17.663955">
        <ele>35.7061</ele>
        <time>2014-05-20T18:57:50Z</time>
      </trkpt>
      <trkpt lat="59.8186078" lon="17.6639555">
        <ele>35.2255</ele>
        <time>2014-05-20T18:57:51Z</time>
      </trkpt>
      <trkpt lat="59.8186498" lon="17.6639559">
        <ele>38.1094</ele>
        <time>2014-05-20T18:57:52Z</time>
      </trkpt>
      <trkpt lat="59.8186897" lon="17.6639559">
        <ele>41.474</ele>
        <time>2014-05-20T18:57:53Z</time>
      </trkpt>
      <trkpt lat="59.8187404" lon="17.6639538">
        <ele>44.8386</ele>
        <time>2014-05-20T18:57:54Z</time>
      </trkpt>
      <trkpt lat="59.8187765" lon="17.6639588">
        <ele>45.3192</ele>
        <time>2014-05-20T18:57:55Z</time>
      </trkpt>
      <trkpt lat="59.8188047" lon="17.6639718">
        <ele>44.8386</ele>
        <time>2014-05-20T18:57:56Z</time>
      </trkpt>
      <trkpt lat="59.81882" lon="17.6639746">
        <ele>44.358</ele>
        <time>2014-05-20T18:57:57Z</time>
      </trkpt>
      <trkpt lat="59.8188347" lon="17.6639783">
        <ele>43.8773</ele>
        <time>2014-05-20T18:57:58Z</time>
      </trkpt>
      <trkpt lat="59.8188584" lon="17.663977">
        <ele>43.8773</ele>
        <time>2014-05-20T18:57:59Z</time>
      </trkpt>
      <trkpt lat="59.8188749" lon="17.6639729">
        <ele>43.3966</ele>
        <time>2014-05-20T18:58:00Z</time>
      </trkpt>
      <trkpt lat="59.8188926" lon="17.6639712">
        <ele>42.916</ele>
        <time>2014-05-20T18:58:01Z</time>
      </trkpt>
      <trkpt lat="59.8189083" lon="17.663966">
        <ele>41.474</ele>
        <time>2014-05-20T18:58:02Z</time>
      </trkpt>
      <trkpt lat="59.8189243" lon="17.663959">
        <ele>40.0321</ele>
        <time>2014-05-20T18:58:03Z</time>
      </trkpt>
      <trkpt lat="59.8189429" lon="17.6639539">
        <ele>39.0707</ele>
        <time>2014-05-20T18:58:04Z</time>
      </trkpt>
      <trkpt lat="59.8189781" lon="17.6639579">
        <ele>40.5128</ele>
        <time>2014-05-20T18:58:05Z</time>
      </trkpt>
      <trkpt lat="59.8189982" lon="17.6639527">
        <ele>40.0321</ele>
        <time>2014-05-20T18:58:06Z</time>
      </trkpt>
      <trkpt lat="59.8190164" lon="17.6639498">
        <ele>40.0321</ele>
        <time>2014-05-20T18:58:07Z</time>
      </trkpt>
      <trkpt lat="59.8190265" lon="17.6639508">
        <ele>39.0707</ele>
        <time>2014-05-20T18:58:08Z</time>
      </trkpt>
      <trkpt lat="59.8190445" lon="17.663945">
        <ele>40.0321</ele>
        <time>2014-05-20T18:58:09Z</time>
      </trkpt>
      <trkpt lat="59.8190585" lon="17.6639414">
        <ele>39.5513</ele>
        <time>2014-05-20T18:58:10Z</time>
      </trkpt>
      <trkpt lat="59.819094" lon="17.6639383">
        <ele>42.4354</ele>
        <time>2014-05-20T18:58:11Z</time>
      </trkpt>
      <trkpt lat="59.8191305" lon="17.6639247">
        <ele>44.8386</ele>
        <time>2014-05-20T18:58:12Z</time>
      </trkpt>
      <trkpt lat="59.8191575" lon="17.663914">
        <ele>45.7999</ele>
        <time>2014-05-20T18:58:13Z</time>
      </trkpt>
      <trkpt lat="59.8191823" lon="17.6639062">
        <ele>45.7999</ele>
        <time>2014-05-20T18:58:14Z</time>
      </trkpt>
      <trkpt lat="59.8192107" lon="17.6639049">
        <ele>46.2806</ele>
        <time>2014-05-20T18:58:15Z</time>
      </trkpt>
      <trkpt lat="59.8192382" lon="17.6639065">
        <ele>47.2418</ele>
        <time>2014-05-20T18:58:16Z</time>
      </trkpt>
      <trkpt lat="59.81926" lon="17.6638982">
        <ele>47.2418</ele>
        <time>2014-05-20T18:58:17Z</time>
      </trkpt>
      <trkpt lat="59.8192836" lon="17.6638915">
        <ele>46.7612</ele>
        <time>2014-05-20T18:58:18Z</time>
      </trkpt>
      <trkpt lat="59.8193113" lon="17.663886">
        <ele>47.7225</ele>
        <time>2014-05-20T18:58:19Z</time>
      </trkpt>
      <trkpt lat="59.8193308" lon="17.6638829">
        <ele>48.684</ele>
        <time>2014-05-20T18:58:20Z</time>
      </trkpt>
      <trkpt lat="59.8193587" lon="17.6638859">
        <ele>50.6066</ele>
        <time>2014-05-20T18:58:21Z</time>
      </trkpt>
      <trkpt lat="59.8193831" lon="17.6638839">
        <ele>51.0872</ele>
        <time>2014-05-20T18:58:22Z</time>
      </trkpt>
      <trkpt lat="59.8194181" lon="17.6638875">
        <ele>53.0098</ele>
        <time>2014-05-20T18:58:23Z</time>
      </trkpt>
      <trkpt lat="59.8194376" lon="17.6638859">
        <ele>53.0098</ele>
        <time>2014-05-20T18:58:24Z</time>
      </trkpt>
      <trkpt lat="59.8194567" lon="17.6638863">
        <ele>53.0098</ele>
        <time>2014-05-20T18:58:25Z</time>
      </trkpt>
      <trkpt lat="59.8194815" lon="17.6638894">
        <ele>54.4518</ele>
        <time>2014-05-20T18:58:26Z</time>
      </trkpt>
      <trkpt lat="59.8195075" lon="17.6638923">
        <ele>55.8938</ele>
        <time>2014-05-20T18:58:27Z</time>
      </trkpt>
      <trkpt lat="59.8195294" lon="17.6638901">
        <ele>56.3745</ele>
        <time>2014-05-20T18:58:28Z</time>
      </trkpt>
      <trkpt lat="59.8195486" lon="17.6638785">
        <ele>55.8938</ele>
        <time>2014-05-20T18:58:29Z</time>
      </trkpt>
      <trkpt lat="59.8195677" lon="17.663858">
        <ele>55.4131</ele>
        <time>2014-05-20T18:58:30Z</time>
      </trkpt>
      <trkpt lat="59.8195909" lon="17.6638528">
        <ele>54.9324</ele>
        <time>2014-05-20T18:58:31Z</time>
      </trkpt>
      <trkpt lat="59.8196107" lon="17.6638559">
        <ele>54.9324</ele>
        <time>2014-05-20T18:58:32Z</time>
      </trkpt>
      <trkpt lat="59.8196305" lon="17.6638584">
        <ele>54.9324</ele>
        <time>2014-05-20T18:58:33Z</time>
      </trkpt>
      <trkpt lat="59.8196563" lon="17.6638588">
        <ele>55.4131</ele>
        <time>2014-05-20T18:58:34Z</time>
      </trkpt>
      <trkpt lat="59.8196778" lon="17.6638622">
        <ele>54.9324</ele>
        <time>2014-05-20T18:58:35Z</time>
      </trkpt>
      <trkpt lat="59.8196957" lon="17.663865">
        <ele>53.9712</ele>
        <time>2014-05-20T18:58:36Z</time>
      </trkpt>
      <trkpt lat="59.8197134" lon="17.6638702">
        <ele>53.0098</ele>
        <time>2014-05-20T18:58:37Z</time>
      </trkpt>
      <trkpt lat="59.8197288" lon="17.6638682">
        <ele>53.0098</ele>
        <time>2014-05-20T18:58:38Z</time>
      </trkpt>
      <trkpt lat="59.8197441" lon="17.6638733">
        <ele>52.5292</ele>
        <time>2014-05-20T18:58:39Z</time>
      </trkpt>
      <trkpt lat="59.8197612" lon="17.6638757">
        <ele>51.5679</ele>
        <time>2014-05-20T18:58:40Z</time>
      </trkpt>
      <trkpt lat="59.8197765" lon="17.6638835">
        <ele>51.0872</ele>
        <time>2014-05-20T18:58:41Z</time>
      </trkpt>
      <trkpt lat="59.8197936" lon="17.6638916">
        <ele>50.6066</ele>
        <time>2014-05-20T18:58:42Z</time>
      </trkpt>
      <trkpt lat="59.8198134" lon="17.663893">
        <ele>49.6453</ele>
        <time>2014-05-20T18:58:43Z</time>
      </trkpt>
      <trkpt lat="59.8198291" lon="17.6638978">
        <ele>48.2034</ele>
        <time>2014-05-20T18:58:44Z</time>
      </trkpt>
      <trkpt lat="59.8198703" lon="17.6639103">
        <ele>50.6066</ele>
        <time>2014-05-20T18:58:45Z</time>
      </trkpt>
      <trkpt lat="59.8198924" lon="17.6639184">
        <ele>49.6453</ele>
        <time>2014-05-20T18:58:46Z</time>
      </trkpt>
      <trkpt lat="59.8199087" lon="17.663918">
        <ele>47.7225</ele>
        <time>2014-05-20T18:58:47Z</time>
      </trkpt>
      <trkpt lat="59.8199278" lon="17.6639277">
        <ele>47.2418</ele>
        <time>2014-05-20T18:58:48Z</time>
      </trkpt>
      <trkpt lat="59.8199524" lon="17.6639435">
        <ele>47.2418</ele>
        <time>2014-05-20T18:58:49Z</time>
      </trkpt>
      <trkpt lat="59.8199791" lon="17.6639476">
        <ele>49.1646</ele>
        <time>2014-05-20T18:58:50Z</time>
      </trkpt>
      <trkpt lat="59.8200001" lon="17.6639538">
        <ele>49.6453</ele>
        <time>2014-05-20T18:58:51Z</time>
      </trkpt>
      <trkpt lat="59.8200189" lon="17.6639537">
        <ele>48.684</ele>
        <time>2014-05-20T18:58:52Z</time>
      </trkpt>
      <trkpt lat="59.8200334" lon="17.6639513">
        <ele>48.2034</ele>
        <time>2014-05-20T18:58:53Z</time>
      </trkpt>
      <trkpt lat="59.8200592" lon="17.6639536">
        <ele>47.2418</ele>
        <time>2014-05-20T18:58:54Z</time>
      </trkpt>
      <trkpt lat="59.8200873" lon="17.6639581">
        <ele>47.2418</ele>
        <time>2014-05-20T18:58:55Z</time>
      </trkpt>
      <trkpt lat="59.8201162" lon="17.663973">
        <ele>47.2418</ele>
        <time>2014-05-20T18:58:56Z</time>
      </trkpt>
      <trkpt lat="59.8201449" lon="17.6639833">
        <ele>47.2418</ele>
        <time>2014-05-20T18:58:57Z</time>
      </trkpt>
      <trkpt lat="59.8201653" lon="17.6639897">
        <ele>44.8386</ele>
        <time>2014-05-20T18:58:58Z</time>
      </trkpt>
      <trkpt lat="59.8201827" lon="17.6639945">
        <ele>42.4354</ele>
        <time>2014-05-20T18:58:59Z</time>
      </trkpt>
      <trkpt lat="59.8201972" lon="17.6639972">
        <ele>40.9934</ele>
        <time>2014-05-20T18:59:00Z</time>
      </trkpt>
      <trkpt lat="59.8202207" lon="17.663995">
        <ele>40.0321</ele>
        <time>2014-05-20T18:59:01Z</time>
      </trkpt>
      <trkpt lat="59.8202423" lon="17.6639899">
        <ele>38.5901</ele>
        <time>2014-05-20T18:59:02Z</time>
      </trkpt>
      <trkpt lat="59.8202604" lon="17.6639859">
        <ele>37.6287</ele>
        <time>2014-05-20T18:59:03Z</time>
      </trkpt>
      <trkpt lat="59.8202844" lon="17.6639901">
        <ele>38.1094</ele>
        <time>2014-05-20T18:59:04Z</time>
      </trkpt>
      <trkpt lat="59.8203038" lon="17.6639875">
        <ele>37.1481</ele>
        <time>2014-05-20T18:59:05Z</time>
      </trkpt>
      <trkpt lat="59.8203297" lon="17.6639933">
        <ele>38.1094</ele>
        <time>2014-05-20T18:59:06Z</time>
      </trkpt>
      <trkpt lat="59.8203502" lon="17.6639946">
        <ele>37.1481</ele>
        <time>2014-05-20T18:59:07Z</time>
      </trkpt>
      <trkpt lat="59.8203686" lon="17.6639839">
        <ele>36.1868</ele>
        <time>2014-05-20T18:59:08Z</time>
      </trkpt>
      <trkpt lat="59.8203862" lon="17.6639843">
        <ele>36.1868</ele>
        <time>2014-05-20T18:59:09Z</time>
      </trkpt>
      <trkpt lat="59.8204122" lon="17.6639829">
        <ele>36.1868</ele>
        <time>2014-05-20T18:59:10Z</time>
      </trkpt>
      <trkpt lat="59.8204281" lon="17.6639796">
        <ele>35.7061</ele>
        <time>2014-05-20T18:59:11Z</time>
      </trkpt>
      <trkpt lat="59.8204502" lon="17.6639749">
        <ele>34.7449</ele>
        <time>2014-05-20T18:59:12Z</time>
      </trkpt>
      <trkpt lat="59.8204799" lon="17.6639658">
        <ele>36.6675</ele>
        <time>2014-05-20T18:59:13Z</time>
      </trkpt>
      <trkpt lat="59.8205033" lon="17.6639636">
        <ele>36.6675</ele>
        <time>2014-05-20T18:59:14Z</time>
      </trkpt>
      <trkpt lat="59.8205298" lon="17.6639541">
        <ele>36.1868</ele>
        <time>2014-05-20T18:59:15Z</time>
      </trkpt>
      <trkpt lat="59.8205512" lon="17.6639341">
        <ele>34.2642</ele>
        <time>2014-05-20T18:59:16Z</time>
      </trkpt>
      <trkpt lat="59.8205776" lon="17.6639201">
        <ele>33.3029</ele>
        <time>2014-05-20T18:59:17Z</time>
      </trkpt>
      <trkpt lat="59.8206106" lon="17.6639207">
        <ele>34.2642</ele>
        <time>2014-05-20T18:59:18Z</time>
      </trkpt>
      <trkpt lat="59.8206384" lon="17.6639237">
        <ele>36.1868</ele>
        <time>2014-05-20T18:59:19Z</time>
      </trkpt>
      <trkpt lat="59.820665" lon="17.6639163">
        <ele>35.7061</ele>
        <time>2014-05-20T18:59:20Z</time>
      </trkpt>
      <trkpt lat="59.8206843" lon="17.6639124">
        <ele>35.2255</ele>
        <time>2014-05-20T18:59:21Z</time>
      </trkpt>
      <trkpt lat="59.8207054" lon="17.6639116">
        <ele>34.7449</ele>
        <time>2014-05-20T18:59:22Z</time>
      </trkpt>
      <trkpt lat="59.820728" lon="17.6639159">
        <ele>34.7449</ele>
        <time>2014-05-20T18:59:23Z</time>
      </trkpt>
      <trkpt lat="59.8207435" lon="17.663919">
        <ele>34.2642</ele>
        <time>2014-05-20T18:59:24Z</time>
      </trkpt>
      <trkpt lat="59.8207746" lon="17.6639102">
        <ele>33.3029</ele>
        <time>2014-05-20T18:59:25Z</time>
      </trkpt>
      <trkpt lat="59.8208079" lon="17.6639076">
        <ele>32.3416</ele>
        <time>2014-05-20T18:59:26Z</time>
      </trkpt>
      <trkpt lat="59.8208379" lon="17.6639037">
        <ele>32.3416</ele>
        <time>2014-05-20T18:59:27Z</time>
      </trkpt>
      <trkpt lat="59.8208664" lon="17.6639059">
        <ele>31.3801</ele>
        <time>2014-05-20T18:59:28Z</time>
      </trkpt>
      <trkpt lat="59.8208907" lon="17.6638979">
        <ele>29.9381</ele>
        <time>2014-05-20T18:59:29Z</time>
      </trkpt>
      <trkpt lat="59.8209276" lon="17.6638806">
        <ele>29.4575</ele>
        <time>2014-05-20T18:59:30Z</time>
      </trkpt>
      <trkpt lat="59.8209565" lon="17.6638632">
        <ele>28.9769</ele>
        <time>2014-05-20T18:59:31Z</time>
      </trkpt>
      <trkpt lat="59.8209755" lon="17.663845">
        <ele>26.5736</ele>
        <time>2014-05-20T18:59:32Z</time>
      </trkpt>
      <trkpt lat="59.8210008" lon="17.6638367">
        <ele>25.6123</ele>
        <time>2014-05-20T18:59:33Z</time>
      </trkpt>
      <trkpt lat="59.8210264" lon="17.6638253">
        <ele>25.1317</ele>
        <time>2014-05-20T18:59:34Z</time>
      </trkpt>
      <trkpt lat="59.821057" lon="17.6638212">
        <ele>25.1317</ele>
        <time>2014-05-20T18:59:35Z</time>
      </trkpt>
      <trkpt lat="59.821093" lon="17.663826">
        <ele>26.5736</ele>
        <time>2014-05-20T18:59:36Z</time>
      </trkpt>
      <trkpt lat="59.8211179" lon="17.6638279">
        <ele>26.0929</ele>
        <time>2014-05-20T18:59:37Z</time>
      </trkpt>
      <trkpt lat="59.8211376" lon="17.6638171">
        <ele>25.6123</ele>
        <time>2014-05-20T18:59:38Z</time>
      </trkpt>
      <trkpt lat="59.8211476" lon="17.6638098">
        <ele>24.651</ele>
        <time>2014-05-20T18:59:39Z</time>
      </trkpt>
      <trkpt lat="59.8211699" lon="17.6638087">
        <ele>25.1317</ele>
        <time>2014-05-20T18:59:40Z</time>
      </trkpt>
      <trkpt lat="59.8211937" lon="17.6638058">
        <ele>25.1317</ele>
        <time>2014-05-20T18:59:41Z</time>
      </trkpt>
      <trkpt lat="59.8212213" lon="17.6638154">
        <ele>24.651</ele>
        <time>2014-05-20T18:59:42Z</time>
      </trkpt>
      <trkpt lat="59.821255" lon="17.6638144">
        <ele>24.1703</ele>
        <time>2014-05-20T18:59:43Z</time>
      </trkpt>
      <trkpt lat="59.8212852" lon="17.6638118">
        <ele>23.209</ele>
        <time>2014-05-20T18:59:44Z</time>
      </trkpt>
      <trkpt lat="59.821315" lon="17.6638144">
        <ele>22.7283</ele>
        <time>2014-05-20T18:59:45Z</time>
      </trkpt>
      <trkpt lat="59.8213435" lon="17.663821">
        <ele>23.209</ele>
        <time>2014-05-20T18:59:46Z</time>
      </trkpt>
      <trkpt lat="59.8213754" lon="17.6638284">
        <ele>23.209</ele>
        <time>2014-05-20T18:59:47Z</time>
      </trkpt>
      <trkpt lat="59.8214077" lon="17.6638305">
        <ele>24.1703</ele>
        <time>2014-05-20T18:59:48Z</time>
      </trkpt>
      <trkpt lat="59.8214391" lon="17.6638249">
        <ele>24.651</ele>
        <time>2014-05-20T18:59:49Z</time>
      </trkpt>
      <trkpt lat="59.8214715" lon="17.6638272">
        <ele>25.1317</ele>
        <time>2014-05-20T18:59:50Z</time>
      </trkpt>
      <trkpt lat="59.8215009" lon="17.6638308">
        <ele>23.6896</ele>
        <time>2014-05-20T18:59:51Z</time>
      </trkpt>
      <trkpt lat="59.8215418" lon="17.6638408">
        <ele>25.1317</ele>
        <time>2014-05-20T18:59:52Z</time>
      </trkpt>
      <trkpt lat="59.8215771" lon="17.6638589">
        <ele>25.6123</ele>
        <time>2014-05-20T18:59:53Z</time>
      </trkpt>
      <trkpt lat="59.8216127" lon="17.6638672">
        <ele>25.6123</ele>
        <time>2014-05-20T18:59:54Z</time>
      </trkpt>
      <trkpt lat="59.8216381" lon="17.6638581">
        <ele>25.1317</ele>
        <time>2014-05-20T18:59:55Z</time>
      </trkpt>
      <trkpt lat="59.8216665" lon="17.6638487">
        <ele>24.651</ele>
        <time>2014-05-20T18:59:56Z</time>
      </trkpt>
      <trkpt lat="59.8216966" lon="17.6638383">
        <ele>24.1703</ele>
        <time>2014-05-20T18:59:57Z</time>
      </trkpt>
      <trkpt lat="59.8217251" lon="17.6638362">
        <ele>23.6896</ele>
        <time>2014-05-20T18:59:58Z</time>
      </trkpt>
      <trkpt lat="59.821758" lon="17.6638394">
        <ele>24.651</ele>
        <time>2014-05-20T18:59:59Z</time>
      </trkpt>
      <trkpt lat="59.8217823" lon="17.663844">
        <ele>24.651</ele>
        <time>2014-05-20T19:00:00Z</time>
      </trkpt>
      <trkpt lat="59.8218132" lon="17.6638487">
        <ele>26.5736</ele>
        <time>2014-05-20T19:00:01Z</time>
      </trkpt>
      <trkpt lat="59.8218454" lon="17.6638586">
        <ele>28.9769</ele>
        <time>2014-05-20T19:00:02Z</time>
      </trkpt>
      <trkpt lat="59.8218713" lon="17.6638526">
        <ele>28.0155</ele>
        <time>2014-05-20T19:00:03Z</time>
      </trkpt>
      <trkpt lat="59.821902" lon="17.6638383">
        <ele>28.9769</ele>
        <time>2014-05-20T19:00:04Z</time>
      </trkpt>
      <trkpt lat="59.8219278" lon="17.6638254">
        <ele>28.9769</ele>
        <time>2014-05-20T19:00:05Z</time>
      </trkpt>
      <trkpt lat="59.8219582" lon="17.6638205">
        <ele>29.9381</ele>
        <time>2014-05-20T19:00:06Z</time>
      </trkpt>
      <trkpt lat="59.8219841" lon="17.663813">
        <ele>29.4575</ele>
        <time>2014-05-20T19:00:07Z</time>
      </trkpt>
      <trkpt lat="59.8220112" lon="17.6638037">
        <ele>28.4962</ele>
        <time>2014-05-20T19:00:08Z</time>
      </trkpt>
      <trkpt lat="59.8220467" lon="17.663802">
        <ele>29.9381</ele>
        <time>2014-05-20T19:00:09Z</time>
      </trkpt>
      <trkpt lat="59.8220755" lon="17.6638015">
        <ele>30.4188</ele>
        <time>2014-05-20T19:00:10Z</time>
      </trkpt>
      <trkpt lat="59.8221076" lon="17.6637928">
        <ele>31.3801</ele>
        <time>2014-05-20T19:00:11Z</time>
      </trkpt>
      <trkpt lat="59.8221329" lon="17.6637677">
        <ele>31.3801</ele>
        <time>2014-05-20T19:00:12Z</time>
      </trkpt>
      <trkpt lat="59.8221477" lon="17.6637555">
        <ele>29.9381</ele>
        <time>2014-05-20T19:00:13Z</time>
      </trkpt>
      <trkpt lat="59.8221759" lon="17.6637599">
        <ele>30.4188</ele>
        <time>2014-05-20T19:00:14Z</time>
      </trkpt>
      <trkpt lat="59.8222111" lon="17.6637659">
        <ele>32.3416</ele>
        <time>2014-05-20T19:00:15Z</time>
      </trkpt>
      <trkpt lat="59.82224" lon="17.6637688">
        <ele>32.3416</ele>
        <time>2014-05-20T19:00:16Z</time>
      </trkpt>
      <trkpt lat="59.8223005" lon="17.6637662">
        <ele>38.1094</ele>
        <time>2014-05-20T19:00:17Z</time>
      </trkpt>
      <trkpt lat="59.8223368" lon="17.663758">
        <ele>38.5901</ele>
        <time>2014-05-20T19:00:18Z</time>
      </trkpt>
      <trkpt lat="59.8223814" lon="17.6637521">
        <ele>39.5513</ele>
        <time>2014-05-20T19:00:19Z</time>
      </trkpt>
      <trkpt lat="59.8224292" lon="17.6637476">
        <ele>40.0321</ele>
        <time>2014-05-20T19:00:20Z</time>
      </trkpt>
      <trkpt lat="59.822472" lon="17.6637423">
        <ele>41.474</ele>
        <time>2014-05-20T19:00:21Z</time>
      </trkpt>
      <trkpt lat="59.8225148" lon="17.6637361">
        <ele>42.916</ele>
        <time>2014-05-20T19:00:22Z</time>
      </trkpt>
      <trkpt lat="59.822545" lon="17.6637337">
        <ele>43.8773</ele>
        <time>2014-05-20T19:00:23Z</time>
      </trkpt>
      <trkpt lat="59.8225742" lon="17.6637306">
        <ele>44.358</ele>
        <time>2014-05-20T19:00:24Z</time>
      </trkpt>
      <trkpt lat="59.822601" lon="17.6637207">
        <ele>44.358</ele>
        <time>2014-05-20T19:00:25Z</time>
      </trkpt>
      <trkpt lat="59.822624" lon="17.6637128">
        <ele>43.3966</ele>
        <time>2014-05-20T19:00:26Z</time>
      </trkpt>
      <trkpt lat="59.8226421" lon="17.6636969">
        <ele>41.9547</ele>
        <time>2014-05-20T19:00:27Z</time>
      </trkpt>
      <trkpt lat="59.8226664" lon="17.6636887">
        <ele>42.4354</ele>
        <time>2014-05-20T19:00:28Z</time>
      </trkpt>
      <trkpt lat="59.8226868" lon="17.6636868">
        <ele>42.4354</ele>
        <time>2014-05-20T19:00:29Z</time>
      </trkpt>
      <trkpt lat="59.8227377" lon="17.6636842">
        <ele>47.2418</ele>
        <time>2014-05-20T19:00:30Z</time>
      </trkpt>
      <trkpt lat="59.8227773" lon="17.6636752">
        <ele>50.126</ele>
        <time>2014-05-20T19:00:31Z</time>
      </trkpt>
      <trkpt lat="59.8228071" lon="17.6636628">
        <ele>51.5679</ele>
        <time>2014-05-20T19:00:32Z</time>
      </trkpt>
      <trkpt lat="59.8228331" lon="17.6636456">
        <ele>51.5679</ele>
        <time>2014-05-20T19:00:33Z</time>
      </trkpt>
      <trkpt lat="59.8228607" lon="17.6636278">
        <ele>51.0872</ele>
        <time>2014-05-20T19:00:34Z</time>
      </trkpt>
      <trkpt lat="59.8228872" lon="17.6636206">
        <ele>50.6066</ele>
        <time>2014-05-20T19:00:35Z</time>
      </trkpt>
      <trkpt lat="59.8229197" lon="17.6636294">
        <ele>50.6066</ele>
        <time>2014-05-20T19:00:36Z</time>
      </trkpt>
      <trkpt lat="59.8229361" lon="17.6636181">
        <ele>49.6453</ele>
        <time>2014-05-20T19:00:37Z</time>
      </trkpt>
      <trkpt lat="59.8229529" lon="17.6636114">
        <ele>48.684</ele>
        <time>2014-05-20T19:00:38Z</time>
      </trkpt>
      <trkpt lat="59.8229814" lon="17.6636024">
        <ele>49.1646</ele>
        <time>2014-05-20T19:00:39Z</time>
      </trkpt>
      <trkpt lat="59.8230035" lon="17.6635967">
        <ele>48.2034</ele>
        <time>2014-05-20T19:00:40Z</time>
      </trkpt>
      <trkpt lat="59.8230274" lon="17.6635954">
        <ele>47.7225</ele>
        <time>2014-05-20T19:00:41Z</time>
      </trkpt>
      <trkpt lat="59.8230558" lon="17.6635985">
        <ele>47.7225</ele>
        <time>2014-05-20T19:00:42Z</time>
      </trkpt>
      <trkpt lat="59.8230814" lon="17.6635881">
        <ele>46.7612</ele>
        <time>2014-05-20T19:00:43Z</time>
      </trkpt>
      <trkpt lat="59.8231135" lon="17.6635922">
        <ele>47.7225</ele>
        <time>2014-05-20T19:00:44Z</time>
      </trkpt>
      <trkpt lat="59.8231357" lon="17.6635995">
        <ele>47.7225</ele>
        <time>2014-05-20T19:00:45Z</time>
      </trkpt>
      <trkpt lat="59.8231578" lon="17.6635975">
        <ele>46.7612</ele>
        <time>2014-05-20T19:00:46Z</time>
      </trkpt>
      <trkpt lat="59.823186" lon="17.6635917">
        <ele>46.7612</ele>
        <time>2014-05-20T19:00:47Z</time>
      </trkpt>
      <trkpt lat="59.8232086" lon="17.663589">
        <ele>45.7999</ele>
        <time>2014-05-20T19:00:48Z</time>
      </trkpt>
      <trkpt lat="59.8232355" lon="17.6635952">
        <ele>45.7999</ele>
        <time>2014-05-20T19:00:49Z</time>
      </trkpt>
      <trkpt lat="59.8232611" lon="17.6635993">
        <ele>45.3192</ele>
        <time>2014-05-20T19:00:50Z</time>
      </trkpt>
      <trkpt lat="59.8232926" lon="17.6636057">
        <ele>44.8386</ele>
        <time>2014-05-20T19:00:51Z</time>
      </trkpt>
      <trkpt lat="59.8233274" lon="17.6636091">
        <ele>44.8386</ele>
        <time>2014-05-20T19:00:52Z</time>
      </trkpt>
      <trkpt lat="59.8233616" lon="17.663613">
        <ele>46.7612</ele>
        <time>2014-05-20T19:00:53Z</time>
      </trkpt>
      <trkpt lat="59.8233833" lon="17.663613">
        <ele>46.2806</ele>
        <time>2014-05-20T19:00:54Z</time>
      </trkpt>
      <trkpt lat="59.823414" lon="17.6636153">
        <ele>47.2418</ele>
        <time>2014-05-20T19:00:55Z</time>
      </trkpt>
      <trkpt lat="59.8234419" lon="17.6636271">
        <ele>47.7225</ele>
        <time>2014-05-20T19:00:56Z</time>
      </trkpt>
      <trkpt lat="59.8234751" lon="17.6636342">
        <ele>48.684</ele>
        <time>2014-05-20T19:00:57Z</time>
      </trkpt>
      <trkpt lat="59.8235092" lon="17.6636381">
        <ele>49.6453</ele>
        <time>2014-05-20T19:00:58Z</time>
      </trkpt>
      <trkpt lat="59.8235429" lon="17.6636503">
        <ele>50.126</ele>
        <time>2014-05-20T19:00:59Z</time>
      </trkpt>
      <trkpt lat="59.8235736" lon="17.6636693">
        <ele>50.126</ele>
        <time>2014-05-20T19:01:00Z</time>
      </trkpt>
      <trkpt lat="59.8236051" lon="17.6636849">
        <ele>51.0872</ele>
        <time>2014-05-20T19:01:01Z</time>
      </trkpt>
      <trkpt lat="59.8236422" lon="17.6636913">
        <ele>51.5679</ele>
        <time>2014-05-20T19:01:02Z</time>
      </trkpt>
      <trkpt lat="59.8236776" lon="17.6636978">
        <ele>52.5292</ele>
        <time>2014-05-20T19:01:03Z</time>
      </trkpt>
      <trkpt lat="59.8237082" lon="17.6637146">
        <ele>53.0098</ele>
        <time>2014-05-20T19:01:04Z</time>
      </trkpt>
      <trkpt lat="59.8237316" lon="17.6637404">
        <ele>52.5292</ele>
        <time>2014-05-20T19:01:05Z</time>
      </trkpt>
      <trkpt lat="59.8237569" lon="17.6637474">
        <ele>52.0486</ele>
        <time>2014-05-20T19:01:06Z</time>
      </trkpt>
      <trkpt lat="59.8237812" lon="17.66375">
        <ele>52.0486</ele>
        <time>2014-05-20T19:01:07Z</time>
      </trkpt>
      <trkpt lat="59.8238025" lon="17.6637555">
        <ele>50.6066</ele>
        <time>2014-05-20T19:01:08Z</time>
      </trkpt>
      <trkpt lat="59.823831" lon="17.6637542">
        <ele>50.6066</ele>
        <time>2014-05-20T19:01:09Z</time>
      </trkpt>
      <trkpt lat="59.8238654" lon="17.6637386">
        <ele>50.6066</ele>
        <time>2014-05-20T19:01:10Z</time>
      </trkpt>
      <trkpt lat="59.8238927" lon="17.6637228">
        <ele>49.6453</ele>
        <time>2014-05-20T19:01:11Z</time>
      </trkpt>
      <trkpt lat="59.8239169" lon="17.6637143">
        <ele>49.6453</ele>
        <time>2014-05-20T19:01:12Z</time>
      </trkpt>
      <trkpt lat="59.8239411" lon="17.6637046">
        <ele>49.6453</ele>
        <time>2014-05-20T19:01:13Z</time>
      </trkpt>
      <trkpt lat="59.8239609" lon="17.6637031">
        <ele>49.6453</ele>
        <time>2014-05-20T19:01:14Z</time>
      </trkpt>
      <trkpt lat="59.8239916" lon="17.6637047">
        <ele>50.126</ele>
        <time>2014-05-20T19:01:15Z</time>
      </trkpt>
      <trkpt lat="59.8240152" lon="17.6637104">
        <ele>50.6066</ele>
        <time>2014-05-20T19:01:16Z</time>
      </trkpt>
      <trkpt lat="59.8240391" lon="17.6637105">
        <ele>51.0872</ele>
        <time>2014-05-20T19:01:17Z</time>
      </trkpt>
      <trkpt lat="59.8240583" lon="17.663712">
        <ele>51.0872</ele>
        <time>2014-05-20T19:01:18Z</time>
      </trkpt>
      <trkpt lat="59.8240852" lon="17.6637119">
        <ele>51.0872</ele>
        <time>2014-05-20T19:01:19Z</time>
      </trkpt>
      <trkpt lat="59.8241152" lon="17.6637169">
        <ele>50.6066</ele>
        <time>2014-05-20T19:01:20Z</time>
      </trkpt>
      <trkpt lat="59.8241413" lon="17.663714">
        <ele>50.6066</ele>
        <time>2014-05-20T19:01:21Z</time>
      </trkpt>
      <trkpt lat="59.8241692" lon="17.663704">
        <ele>50.126</ele>
        <time>2014-05-20T19:01:22Z</time>
      </trkpt>
      <trkpt lat="59.8241868" lon="17.6636937">
        <ele>48.684</ele>
        <time>2014-05-20T19:01:23Z</time>
      </trkpt>
      <trkpt lat="59.8242125" lon="17.6636938">
        <ele>49.6453</ele>
        <time>2014-05-20T19:01:24Z</time>
      </trkpt>
      <trkpt lat="59.8242382" lon="17.6636912">
        <ele>49.6453</ele>
        <time>2014-05-20T19:01:25Z</time>
      </trkpt>
      <trkpt lat="59.8242573" lon="17.6636974">
        <ele>48.2034</ele>
        <time>2014-05-20T19:01:26Z</time>
      </trkpt>
      <trkpt lat="59.8242795" lon="17.6637129">
        <ele>48.684</ele>
        <time>2014-05-20T19:01:27Z</time>
      </trkpt>
      <trkpt lat="59.8242945" lon="17.6637145">
        <ele>47.7225</ele>
        <time>2014-05-20T19:01:28Z</time>
      </trkpt>
      <trkpt lat="59.8243254" lon="17.6637037">
        <ele>48.2034</ele>
        <time>2014-05-20T19:01:29Z</time>
      </trkpt>
      <trkpt lat="59.824357" lon="17.6637022">
        <ele>49.1646</ele>
        <time>2014-05-20T19:01:30Z</time>
      </trkpt>
      <trkpt lat="59.8243922" lon="17.6636901">
        <ele>50.126</ele>
        <time>2014-05-20T19:01:31Z</time>
      </trkpt>
      <trkpt lat="59.8244211" lon="17.663671">
        <ele>50.6066</ele>
        <time>2014-05-20T19:01:32Z</time>
      </trkpt>
      <trkpt lat="59.8244458" lon="17.6636586">
        <ele>50.126</ele>
        <time>2014-05-20T19:01:33Z</time>
      </trkpt>
      <trkpt lat="59.8244757" lon="17.663643">
        <ele>49.1646</ele>
        <time>2014-05-20T19:01:34Z</time>
      </trkpt>
      <trkpt lat="59.8245132" lon="17.6636186">
        <ele>48.2034</ele>
        <time>2014-05-20T19:01:35Z</time>
      </trkpt>
      <trkpt lat="59.8245479" lon="17.6635929">
        <ele>48.684</ele>
        <time>2014-05-20T19:01:36Z</time>
      </trkpt>
      <trkpt lat="59.8245694" lon="17.6635721">
        <ele>48.684</ele>
        <time>2014-05-20T19:01:37Z</time>
      </trkpt>
      <trkpt lat="59.8245882" lon="17.6635596">
        <ele>47.2418</ele>
        <time>2014-05-20T19:01:38Z</time>
      </trkpt>
      <trkpt lat="59.8246126" lon="17.6635576">
        <ele>46.2806</ele>
        <time>2014-05-20T19:01:39Z</time>
      </trkpt>
      <trkpt lat="59.8246318" lon="17.663543">
        <ele>44.8386</ele>
        <time>2014-05-20T19:01:40Z</time>
      </trkpt>
      <trkpt lat="59.8246516" lon="17.6635289">
        <ele>44.8386</ele>
        <time>2014-05-20T19:01:41Z</time>
      </trkpt>
      <trkpt lat="59.8246722" lon="17.6635138">
        <ele>43.8773</ele>
        <time>2014-05-20T19:01:42Z</time>
      </trkpt>
      <trkpt lat="59.8246975" lon="17.6634942">
        <ele>42.916</ele>
        <time>2014-05-20T19:01:43Z</time>
      </trkpt>
      <trkpt lat="59.824717" lon="17.6634778">
        <ele>43.3966</ele>
        <time>2014-05-20T19:01:44Z</time>
      </trkpt>
      <trkpt lat="59.8247391" lon="17.6634658">
        <ele>43.8773</ele>
        <time>2014-05-20T19:01:45Z</time>
      </trkpt>
      <trkpt lat="59.824764" lon="17.6634461">
        <ele>44.358</ele>
        <time>2014-05-20T19:01:46Z</time>
      </trkpt>
      <trkpt lat="59.8247942" lon="17.6634268">
        <ele>45.7999</ele>
        <time>2014-05-20T19:01:47Z</time>
      </trkpt>
      <trkpt lat="59.824821" lon="17.6634038">
        <ele>45.7999</ele>
        <time>2014-05-20T19:01:48Z</time>
      </trkpt>
      <trkpt lat="59.8248448" lon="17.6633846">
        <ele>45.3192</ele>
        <time>2014-05-20T19:01:49Z</time>
      </trkpt>
      <trkpt lat="59.8248696" lon="17.6633711">
        <ele>44.358</ele>
        <time>2014-05-20T19:01:50Z</time>
      </trkpt>
      <trkpt lat="59.8248916" lon="17.6633529">
        <ele>43.8773</ele>
        <time>2014-05-20T19:01:51Z</time>
      </trkpt>
      <trkpt lat="59.8249035" lon="17.663329">
        <ele>42.4354</ele>
        <time>2014-05-20T19:01:52Z</time>
      </trkpt>
      <trkpt lat="59.8249182" lon="17.6633031">
        <ele>41.474</ele>
        <time>2014-05-20T19:01:53Z</time>
      </trkpt>
      <trkpt lat="59.8249358" lon="17.6632712">
        <ele>40.5128</ele>
        <time>2014-05-20T19:01:54Z</time>
      </trkpt>
      <trkpt lat="59.8249444" lon="17.6632316">
        <ele>39.0707</ele>
        <time>2014-05-20T19:01:55Z</time>
      </trkpt>
      <trkpt lat="59.82496" lon="17.6632053">
        <ele>38.1094</ele>
        <time>2014-05-20T19:01:56Z</time>
      </trkpt>
      <trkpt lat="59.8249768" lon="17.6631799">
        <ele>36.6675</ele>
        <time>2014-05-20T19:01:57Z</time>
      </trkpt>
      <trkpt lat="59.8249939" lon="17.6631486">
        <ele>35.7061</ele>
        <time>2014-05-20T19:01:58Z</time>
      </trkpt>
      <trkpt lat="59.8250061" lon="17.6631142">
        <ele>34.7449</ele>
        <time>2014-05-20T19:01:59Z</time>
      </trkpt>
      <trkpt lat="59.8250228" lon="17.6630794">
        <ele>34.7449</ele>
        <time>2014-05-20T19:02:00Z</time>
      </trkpt>
      <trkpt lat="59.8250406" lon="17.6630578">
        <ele>34.2642</ele>
        <time>2014-05-20T19:02:01Z</time>
      </trkpt>
      <trkpt lat="59.8250646" lon="17.6630379">
        <ele>34.7449</ele>
        <time>2014-05-20T19:02:02Z</time>
      </trkpt>
      <trkpt lat="59.8250741" lon="17.6630208">
        <ele>34.2642</ele>
        <time>2014-05-20T19:02:03Z</time>
      </trkpt>
      <trkpt lat="59.8250883" lon="17.663002">
        <ele>34.2642</ele>
        <time>2014-05-20T19:02:04Z</time>
      </trkpt>
      <trkpt lat="59.8250969" lon="17.6629748">
        <ele>33.3029</ele>
        <time>2014-05-20T19:02:05Z</time>
      </trkpt>
      <trkpt lat="59.8251182" lon="17.6629459">
        <ele>33.3029</ele>
        <time>2014-05-20T19:02:06Z</time>
      </trkpt>
      <trkpt lat="59.8251406" lon="17.662926">
        <ele>32.3416</ele>
        <time>2014-05-20T19:02:07Z</time>
      </trkpt>
      <trkpt lat="59.8251643" lon="17.6628944">
        <ele>31.3801</ele>
        <time>2014-05-20T19:02:08Z</time>
      </trkpt>
      <trkpt lat="59.8251974" lon="17.6628629">
        <ele>31.8607</ele>
        <time>2014-05-20T19:02:09Z</time>
      </trkpt>
      <trkpt lat="59.8252195" lon="17.6628212">
        <ele>30.8995</ele>
        <time>2014-05-20T19:02:10Z</time>
      </trkpt>
      <trkpt lat="59.8252353" lon="17.6627898">
        <ele>29.9381</ele>
        <time>2014-05-20T19:02:11Z</time>
      </trkpt>
      <trkpt lat="59.8252606" lon="17.6627594">
        <ele>29.9381</ele>
        <time>2014-05-20T19:02:12Z</time>
      </trkpt>
      <trkpt lat="59.8252907" lon="17.6627239">
        <ele>30.4188</ele>
        <time>2014-05-20T19:02:13Z</time>
      </trkpt>
      <trkpt lat="59.8253196" lon="17.6626954">
        <ele>32.3416</ele>
        <time>2014-05-20T19:02:14Z</time>
      </trkpt>
      <trkpt lat="59.8253478" lon="17.6626743">
        <ele>34.2642</ele>
        <time>2014-05-20T19:02:15Z</time>
      </trkpt>
      <trkpt lat="59.8253632" lon="17.6626489">
        <ele>33.7834</ele>
        <time>2014-05-20T19:02:16Z</time>
      </trkpt>
      <trkpt lat="59.8253803" lon="17.6626223">
        <ele>32.8223</ele>
        <time>2014-05-20T19:02:17Z</time>
      </trkpt>
      <trkpt lat="59.825393" lon="17.6625987">
        <ele>32.3416</ele>
        <time>2014-05-20T19:02:18Z</time>
      </trkpt>
      <trkpt lat="59.8254016" lon="17.6625691">
        <ele>30.8995</ele>
        <time>2014-05-20T19:02:19Z</time>
      </trkpt>
      <trkpt lat="59.8254207" lon="17.6625465">
        <ele>31.3801</ele>
        <time>2014-05-20T19:02:20Z</time>
      </trkpt>
      <trkpt lat="59.8254275" lon="17.6625148">
        <ele>29.9381</ele>
        <time>2014-05-20T19:02:21Z</time>
      </trkpt>
      <trkpt lat="59.8254324" lon="17.6624775">
        <ele>28.9769</ele>
        <time>2014-05-20T19:02:22Z</time>
      </trkpt>
      <trkpt lat="59.8254433" lon="17.6624457">
        <ele>28.0155</ele>
        <time>2014-05-20T19:02:23Z</time>
      </trkpt>
      <trkpt lat="59.8254597" lon="17.6624138">
        <ele>27.5349</ele>
        <time>2014-05-20T19:02:24Z</time>
      </trkpt>
      <trkpt lat="59.8254714" lon="17.6623734">
        <ele>26.0929</ele>
        <time>2014-05-20T19:02:25Z</time>
      </trkpt>
      <trkpt lat="59.8254801" lon="17.6623298">
        <ele>24.1703</ele>
        <time>2014-05-20T19:02:26Z</time>
      </trkpt>
      <trkpt lat="59.8254966" lon="17.6622963">
        <ele>23.6896</ele>
        <time>2014-05-20T19:02:27Z</time>
      </trkpt>
      <trkpt lat="59.8255165" lon="17.6622708">
        <ele>23.6896</ele>
        <time>2014-05-20T19:02:28Z</time>
      </trkpt>
      <trkpt lat="59.8255471" lon="17.662237">
        <ele>26.5736</ele>
        <time>2014-05-20T19:02:29Z</time>
      </trkpt>
      <trkpt lat="59.8255755" lon="17.6621978">
        <ele>28.9769</ele>
        <time>2014-05-20T19:02:30Z</time>
      </trkpt>
      <trkpt lat="59.8256029" lon="17.6621601">
        <ele>30.4188</ele>
        <time>2014-05-20T19:02:31Z</time>
      </trkpt>
      <trkpt lat="59.8256262" lon="17.6621257">
        <ele>31.8607</ele>
        <time>2014-05-20T19:02:32Z</time>
      </trkpt>
      <trkpt lat="59.8256417" lon="17.6620957">
        <ele>32.3416</ele>
        <time>2014-05-20T19:02:33Z</time>
      </trkpt>
      <trkpt lat="59.8256642" lon="17.6620646">
        <ele>32.8223</ele>
        <time>2014-05-20T19:02:34Z</time>
      </trkpt>
      <trkpt lat="59.8256811" lon="17.6620288">
        <ele>32.8223</ele>
        <time>2014-05-20T19:02:35Z</time>
      </trkpt>
      <trkpt lat="59.8256899" lon="17.6619952">
        <ele>33.3029</ele>
        <time>2014-05-20T19:02:36Z</time>
      </trkpt>
      <trkpt lat="59.8257148" lon="17.6619684">
        <ele>34.7449</ele>
        <time>2014-05-20T19:02:37Z</time>
      </trkpt>
      <trkpt lat="59.825732" lon="17.6619367">
        <ele>34.7449</ele>
        <time>2014-05-20T19:02:38Z</time>
      </trkpt>
      <trkpt lat="59.8257501" lon="17.6618993">
        <ele>34.7449</ele>
        <time>2014-05-20T19:02:39Z</time>
      </trkpt>
      <trkpt lat="59.8257715" lon="17.6618724">
        <ele>34.7449</ele>
        <time>2014-05-20T19:02:40Z</time>
      </trkpt>
      <trkpt lat="59.8257947" lon="17.6618496">
        <ele>33.7834</ele>
        <time>2014-05-20T19:02:41Z</time>
      </trkpt>
      <trkpt lat="59.8258097" lon="17.6618205">
        <ele>32.3416</ele>
        <time>2014-05-20T19:02:42Z</time>
      </trkpt>
      <trkpt lat="59.8258289" lon="17.6617896">
        <ele>31.8607</ele>
        <time>2014-05-20T19:02:43Z</time>
      </trkpt>
      <trkpt lat="59.8258443" lon="17.6617506">
        <ele>31.3801</ele>
        <time>2014-05-20T19:02:44Z</time>
      </trkpt>
      <trkpt lat="59.8258604" lon="17.6617155">
        <ele>30.4188</ele>
        <time>2014-05-20T19:02:45Z</time>
      </trkpt>
      <trkpt lat="59.8258836" lon="17.6616827">
        <ele>29.4575</ele>
        <time>2014-05-20T19:02:46Z</time>
      </trkpt>
      <trkpt lat="59.8259062" lon="17.6616606">
        <ele>28.9769</ele>
        <time>2014-05-20T19:02:47Z</time>
      </trkpt>
      <trkpt lat="59.8259352" lon="17.6616388">
        <ele>28.4962</ele>
        <time>2014-05-20T19:02:48Z</time>
      </trkpt>
      <trkpt lat="59.8259697" lon="17.6616269">
        <ele>28.9769</ele>
        <time>2014-05-20T19:02:49Z</time>
      </trkpt>
      <trkpt lat="59.825992" lon="17.6616052">
        <ele>28.4962</ele>
        <time>2014-05-20T19:02:50Z</time>
      </trkpt>
      <trkpt lat="59.8260165" lon="17.6615824">
        <ele>28.4962</ele>
        <time>2014-05-20T19:02:51Z</time>
      </trkpt>
      <trkpt lat="59.8260372" lon="17.6615566">
        <ele>28.4962</ele>
        <time>2014-05-20T19:02:52Z</time>
      </trkpt>
      <trkpt lat="59.8260618" lon="17.6615352">
        <ele>28.4962</ele>
        <time>2014-05-20T19:02:53Z</time>
      </trkpt>
      <trkpt lat="59.8260853" lon="17.6615155">
        <ele>28.0155</ele>
        <time>2014-05-20T19:02:54Z</time>
      </trkpt>
      <trkpt lat="59.8261092" lon="17.6614933">
        <ele>28.0155</ele>
        <time>2014-05-20T19:02:55Z</time>
      </trkpt>
      <trkpt lat="59.8261362" lon="17.6614772">
        <ele>28.4962</ele>
        <time>2014-05-20T19:02:56Z</time>
      </trkpt>
      <trkpt lat="59.826159" lon="17.6614609">
        <ele>28.0155</ele>
        <time>2014-05-20T19:02:57Z</time>
      </trkpt>
      <trkpt lat="59.8261915" lon="17.6614534">
        <ele>28.9769</ele>
        <time>2014-05-20T19:02:58Z</time>
      </trkpt>
      <trkpt lat="59.8262205" lon="17.6614367">
        <ele>29.4575</ele>
        <time>2014-05-20T19:02:59Z</time>
      </trkpt>
      <trkpt lat="59.826245" lon="17.6614154">
        <ele>28.9769</ele>
        <time>2014-05-20T19:03:00Z</time>
      </trkpt>
      <trkpt lat="59.8262671" lon="17.6613949">
        <ele>28.0155</ele>
        <time>2014-05-20T19:03:01Z</time>
      </trkpt>
      <trkpt lat="59.8262965" lon="17.6613767">
        <ele>28.0155</ele>
        <time>2014-05-20T19:03:02Z</time>
      </trkpt>
      <trkpt lat="59.826326" lon="17.661356">
        <ele>28.4962</ele>
        <time>2014-05-20T19:03:03Z</time>
      </trkpt>
      <trkpt lat="59.8263505" lon="17.6613345">
        <ele>28.4962</ele>
        <time>2014-05-20T19:03:04Z</time>
      </trkpt>
      <trkpt lat="59.8263718" lon="17.6613079">
        <ele>27.5349</ele>
        <time>2014-05-20T19:03:05Z</time>
      </trkpt>
      <trkpt lat="59.8263976" lon="17.6612856">
        <ele>27.5349</ele>
        <time>2014-05-20T19:03:06Z</time>
      </trkpt>
      <trkpt lat="59.8264289" lon="17.6612467">
        <ele>28.4962</ele>
        <time>2014-05-20T19:03:07Z</time>
      </trkpt>
      <trkpt lat="59.826455" lon="17.6612056">
        <ele>28.4962</ele>
        <time>2014-05-20T19:03:08Z</time>
      </trkpt>
      <trkpt lat="59.8264827" lon="17.6611737">
        <ele>30.4188</ele>
        <time>2014-05-20T19:03:09Z</time>
      </trkpt>
      <trkpt lat="59.8265007" lon="17.661139">
        <ele>30.4188</ele>
        <time>2014-05-20T19:03:10Z</time>
      </trkpt>
      <trkpt lat="59.826523" lon="17.6611131">
        <ele>30.8995</ele>
        <time>2014-05-20T19:03:11Z</time>
      </trkpt>
      <trkpt lat="59.8265577" lon="17.6610818">
        <ele>32.8223</ele>
        <time>2014-05-20T19:03:12Z</time>
      </trkpt>
      <trkpt lat="59.8265842" lon="17.6610472">
        <ele>33.7834</ele>
        <time>2014-05-20T19:03:13Z</time>
      </trkpt>
      <trkpt lat="59.8266192" lon="17.6610253">
        <ele>36.6675</ele>
        <time>2014-05-20T19:03:14Z</time>
      </trkpt>
      <trkpt lat="59.8266464" lon="17.6609958">
        <ele>37.6287</ele>
        <time>2014-05-20T19:03:15Z</time>
      </trkpt>
      <trkpt lat="59.8266774" lon="17.6609679">
        <ele>39.0707</ele>
        <time>2014-05-20T19:03:16Z</time>
      </trkpt>
      <trkpt lat="59.8267157" lon="17.6609452">
        <ele>40.9934</ele>
        <time>2014-05-20T19:03:17Z</time>
      </trkpt>
      <trkpt lat="59.826742" lon="17.6609193">
        <ele>41.474</ele>
        <time>2014-05-20T19:03:18Z</time>
      </trkpt>
      <trkpt lat="59.8267639" lon="17.6608885">
        <ele>41.474</ele>
        <time>2014-05-20T19:03:19Z</time>
      </trkpt>
      <trkpt lat="59.826786" lon="17.6608515">
        <ele>41.474</ele>
        <time>2014-05-20T19:03:20Z</time>
      </trkpt>
      <trkpt lat="59.8268079" lon="17.6608188">
        <ele>41.9547</ele>
        <time>2014-05-20T19:03:21Z</time>
      </trkpt>
      <trkpt lat="59.8268213" lon="17.6607894">
        <ele>41.474</ele>
        <time>2014-05-20T19:03:22Z</time>
      </trkpt>
      <trkpt lat="59.8268301" lon="17.6607674">
        <ele>40.9934</ele>
        <time>2014-05-20T19:03:23Z</time>
      </trkpt>
      <trkpt lat="59.8268472" lon="17.6607453">
        <ele>41.474</ele>
        <time>2014-05-20T19:03:24Z</time>
      </trkpt>
      <trkpt lat="59.8268613" lon="17.6607173">
        <ele>40.5128</ele>
        <time>2014-05-20T19:03:25Z</time>
      </trkpt>
      <trkpt lat="59.8268846" lon="17.6606883">
        <ele>41.474</ele>
        <time>2014-05-20T19:03:26Z</time>
      </trkpt>
      <trkpt lat="59.8269083" lon="17.6606537">
        <ele>42.916</ele>
        <time>2014-05-20T19:03:27Z</time>
      </trkpt>
      <trkpt lat="59.8269324" lon="17.6606114">
        <ele>42.4354</ele>
        <time>2014-05-20T19:03:28Z</time>
      </trkpt>
      <trkpt lat="59.8269551" lon="17.6605691">
        <ele>42.4354</ele>
        <time>2014-05-20T19:03:29Z</time>
      </trkpt>
      <trkpt lat="59.8269679" lon="17.6605332">
        <ele>41.9547</ele>
        <time>2014-05-20T19:03:30Z</time>
      </trkpt>
      <trkpt lat="59.8269802" lon="17.6605047">
        <ele>41.474</ele>
        <time>2014-05-20T19:03:31Z</time>
      </trkpt>
      <trkpt lat="59.8270002" lon="17.6604698">
        <ele>41.9547</ele>
        <time>2014-05-20T19:03:32Z</time>
      </trkpt>
      <trkpt lat="59.8270253" lon="17.6604369">
        <ele>42.4354</ele>
        <time>2014-05-20T19:03:33Z</time>
      </trkpt>
      <trkpt lat="59.8270451" lon="17.6603996">
        <ele>42.916</ele>
        <time>2014-05-20T19:03:34Z</time>
      </trkpt>
      <trkpt lat="59.8270657" lon="17.6603656">
        <ele>43.8773</ele>
        <time>2014-05-20T19:03:35Z</time>
      </trkpt>
      <trkpt lat="59.8270923" lon="17.6603317">
        <ele>45.3192</ele>
        <time>2014-05-20T19:03:36Z</time>
      </trkpt>
      <trkpt lat="59.8271093" lon="17.6602981">
        <ele>45.3192</ele>
        <time>2014-05-20T19:03:37Z</time>
      </trkpt>
      <trkpt lat="59.8271274" lon="17.6602727">
        <ele>46.7612</ele>
        <time>2014-05-20T19:03:38Z</time>
      </trkpt>
      <trkpt lat="59.827142" lon="17.6602423">
        <ele>47.2418</ele>
        <time>2014-05-20T19:03:39Z</time>
      </trkpt>
      <trkpt lat="59.827158" lon="17.6602056">
        <ele>47.2418</ele>
        <time>2014-05-20T19:03:40Z</time>
      </trkpt>
      <trkpt lat="59.8271848" lon="17.6601733">
        <ele>48.2034</ele>
        <time>2014-05-20T19:03:41Z</time>
      </trkpt>
      <trkpt lat="59.827214" lon="17.6601409">
        <ele>49.6453</ele>
        <time>2014-05-20T19:03:42Z</time>
      </trkpt>
      <trkpt lat="59.8272363" lon="17.6601232">
        <ele>51.5679</ele>
        <time>2014-05-20T19:03:43Z</time>
      </trkpt>
      <trkpt lat="59.8272566" lon="17.6601097">
        <ele>52.0486</ele>
        <time>2014-05-20T19:03:44Z</time>
      </trkpt>
      <trkpt lat="59.8272732" lon="17.6601019">
        <ele>52.0486</ele>
        <time>2014-05-20T19:03:45Z</time>
      </trkpt>
      <trkpt lat="59.8272938" lon="17.6600815">
        <ele>52.0486</ele>
        <time>2014-05-20T19:03:46Z</time>
      </trkpt>
      <trkpt lat="59.8273195" lon="17.6600697">
        <ele>52.5292</ele>
        <time>2014-05-20T19:03:47Z</time>
      </trkpt>
      <trkpt lat="59.8273467" lon="17.66006">
        <ele>53.4905</ele>
        <time>2014-05-20T19:03:48Z</time>
      </trkpt>
      <trkpt lat="59.8273718" lon="17.6600362">
        <ele>53.0098</ele>
        <time>2014-05-20T19:03:49Z</time>
      </trkpt>
      <trkpt lat="59.8273995" lon="17.6600202">
        <ele>53.0098</ele>
        <time>2014-05-20T19:03:50Z</time>
      </trkpt>
      <trkpt lat="59.8274274" lon="17.6600041">
        <ele>52.0486</ele>
        <time>2014-05-20T19:03:51Z</time>
      </trkpt>
      <trkpt lat="59.8274549" lon="17.6599781">
        <ele>52.0486</ele>
        <time>2014-05-20T19:03:52Z</time>
      </trkpt>
      <trkpt lat="59.827483" lon="17.6599644">
        <ele>52.0486</ele>
        <time>2014-05-20T19:03:53Z</time>
      </trkpt>
      <trkpt lat="59.8275004" lon="17.6599494">
        <ele>51.0872</ele>
        <time>2014-05-20T19:03:54Z</time>
      </trkpt>
      <trkpt lat="59.8275232" lon="17.6599315">
        <ele>50.6066</ele>
        <time>2014-05-20T19:03:55Z</time>
      </trkpt>
      <trkpt lat="59.8275471" lon="17.6599166">
        <ele>50.6066</ele>
        <time>2014-05-20T19:03:56Z</time>
      </trkpt>
      <trkpt lat="59.8275654" lon="17.6599013">
        <ele>49.1646</ele>
        <time>2014-05-20T19:03:57Z</time>
      </trkpt>
      <trkpt lat="59.827585" lon="17.6598827">
        <ele>48.684</ele>
        <time>2014-05-20T19:03:58Z</time>
      </trkpt>
      <trkpt lat="59.8275992" lon="17.6598606">
        <ele>47.2418</ele>
        <time>2014-05-20T19:03:59Z</time>
      </trkpt>
      <trkpt lat="59.827615" lon="17.6598279">
        <ele>46.7612</ele>
        <time>2014-05-20T19:04:00Z</time>
      </trkpt>
      <trkpt lat="59.8276329" lon="17.6598124">
        <ele>45.3192</ele>
        <time>2014-05-20T19:04:01Z</time>
      </trkpt>
      <trkpt lat="59.827654" lon="17.6597959">
        <ele>44.8386</ele>
        <time>2014-05-20T19:04:02Z</time>
      </trkpt>
      <trkpt lat="59.8276673" lon="17.6597862">
        <ele>44.358</ele>
        <time>2014-05-20T19:04:03Z</time>
      </trkpt>
      <trkpt lat="59.8276742" lon="17.6597693">
        <ele>43.3966</ele>
        <time>2014-05-20T19:04:04Z</time>
      </trkpt>
      <trkpt lat="59.8276897" lon="17.6597563">
        <ele>42.916</ele>
        <time>2014-05-20T19:04:05Z</time>
      </trkpt>
      <trkpt lat="59.8277024" lon="17.659735">
        <ele>40.9934</ele>
        <time>2014-05-20T19:04:06Z</time>
      </trkpt>
      <trkpt lat="59.8277298" lon="17.6597129">
        <ele>41.9547</ele>
        <time>2014-05-20T19:04:07Z</time>
      </trkpt>
      <trkpt lat="59.8277439" lon="17.6596885">
        <ele>40.5128</ele>
        <time>2014-05-20T19:04:08Z</time>
      </trkpt>
      <trkpt lat="59.8277621" lon="17.6596697">
        <ele>40.0321</ele>
        <time>2014-05-20T19:04:09Z</time>
      </trkpt>
      <trkpt lat="59.8277883" lon="17.6596474">
        <ele>40.0321</ele>
        <time>2014-05-20T19:04:10Z</time>
      </trkpt>
      <trkpt lat="59.8278067" lon="17.6596284">
        <ele>38.5901</ele>
        <time>2014-05-20T19:04:11Z</time>
      </trkpt>
      <trkpt lat="59.8278392" lon="17.6596009">
        <ele>39.5513</ele>
        <time>2014-05-20T19:04:12Z</time>
      </trkpt>
      <trkpt lat="59.8278515" lon="17.659577">
        <ele>37.6287</ele>
        <time>2014-05-20T19:04:13Z</time>
      </trkpt>
      <trkpt lat="59.8278808" lon="17.6595585">
        <ele>38.5901</ele>
        <time>2014-05-20T19:04:14Z</time>
      </trkpt>
      <trkpt lat="59.8279104" lon="17.6595384">
        <ele>39.5513</ele>
        <time>2014-05-20T19:04:15Z</time>
      </trkpt>
      <trkpt lat="59.827921" lon="17.6595099">
        <ele>37.1481</ele>
        <time>2014-05-20T19:04:16Z</time>
      </trkpt>
      <trkpt lat="59.8279487" lon="17.6594829">
        <ele>37.1481</ele>
        <time>2014-05-20T19:04:17Z</time>
      </trkpt>
      <trkpt lat="59.8279771" lon="17.6594627">
        <ele>36.6675</ele>
        <time>2014-05-20T19:04:18Z</time>
      </trkpt>
      <trkpt lat="59.8279988" lon="17.659449">
        <ele>35.7061</ele>
        <time>2014-05-20T19:04:19Z</time>
      </trkpt>
      <trkpt lat="59.8280253" lon="17.6594378">
        <ele>35.7061</ele>
        <time>2014-05-20T19:04:20Z</time>
      </trkpt>
      <trkpt lat="59.828044" lon="17.6594216">
        <ele>35.2255</ele>
        <time>2014-05-20T19:04:21Z</time>
      </trkpt>
      <trkpt lat="59.8280681" lon="17.6594029">
        <ele>34.2642</ele>
        <time>2014-05-20T19:04:22Z</time>
      </trkpt>
      <trkpt lat="59.8280904" lon="17.6593865">
        <ele>34.2642</ele>
        <time>2014-05-20T19:04:23Z</time>
      </trkpt>
      <trkpt lat="59.8281154" lon="17.6593666">
        <ele>33.7834</ele>
        <time>2014-05-20T19:04:24Z</time>
      </trkpt>
      <trkpt lat="59.828139" lon="17.6593469">
        <ele>33.3029</ele>
        <time>2014-05-20T19:04:25Z</time>
      </trkpt>
      <trkpt lat="59.8281691" lon="17.659327">
        <ele>33.7834</ele>
        <time>2014-05-20T19:04:26Z</time>
      </trkpt>
      <trkpt lat="59.8281848" lon="17.6593009">
        <ele>32.3416</ele>
        <time>2014-05-20T19:04:27Z</time>
      </trkpt>
      <trkpt lat="59.8282056" lon="17.6592725">
        <ele>31.8607</ele>
        <time>2014-05-20T19:04:28Z</time>
      </trkpt>
      <trkpt lat="59.8282252" lon="17.6592507">
        <ele>31.3801</ele>
        <time>2014-05-20T19:04:29Z</time>
      </trkpt>
      <trkpt lat="59.8282495" lon="17.6592315">
        <ele>31.8607</ele>
        <time>2014-05-20T19:04:30Z</time>
      </trkpt>
      <trkpt lat="59.8282646" lon="17.6592212">
        <ele>30.8995</ele>
        <time>2014-05-20T19:04:31Z</time>
      </trkpt>
      <trkpt lat="59.8282782" lon="17.6592055">
        <ele>29.9381</ele>
        <time>2014-05-20T19:04:32Z</time>
      </trkpt>
      <trkpt lat="59.8282856" lon="17.6591791">
        <ele>28.0155</ele>
        <time>2014-05-20T19:04:33Z</time>
      </trkpt>
      <trkpt lat="59.8283076" lon="17.6591575">
        <ele>27.5349</ele>
        <time>2014-05-20T19:04:34Z</time>
      </trkpt>
      <trkpt lat="59.8283335" lon="17.65914">
        <ele>27.5349</ele>
        <time>2014-05-20T19:04:35Z</time>
      </trkpt>
      <trkpt lat="59.8283552" lon="17.6591264">
        <ele>28.4962</ele>
        <time>2014-05-20T19:04:36Z</time>
      </trkpt>
      <trkpt lat="59.8283718" lon="17.6591054">
        <ele>27.5349</ele>
        <time>2014-05-20T19:04:37Z</time>
      </trkpt>
      <trkpt lat="59.8283897" lon="17.6590881">
        <ele>26.5736</ele>
        <time>2014-05-20T19:04:38Z</time>
      </trkpt>
      <trkpt lat="59.8284061" lon="17.6590695">
        <ele>25.1317</ele>
        <time>2014-05-20T19:04:39Z</time>
      </trkpt>
      <trkpt lat="59.8284247" lon="17.6590536">
        <ele>24.651</ele>
        <time>2014-05-20T19:04:40Z</time>
      </trkpt>
      <trkpt lat="59.8284483" lon="17.6590388">
        <ele>25.6123</ele>
        <time>2014-05-20T19:04:41Z</time>
      </trkpt>
      <trkpt lat="59.8284705" lon="17.6590249">
        <ele>26.5736</ele>
        <time>2014-05-20T19:04:42Z</time>
      </trkpt>
      <trkpt lat="59.8284972" lon="17.6590047">
        <ele>26.5736</ele>
        <time>2014-05-20T19:04:43Z</time>
      </trkpt>
      <trkpt lat="59.828521" lon="17.658996">
        <ele>26.5736</ele>
        <time>2014-05-20T19:04:44Z</time>
      </trkpt>
      <trkpt lat="59.8285391" lon="17.658987">
        <ele>27.0543</ele>
        <time>2014-05-20T19:04:45Z</time>
      </trkpt>
      <trkpt lat="59.8285623" lon="17.6589699">
        <ele>27.5349</ele>
        <time>2014-05-20T19:04:46Z</time>
      </trkpt>
      <trkpt lat="59.8285866" lon="17.6589515">
        <ele>27.0543</ele>
        <time>2014-05-20T19:04:47Z</time>
      </trkpt>
      <trkpt lat="59.8286117" lon="17.6589359">
        <ele>25.6123</ele>
        <time>2014-05-20T19:04:48Z</time>
      </trkpt>
      <trkpt lat="59.8286377" lon="17.6589193">
        <ele>25.6123</ele>
        <time>2014-05-20T19:04:49Z</time>
      </trkpt>
      <trkpt lat="59.8286634" lon="17.6589026">
        <ele>25.6123</ele>
        <time>2014-05-20T19:04:50Z</time>
      </trkpt>
      <trkpt lat="59.8286909" lon="17.6588912">
        <ele>25.1317</ele>
        <time>2014-05-20T19:04:51Z</time>
      </trkpt>
      <trkpt lat="59.8287131" lon="17.6588751">
        <ele>25.1317</ele>
        <time>2014-05-20T19:04:52Z</time>
      </trkpt>
      <trkpt lat="59.8287359" lon="17.6588461">
        <ele>25.1317</ele>
        <time>2014-05-20T19:04:53Z</time>
      </trkpt>
      <trkpt lat="59.828757" lon="17.6588209">
        <ele>24.1703</ele>
        <time>2014-05-20T19:04:54Z</time>
      </trkpt>
      <trkpt lat="59.8287863" lon="17.6587984">
        <ele>24.1703</ele>
        <time>2014-05-20T19:04:55Z</time>
      </trkpt>
      <trkpt lat="59.8288057" lon="17.6587718">
        <ele>23.6896</ele>
        <time>2014-05-20T19:04:56Z</time>
      </trkpt>
      <trkpt lat="59.8288405" lon="17.658749">
        <ele>26.5736</ele>
        <time>2014-05-20T19:04:57Z</time>
      </trkpt>
      <trkpt lat="59.8288647" lon="17.658736">
        <ele>26.0929</ele>
        <time>2014-05-20T19:04:58Z</time>
      </trkpt>
      <trkpt lat="59.828896" lon="17.6587267">
        <ele>26.5736</ele>
        <time>2014-05-20T19:04:59Z</time>
      </trkpt>
      <trkpt lat="59.8289329" lon="17.6587028">
        <ele>26.5736</ele>
        <time>2014-05-20T19:05:00Z</time>
      </trkpt>
      <trkpt lat="59.8289647" lon="17.6586732">
        <ele>26.0929</ele>
        <time>2014-05-20T19:05:01Z</time>
      </trkpt>
      <trkpt lat="59.8289944" lon="17.6586557">
        <ele>26.0929</ele>
        <time>2014-05-20T19:05:02Z</time>
      </trkpt>
      <trkpt lat="59.8290208" lon="17.6586478">
        <ele>26.0929</ele>
        <time>2014-05-20T19:05:03Z</time>
      </trkpt>
      <trkpt lat="59.8290704" lon="17.6586376">
        <ele>30.8995</ele>
        <time>2014-05-20T19:05:04Z</time>
      </trkpt>
      <trkpt lat="59.8291178" lon="17.6586276">
        <ele>35.7061</ele>
        <time>2014-05-20T19:05:05Z</time>
      </trkpt>
      <trkpt lat="59.8291561" lon="17.6586174">
        <ele>39.0707</ele>
        <time>2014-05-20T19:05:06Z</time>
      </trkpt>
      <trkpt lat="59.8291754" lon="17.6586046">
        <ele>38.5901</ele>
        <time>2014-05-20T19:05:07Z</time>
      </trkpt>
      <trkpt lat="59.8292022" lon="17.6586033">
        <ele>40.0321</ele>
        <time>2014-05-20T19:05:08Z</time>
      </trkpt>
      <trkpt lat="59.8292223" lon="17.6585932">
        <ele>39.5513</ele>
        <time>2014-05-20T19:05:09Z</time>
      </trkpt>
      <trkpt lat="59.8292448" lon="17.6585772">
        <ele>40.0321</ele>
        <time>2014-05-20T19:05:10Z</time>
      </trkpt>
      <trkpt lat="59.8292664" lon="17.6585565">
        <ele>40.0321</ele>
        <time>2014-05-20T19:05:11Z</time>
      </trkpt>
      <trkpt lat="59.8292902" lon="17.6585375">
        <ele>40.0321</ele>
        <time>2014-05-20T19:05:12Z</time>
      </trkpt>
      <trkpt lat="59.8293261" lon="17.658528">
        <ele>40.5128</ele>
        <time>2014-05-20T19:05:13Z</time>
      </trkpt>
      <trkpt lat="59.8293695" lon="17.6585107">
        <ele>42.916</ele>
        <time>2014-05-20T19:05:14Z</time>
      </trkpt>
      <trkpt lat="59.8293985" lon="17.6584966">
        <ele>43.3966</ele>
        <time>2014-05-20T19:05:15Z</time>
      </trkpt>
      <trkpt lat="59.829444" lon="17.6584915">
        <ele>45.7999</ele>
        <time>2014-05-20T19:05:16Z</time>
      </trkpt>
      <trkpt lat="59.8294693" lon="17.6584827">
        <ele>45.3192</ele>
        <time>2014-05-20T19:05:17Z</time>
      </trkpt>
      <trkpt lat="59.829491" lon="17.6584619">
        <ele>43.8773</ele>
        <time>2014-05-20T19:05:18Z</time>
      </trkpt>
      <trkpt lat="59.8295205" lon="17.6584432">
        <ele>43.3966</ele>
        <time>2014-05-20T19:05:19Z</time>
      </trkpt>
      <trkpt lat="59.8295568" lon="17.6584277">
        <ele>43.8773</ele>
        <time>2014-05-20T19:05:20Z</time>
      </trkpt>
      <trkpt lat="59.8295863" lon="17.6584111">
        <ele>44.358</ele>
        <time>2014-05-20T19:05:21Z</time>
      </trkpt>
      <trkpt lat="59.8296058" lon="17.6584002">
        <ele>43.8773</ele>
        <time>2014-05-20T19:05:22Z</time>
      </trkpt>
      <trkpt lat="59.829639" lon="17.6583975">
        <ele>46.2806</ele>
        <time>2014-05-20T19:05:23Z</time>
      </trkpt>
      <trkpt lat="59.8296657" lon="17.6583847">
        <ele>45.7999</ele>
        <time>2014-05-20T19:05:24Z</time>
      </trkpt>
      <trkpt lat="59.8296855" lon="17.6583736">
        <ele>44.358</ele>
        <time>2014-05-20T19:05:25Z</time>
      </trkpt>
      <trkpt lat="59.8297067" lon="17.6583649">
        <ele>44.8386</ele>
        <time>2014-05-20T19:05:26Z</time>
      </trkpt>
      <trkpt lat="59.8297285" lon="17.6583457">
        <ele>43.8773</ele>
        <time>2014-05-20T19:05:27Z</time>
      </trkpt>
      <trkpt lat="59.8297588" lon="17.6583237">
        <ele>42.4354</ele>
        <time>2014-05-20T19:05:28Z</time>
      </trkpt>
      <trkpt lat="59.8297922" lon="17.6583096">
        <ele>42.916</ele>
        <time>2014-05-20T19:05:29Z</time>
      </trkpt>
      <trkpt lat="59.8298206" lon="17.6583">
        <ele>41.9547</ele>
        <time>2014-05-20T19:05:30Z</time>
      </trkpt>
      <trkpt lat="59.8298541" lon="17.6582909">
        <ele>41.9547</ele>
        <time>2014-05-20T19:05:31Z</time>
      </trkpt>
      <trkpt lat="59.8298917" lon="17.6582802">
        <ele>42.916</ele>
        <time>2014-05-20T19:05:32Z</time>
      </trkpt>
      <trkpt lat="59.8299273" lon="17.6582767">
        <ele>43.3966</ele>
        <time>2014-05-20T19:05:33Z</time>
      </trkpt>
      <trkpt lat="59.8299631" lon="17.6582702">
        <ele>44.358</ele>
        <time>2014-05-20T19:05:34Z</time>
      </trkpt>
      <trkpt lat="59.8299941" lon="17.6582573">
        <ele>44.358</ele>
        <time>2014-05-20T19:05:35Z</time>
      </trkpt>
      <trkpt lat="59.8300201" lon="17.6582365">
        <ele>44.358</ele>
        <time>2014-05-20T19:05:36Z</time>
      </trkpt>
      <trkpt lat="59.8300429" lon="17.6582158">
        <ele>43.3966</ele>
        <time>2014-05-20T19:05:37Z</time>
      </trkpt>
      <trkpt lat="59.8300665" lon="17.6581904">
        <ele>42.916</ele>
        <time>2014-05-20T19:05:38Z</time>
      </trkpt>
      <trkpt lat="59.8300802" lon="17.6581759">
        <ele>42.4354</ele>
        <time>2014-05-20T19:05:39Z</time>
      </trkpt>
      <trkpt lat="59.8300867" lon="17.6581599">
        <ele>41.474</ele>
        <time>2014-05-20T19:05:40Z</time>
      </trkpt>
      <trkpt lat="59.8301" lon="17.6581314">
        <ele>41.474</ele>
        <time>2014-05-20T19:05:41Z</time>
      </trkpt>
      <trkpt lat="59.8301169" lon="17.6581136">
        <ele>41.474</ele>
        <time>2014-05-20T19:05:42Z</time>
      </trkpt>
      <trkpt lat="59.8301345" lon="17.6580851">
        <ele>40.5128</ele>
        <time>2014-05-20T19:05:43Z</time>
      </trkpt>
      <trkpt lat="59.8301491" lon="17.6580465">
        <ele>40.5128</ele>
        <time>2014-05-20T19:05:44Z</time>
      </trkpt>
      <trkpt lat="59.8301683" lon="17.6580112">
        <ele>40.0321</ele>
        <time>2014-05-20T19:05:45Z</time>
      </trkpt>
      <trkpt lat="59.8301878" lon="17.6579714">
        <ele>39.0707</ele>
        <time>2014-05-20T19:05:46Z</time>
      </trkpt>
      <trkpt lat="59.8302" lon="17.6579328">
        <ele>37.1481</ele>
        <time>2014-05-20T19:05:47Z</time>
      </trkpt>
      <trkpt lat="59.8302159" lon="17.6578931">
        <ele>36.6675</ele>
        <time>2014-05-20T19:05:48Z</time>
      </trkpt>
      <trkpt lat="59.8302245" lon="17.657851">
        <ele>35.2255</ele>
        <time>2014-05-20T19:05:49Z</time>
      </trkpt>
      <trkpt lat="59.8302366" lon="17.6578028">
        <ele>34.2642</ele>
        <time>2014-05-20T19:05:50Z</time>
      </trkpt>
      <trkpt lat="59.8302463" lon="17.657745">
        <ele>32.8223</ele>
        <time>2014-05-20T19:05:51Z</time>
      </trkpt>
      <trkpt lat="59.8302564" lon="17.657678">
        <ele>32.8223</ele>
        <time>2014-05-20T19:05:52Z</time>
      </trkpt>
      <trkpt lat="59.83026" lon="17.657615">
        <ele>31.3801</ele>
        <time>2014-05-20T19:05:53Z</time>
      </trkpt>
      <trkpt lat="59.8302665" lon="17.6575585">
        <ele>30.8995</ele>
        <time>2014-05-20T19:05:54Z</time>
      </trkpt>
      <trkpt lat="59.8302672" lon="17.6574978">
        <ele>29.9381</ele>
        <time>2014-05-20T19:05:55Z</time>
      </trkpt>
      <trkpt lat="59.8302688" lon="17.6574357">
        <ele>28.9769</ele>
        <time>2014-05-20T19:05:56Z</time>
      </trkpt>
      <trkpt lat="59.8302836" lon="17.6573711">
        <ele>30.4188</ele>
        <time>2014-05-20T19:05:57Z</time>
      </trkpt>
      <trkpt lat="59.8303202" lon="17.6573267">
        <ele>34.7449</ele>
        <time>2014-05-20T19:05:58Z</time>
      </trkpt>
      <trkpt lat="59.8303468" lon="17.6572793">
        <ele>36.6675</ele>
        <time>2014-05-20T19:05:59Z</time>
      </trkpt>
      <trkpt lat="59.8303546" lon="17.6572248">
        <ele>35.2255</ele>
        <time>2014-05-20T19:06:00Z</time>
      </trkpt>
      <trkpt lat="59.8303663" lon="17.6571704">
        <ele>34.2642</ele>
        <time>2014-05-20T19:06:01Z</time>
      </trkpt>
      <trkpt lat="59.8303877" lon="17.6571109">
        <ele>36.1868</ele>
        <time>2014-05-20T19:06:02Z</time>
      </trkpt>
      <trkpt lat="59.830406" lon="17.6570566">
        <ele>37.1481</ele>
        <time>2014-05-20T19:06:03Z</time>
      </trkpt>
      <trkpt lat="59.830425" lon="17.6569952">
        <ele>39.5513</ele>
        <time>2014-05-20T19:06:04Z</time>
      </trkpt>
      <trkpt lat="59.8304283" lon="17.6569451">
        <ele>40.5128</ele>
        <time>2014-05-20T19:06:05Z</time>
      </trkpt>
      <trkpt lat="59.8304286" lon="17.6568921">
        <ele>42.4354</ele>
        <time>2014-05-20T19:06:06Z</time>
      </trkpt>
      <trkpt lat="59.8304224" lon="17.6568451">
        <ele>43.3966</ele>
        <time>2014-05-20T19:06:07Z</time>
      </trkpt>
      <trkpt lat="59.8304194" lon="17.6568048">
        <ele>43.8773</ele>
        <time>2014-05-20T19:06:08Z</time>
      </trkpt>
      <trkpt lat="59.8304054" lon="17.6567586">
        <ele>43.8773</ele>
        <time>2014-05-20T19:06:09Z</time>
      </trkpt>
      <trkpt lat="59.8304006" lon="17.6567172">
        <ele>45.3192</ele>
        <time>2014-05-20T19:06:10Z</time>
      </trkpt>
      <trkpt lat="59.830397" lon="17.6566717">
        <ele>46.2806</ele>
        <time>2014-05-20T19:06:11Z</time>
      </trkpt>
      <trkpt lat="59.8303786" lon="17.6566209">
        <ele>46.7612</ele>
        <time>2014-05-20T19:06:12Z</time>
      </trkpt>
      <trkpt lat="59.830363" lon="17.6565877">
        <ele>46.7612</ele>
        <time>2014-05-20T19:06:13Z</time>
      </trkpt>
      <trkpt lat="59.8303644" lon="17.6565586">
        <ele>48.684</ele>
        <time>2014-05-20T19:06:14Z</time>
      </trkpt>
      <trkpt lat="59.8303553" lon="17.6565204">
        <ele>48.684</ele>
        <time>2014-05-20T19:06:15Z</time>
      </trkpt>
      <trkpt lat="59.8303341" lon="17.6564717">
        <ele>48.2034</ele>
        <time>2014-05-20T19:06:16Z</time>
      </trkpt>
      <trkpt lat="59.8303154" lon="17.6564218">
        <ele>48.684</ele>
        <time>2014-05-20T19:06:17Z</time>
      </trkpt>
      <trkpt lat="59.8302983" lon="17.6563567">
        <ele>48.684</ele>
        <time>2014-05-20T19:06:18Z</time>
      </trkpt>
      <trkpt lat="59.8302746" lon="17.6562862">
        <ele>47.7225</ele>
        <time>2014-05-20T19:06:19Z</time>
      </trkpt>
      <trkpt lat="59.8302469" lon="17.6562254">
        <ele>46.7612</ele>
        <time>2014-05-20T19:06:20Z</time>
      </trkpt>
      <trkpt lat="59.8302256" lon="17.6561833">
        <ele>47.2418</ele>
        <time>2014-05-20T19:06:21Z</time>
      </trkpt>
      <trkpt lat="59.8302007" lon="17.6561386">
        <ele>45.7999</ele>
        <time>2014-05-20T19:06:22Z</time>
      </trkpt>
      <trkpt lat="59.830196" lon="17.6560983">
        <ele>46.2806</ele>
        <time>2014-05-20T19:06:23Z</time>
      </trkpt>
      <trkpt lat="59.8301797" lon="17.6560343">
        <ele>45.3192</ele>
        <time>2014-05-20T19:06:24Z</time>
      </trkpt>
      <trkpt lat="59.8301741" lon="17.6559827">
        <ele>45.3192</ele>
        <time>2014-05-20T19:06:25Z</time>
      </trkpt>
      <trkpt lat="59.8301595" lon="17.6559345">
        <ele>44.358</ele>
        <time>2014-05-20T19:06:26Z</time>
      </trkpt>
      <trkpt lat="59.8301569" lon="17.6558965">
        <ele>45.7999</ele>
        <time>2014-05-20T19:06:27Z</time>
      </trkpt>
      <trkpt lat="59.8301332" lon="17.6558469">
        <ele>45.3192</ele>
        <time>2014-05-20T19:06:28Z</time>
      </trkpt>
      <trkpt lat="59.8301018" lon="17.6557913">
        <ele>43.3966</ele>
        <time>2014-05-20T19:06:29Z</time>
      </trkpt>
      <trkpt lat="59.8300722" lon="17.6557361">
        <ele>42.916</ele>
        <time>2014-05-20T19:06:30Z</time>
      </trkpt>
      <trkpt lat="59.8300399" lon="17.6556775">
        <ele>42.4354</ele>
        <time>2014-05-20T19:06:31Z</time>
      </trkpt>
      <trkpt lat="59.8300041" lon="17.6556243">
        <ele>41.474</ele>
        <time>2014-05-20T19:06:32Z</time>
      </trkpt>
      <trkpt lat="59.8299692" lon="17.6555693">
        <ele>40.9934</ele>
        <time>2014-05-20T19:06:33Z</time>
      </trkpt>
      <trkpt lat="59.8299325" lon="17.6555092">
        <ele>40.5128</ele>
        <time>2014-05-20T19:06:34Z</time>
      </trkpt>
      <trkpt lat="59.8299049" lon="17.6554646">
        <ele>40.5128</ele>
        <time>2014-05-20T19:06:35Z</time>
      </trkpt>
      <trkpt lat="59.8298897" lon="17.6554279">
        <ele>40.0321</ele>
        <time>2014-05-20T19:06:36Z</time>
      </trkpt>
      <trkpt lat="59.8298743" lon="17.6553884">
        <ele>39.5513</ele>
        <time>2014-05-20T19:06:37Z</time>
      </trkpt>
      <trkpt lat="59.8298591" lon="17.6553435">
        <ele>39.0707</ele>
        <time>2014-05-20T19:06:38Z</time>
      </trkpt>
      <trkpt lat="59.8298436" lon="17.6553009">
        <ele>38.5901</ele>
        <time>2014-05-20T19:06:39Z</time>
      </trkpt>
      <trkpt lat="59.8298288" lon="17.6552393">
        <ele>38.5901</ele>
        <time>2014-05-20T19:06:40Z</time>
      </trkpt>
      <trkpt lat="59.829816" lon="17.6551873">
        <ele>39.0707</ele>
        <time>2014-05-20T19:06:41Z</time>
      </trkpt>
      <trkpt lat="59.8298005" lon="17.6551373">
        <ele>39.0707</ele>
        <time>2014-05-20T19:06:42Z</time>
      </trkpt>
      <trkpt lat="59.8297844" lon="17.6550889">
        <ele>38.1094</ele>
        <time>2014-05-20T19:06:43Z</time>
      </trkpt>
      <trkpt lat="59.8297749" lon="17.6550345">
        <ele>36.6675</ele>
        <time>2014-05-20T19:06:44Z</time>
      </trkpt>
      <trkpt lat="59.8297654" lon="17.6549667">
        <ele>36.6675</ele>
        <time>2014-05-20T19:06:45Z</time>
      </trkpt>
      <trkpt lat="59.8297643" lon="17.654899">
        <ele>37.6287</ele>
        <time>2014-05-20T19:06:46Z</time>
      </trkpt>
      <trkpt lat="59.8297716" lon="17.6548344">
        <ele>38.5901</ele>
        <time>2014-05-20T19:06:47Z</time>
      </trkpt>
      <trkpt lat="59.8297803" lon="17.6547838">
        <ele>37.1481</ele>
        <time>2014-05-20T19:06:48Z</time>
      </trkpt>
      <trkpt lat="59.829792" lon="17.6547219">
        <ele>36.1868</ele>
        <time>2014-05-20T19:06:49Z</time>
      </trkpt>
      <trkpt lat="59.8297999" lon="17.6546706">
        <ele>34.2642</ele>
        <time>2014-05-20T19:06:50Z</time>
      </trkpt>
      <trkpt lat="59.8298072" lon="17.6546312">
        <ele>33.7834</ele>
        <time>2014-05-20T19:06:51Z</time>
      </trkpt>
      <trkpt lat="59.8298108" lon="17.6545758">
        <ele>33.7834</ele>
        <time>2014-05-20T19:06:52Z</time>
      </trkpt>
      <trkpt lat="59.8298196" lon="17.6545137">
        <ele>33.7834</ele>
        <time>2014-05-20T19:06:53Z</time>
      </trkpt>
      <trkpt lat="59.8298264" lon="17.6544613">
        <ele>33.3029</ele>
        <time>2014-05-20T19:06:54Z</time>
      </trkpt>
      <trkpt lat="59.8298267" lon="17.6544162">
        <ele>32.8223</ele>
        <time>2014-05-20T19:06:55Z</time>
      </trkpt>
      <trkpt lat="59.8298216" lon="17.6543836">
        <ele>32.3416</ele>
        <time>2014-05-20T19:06:56Z</time>
      </trkpt>
      <trkpt lat="59.8298124" lon="17.654371">
        <ele>31.3801</ele>
        <time>2014-05-20T19:06:57Z</time>
      </trkpt>
      <trkpt lat="59.8297984" lon="17.6543513">
        <ele>31.3801</ele>
        <time>2014-05-20T19:06:58Z</time>
      </trkpt>
      <trkpt lat="59.8297878" lon="17.6543393">
        <ele>31.8607</ele>
        <time>2014-05-20T19:06:59Z</time>
      </trkpt>
      <trkpt lat="59.829763" lon="17.6543155">
        <ele>31.3801</ele>
        <time>2014-05-20T19:07:00Z</time>
      </trkpt>
      <trkpt lat="59.8297381" lon="17.6542922">
        <ele>32.3416</ele>
        <time>2014-05-20T19:07:01Z</time>
      </trkpt>
      <trkpt lat="59.8297101" lon="17.6542602">
        <ele>31.3801</ele>
        <time>2014-05-20T19:07:02Z</time>
      </trkpt>
      <trkpt lat="59.8296798" lon="17.6542323">
        <ele>30.8995</ele>
        <time>2014-05-20T19:07:03Z</time>
      </trkpt>
      <trkpt lat="59.8296518" lon="17.6542111">
        <ele>29.9381</ele>
        <time>2014-05-20T19:07:04Z</time>
      </trkpt>
      <trkpt lat="59.8296337" lon="17.6541961">
        <ele>29.9381</ele>
        <time>2014-05-20T19:07:05Z</time>
      </trkpt>
      <trkpt lat="59.8296138" lon="17.6541744">
        <ele>29.9381</ele>
        <time>2014-05-20T19:07:06Z</time>
      </trkpt>
      <trkpt lat="59.8295928" lon="17.6541514">
        <ele>29.9381</ele>
        <time>2014-05-20T19:07:07Z</time>
      </trkpt>
      <trkpt lat="59.82957" lon="17.6541147">
        <ele>29.4575</ele>
        <time>2014-05-20T19:07:08Z</time>
      </trkpt>
      <trkpt lat="59.8295467" lon="17.6540759">
        <ele>28.9769</ele>
        <time>2014-05-20T19:07:09Z</time>
      </trkpt>
      <trkpt lat="59.8295226" lon="17.6540396">
        <ele>28.9769</ele>
        <time>2014-05-20T19:07:10Z</time>
      </trkpt>
      <trkpt lat="59.8295012" lon="17.6540009">
        <ele>28.4962</ele>
        <time>2014-05-20T19:07:11Z</time>
      </trkpt>
      <trkpt lat="59.8294767" lon="17.6539671">
        <ele>28.9769</ele>
        <time>2014-05-20T19:07:12Z</time>
      </trkpt>
      <trkpt lat="59.8294498" lon="17.6539363">
        <ele>29.4575</ele>
        <time>2014-05-20T19:07:13Z</time>
      </trkpt>
      <trkpt lat="59.8294233" lon="17.6539012">
        <ele>29.9381</ele>
        <time>2014-05-20T19:07:14Z</time>
      </trkpt>
      <trkpt lat="59.8294035" lon="17.6538657">
        <ele>29.9381</ele>
        <time>2014-05-20T19:07:15Z</time>
      </trkpt>
      <trkpt lat="59.8293876" lon="17.6538278">
        <ele>29.9381</ele>
        <time>2014-05-20T19:07:16Z</time>
      </trkpt>
      <trkpt lat="59.8293628" lon="17.6537899">
        <ele>30.8995</ele>
        <time>2014-05-20T19:07:17Z</time>
      </trkpt>
      <trkpt lat="59.8293395" lon="17.6537511">
        <ele>30.8995</ele>
        <time>2014-05-20T19:07:18Z</time>
      </trkpt>
      <trkpt lat="59.8293182" lon="17.6537174">
        <ele>31.8607</ele>
        <time>2014-05-20T19:07:19Z</time>
      </trkpt>
      <trkpt lat="59.8293016" lon="17.6536781">
        <ele>32.3416</ele>
        <time>2014-05-20T19:07:20Z</time>
      </trkpt>
      <trkpt lat="59.8292823" lon="17.6536333">
        <ele>32.8223</ele>
        <time>2014-05-20T19:07:21Z</time>
      </trkpt>
      <trkpt lat="59.8292615" lon="17.6535904">
        <ele>32.8223</ele>
        <time>2014-05-20T19:07:22Z</time>
      </trkpt>
      <trkpt lat="59.8292489" lon="17.6535551">
        <ele>32.3416</ele>
        <time>2014-05-20T19:07:23Z</time>
      </trkpt>
      <trkpt lat="59.82924" lon="17.6535188">
        <ele>32.3416</ele>
        <time>2014-05-20T19:07:24Z</time>
      </trkpt>
      <trkpt lat="59.829232" lon="17.6534706">
        <ele>32.3416</ele>
        <time>2014-05-20T19:07:25Z</time>
      </trkpt>
      <trkpt lat="59.8292213" lon="17.6534216">
        <ele>31.8607</ele>
        <time>2014-05-20T19:07:26Z</time>
      </trkpt>
      <trkpt lat="59.8292059" lon="17.6533802">
        <ele>32.3416</ele>
        <time>2014-05-20T19:07:27Z</time>
      </trkpt>
      <trkpt lat="59.8291866" lon="17.6533423">
        <ele>31.8607</ele>
        <time>2014-05-20T19:07:28Z</time>
      </trkpt>
      <trkpt lat="59.829168" lon="17.6533057">
        <ele>31.3801</ele>
        <time>2014-05-20T19:07:29Z</time>
      </trkpt>
      <trkpt lat="59.8291484" lon="17.6532717">
        <ele>31.3801</ele>
        <time>2014-05-20T19:07:30Z</time>
      </trkpt>
      <trkpt lat="59.8291279" lon="17.653227">
        <ele>30.8995</ele>
        <time>2014-05-20T19:07:31Z</time>
      </trkpt>
      <trkpt lat="59.82911" lon="17.6531808">
        <ele>30.8995</ele>
        <time>2014-05-20T19:07:32Z</time>
      </trkpt>
      <trkpt lat="59.8290969" lon="17.6531392">
        <ele>30.8995</ele>
        <time>2014-05-20T19:07:33Z</time>
      </trkpt>
      <trkpt lat="59.8290893" lon="17.6530982">
        <ele>30.8995</ele>
        <time>2014-05-20T19:07:34Z</time>
      </trkpt>
      <trkpt lat="59.8290731" lon="17.6530563">
        <ele>30.4188</ele>
        <time>2014-05-20T19:07:35Z</time>
      </trkpt>
      <trkpt lat="59.8290523" lon="17.6530102">
        <ele>29.4575</ele>
        <time>2014-05-20T19:07:36Z</time>
      </trkpt>
      <trkpt lat="59.8290355" lon="17.6529607">
        <ele>29.4575</ele>
        <time>2014-05-20T19:07:37Z</time>
      </trkpt>
      <trkpt lat="59.8290218" lon="17.6529153">
        <ele>28.9769</ele>
        <time>2014-05-20T19:07:38Z</time>
      </trkpt>
      <trkpt lat="59.8290023" lon="17.6528697">
        <ele>28.4962</ele>
        <time>2014-05-20T19:07:39Z</time>
      </trkpt>
      <trkpt lat="59.8289793" lon="17.6528275">
        <ele>28.4962</ele>
        <time>2014-05-20T19:07:40Z</time>
      </trkpt>
      <trkpt lat="59.8289598" lon="17.6527893">
        <ele>29.4575</ele>
        <time>2014-05-20T19:07:41Z</time>
      </trkpt>
      <trkpt lat="59.8289405" lon="17.6527419">
        <ele>28.9769</ele>
        <time>2014-05-20T19:07:42Z</time>
      </trkpt>
      <trkpt lat="59.8289298" lon="17.6527">
        <ele>29.9381</ele>
        <time>2014-05-20T19:07:43Z</time>
      </trkpt>
      <trkpt lat="59.8289248" lon="17.6526638">
        <ele>29.9381</ele>
        <time>2014-05-20T19:07:44Z</time>
      </trkpt>
      <trkpt lat="59.8289233" lon="17.652625">
        <ele>30.4188</ele>
        <time>2014-05-20T19:07:45Z</time>
      </trkpt>
      <trkpt lat="59.8289182" lon="17.6525833">
        <ele>30.8995</ele>
        <time>2014-05-20T19:07:46Z</time>
      </trkpt>
      <trkpt lat="59.8289081" lon="17.6525418">
        <ele>30.8995</ele>
        <time>2014-05-20T19:07:47Z</time>
      </trkpt>
      <trkpt lat="59.8288976" lon="17.6525036">
        <ele>30.8995</ele>
        <time>2014-05-20T19:07:48Z</time>
      </trkpt>
      <trkpt lat="59.8288898" lon="17.652461">
        <ele>30.8995</ele>
        <time>2014-05-20T19:07:49Z</time>
      </trkpt>
      <trkpt lat="59.8288793" lon="17.6524105">
        <ele>31.3801</ele>
        <time>2014-05-20T19:07:50Z</time>
      </trkpt>
      <trkpt lat="59.8288535" lon="17.652352">
        <ele>30.8995</ele>
        <time>2014-05-20T19:07:51Z</time>
      </trkpt>
      <trkpt lat="59.8288301" lon="17.6522965">
        <ele>30.8995</ele>
        <time>2014-05-20T19:07:52Z</time>
      </trkpt>
      <trkpt lat="59.8288195" lon="17.6522428">
        <ele>30.4188</ele>
        <time>2014-05-20T19:07:53Z</time>
      </trkpt>
      <trkpt lat="59.8288116" lon="17.6521851">
        <ele>30.8995</ele>
        <time>2014-05-20T19:07:54Z</time>
      </trkpt>
      <trkpt lat="59.8288059" lon="17.6521246">
        <ele>31.3801</ele>
        <time>2014-05-20T19:07:55Z</time>
      </trkpt>
      <trkpt lat="59.8288126" lon="17.652068">
        <ele>31.8607</ele>
        <time>2014-05-20T19:07:56Z</time>
      </trkpt>
      <trkpt lat="59.8288081" lon="17.651997">
        <ele>31.8607</ele>
        <time>2014-05-20T19:07:57Z</time>
      </trkpt>
      <trkpt lat="59.8288049" lon="17.6519241">
        <ele>31.8607</ele>
        <time>2014-05-20T19:07:58Z</time>
      </trkpt>
      <trkpt lat="59.8288085" lon="17.6518635">
        <ele>31.8607</ele>
        <time>2014-05-20T19:07:59Z</time>
      </trkpt>
      <trkpt lat="59.8288208" lon="17.6518117">
        <ele>31.8607</ele>
        <time>2014-05-20T19:08:00Z</time>
      </trkpt>
      <trkpt lat="59.8288331" lon="17.6517628">
        <ele>32.8223</ele>
        <time>2014-05-20T19:08:01Z</time>
      </trkpt>
      <trkpt lat="59.8288458" lon="17.651711">
        <ele>32.8223</ele>
        <time>2014-05-20T19:08:02Z</time>
      </trkpt>
      <trkpt lat="59.8288509" lon="17.6516568">
        <ele>32.8223</ele>
        <time>2014-05-20T19:08:03Z</time>
      </trkpt>
      <trkpt lat="59.8288549" lon="17.6515957">
        <ele>33.3029</ele>
        <time>2014-05-20T19:08:04Z</time>
      </trkpt>
      <trkpt lat="59.8288499" lon="17.6515209">
        <ele>32.8223</ele>
        <time>2014-05-20T19:08:05Z</time>
      </trkpt>
      <trkpt lat="59.8288494" lon="17.6514553">
        <ele>33.3029</ele>
        <time>2014-05-20T19:08:06Z</time>
      </trkpt>
      <trkpt lat="59.8288619" lon="17.6514111">
        <ele>33.7834</ele>
        <time>2014-05-20T19:08:07Z</time>
      </trkpt>
      <trkpt lat="59.828882" lon="17.6513755">
        <ele>33.7834</ele>
        <time>2014-05-20T19:08:08Z</time>
      </trkpt>
      <trkpt lat="59.8288975" lon="17.6513294">
        <ele>34.2642</ele>
        <time>2014-05-20T19:08:09Z</time>
      </trkpt>
      <trkpt lat="59.8289156" lon="17.6512832">
        <ele>34.2642</ele>
        <time>2014-05-20T19:08:10Z</time>
      </trkpt>
      <trkpt lat="59.828937" lon="17.6512305">
        <ele>34.7449</ele>
        <time>2014-05-20T19:08:11Z</time>
      </trkpt>
      <trkpt lat="59.8289458" lon="17.6511807">
        <ele>35.2255</ele>
        <time>2014-05-20T19:08:12Z</time>
      </trkpt>
      <trkpt lat="59.8289713" lon="17.6511268">
        <ele>35.7061</ele>
        <time>2014-05-20T19:08:13Z</time>
      </trkpt>
      <trkpt lat="59.8289811" lon="17.6510766">
        <ele>35.2255</ele>
        <time>2014-05-20T19:08:14Z</time>
      </trkpt>
      <trkpt lat="59.8289805" lon="17.6510111">
        <ele>34.7449</ele>
        <time>2014-05-20T19:08:15Z</time>
      </trkpt>
      <trkpt lat="59.8289832" lon="17.6509448">
        <ele>33.7834</ele>
        <time>2014-05-20T19:08:16Z</time>
      </trkpt>
      <trkpt lat="59.8289927" lon="17.6508829">
        <ele>34.7449</ele>
        <time>2014-05-20T19:08:17Z</time>
      </trkpt>
      <trkpt lat="59.828996" lon="17.6508336">
        <ele>33.7834</ele>
        <time>2014-05-20T19:08:18Z</time>
      </trkpt>
      <trkpt lat="59.8290233" lon="17.6507785">
        <ele>35.2255</ele>
        <time>2014-05-20T19:08:19Z</time>
      </trkpt>
      <trkpt lat="59.8290493" lon="17.6507187">
        <ele>36.6675</ele>
        <time>2014-05-20T19:08:20Z</time>
      </trkpt>
      <trkpt lat="59.8290513" lon="17.6506657">
        <ele>35.2255</ele>
        <time>2014-05-20T19:08:21Z</time>
      </trkpt>
      <trkpt lat="59.8290614" lon="17.6506202">
        <ele>33.3029</ele>
        <time>2014-05-20T19:08:22Z</time>
      </trkpt>
      <trkpt lat="59.829068" lon="17.6505678">
        <ele>31.8607</ele>
        <time>2014-05-20T19:08:23Z</time>
      </trkpt>
      <trkpt lat="59.8290691" lon="17.6505185">
        <ele>29.9381</ele>
        <time>2014-05-20T19:08:24Z</time>
      </trkpt>
      <trkpt lat="59.8290725" lon="17.6504802">
        <ele>28.9769</ele>
        <time>2014-05-20T19:08:25Z</time>
      </trkpt>
      <trkpt lat="59.8290633" lon="17.6504346">
        <ele>28.0155</ele>
        <time>2014-05-20T19:08:26Z</time>
      </trkpt>
      <trkpt lat="59.8290716" lon="17.650385">
        <ele>27.5349</ele>
        <time>2014-05-20T19:08:27Z</time>
      </trkpt>
      <trkpt lat="59.8290919" lon="17.6503426">
        <ele>25.6123</ele>
        <time>2014-05-20T19:08:28Z</time>
      </trkpt>
      <trkpt lat="59.8291046" lon="17.6503017">
        <ele>24.1703</ele>
        <time>2014-05-20T19:08:29Z</time>
      </trkpt>
      <trkpt lat="59.8291069" lon="17.6502685">
        <ele>24.1703</ele>
        <time>2014-05-20T19:08:30Z</time>
      </trkpt>
      <trkpt lat="59.8290939" lon="17.6502307">
        <ele>22.7283</ele>
        <time>2014-05-20T19:08:31Z</time>
      </trkpt>
      <trkpt lat="59.8290867" lon="17.6501841">
        <ele>21.767</ele>
        <time>2014-05-20T19:08:32Z</time>
      </trkpt>
      <trkpt lat="59.829083" lon="17.6501277">
        <ele>21.2864</ele>
        <time>2014-05-20T19:08:33Z</time>
      </trkpt>
      <trkpt lat="59.8290782" lon="17.6500654">
        <ele>20.325</ele>
        <time>2014-05-20T19:08:34Z</time>
      </trkpt>
      <trkpt lat="59.829066" lon="17.6500042">
        <ele>19.3638</ele>
        <time>2014-05-20T19:08:35Z</time>
      </trkpt>
      <trkpt lat="59.8290562" lon="17.649952">
        <ele>19.3638</ele>
        <time>2014-05-20T19:08:36Z</time>
      </trkpt>
      <trkpt lat="59.8290402" lon="17.6498955">
        <ele>18.4023</ele>
        <time>2014-05-20T19:08:37Z</time>
      </trkpt>
      <trkpt lat="59.8290208" lon="17.6498347">
        <ele>17.4412</ele>
        <time>2014-05-20T19:08:38Z</time>
      </trkpt>
      <trkpt lat="59.8290079" lon="17.6497772">
        <ele>16.9604</ele>
        <time>2014-05-20T19:08:39Z</time>
      </trkpt>
      <trkpt lat="59.8289959" lon="17.6497283">
        <ele>15.999</ele>
        <time>2014-05-20T19:08:40Z</time>
      </trkpt>
      <trkpt lat="59.8289862" lon="17.649695">
        <ele>15.5184</ele>
        <time>2014-05-20T19:08:41Z</time>
      </trkpt>
      <trkpt lat="59.8289727" lon="17.649651">
        <ele>15.5184</ele>
        <time>2014-05-20T19:08:42Z</time>
      </trkpt>
      <trkpt lat="59.8289661" lon="17.6495975">
        <ele>15.5184</ele>
        <time>2014-05-20T19:08:43Z</time>
      </trkpt>
      <trkpt lat="59.8289552" lon="17.6495433">
        <ele>15.999</ele>
        <time>2014-05-20T19:08:44Z</time>
      </trkpt>
      <trkpt lat="59.8289546" lon="17.6494863">
        <ele>15.999</ele>
        <time>2014-05-20T19:08:45Z</time>
      </trkpt>
      <trkpt lat="59.8289333" lon="17.6494179">
        <ele>15.5184</ele>
        <time>2014-05-20T19:08:46Z</time>
      </trkpt>
      <trkpt lat="59.8289111" lon="17.6493562">
        <ele>15.5184</ele>
        <time>2014-05-20T19:08:47Z</time>
      </trkpt>
      <trkpt lat="59.8288986" lon="17.6493036">
        <ele>15.0377</ele>
        <time>2014-05-20T19:08:48Z</time>
      </trkpt>
      <trkpt lat="59.8288834" lon="17.6492502">
        <ele>15.0377</ele>
        <time>2014-05-20T19:08:49Z</time>
      </trkpt>
      <trkpt lat="59.8288702" lon="17.6491972">
        <ele>15.0377</ele>
        <time>2014-05-20T19:08:50Z</time>
      </trkpt>
      <trkpt lat="59.8288454" lon="17.6491381">
        <ele>15.0377</ele>
        <time>2014-05-20T19:08:51Z</time>
      </trkpt>
      <trkpt lat="59.8288401" lon="17.6490933">
        <ele>15.5184</ele>
        <time>2014-05-20T19:08:52Z</time>
      </trkpt>
      <trkpt lat="59.8288354" lon="17.6490506">
        <ele>15.5184</ele>
        <time>2014-05-20T19:08:53Z</time>
      </trkpt>
      <trkpt lat="59.8288359" lon="17.6490014">
        <ele>15.0377</ele>
        <time>2014-05-20T19:08:54Z</time>
      </trkpt>
      <trkpt lat="59.8288281" lon="17.6489489">
        <ele>15.0377</ele>
        <time>2014-05-20T19:08:55Z</time>
      </trkpt>
      <trkpt lat="59.8288226" lon="17.6489097">
        <ele>15.5184</ele>
        <time>2014-05-20T19:08:56Z</time>
      </trkpt>
      <trkpt lat="59.828823" lon="17.6488664">
        <ele>15.5184</ele>
        <time>2014-05-20T19:08:57Z</time>
      </trkpt>
      <trkpt lat="59.8288224" lon="17.6488195">
        <ele>15.999</ele>
        <time>2014-05-20T19:08:58Z</time>
      </trkpt>
      <trkpt lat="59.8288216" lon="17.6487718">
        <ele>16.4797</ele>
        <time>2014-05-20T19:08:59Z</time>
      </trkpt>
      <trkpt lat="59.8288244" lon="17.6487274">
        <ele>16.9604</ele>
        <time>2014-05-20T19:09:00Z</time>
      </trkpt>
      <trkpt lat="59.8288298" lon="17.6486928">
        <ele>18.4023</ele>
        <time>2014-05-20T19:09:01Z</time>
      </trkpt>
      <trkpt lat="59.8288323" lon="17.6486554">
        <ele>18.8831</ele>
        <time>2014-05-20T19:09:02Z</time>
      </trkpt>
      <trkpt lat="59.8288338" lon="17.6486109">
        <ele>19.8444</ele>
        <time>2014-05-20T19:09:03Z</time>
      </trkpt>
      <trkpt lat="59.8288365" lon="17.6485637">
        <ele>20.325</ele>
        <time>2014-05-20T19:09:04Z</time>
      </trkpt>
      <trkpt lat="59.8288323" lon="17.6485151">
        <ele>20.325</ele>
        <time>2014-05-20T19:09:05Z</time>
      </trkpt>
      <trkpt lat="59.8288366" lon="17.6484819">
        <ele>20.8057</ele>
        <time>2014-05-20T19:09:06Z</time>
      </trkpt>
      <trkpt lat="59.8288423" lon="17.6484488">
        <ele>21.767</ele>
        <time>2014-05-20T19:09:07Z</time>
      </trkpt>
      <trkpt lat="59.8288469" lon="17.6484121">
        <ele>22.7283</ele>
        <time>2014-05-20T19:09:08Z</time>
      </trkpt>
      <trkpt lat="59.8288442" lon="17.6483659">
        <ele>23.209</ele>
        <time>2014-05-20T19:09:09Z</time>
      </trkpt>
      <trkpt lat="59.8288472" lon="17.6483244">
        <ele>23.209</ele>
        <time>2014-05-20T19:09:10Z</time>
      </trkpt>
      <trkpt lat="59.828848" lon="17.6482883">
        <ele>23.6896</ele>
        <time>2014-05-20T19:09:11Z</time>
      </trkpt>
      <trkpt lat="59.8288407" lon="17.6482452">
        <ele>23.209</ele>
        <time>2014-05-20T19:09:12Z</time>
      </trkpt>
      <trkpt lat="59.8288357" lon="17.6482063">
        <ele>23.6896</ele>
        <time>2014-05-20T19:09:13Z</time>
      </trkpt>
      <trkpt lat="59.8288254" lon="17.6481758">
        <ele>23.6896</ele>
        <time>2014-05-20T19:09:14Z</time>
      </trkpt>
      <trkpt lat="59.8288093" lon="17.6481535">
        <ele>24.651</ele>
        <time>2014-05-20T19:09:15Z</time>
      </trkpt>
      <trkpt lat="59.8287914" lon="17.6481373">
        <ele>24.651</ele>
        <time>2014-05-20T19:09:16Z</time>
      </trkpt>
      <trkpt lat="59.8287712" lon="17.6481219">
        <ele>24.651</ele>
        <time>2014-05-20T19:09:17Z</time>
      </trkpt>
      <trkpt lat="59.828752" lon="17.6481188">
        <ele>25.1317</ele>
        <time>2014-05-20T19:09:18Z</time>
      </trkpt>
      <trkpt lat="59.8287323" lon="17.6481219">
        <ele>25.6123</ele>
        <time>2014-05-20T19:09:19Z</time>
      </trkpt>
      <trkpt lat="59.8287106" lon="17.6481303">
        <ele>25.6123</ele>
        <time>2014-05-20T19:09:20Z</time>
      </trkpt>
      <trkpt lat="59.8286913" lon="17.6481385">
        <ele>26.0929</ele>
        <time>2014-05-20T19:09:21Z</time>
      </trkpt>
      <trkpt lat="59.8286723" lon="17.6481409">
        <ele>26.5736</ele>
        <time>2014-05-20T19:09:22Z</time>
      </trkpt>
      <trkpt lat="59.8286494" lon="17.6481498">
        <ele>27.5349</ele>
        <time>2014-05-20T19:09:23Z</time>
      </trkpt>
      <trkpt lat="59.8286288" lon="17.6481653">
        <ele>28.4962</ele>
        <time>2014-05-20T19:09:24Z</time>
      </trkpt>
      <trkpt lat="59.8286078" lon="17.648171">
        <ele>29.4575</ele>
        <time>2014-05-20T19:09:25Z</time>
      </trkpt>
      <trkpt lat="59.8285874" lon="17.6481766">
        <ele>29.9381</ele>
        <time>2014-05-20T19:09:26Z</time>
      </trkpt>
      <trkpt lat="59.8285604" lon="17.6481872">
        <ele>29.9381</ele>
        <time>2014-05-20T19:09:27Z</time>
      </trkpt>
      <trkpt lat="59.8285396" lon="17.6481991">
        <ele>29.9381</ele>
        <time>2014-05-20T19:09:28Z</time>
      </trkpt>
      <trkpt lat="59.8285198" lon="17.6482046">
        <ele>29.9381</ele>
        <time>2014-05-20T19:09:29Z</time>
      </trkpt>
      <trkpt lat="59.8284965" lon="17.6482136">
        <ele>30.4188</ele>
        <time>2014-05-20T19:09:30Z</time>
      </trkpt>
      <trkpt lat="59.8284734" lon="17.6482161">
        <ele>30.8995</ele>
        <time>2014-05-20T19:09:31Z</time>
      </trkpt>
      <trkpt lat="59.8284474" lon="17.6481989">
        <ele>31.3801</ele>
        <time>2014-05-20T19:09:32Z</time>
      </trkpt>
      <trkpt lat="59.828417" lon="17.6481655">
        <ele>30.8995</ele>
        <time>2014-05-20T19:09:33Z</time>
      </trkpt>
      <trkpt lat="59.8283887" lon="17.6481373">
        <ele>30.8995</ele>
        <time>2014-05-20T19:09:34Z</time>
      </trkpt>
      <trkpt lat="59.8283685" lon="17.6481104">
        <ele>31.3801</ele>
        <time>2014-05-20T19:09:35Z</time>
      </trkpt>
      <trkpt lat="59.8283568" lon="17.6480659">
        <ele>31.8607</ele>
        <time>2014-05-20T19:09:36Z</time>
      </trkpt>
      <trkpt lat="59.8283385" lon="17.648008">
        <ele>31.8607</ele>
        <time>2014-05-20T19:09:37Z</time>
      </trkpt>
      <trkpt lat="59.8283214" lon="17.647951">
        <ele>32.3416</ele>
        <time>2014-05-20T19:09:38Z</time>
      </trkpt>
      <trkpt lat="59.8283105" lon="17.6478941">
        <ele>32.3416</ele>
        <time>2014-05-20T19:09:39Z</time>
      </trkpt>
      <trkpt lat="59.8283004" lon="17.6478383">
        <ele>32.3416</ele>
        <time>2014-05-20T19:09:40Z</time>
      </trkpt>
      <trkpt lat="59.8282919" lon="17.6477847">
        <ele>32.3416</ele>
        <time>2014-05-20T19:09:41Z</time>
      </trkpt>
      <trkpt lat="59.8282869" lon="17.6477278">
        <ele>32.8223</ele>
        <time>2014-05-20T19:09:42Z</time>
      </trkpt>
      <trkpt lat="59.8282823" lon="17.6476772">
        <ele>33.3029</ele>
        <time>2014-05-20T19:09:43Z</time>
      </trkpt>
      <trkpt lat="59.8282833" lon="17.6476343">
        <ele>33.3029</ele>
        <time>2014-05-20T19:09:44Z</time>
      </trkpt>
      <trkpt lat="59.8282802" lon="17.6475827">
        <ele>33.7834</ele>
        <time>2014-05-20T19:09:45Z</time>
      </trkpt>
      <trkpt lat="59.8282719" lon="17.6475267">
        <ele>33.7834</ele>
        <time>2014-05-20T19:09:46Z</time>
      </trkpt>
      <trkpt lat="59.8282646" lon="17.6474728">
        <ele>33.7834</ele>
        <time>2014-05-20T19:09:47Z</time>
      </trkpt>
      <trkpt lat="59.828259" lon="17.6474183">
        <ele>33.7834</ele>
        <time>2014-05-20T19:09:48Z</time>
      </trkpt>
      <trkpt lat="59.8282537" lon="17.6473703">
        <ele>34.2642</ele>
        <time>2014-05-20T19:09:49Z</time>
      </trkpt>
      <trkpt lat="59.8282496" lon="17.6473208">
        <ele>35.2255</ele>
        <time>2014-05-20T19:09:50Z</time>
      </trkpt>
      <trkpt lat="59.8282423" lon="17.6472675">
        <ele>34.7449</ele>
        <time>2014-05-20T19:09:51Z</time>
      </trkpt>
      <trkpt lat="59.828235" lon="17.6472107">
        <ele>35.7061</ele>
        <time>2014-05-20T19:09:52Z</time>
      </trkpt>
      <trkpt lat="59.8282287" lon="17.6471545">
        <ele>35.2255</ele>
        <time>2014-05-20T19:09:53Z</time>
      </trkpt>
      <trkpt lat="59.8282203" lon="17.6470984">
        <ele>35.2255</ele>
        <time>2014-05-20T19:09:54Z</time>
      </trkpt>
      <trkpt lat="59.8282086" lon="17.6470388">
        <ele>34.7449</ele>
        <time>2014-05-20T19:09:55Z</time>
      </trkpt>
      <trkpt lat="59.8281972" lon="17.6469812">
        <ele>34.7449</ele>
        <time>2014-05-20T19:09:56Z</time>
      </trkpt>
      <trkpt lat="59.82819" lon="17.6469325">
        <ele>34.2642</ele>
        <time>2014-05-20T19:09:57Z</time>
      </trkpt>
      <trkpt lat="59.8281831" lon="17.6468847">
        <ele>34.2642</ele>
        <time>2014-05-20T19:09:58Z</time>
      </trkpt>
      <trkpt lat="59.8281864" lon="17.6468443">
        <ele>34.7449</ele>
        <time>2014-05-20T19:09:59Z</time>
      </trkpt>
      <trkpt lat="59.8281916" lon="17.6468056">
        <ele>34.7449</ele>
        <time>2014-05-20T19:10:00Z</time>
      </trkpt>
      <trkpt lat="59.8281946" lon="17.6467762">
        <ele>34.2642</ele>
        <time>2014-05-20T19:10:01Z</time>
      </trkpt>
      <trkpt lat="59.828197" lon="17.6467477">
        <ele>34.7449</ele>
        <time>2014-05-20T19:10:02Z</time>
      </trkpt>
      <trkpt lat="59.8282017" lon="17.6467181">
        <ele>34.7449</ele>
        <time>2014-05-20T19:10:03Z</time>
      </trkpt>
      <trkpt lat="59.8282071" lon="17.6466928">
        <ele>34.7449</ele>
        <time>2014-05-20T19:10:04Z</time>
      </trkpt>
      <trkpt lat="59.8282071" lon="17.6466573">
        <ele>34.2642</ele>
        <time>2014-05-20T19:10:05Z</time>
      </trkpt>
      <trkpt lat="59.8282046" lon="17.6466248">
        <ele>34.7449</ele>
        <time>2014-05-20T19:10:06Z</time>
      </trkpt>
      <trkpt lat="59.828203" lon="17.6465948">
        <ele>34.7449</ele>
        <time>2014-05-20T19:10:07Z</time>
      </trkpt>
      <trkpt lat="59.828202" lon="17.646556">
        <ele>34.2642</ele>
        <time>2014-05-20T19:10:08Z</time>
      </trkpt>
      <trkpt lat="59.8281977" lon="17.6465052">
        <ele>33.3029</ele>
        <time>2014-05-20T19:10:09Z</time>
      </trkpt>
      <trkpt lat="59.828189" lon="17.6464583">
        <ele>32.8223</ele>
        <time>2014-05-20T19:10:10Z</time>
      </trkpt>
      <trkpt lat="59.8281811" lon="17.6464036">
        <ele>32.3416</ele>
        <time>2014-05-20T19:10:11Z</time>
      </trkpt>
      <trkpt lat="59.8281796" lon="17.6463452">
        <ele>31.8607</ele>
        <time>2014-05-20T19:10:12Z</time>
      </trkpt>
      <trkpt lat="59.8281737" lon="17.6462862">
        <ele>31.8607</ele>
        <time>2014-05-20T19:10:13Z</time>
      </trkpt>
      <trkpt lat="59.8281577" lon="17.6462291">
        <ele>31.8607</ele>
        <time>2014-05-20T19:10:14Z</time>
      </trkpt>
      <trkpt lat="59.8281501" lon="17.6461767">
        <ele>31.8607</ele>
        <time>2014-05-20T19:10:15Z</time>
      </trkpt>
      <trkpt lat="59.828136" lon="17.6461199">
        <ele>31.3801</ele>
        <time>2014-05-20T19:10:16Z</time>
      </trkpt>
      <trkpt lat="59.8281144" lon="17.6460546">
        <ele>31.3801</ele>
        <time>2014-05-20T19:10:17Z</time>
      </trkpt>
      <trkpt lat="59.828106" lon="17.6459882">
        <ele>31.3801</ele>
        <time>2014-05-20T19:10:18Z</time>
      </trkpt>
      <trkpt lat="59.8281117" lon="17.6459463">
        <ele>31.3801</ele>
        <time>2014-05-20T19:10:19Z</time>
      </trkpt>
      <trkpt lat="59.8281295" lon="17.645928">
        <ele>31.3801</ele>
        <time>2014-05-20T19:10:20Z</time>
      </trkpt>
      <trkpt lat="59.8281445" lon="17.6459083">
        <ele>30.8995</ele>
        <time>2014-05-20T19:10:21Z</time>
      </trkpt>
      <trkpt lat="59.8281603" lon="17.645895">
        <ele>31.8607</ele>
        <time>2014-05-20T19:10:22Z</time>
      </trkpt>
      <trkpt lat="59.8281812" lon="17.6458663">
        <ele>32.3416</ele>
        <time>2014-05-20T19:10:23Z</time>
      </trkpt>
      <trkpt lat="59.8282001" lon="17.6458208">
        <ele>32.3416</ele>
        <time>2014-05-20T19:10:24Z</time>
      </trkpt>
      <trkpt lat="59.8282211" lon="17.6457836">
        <ele>32.3416</ele>
        <time>2014-05-20T19:10:25Z</time>
      </trkpt>
      <trkpt lat="59.8282452" lon="17.6457438">
        <ele>31.8607</ele>
        <time>2014-05-20T19:10:26Z</time>
      </trkpt>
      <trkpt lat="59.8282729" lon="17.6457033">
        <ele>31.3801</ele>
        <time>2014-05-20T19:10:27Z</time>
      </trkpt>
      <trkpt lat="59.8282989" lon="17.6456668">
        <ele>31.3801</ele>
        <time>2014-05-20T19:10:28Z</time>
      </trkpt>
      <trkpt lat="59.8283282" lon="17.6456312">
        <ele>30.8995</ele>
        <time>2014-05-20T19:10:29Z</time>
      </trkpt>
      <trkpt lat="59.8283608" lon="17.645605">
        <ele>30.4188</ele>
        <time>2014-05-20T19:10:30Z</time>
      </trkpt>
      <trkpt lat="59.8283856" lon="17.6455822">
        <ele>30.4188</ele>
        <time>2014-05-20T19:10:31Z</time>
      </trkpt>
      <trkpt lat="59.8284125" lon="17.6455676">
        <ele>30.4188</ele>
        <time>2014-05-20T19:10:32Z</time>
      </trkpt>
      <trkpt lat="59.8284369" lon="17.6455466">
        <ele>30.4188</ele>
        <time>2014-05-20T19:10:33Z</time>
      </trkpt>
      <trkpt lat="59.8284623" lon="17.6455324">
        <ele>30.8995</ele>
        <time>2014-05-20T19:10:34Z</time>
      </trkpt>
      <trkpt lat="59.8284992" lon="17.6455238">
        <ele>31.3801</ele>
        <time>2014-05-20T19:10:35Z</time>
      </trkpt>
      <trkpt lat="59.8285365" lon="17.6455189">
        <ele>31.8607</ele>
        <time>2014-05-20T19:10:36Z</time>
      </trkpt>
      <trkpt lat="59.8285775" lon="17.6455161">
        <ele>32.3416</ele>
        <time>2014-05-20T19:10:37Z</time>
      </trkpt>
      <trkpt lat="59.8286127" lon="17.6455171">
        <ele>32.3416</ele>
        <time>2014-05-20T19:10:38Z</time>
      </trkpt>
      <trkpt lat="59.8286522" lon="17.6455177">
        <ele>32.3416</ele>
        <time>2014-05-20T19:10:39Z</time>
      </trkpt>
      <trkpt lat="59.8286878" lon="17.645509">
        <ele>32.8223</ele>
        <time>2014-05-20T19:10:40Z</time>
      </trkpt>
      <trkpt lat="59.8287071" lon="17.6455229">
        <ele>30.8995</ele>
        <time>2014-05-20T19:10:41Z</time>
      </trkpt>
      <trkpt lat="59.828744" lon="17.6455349">
        <ele>31.8607</ele>
        <time>2014-05-20T19:10:42Z</time>
      </trkpt>
      <trkpt lat="59.8287721" lon="17.6455635">
        <ele>31.8607</ele>
        <time>2014-05-20T19:10:43Z</time>
      </trkpt>
      <trkpt lat="59.8287954" lon="17.6455945">
        <ele>31.8607</ele>
        <time>2014-05-20T19:10:44Z</time>
      </trkpt>
      <trkpt lat="59.8288186" lon="17.6456143">
        <ele>31.8607</ele>
        <time>2014-05-20T19:10:45Z</time>
      </trkpt>
      <trkpt lat="59.8288401" lon="17.645624">
        <ele>31.3801</ele>
        <time>2014-05-20T19:10:46Z</time>
      </trkpt>
      <trkpt lat="59.828865" lon="17.6456313">
        <ele>31.8607</ele>
        <time>2014-05-20T19:10:47Z</time>
      </trkpt>
      <trkpt lat="59.828895" lon="17.6456425">
        <ele>31.8607</ele>
        <time>2014-05-20T19:10:48Z</time>
      </trkpt>
      <trkpt lat="59.8289251" lon="17.6456498">
        <ele>32.3416</ele>
        <time>2014-05-20T19:10:49Z</time>
      </trkpt>
      <trkpt lat="59.8289545" lon="17.6456601">
        <ele>32.3416</ele>
        <time>2014-05-20T19:10:50Z</time>
      </trkpt>
      <trkpt lat="59.8289841" lon="17.6456675">
        <ele>32.8223</ele>
        <time>2014-05-20T19:10:51Z</time>
      </trkpt>
      <trkpt lat="59.829022" lon="17.6456746">
        <ele>34.2642</ele>
        <time>2014-05-20T19:10:52Z</time>
      </trkpt>
      <trkpt lat="59.8290611" lon="17.645686">
        <ele>35.2255</ele>
        <time>2014-05-20T19:10:53Z</time>
      </trkpt>
      <trkpt lat="59.8290887" lon="17.6457007">
        <ele>35.7061</ele>
        <time>2014-05-20T19:10:54Z</time>
      </trkpt>
      <trkpt lat="59.8291225" lon="17.6457105">
        <ele>35.2255</ele>
        <time>2014-05-20T19:10:55Z</time>
      </trkpt>
      <trkpt lat="59.8291569" lon="17.6457199">
        <ele>34.7449</ele>
        <time>2014-05-20T19:10:56Z</time>
      </trkpt>
      <trkpt lat="59.829197" lon="17.6457344">
        <ele>35.2255</ele>
        <time>2014-05-20T19:10:57Z</time>
      </trkpt>
      <trkpt lat="59.8292349" lon="17.6457556">
        <ele>35.2255</ele>
        <time>2014-05-20T19:10:58Z</time>
      </trkpt>
      <trkpt lat="59.8292788" lon="17.6457638">
        <ele>35.7061</ele>
        <time>2014-05-20T19:10:59Z</time>
      </trkpt>
      <trkpt lat="59.8293062" lon="17.6457675">
        <ele>35.2255</ele>
        <time>2014-05-20T19:11:00Z</time>
      </trkpt>
      <trkpt lat="59.8293275" lon="17.6457666">
        <ele>34.2642</ele>
        <time>2014-05-20T19:11:01Z</time>
      </trkpt>
      <trkpt lat="59.8293484" lon="17.6457701">
        <ele>34.2642</ele>
        <time>2014-05-20T19:11:02Z</time>
      </trkpt>
      <trkpt lat="59.8293709" lon="17.6457674">
        <ele>35.2255</ele>
        <time>2014-05-20T19:11:03Z</time>
      </trkpt>
      <trkpt lat="59.8293928" lon="17.6457608">
        <ele>35.7061</ele>
        <time>2014-05-20T19:11:04Z</time>
      </trkpt>
      <trkpt lat="59.8294151" lon="17.6457535">
        <ele>35.7061</ele>
        <time>2014-05-20T19:11:05Z</time>
      </trkpt>
      <trkpt lat="59.8294385" lon="17.6457478">
        <ele>35.7061</ele>
        <time>2014-05-20T19:11:06Z</time>
      </trkpt>
      <trkpt lat="59.8294633" lon="17.6457463">
        <ele>35.7061</ele>
        <time>2014-05-20T19:11:07Z</time>
      </trkpt>
      <trkpt lat="59.8294946" lon="17.6457348">
        <ele>37.1481</ele>
        <time>2014-05-20T19:11:08Z</time>
      </trkpt>
      <trkpt lat="59.8295216" lon="17.6457264">
        <ele>38.5901</ele>
        <time>2014-05-20T19:11:09Z</time>
      </trkpt>
      <trkpt lat="59.8295461" lon="17.6457174">
        <ele>38.5901</ele>
        <time>2014-05-20T19:11:10Z</time>
      </trkpt>
      <trkpt lat="59.8295768" lon="17.6457053">
        <ele>39.0707</ele>
        <time>2014-05-20T19:11:11Z</time>
      </trkpt>
      <trkpt lat="59.8296061" lon="17.6456826">
        <ele>39.5513</ele>
        <time>2014-05-20T19:11:12Z</time>
      </trkpt>
      <trkpt lat="59.8296316" lon="17.6456602">
        <ele>39.5513</ele>
        <time>2014-05-20T19:11:13Z</time>
      </trkpt>
      <trkpt lat="59.8296554" lon="17.6456397">
        <ele>40.0321</ele>
        <time>2014-05-20T19:11:14Z</time>
      </trkpt>
      <trkpt lat="59.8296736" lon="17.645624">
        <ele>40.5128</ele>
        <time>2014-05-20T19:11:15Z</time>
      </trkpt>
      <trkpt lat="59.829692" lon="17.645608">
        <ele>40.0321</ele>
        <time>2014-05-20T19:11:16Z</time>
      </trkpt>
      <trkpt lat="59.8297164" lon="17.6455857">
        <ele>40.0321</ele>
        <time>2014-05-20T19:11:17Z</time>
      </trkpt>
      <trkpt lat="59.8297388" lon="17.6455701">
        <ele>40.5128</ele>
        <time>2014-05-20T19:11:18Z</time>
      </trkpt>
      <trkpt lat="59.8297579" lon="17.64555">
        <ele>40.0321</ele>
        <time>2014-05-20T19:11:19Z</time>
      </trkpt>
      <trkpt lat="59.8297819" lon="17.6455308">
        <ele>40.5128</ele>
        <time>2014-05-20T19:11:20Z</time>
      </trkpt>
      <trkpt lat="59.8298057" lon="17.6455157">
        <ele>40.9934</ele>
        <time>2014-05-20T19:11:21Z</time>
      </trkpt>
      <trkpt lat="59.8298277" lon="17.6454919">
        <ele>40.9934</ele>
        <time>2014-05-20T19:11:22Z</time>
      </trkpt>
      <trkpt lat="59.8298471" lon="17.6454726">
        <ele>40.0321</ele>
        <time>2014-05-20T19:11:23Z</time>
      </trkpt>
      <trkpt lat="59.829874" lon="17.6454563">
        <ele>40.0321</ele>
        <time>2014-05-20T19:11:24Z</time>
      </trkpt>
      <trkpt lat="59.8298952" lon="17.6454415">
        <ele>39.5513</ele>
        <time>2014-05-20T19:11:25Z</time>
      </trkpt>
      <trkpt lat="59.8299207" lon="17.6454262">
        <ele>39.5513</ele>
        <time>2014-05-20T19:11:26Z</time>
      </trkpt>
      <trkpt lat="59.8299469" lon="17.6454094">
        <ele>40.0321</ele>
        <time>2014-05-20T19:11:27Z</time>
      </trkpt>
      <trkpt lat="59.8299712" lon="17.6453892">
        <ele>40.0321</ele>
        <time>2014-05-20T19:11:28Z</time>
      </trkpt>
      <trkpt lat="59.8299966" lon="17.6453675">
        <ele>40.5128</ele>
        <time>2014-05-20T19:11:29Z</time>
      </trkpt>
      <trkpt lat="59.8300165" lon="17.6453407">
        <ele>40.0321</ele>
        <time>2014-05-20T19:11:30Z</time>
      </trkpt>
      <trkpt lat="59.8300334" lon="17.6453189">
        <ele>39.5513</ele>
        <time>2014-05-20T19:11:31Z</time>
      </trkpt>
      <trkpt lat="59.8300579" lon="17.6453099">
        <ele>40.0321</ele>
        <time>2014-05-20T19:11:32Z</time>
      </trkpt>
      <trkpt lat="59.8300854" lon="17.6452997">
        <ele>40.5128</ele>
        <time>2014-05-20T19:11:33Z</time>
      </trkpt>
      <trkpt lat="59.8301097" lon="17.6452876">
        <ele>40.5128</ele>
        <time>2014-05-20T19:11:34Z</time>
      </trkpt>
      <trkpt lat="59.8301378" lon="17.645262">
        <ele>40.9934</ele>
        <time>2014-05-20T19:11:35Z</time>
      </trkpt>
      <trkpt lat="59.8301589" lon="17.6452328">
        <ele>40.9934</ele>
        <time>2014-05-20T19:11:36Z</time>
      </trkpt>
      <trkpt lat="59.8301852" lon="17.6452156">
        <ele>40.9934</ele>
        <time>2014-05-20T19:11:37Z</time>
      </trkpt>
      <trkpt lat="59.8302083" lon="17.6451966">
        <ele>41.474</ele>
        <time>2014-05-20T19:11:38Z</time>
      </trkpt>
      <trkpt lat="59.8302297" lon="17.6451714">
        <ele>41.474</ele>
        <time>2014-05-20T19:11:39Z</time>
      </trkpt>
      <trkpt lat="59.8302527" lon="17.6451479">
        <ele>41.9547</ele>
        <time>2014-05-20T19:11:40Z</time>
      </trkpt>
      <trkpt lat="59.8302789" lon="17.6451194">
        <ele>41.9547</ele>
        <time>2014-05-20T19:11:41Z</time>
      </trkpt>
      <trkpt lat="59.8303076" lon="17.64509">
        <ele>41.9547</ele>
        <time>2014-05-20T19:11:42Z</time>
      </trkpt>
      <trkpt lat="59.8303391" lon="17.6450625">
        <ele>42.4354</ele>
        <time>2014-05-20T19:11:43Z</time>
      </trkpt>
      <trkpt lat="59.8303699" lon="17.6450367">
        <ele>43.3966</ele>
        <time>2014-05-20T19:11:44Z</time>
      </trkpt>
      <trkpt lat="59.8304012" lon="17.6450252">
        <ele>43.3966</ele>
        <time>2014-05-20T19:11:45Z</time>
      </trkpt>
      <trkpt lat="59.8304338" lon="17.6450067">
        <ele>43.8773</ele>
        <time>2014-05-20T19:11:46Z</time>
      </trkpt>
      <trkpt lat="59.8304655" lon="17.6449821">
        <ele>44.8386</ele>
        <time>2014-05-20T19:11:47Z</time>
      </trkpt>
      <trkpt lat="59.8304937" lon="17.6449566">
        <ele>45.3192</ele>
        <time>2014-05-20T19:11:48Z</time>
      </trkpt>
      <trkpt lat="59.8305258" lon="17.6449264">
        <ele>46.7612</ele>
        <time>2014-05-20T19:11:49Z</time>
      </trkpt>
      <trkpt lat="59.8305525" lon="17.6449007">
        <ele>47.7225</ele>
        <time>2014-05-20T19:11:50Z</time>
      </trkpt>
      <trkpt lat="59.8305897" lon="17.6448583">
        <ele>50.126</ele>
        <time>2014-05-20T19:11:51Z</time>
      </trkpt>
      <trkpt lat="59.8306163" lon="17.6448251">
        <ele>50.126</ele>
        <time>2014-05-20T19:11:52Z</time>
      </trkpt>
      <trkpt lat="59.8306599" lon="17.6447837">
        <ele>52.5292</ele>
        <time>2014-05-20T19:11:53Z</time>
      </trkpt>
      <trkpt lat="59.8306941" lon="17.6447446">
        <ele>53.4905</ele>
        <time>2014-05-20T19:11:54Z</time>
      </trkpt>
      <trkpt lat="59.8307276" lon="17.6447166">
        <ele>54.4518</ele>
        <time>2014-05-20T19:11:55Z</time>
      </trkpt>
      <trkpt lat="59.8307524" lon="17.6446989">
        <ele>54.4518</ele>
        <time>2014-05-20T19:11:56Z</time>
      </trkpt>
      <trkpt lat="59.8307701" lon="17.6446884">
        <ele>53.4905</ele>
        <time>2014-05-20T19:11:57Z</time>
      </trkpt>
      <trkpt lat="59.8307971" lon="17.6446766">
        <ele>53.0098</ele>
        <time>2014-05-20T19:11:58Z</time>
      </trkpt>
      <trkpt lat="59.8308163" lon="17.6446616">
        <ele>52.0486</ele>
        <time>2014-05-20T19:11:59Z</time>
      </trkpt>
      <trkpt lat="59.830837" lon="17.6446402">
        <ele>50.6066</ele>
        <time>2014-05-20T19:12:00Z</time>
      </trkpt>
      <trkpt lat="59.8308661" lon="17.6446078">
        <ele>51.5679</ele>
        <time>2014-05-20T19:12:01Z</time>
      </trkpt>
      <trkpt lat="59.8308904" lon="17.6445771">
        <ele>51.0872</ele>
        <time>2014-05-20T19:12:02Z</time>
      </trkpt>
      <trkpt lat="59.8309225" lon="17.644551">
        <ele>51.5679</ele>
        <time>2014-05-20T19:12:03Z</time>
      </trkpt>
      <trkpt lat="59.8309501" lon="17.6445164">
        <ele>52.0486</ele>
        <time>2014-05-20T19:12:04Z</time>
      </trkpt>
      <trkpt lat="59.8309682" lon="17.6444818">
        <ele>51.0872</ele>
        <time>2014-05-20T19:12:05Z</time>
      </trkpt>
      <trkpt lat="59.8309878" lon="17.6444445">
        <ele>50.6066</ele>
        <time>2014-05-20T19:12:06Z</time>
      </trkpt>
      <trkpt lat="59.8310068" lon="17.644415">
        <ele>50.126</ele>
        <time>2014-05-20T19:12:07Z</time>
      </trkpt>
      <trkpt lat="59.8310473" lon="17.6443832">
        <ele>52.5292</ele>
        <time>2014-05-20T19:12:08Z</time>
      </trkpt>
      <trkpt lat="59.8310764" lon="17.6443677">
        <ele>53.0098</ele>
        <time>2014-05-20T19:12:09Z</time>
      </trkpt>
      <trkpt lat="59.8311069" lon="17.6443366">
        <ele>53.9712</ele>
        <time>2014-05-20T19:12:10Z</time>
      </trkpt>
      <trkpt lat="59.8311445" lon="17.6443088">
        <ele>55.4131</ele>
        <time>2014-05-20T19:12:11Z</time>
      </trkpt>
      <trkpt lat="59.8311696" lon="17.6442817">
        <ele>54.9324</ele>
        <time>2014-05-20T19:12:12Z</time>
      </trkpt>
      <trkpt lat="59.8311885" lon="17.6442596">
        <ele>53.9712</ele>
        <time>2014-05-20T19:12:13Z</time>
      </trkpt>
      <trkpt lat="59.8312091" lon="17.6442435">
        <ele>53.4905</ele>
        <time>2014-05-20T19:12:14Z</time>
      </trkpt>
      <trkpt lat="59.83123" lon="17.6442236">
        <ele>53.0098</ele>
        <time>2014-05-20T19:12:15Z</time>
      </trkpt>
      <trkpt lat="59.831256" lon="17.6442011">
        <ele>52.5292</ele>
        <time>2014-05-20T19:12:16Z</time>
      </trkpt>
      <trkpt lat="59.831268" lon="17.6441809">
        <ele>50.6066</ele>
        <time>2014-05-20T19:12:17Z</time>
      </trkpt>
      <trkpt lat="59.8312893" lon="17.6441493">
        <ele>50.126</ele>
        <time>2014-05-20T19:12:18Z</time>
      </trkpt>
      <trkpt lat="59.8313067" lon="17.644127">
        <ele>49.1646</ele>
        <time>2014-05-20T19:12:19Z</time>
      </trkpt>
      <trkpt lat="59.8313229" lon="17.644112">
        <ele>48.2034</ele>
        <time>2014-05-20T19:12:20Z</time>
      </trkpt>
      <trkpt lat="59.8313357" lon="17.6440963">
        <ele>46.7612</ele>
        <time>2014-05-20T19:12:21Z</time>
      </trkpt>
      <trkpt lat="59.8313571" lon="17.644085">
        <ele>45.7999</ele>
        <time>2014-05-20T19:12:22Z</time>
      </trkpt>
      <trkpt lat="59.8313861" lon="17.6440696">
        <ele>45.3192</ele>
        <time>2014-05-20T19:12:23Z</time>
      </trkpt>
      <trkpt lat="59.8314027" lon="17.644055">
        <ele>43.8773</ele>
        <time>2014-05-20T19:12:24Z</time>
      </trkpt>
      <trkpt lat="59.8314208" lon="17.6440379">
        <ele>42.916</ele>
        <time>2014-05-20T19:12:25Z</time>
      </trkpt>
      <trkpt lat="59.8314411" lon="17.6440135">
        <ele>42.4354</ele>
        <time>2014-05-20T19:12:26Z</time>
      </trkpt>
      <trkpt lat="59.8314615" lon="17.6439829">
        <ele>41.9547</ele>
        <time>2014-05-20T19:12:27Z</time>
      </trkpt>
      <trkpt lat="59.8314829" lon="17.6439663">
        <ele>41.474</ele>
        <time>2014-05-20T19:12:28Z</time>
      </trkpt>
      <trkpt lat="59.8315113" lon="17.6439388">
        <ele>41.9547</ele>
        <time>2014-05-20T19:12:29Z</time>
      </trkpt>
      <trkpt lat="59.8315273" lon="17.6439163">
        <ele>40.9934</ele>
        <time>2014-05-20T19:12:30Z</time>
      </trkpt>
      <trkpt lat="59.8315378" lon="17.6439037">
        <ele>39.5513</ele>
        <time>2014-05-20T19:12:31Z</time>
      </trkpt>
      <trkpt lat="59.831555" lon="17.643885">
        <ele>39.5513</ele>
        <time>2014-05-20T19:12:32Z</time>
      </trkpt>
      <trkpt lat="59.831574" lon="17.6438664">
        <ele>38.5901</ele>
        <time>2014-05-20T19:12:33Z</time>
      </trkpt>
      <trkpt lat="59.8316057" lon="17.6438352">
        <ele>39.0707</ele>
        <time>2014-05-20T19:12:34Z</time>
      </trkpt>
      <trkpt lat="59.8316356" lon="17.6438272">
        <ele>39.0707</ele>
        <time>2014-05-20T19:12:35Z</time>
      </trkpt>
      <trkpt lat="59.8316695" lon="17.6438156">
        <ele>40.5128</ele>
        <time>2014-05-20T19:12:36Z</time>
      </trkpt>
      <trkpt lat="59.8316974" lon="17.6437844">
        <ele>40.9934</ele>
        <time>2014-05-20T19:12:37Z</time>
      </trkpt>
      <trkpt lat="59.8317223" lon="17.6437685">
        <ele>40.0321</ele>
        <time>2014-05-20T19:12:38Z</time>
      </trkpt>
      <trkpt lat="59.8317559" lon="17.6437463">
        <ele>41.9547</ele>
        <time>2014-05-20T19:12:39Z</time>
      </trkpt>
      <trkpt lat="59.8317732" lon="17.643717">
        <ele>41.474</ele>
        <time>2014-05-20T19:12:40Z</time>
      </trkpt>
      <trkpt lat="59.8317974" lon="17.6436818">
        <ele>41.474</ele>
        <time>2014-05-20T19:12:41Z</time>
      </trkpt>
      <trkpt lat="59.8318193" lon="17.6436448">
        <ele>41.474</ele>
        <time>2014-05-20T19:12:42Z</time>
      </trkpt>
      <trkpt lat="59.8318337" lon="17.6436167">
        <ele>40.5128</ele>
        <time>2014-05-20T19:12:43Z</time>
      </trkpt>
      <trkpt lat="59.8318633" lon="17.6435967">
        <ele>40.5128</ele>
        <time>2014-05-20T19:12:44Z</time>
      </trkpt>
      <trkpt lat="59.8318813" lon="17.6435679">
        <ele>39.0707</ele>
        <time>2014-05-20T19:12:45Z</time>
      </trkpt>
      <trkpt lat="59.8319005" lon="17.6435447">
        <ele>38.1094</ele>
        <time>2014-05-20T19:12:46Z</time>
      </trkpt>
      <trkpt lat="59.8319185" lon="17.6435099">
        <ele>37.6287</ele>
        <time>2014-05-20T19:12:47Z</time>
      </trkpt>
      <trkpt lat="59.83193" lon="17.6434769">
        <ele>36.6675</ele>
        <time>2014-05-20T19:12:48Z</time>
      </trkpt>
      <trkpt lat="59.8319409" lon="17.6434395">
        <ele>35.7061</ele>
        <time>2014-05-20T19:12:49Z</time>
      </trkpt>
      <trkpt lat="59.8319522" lon="17.643395">
        <ele>34.7449</ele>
        <time>2014-05-20T19:12:50Z</time>
      </trkpt>
      <trkpt lat="59.8319596" lon="17.6433597">
        <ele>33.3029</ele>
        <time>2014-05-20T19:12:51Z</time>
      </trkpt>
      <trkpt lat="59.8319672" lon="17.643321">
        <ele>32.3416</ele>
        <time>2014-05-20T19:12:52Z</time>
      </trkpt>
      <trkpt lat="59.8319757" lon="17.6432772">
        <ele>31.8607</ele>
        <time>2014-05-20T19:12:53Z</time>
      </trkpt>
      <trkpt lat="59.8319875" lon="17.6432365">
        <ele>31.3801</ele>
        <time>2014-05-20T19:12:54Z</time>
      </trkpt>
      <trkpt lat="59.8320021" lon="17.6431965">
        <ele>30.8995</ele>
        <time>2014-05-20T19:12:55Z</time>
      </trkpt>
      <trkpt lat="59.8320179" lon="17.6431685">
        <ele>30.8995</ele>
        <time>2014-05-20T19:12:56Z</time>
      </trkpt>
      <trkpt lat="59.8320363" lon="17.6431397">
        <ele>30.8995</ele>
        <time>2014-05-20T19:12:57Z</time>
      </trkpt>
      <trkpt lat="59.8320554" lon="17.6431143">
        <ele>29.9381</ele>
        <time>2014-05-20T19:12:58Z</time>
      </trkpt>
      <trkpt lat="59.8320788" lon="17.6430894">
        <ele>29.4575</ele>
        <time>2014-05-20T19:12:59Z</time>
      </trkpt>
      <trkpt lat="59.8321015" lon="17.6430595">
        <ele>29.4575</ele>
        <time>2014-05-20T19:13:00Z</time>
      </trkpt>
      <trkpt lat="59.8321244" lon="17.6430288">
        <ele>28.9769</ele>
        <time>2014-05-20T19:13:01Z</time>
      </trkpt>
      <trkpt lat="59.8321524" lon="17.643005">
        <ele>29.4575</ele>
        <time>2014-05-20T19:13:02Z</time>
      </trkpt>
      <trkpt lat="59.8321749" lon="17.6429877">
        <ele>28.9769</ele>
        <time>2014-05-20T19:13:03Z</time>
      </trkpt>
      <trkpt lat="59.8321901" lon="17.6429678">
        <ele>28.9769</ele>
        <time>2014-05-20T19:13:04Z</time>
      </trkpt>
      <trkpt lat="59.8322061" lon="17.6429489">
        <ele>28.9769</ele>
        <time>2014-05-20T19:13:05Z</time>
      </trkpt>
      <trkpt lat="59.8322252" lon="17.6429282">
        <ele>28.4962</ele>
        <time>2014-05-20T19:13:06Z</time>
      </trkpt>
      <trkpt lat="59.8322522" lon="17.6429134">
        <ele>29.4575</ele>
        <time>2014-05-20T19:13:07Z</time>
      </trkpt>
      <trkpt lat="59.8322842" lon="17.6429034">
        <ele>30.4188</ele>
        <time>2014-05-20T19:13:08Z</time>
      </trkpt>
      <trkpt lat="59.8323133" lon="17.6428958">
        <ele>30.8995</ele>
        <time>2014-05-20T19:13:09Z</time>
      </trkpt>
      <trkpt lat="59.8323414" lon="17.6428884">
        <ele>31.3801</ele>
        <time>2014-05-20T19:13:10Z</time>
      </trkpt>
      <trkpt lat="59.832374" lon="17.6428861">
        <ele>31.8607</ele>
        <time>2014-05-20T19:13:11Z</time>
      </trkpt>
      <trkpt lat="59.8324013" lon="17.642883">
        <ele>31.8607</ele>
        <time>2014-05-20T19:13:12Z</time>
      </trkpt>
      <trkpt lat="59.8324271" lon="17.642876">
        <ele>32.3416</ele>
        <time>2014-05-20T19:13:13Z</time>
      </trkpt>
      <trkpt lat="59.8324548" lon="17.6428713">
        <ele>32.8223</ele>
        <time>2014-05-20T19:13:14Z</time>
      </trkpt>
      <trkpt lat="59.8324905" lon="17.6428634">
        <ele>33.7834</ele>
        <time>2014-05-20T19:13:15Z</time>
      </trkpt>
      <trkpt lat="59.83253" lon="17.642853">
        <ele>35.2255</ele>
        <time>2014-05-20T19:13:16Z</time>
      </trkpt>
      <trkpt lat="59.8325608" lon="17.6428418">
        <ele>36.1868</ele>
        <time>2014-05-20T19:13:17Z</time>
      </trkpt>
      <trkpt lat="59.8325867" lon="17.6428385">
        <ele>36.1868</ele>
        <time>2014-05-20T19:13:18Z</time>
      </trkpt>
      <trkpt lat="59.8326239" lon="17.6428344">
        <ele>37.6287</ele>
        <time>2014-05-20T19:13:19Z</time>
      </trkpt>
      <trkpt lat="59.8326615" lon="17.6428338">
        <ele>38.5901</ele>
        <time>2014-05-20T19:13:20Z</time>
      </trkpt>
      <trkpt lat="59.8326884" lon="17.6428402">
        <ele>38.5901</ele>
        <time>2014-05-20T19:13:21Z</time>
      </trkpt>
      <trkpt lat="59.8327138" lon="17.6428505">
        <ele>38.5901</ele>
        <time>2014-05-20T19:13:22Z</time>
      </trkpt>
      <trkpt lat="59.8327391" lon="17.6428639">
        <ele>39.0707</ele>
        <time>2014-05-20T19:13:23Z</time>
      </trkpt>
      <trkpt lat="59.8327654" lon="17.6428732">
        <ele>39.5513</ele>
        <time>2014-05-20T19:13:24Z</time>
      </trkpt>
      <trkpt lat="59.83279" lon="17.6428935">
        <ele>40.0321</ele>
        <time>2014-05-20T19:13:25Z</time>
      </trkpt>
      <trkpt lat="59.8328231" lon="17.642919">
        <ele>41.9547</ele>
        <time>2014-05-20T19:13:26Z</time>
      </trkpt>
      <trkpt lat="59.832861" lon="17.6429414">
        <ele>43.3966</ele>
        <time>2014-05-20T19:13:27Z</time>
      </trkpt>
      <trkpt lat="59.8329023" lon="17.6429473">
        <ele>45.3192</ele>
        <time>2014-05-20T19:13:28Z</time>
      </trkpt>
      <trkpt lat="59.8329324" lon="17.6429614">
        <ele>45.7999</ele>
        <time>2014-05-20T19:13:29Z</time>
      </trkpt>
      <trkpt lat="59.832955" lon="17.6429768">
        <ele>45.3192</ele>
        <time>2014-05-20T19:13:30Z</time>
      </trkpt>
      <trkpt lat="59.832985" lon="17.6429867">
        <ele>46.2806</ele>
        <time>2014-05-20T19:13:31Z</time>
      </trkpt>
      <trkpt lat="59.8330163" lon="17.6430059">
        <ele>47.2418</ele>
        <time>2014-05-20T19:13:32Z</time>
      </trkpt>
      <trkpt lat="59.8330452" lon="17.6430303">
        <ele>47.7225</ele>
        <time>2014-05-20T19:13:33Z</time>
      </trkpt>
      <trkpt lat="59.8330722" lon="17.6430529">
        <ele>48.684</ele>
        <time>2014-05-20T19:13:34Z</time>
      </trkpt>
      <trkpt lat="59.8330974" lon="17.6430675">
        <ele>49.1646</ele>
        <time>2014-05-20T19:13:35Z</time>
      </trkpt>
      <trkpt lat="59.8331214" lon="17.6430789">
        <ele>49.1646</ele>
        <time>2014-05-20T19:13:36Z</time>
      </trkpt>
      <trkpt lat="59.8331539" lon="17.6430856">
        <ele>50.6066</ele>
        <time>2014-05-20T19:13:37Z</time>
      </trkpt>
      <trkpt lat="59.83318" lon="17.6430954">
        <ele>50.6066</ele>
        <time>2014-05-20T19:13:38Z</time>
      </trkpt>
      <trkpt lat="59.8332081" lon="17.6431033">
        <ele>51.0872</ele>
        <time>2014-05-20T19:13:39Z</time>
      </trkpt>
      <trkpt lat="59.8332436" lon="17.6431075">
        <ele>52.0486</ele>
        <time>2014-05-20T19:13:40Z</time>
      </trkpt>
      <trkpt lat="59.8332653" lon="17.643119">
        <ele>51.5679</ele>
        <time>2014-05-20T19:13:41Z</time>
      </trkpt>
      <trkpt lat="59.8332883" lon="17.643131">
        <ele>51.5679</ele>
        <time>2014-05-20T19:13:42Z</time>
      </trkpt>
      <trkpt lat="59.8333151" lon="17.6431412">
        <ele>51.5679</ele>
        <time>2014-05-20T19:13:43Z</time>
      </trkpt>
      <trkpt lat="59.8333286" lon="17.6431479">
        <ele>50.126</ele>
        <time>2014-05-20T19:13:44Z</time>
      </trkpt>
      <trkpt lat="59.833354" lon="17.6431417">
        <ele>50.126</ele>
        <time>2014-05-20T19:13:45Z</time>
      </trkpt>
      <trkpt lat="59.8333947" lon="17.6431286">
        <ele>51.5679</ele>
        <time>2014-05-20T19:13:46Z</time>
      </trkpt>
      <trkpt lat="59.8334343" lon="17.6431188">
        <ele>52.5292</ele>
        <time>2014-05-20T19:13:47Z</time>
      </trkpt>
      <trkpt lat="59.8334701" lon="17.6431068">
        <ele>53.4905</ele>
        <time>2014-05-20T19:13:48Z</time>
      </trkpt>
      <trkpt lat="59.8335063" lon="17.6430904">
        <ele>54.9324</ele>
        <time>2014-05-20T19:13:49Z</time>
      </trkpt>
      <trkpt lat="59.8335465" lon="17.6430666">
        <ele>57.3358</ele>
        <time>2014-05-20T19:13:50Z</time>
      </trkpt>
      <trkpt lat="59.8335729" lon="17.6430385">
        <ele>57.8165</ele>
        <time>2014-05-20T19:13:51Z</time>
      </trkpt>
      <trkpt lat="59.8335969" lon="17.6430213">
        <ele>57.3358</ele>
        <time>2014-05-20T19:13:52Z</time>
      </trkpt>
      <trkpt lat="59.8336155" lon="17.6430116">
        <ele>55.8938</ele>
        <time>2014-05-20T19:13:53Z</time>
      </trkpt>
      <trkpt lat="59.8336339" lon="17.6429918">
        <ele>54.9324</ele>
        <time>2014-05-20T19:13:54Z</time>
      </trkpt>
      <trkpt lat="59.8336509" lon="17.6429696">
        <ele>53.4905</ele>
        <time>2014-05-20T19:13:55Z</time>
      </trkpt>
      <trkpt lat="59.8336698" lon="17.6429414">
        <ele>52.0486</ele>
        <time>2014-05-20T19:13:56Z</time>
      </trkpt>
      <trkpt lat="59.8336887" lon="17.642901">
        <ele>51.0872</ele>
        <time>2014-05-20T19:13:57Z</time>
      </trkpt>
      <trkpt lat="59.8337033" lon="17.6428628">
        <ele>50.126</ele>
        <time>2014-05-20T19:13:58Z</time>
      </trkpt>
      <trkpt lat="59.8337195" lon="17.6428346">
        <ele>48.684</ele>
        <time>2014-05-20T19:13:59Z</time>
      </trkpt>
      <trkpt lat="59.8337352" lon="17.6428095">
        <ele>48.2034</ele>
        <time>2014-05-20T19:14:00Z</time>
      </trkpt>
      <trkpt lat="59.8337511" lon="17.6427888">
        <ele>47.2418</ele>
        <time>2014-05-20T19:14:01Z</time>
      </trkpt>
      <trkpt lat="59.8337669" lon="17.6427613">
        <ele>46.2806</ele>
        <time>2014-05-20T19:14:02Z</time>
      </trkpt>
      <trkpt lat="59.8337815" lon="17.6427238">
        <ele>45.7999</ele>
        <time>2014-05-20T19:14:03Z</time>
      </trkpt>
      <trkpt lat="59.8338017" lon="17.6426849">
        <ele>45.7999</ele>
        <time>2014-05-20T19:14:04Z</time>
      </trkpt>
      <trkpt lat="59.8338218" lon="17.6426486">
        <ele>45.7999</ele>
        <time>2014-05-20T19:14:05Z</time>
      </trkpt>
      <trkpt lat="59.8338472" lon="17.6426154">
        <ele>44.8386</ele>
        <time>2014-05-20T19:14:06Z</time>
      </trkpt>
      <trkpt lat="59.8338727" lon="17.6425798">
        <ele>44.358</ele>
        <time>2014-05-20T19:14:07Z</time>
      </trkpt>
      <trkpt lat="59.8338959" lon="17.6425474">
        <ele>44.358</ele>
        <time>2014-05-20T19:14:08Z</time>
      </trkpt>
      <trkpt lat="59.833932" lon="17.6425134">
        <ele>44.8386</ele>
        <time>2014-05-20T19:14:09Z</time>
      </trkpt>
      <trkpt lat="59.833958" lon="17.6424764">
        <ele>44.358</ele>
        <time>2014-05-20T19:14:10Z</time>
      </trkpt>
      <trkpt lat="59.8339823" lon="17.6424931">
        <ele>41.474</ele>
        <time>2014-05-20T19:14:11Z</time>
      </trkpt>
      <trkpt lat="59.8340184" lon="17.6424634">
        <ele>42.916</ele>
        <time>2014-05-20T19:14:12Z</time>
      </trkpt>
      <trkpt lat="59.8340413" lon="17.6424476">
        <ele>43.3966</ele>
        <time>2014-05-20T19:14:13Z</time>
      </trkpt>
      <trkpt lat="59.8340501" lon="17.6424232">
        <ele>42.4354</ele>
        <time>2014-05-20T19:14:14Z</time>
      </trkpt>
      <trkpt lat="59.8340668" lon="17.6424018">
        <ele>41.474</ele>
        <time>2014-05-20T19:14:15Z</time>
      </trkpt>
      <trkpt lat="59.8340901" lon="17.6423828">
        <ele>40.9934</ele>
        <time>2014-05-20T19:14:16Z</time>
      </trkpt>
      <trkpt lat="59.8341132" lon="17.6423773">
        <ele>40.5128</ele>
        <time>2014-05-20T19:14:17Z</time>
      </trkpt>
      <trkpt lat="59.8341378" lon="17.6423632">
        <ele>40.5128</ele>
        <time>2014-05-20T19:14:18Z</time>
      </trkpt>
      <trkpt lat="59.8341595" lon="17.6423485">
        <ele>40.0321</ele>
        <time>2014-05-20T19:14:19Z</time>
      </trkpt>
      <trkpt lat="59.8341833" lon="17.6423275">
        <ele>39.0707</ele>
        <time>2014-05-20T19:14:20Z</time>
      </trkpt>
      <trkpt lat="59.8342025" lon="17.6422943">
        <ele>37.6287</ele>
        <time>2014-05-20T19:14:21Z</time>
      </trkpt>
      <trkpt lat="59.8342309" lon="17.6422756">
        <ele>37.6287</ele>
        <time>2014-05-20T19:14:22Z</time>
      </trkpt>
      <trkpt lat="59.8342567" lon="17.6422635">
        <ele>36.6675</ele>
        <time>2014-05-20T19:14:23Z</time>
      </trkpt>
      <trkpt lat="59.8342802" lon="17.6422492">
        <ele>36.1868</ele>
        <time>2014-05-20T19:14:24Z</time>
      </trkpt>
      <trkpt lat="59.8343015" lon="17.6422381">
        <ele>35.2255</ele>
        <time>2014-05-20T19:14:25Z</time>
      </trkpt>
      <trkpt lat="59.8343253" lon="17.6422273">
        <ele>35.2255</ele>
        <time>2014-05-20T19:14:26Z</time>
      </trkpt>
      <trkpt lat="59.8343543" lon="17.642217">
        <ele>35.2255</ele>
        <time>2014-05-20T19:14:27Z</time>
      </trkpt>
      <trkpt lat="59.8343855" lon="17.6421907">
        <ele>36.6675</ele>
        <time>2014-05-20T19:14:28Z</time>
      </trkpt>
      <trkpt lat="59.8344175" lon="17.6421782">
        <ele>37.1481</ele>
        <time>2014-05-20T19:14:29Z</time>
      </trkpt>
      <trkpt lat="59.8344455" lon="17.6421693">
        <ele>37.1481</ele>
        <time>2014-05-20T19:14:30Z</time>
      </trkpt>
      <trkpt lat="59.8344709" lon="17.6421627">
        <ele>36.6675</ele>
        <time>2014-05-20T19:14:31Z</time>
      </trkpt>
      <trkpt lat="59.8345051" lon="17.6421632">
        <ele>37.6287</ele>
        <time>2014-05-20T19:14:32Z</time>
      </trkpt>
      <trkpt lat="59.8345319" lon="17.6421777">
        <ele>38.5901</ele>
        <time>2014-05-20T19:14:33Z</time>
      </trkpt>
      <trkpt lat="59.8345605" lon="17.6421932">
        <ele>39.0707</ele>
        <time>2014-05-20T19:14:34Z</time>
      </trkpt>
      <trkpt lat="59.8345821" lon="17.6422103">
        <ele>39.0707</ele>
        <time>2014-05-20T19:14:35Z</time>
      </trkpt>
      <trkpt lat="59.8345986" lon="17.6422341">
        <ele>38.5901</ele>
        <time>2014-05-20T19:14:36Z</time>
      </trkpt>
      <trkpt lat="59.8346302" lon="17.6422509">
        <ele>40.0321</ele>
        <time>2014-05-20T19:14:37Z</time>
      </trkpt>
      <trkpt lat="59.834662" lon="17.6422647">
        <ele>41.474</ele>
        <time>2014-05-20T19:14:38Z</time>
      </trkpt>
      <trkpt lat="59.8346807" lon="17.642284">
        <ele>41.9547</ele>
        <time>2014-05-20T19:14:39Z</time>
      </trkpt>
      <trkpt lat="59.8347117" lon="17.6422995">
        <ele>42.916</ele>
        <time>2014-05-20T19:14:40Z</time>
      </trkpt>
      <trkpt lat="59.8347369" lon="17.642315">
        <ele>43.8773</ele>
        <time>2014-05-20T19:14:41Z</time>
      </trkpt>
      <trkpt lat="59.834752" lon="17.6423347">
        <ele>43.8773</ele>
        <time>2014-05-20T19:14:42Z</time>
      </trkpt>
      <trkpt lat="59.8347687" lon="17.642361">
        <ele>43.3966</ele>
        <time>2014-05-20T19:14:43Z</time>
      </trkpt>
      <trkpt lat="59.8347926" lon="17.642387">
        <ele>43.8773</ele>
        <time>2014-05-20T19:14:44Z</time>
      </trkpt>
      <trkpt lat="59.83482" lon="17.6424123">
        <ele>44.358</ele>
        <time>2014-05-20T19:14:45Z</time>
      </trkpt>
      <trkpt lat="59.8348504" lon="17.6424316">
        <ele>45.3192</ele>
        <time>2014-05-20T19:14:46Z</time>
      </trkpt>
      <trkpt lat="59.8348742" lon="17.6424557">
        <ele>45.7999</ele>
        <time>2014-05-20T19:14:47Z</time>
      </trkpt>
      <trkpt lat="59.8349063" lon="17.6424743">
        <ele>46.7612</ele>
        <time>2014-05-20T19:14:48Z</time>
      </trkpt>
      <trkpt lat="59.8349381" lon="17.6424917">
        <ele>47.2418</ele>
        <time>2014-05-20T19:14:49Z</time>
      </trkpt>
      <trkpt lat="59.8349622" lon="17.6425102">
        <ele>47.7225</ele>
        <time>2014-05-20T19:14:50Z</time>
      </trkpt>
      <trkpt lat="59.8349864" lon="17.6425321">
        <ele>48.684</ele>
        <time>2014-05-20T19:14:51Z</time>
      </trkpt>
      <trkpt lat="59.8350089" lon="17.6425564">
        <ele>49.1646</ele>
        <time>2014-05-20T19:14:52Z</time>
      </trkpt>
      <trkpt lat="59.8350296" lon="17.6425717">
        <ele>49.1646</ele>
        <time>2014-05-20T19:14:53Z</time>
      </trkpt>
      <trkpt lat="59.8350505" lon="17.6425961">
        <ele>50.126</ele>
        <time>2014-05-20T19:14:54Z</time>
      </trkpt>
      <trkpt lat="59.8350623" lon="17.6426268">
        <ele>50.6066</ele>
        <time>2014-05-20T19:14:55Z</time>
      </trkpt>
      <trkpt lat="59.8350786" lon="17.642648">
        <ele>50.126</ele>
        <time>2014-05-20T19:14:56Z</time>
      </trkpt>
      <trkpt lat="59.8351069" lon="17.6426631">
        <ele>51.0872</ele>
        <time>2014-05-20T19:14:57Z</time>
      </trkpt>
      <trkpt lat="59.8351427" lon="17.6426899">
        <ele>53.0098</ele>
        <time>2014-05-20T19:14:58Z</time>
      </trkpt>
      <trkpt lat="59.8351889" lon="17.6427076">
        <ele>53.9712</ele>
        <time>2014-05-20T19:14:59Z</time>
      </trkpt>
      <trkpt lat="59.8352267" lon="17.6427413">
        <ele>55.4131</ele>
        <time>2014-05-20T19:15:00Z</time>
      </trkpt>
      <trkpt lat="59.8352464" lon="17.6427781">
        <ele>54.9324</ele>
        <time>2014-05-20T19:15:01Z</time>
      </trkpt>
      <trkpt lat="59.8352639" lon="17.6428095">
        <ele>53.9712</ele>
        <time>2014-05-20T19:15:02Z</time>
      </trkpt>
      <trkpt lat="59.8352814" lon="17.6428464">
        <ele>53.4905</ele>
        <time>2014-05-20T19:15:03Z</time>
      </trkpt>
      <trkpt lat="59.8353067" lon="17.6428827">
        <ele>53.4905</ele>
        <time>2014-05-20T19:15:04Z</time>
      </trkpt>
      <trkpt lat="59.835329" lon="17.6429143">
        <ele>52.5292</ele>
        <time>2014-05-20T19:15:05Z</time>
      </trkpt>
      <trkpt lat="59.8353468" lon="17.642948">
        <ele>53.0098</ele>
        <time>2014-05-20T19:15:06Z</time>
      </trkpt>
      <trkpt lat="59.8353593" lon="17.6429828">
        <ele>52.0486</ele>
        <time>2014-05-20T19:15:07Z</time>
      </trkpt>
      <trkpt lat="59.8353737" lon="17.6430303">
        <ele>52.0486</ele>
        <time>2014-05-20T19:15:08Z</time>
      </trkpt>
      <trkpt lat="59.8353955" lon="17.6430744">
        <ele>52.5292</ele>
        <time>2014-05-20T19:15:09Z</time>
      </trkpt>
      <trkpt lat="59.8354132" lon="17.6431203">
        <ele>52.5292</ele>
        <time>2014-05-20T19:15:10Z</time>
      </trkpt>
      <trkpt lat="59.835437" lon="17.6431589">
        <ele>52.5292</ele>
        <time>2014-05-20T19:15:11Z</time>
      </trkpt>
      <trkpt lat="59.8354556" lon="17.6431966">
        <ele>51.5679</ele>
        <time>2014-05-20T19:15:12Z</time>
      </trkpt>
      <trkpt lat="59.8354696" lon="17.6432391">
        <ele>51.0872</ele>
        <time>2014-05-20T19:15:13Z</time>
      </trkpt>
      <trkpt lat="59.8354867" lon="17.6432795">
        <ele>51.0872</ele>
        <time>2014-05-20T19:15:14Z</time>
      </trkpt>
      <trkpt lat="59.8355048" lon="17.6433127">
        <ele>50.6066</ele>
        <time>2014-05-20T19:15:15Z</time>
      </trkpt>
      <trkpt lat="59.8355248" lon="17.643336">
        <ele>50.126</ele>
        <time>2014-05-20T19:15:16Z</time>
      </trkpt>
      <trkpt lat="59.8355493" lon="17.6433663">
        <ele>50.6066</ele>
        <time>2014-05-20T19:15:17Z</time>
      </trkpt>
      <trkpt lat="59.8355757" lon="17.6433914">
        <ele>50.126</ele>
        <time>2014-05-20T19:15:18Z</time>
      </trkpt>
      <trkpt lat="59.8356001" lon="17.6434132">
        <ele>50.126</ele>
        <time>2014-05-20T19:15:19Z</time>
      </trkpt>
      <trkpt lat="59.8356238" lon="17.6434317">
        <ele>50.126</ele>
        <time>2014-05-20T19:15:20Z</time>
      </trkpt>
      <trkpt lat="59.8356455" lon="17.643452">
        <ele>50.126</ele>
        <time>2014-05-20T19:15:21Z</time>
      </trkpt>
      <trkpt lat="59.8356691" lon="17.6434661">
        <ele>50.126</ele>
        <time>2014-05-20T19:15:22Z</time>
      </trkpt>
      <trkpt lat="59.8356911" lon="17.6434752">
        <ele>49.6453</ele>
        <time>2014-05-20T19:15:23Z</time>
      </trkpt>
      <trkpt lat="59.8357111" lon="17.6434907">
        <ele>49.1646</ele>
        <time>2014-05-20T19:15:24Z</time>
      </trkpt>
      <trkpt lat="59.8357341" lon="17.6435089">
        <ele>50.6066</ele>
        <time>2014-05-20T19:15:25Z</time>
      </trkpt>
      <trkpt lat="59.8357492" lon="17.6435168">
        <ele>50.126</ele>
        <time>2014-05-20T19:15:26Z</time>
      </trkpt>
      <trkpt lat="59.8357695" lon="17.6435233">
        <ele>50.126</ele>
        <time>2014-05-20T19:15:27Z</time>
      </trkpt>
      <trkpt lat="59.8357865" lon="17.6435225">
        <ele>50.126</ele>
        <time>2014-05-20T19:15:28Z</time>
      </trkpt>
      <trkpt lat="59.8358088" lon="17.643527">
        <ele>50.6066</ele>
        <time>2014-05-20T19:15:29Z</time>
      </trkpt>
      <trkpt lat="59.8358383" lon="17.6435271">
        <ele>50.6066</ele>
        <time>2014-05-20T19:15:30Z</time>
      </trkpt>
      <trkpt lat="59.8358576" lon="17.6435155">
        <ele>50.126</ele>
        <time>2014-05-20T19:15:31Z</time>
      </trkpt>
      <trkpt lat="59.8358679" lon="17.6435067">
        <ele>50.126</ele>
        <time>2014-05-20T19:15:32Z</time>
      </trkpt>
      <trkpt lat="59.835883" lon="17.6434925">
        <ele>50.126</ele>
        <time>2014-05-20T19:15:33Z</time>
      </trkpt>
      <trkpt lat="59.8359021" lon="17.6434691">
        <ele>49.1646</ele>
        <time>2014-05-20T19:15:34Z</time>
      </trkpt>
      <trkpt lat="59.8359221" lon="17.6434385">
        <ele>48.684</ele>
        <time>2014-05-20T19:15:35Z</time>
      </trkpt>
      <trkpt lat="59.8359512" lon="17.6434075">
        <ele>49.1646</ele>
        <time>2014-05-20T19:15:36Z</time>
      </trkpt>
      <trkpt lat="59.8359679" lon="17.6433698">
        <ele>48.684</ele>
        <time>2014-05-20T19:15:37Z</time>
      </trkpt>
      <trkpt lat="59.835981" lon="17.6433303">
        <ele>47.2418</ele>
        <time>2014-05-20T19:15:38Z</time>
      </trkpt>
      <trkpt lat="59.8359972" lon="17.6433028">
        <ele>46.2806</ele>
        <time>2014-05-20T19:15:39Z</time>
      </trkpt>
      <trkpt lat="59.836016" lon="17.643283">
        <ele>46.7612</ele>
        <time>2014-05-20T19:15:40Z</time>
      </trkpt>
      <trkpt lat="59.8360324" lon="17.6432643">
        <ele>45.7999</ele>
        <time>2014-05-20T19:15:41Z</time>
      </trkpt>
      <trkpt lat="59.8360513" lon="17.6432464">
        <ele>45.7999</ele>
        <time>2014-05-20T19:15:42Z</time>
      </trkpt>
      <trkpt lat="59.8360783" lon="17.6432298">
        <ele>46.7612</ele>
        <time>2014-05-20T19:15:43Z</time>
      </trkpt>
      <trkpt lat="59.8361016" lon="17.6432075">
        <ele>47.2418</ele>
        <time>2014-05-20T19:15:44Z</time>
      </trkpt>
      <trkpt lat="59.8361208" lon="17.6431878">
        <ele>48.2034</ele>
        <time>2014-05-20T19:15:45Z</time>
      </trkpt>
      <trkpt lat="59.8361311" lon="17.6431576">
        <ele>47.7225</ele>
        <time>2014-05-20T19:15:46Z</time>
      </trkpt>
      <trkpt lat="59.8361516" lon="17.6431204">
        <ele>48.684</ele>
        <time>2014-05-20T19:15:47Z</time>
      </trkpt>
      <trkpt lat="59.8361689" lon="17.6430951">
        <ele>48.684</ele>
        <time>2014-05-20T19:15:48Z</time>
      </trkpt>
      <trkpt lat="59.8361802" lon="17.6430732">
        <ele>47.2418</ele>
        <time>2014-05-20T19:15:49Z</time>
      </trkpt>
      <trkpt lat="59.8361877" lon="17.6430457">
        <ele>46.2806</ele>
        <time>2014-05-20T19:15:50Z</time>
      </trkpt>
      <trkpt lat="59.8361938" lon="17.6430201">
        <ele>44.358</ele>
        <time>2014-05-20T19:15:51Z</time>
      </trkpt>
      <trkpt lat="59.8362134" lon="17.642988">
        <ele>44.358</ele>
        <time>2014-05-20T19:15:52Z</time>
      </trkpt>
      <trkpt lat="59.8362298" lon="17.6429588">
        <ele>43.3966</ele>
        <time>2014-05-20T19:15:53Z</time>
      </trkpt>
      <trkpt lat="59.8362617" lon="17.6429288">
        <ele>44.358</ele>
        <time>2014-05-20T19:15:54Z</time>
      </trkpt>
      <trkpt lat="59.8362854" lon="17.6429033">
        <ele>44.8386</ele>
        <time>2014-05-20T19:15:55Z</time>
      </trkpt>
      <trkpt lat="59.8363142" lon="17.6428844">
        <ele>44.8386</ele>
        <time>2014-05-20T19:15:56Z</time>
      </trkpt>
      <trkpt lat="59.8363409" lon="17.642888">
        <ele>46.2806</ele>
        <time>2014-05-20T19:15:57Z</time>
      </trkpt>
      <trkpt lat="59.8363612" lon="17.6428865">
        <ele>46.2806</ele>
        <time>2014-05-20T19:15:58Z</time>
      </trkpt>
      <trkpt lat="59.8363809" lon="17.6428812">
        <ele>46.7612</ele>
        <time>2014-05-20T19:15:59Z</time>
      </trkpt>
      <trkpt lat="59.8364073" lon="17.6428663">
        <ele>46.7612</ele>
        <time>2014-05-20T19:16:00Z</time>
      </trkpt>
      <trkpt lat="59.8364325" lon="17.6428463">
        <ele>46.2806</ele>
        <time>2014-05-20T19:16:01Z</time>
      </trkpt>
      <trkpt lat="59.8364622" lon="17.6428369">
        <ele>46.7612</ele>
        <time>2014-05-20T19:16:02Z</time>
      </trkpt>
      <trkpt lat="59.8364886" lon="17.6428273">
        <ele>46.2806</ele>
        <time>2014-05-20T19:16:03Z</time>
      </trkpt>
      <trkpt lat="59.8365196" lon="17.642819">
        <ele>46.2806</ele>
        <time>2014-05-20T19:16:04Z</time>
      </trkpt>
      <trkpt lat="59.8365397" lon="17.6428043">
        <ele>46.2806</ele>
        <time>2014-05-20T19:16:05Z</time>
      </trkpt>
      <trkpt lat="59.8365641" lon="17.6427874">
        <ele>46.2806</ele>
        <time>2014-05-20T19:16:06Z</time>
      </trkpt>
      <trkpt lat="59.8365906" lon="17.642772">
        <ele>47.2418</ele>
        <time>2014-05-20T19:16:07Z</time>
      </trkpt>
      <trkpt lat="59.8366175" lon="17.6427597">
        <ele>47.2418</ele>
        <time>2014-05-20T19:16:08Z</time>
      </trkpt>
      <trkpt lat="59.8366455" lon="17.6427465">
        <ele>47.7225</ele>
        <time>2014-05-20T19:16:09Z</time>
      </trkpt>
      <trkpt lat="59.8366769" lon="17.6427338">
        <ele>48.2034</ele>
        <time>2014-05-20T19:16:10Z</time>
      </trkpt>
      <trkpt lat="59.8367127" lon="17.6427238">
        <ele>49.6453</ele>
        <time>2014-05-20T19:16:11Z</time>
      </trkpt>
      <trkpt lat="59.8367454" lon="17.6427199">
        <ele>50.6066</ele>
        <time>2014-05-20T19:16:12Z</time>
      </trkpt>
      <trkpt lat="59.8367761" lon="17.6427222">
        <ele>50.126</ele>
        <time>2014-05-20T19:16:13Z</time>
      </trkpt>
      <trkpt lat="59.8368113" lon="17.6427278">
        <ele>51.5679</ele>
        <time>2014-05-20T19:16:14Z</time>
      </trkpt>
      <trkpt lat="59.8368382" lon="17.6427368">
        <ele>51.0872</ele>
        <time>2014-05-20T19:16:15Z</time>
      </trkpt>
      <trkpt lat="59.8368681" lon="17.6427496">
        <ele>52.0486</ele>
        <time>2014-05-20T19:16:16Z</time>
      </trkpt>
      <trkpt lat="59.8368932" lon="17.6427647">
        <ele>52.0486</ele>
        <time>2014-05-20T19:16:17Z</time>
      </trkpt>
      <trkpt lat="59.8369158" lon="17.642776">
        <ele>51.5679</ele>
        <time>2014-05-20T19:16:18Z</time>
      </trkpt>
      <trkpt lat="59.8369458" lon="17.6427859">
        <ele>52.0486</ele>
        <time>2014-05-20T19:16:19Z</time>
      </trkpt>
      <trkpt lat="59.8369718" lon="17.6428033">
        <ele>52.0486</ele>
        <time>2014-05-20T19:16:20Z</time>
      </trkpt>
      <trkpt lat="59.8369967" lon="17.6428086">
        <ele>52.0486</ele>
        <time>2014-05-20T19:16:21Z</time>
      </trkpt>
      <trkpt lat="59.837009" lon="17.6428113">
        <ele>50.6066</ele>
        <time>2014-05-20T19:16:22Z</time>
      </trkpt>
      <trkpt lat="59.8370296" lon="17.6428227">
        <ele>50.6066</ele>
        <time>2014-05-20T19:16:23Z</time>
      </trkpt>
      <trkpt lat="59.8370495" lon="17.6428377">
        <ele>50.126</ele>
        <time>2014-05-20T19:16:24Z</time>
      </trkpt>
      <trkpt lat="59.8370721" lon="17.6428579">
        <ele>50.126</ele>
        <time>2014-05-20T19:16:25Z</time>
      </trkpt>
      <trkpt lat="59.8370981" lon="17.642873">
        <ele>50.126</ele>
        <time>2014-05-20T19:16:26Z</time>
      </trkpt>
      <trkpt lat="59.8371187" lon="17.6428787">
        <ele>49.6453</ele>
        <time>2014-05-20T19:16:27Z</time>
      </trkpt>
      <trkpt lat="59.8371389" lon="17.6428828">
        <ele>49.1646</ele>
        <time>2014-05-20T19:16:28Z</time>
      </trkpt>
      <trkpt lat="59.8371687" lon="17.6428884">
        <ele>50.126</ele>
        <time>2014-05-20T19:16:29Z</time>
      </trkpt>
      <trkpt lat="59.8371986" lon="17.6429009">
        <ele>50.6066</ele>
        <time>2014-05-20T19:16:30Z</time>
      </trkpt>
      <trkpt lat="59.8372312" lon="17.6429055">
        <ele>51.5679</ele>
        <time>2014-05-20T19:16:31Z</time>
      </trkpt>
      <trkpt lat="59.8372572" lon="17.6429081">
        <ele>52.5292</ele>
        <time>2014-05-20T19:16:32Z</time>
      </trkpt>
      <trkpt lat="59.8372765" lon="17.6429093">
        <ele>52.0486</ele>
        <time>2014-05-20T19:16:33Z</time>
      </trkpt>
      <trkpt lat="59.837297" lon="17.6429095">
        <ele>51.5679</ele>
        <time>2014-05-20T19:16:34Z</time>
      </trkpt>
      <trkpt lat="59.8373208" lon="17.6429087">
        <ele>51.5679</ele>
        <time>2014-05-20T19:16:35Z</time>
      </trkpt>
      <trkpt lat="59.8373478" lon="17.6429134">
        <ele>52.0486</ele>
        <time>2014-05-20T19:16:36Z</time>
      </trkpt>
      <trkpt lat="59.8373777" lon="17.6429142">
        <ele>52.5292</ele>
        <time>2014-05-20T19:16:37Z</time>
      </trkpt>
      <trkpt lat="59.8374057" lon="17.6429227">
        <ele>52.5292</ele>
        <time>2014-05-20T19:16:38Z</time>
      </trkpt>
      <trkpt lat="59.8374385" lon="17.6429282">
        <ele>53.0098</ele>
        <time>2014-05-20T19:16:39Z</time>
      </trkpt>
      <trkpt lat="59.8374572" lon="17.64294">
        <ele>53.0098</ele>
        <time>2014-05-20T19:16:40Z</time>
      </trkpt>
      <trkpt lat="59.8374749" lon="17.6429464">
        <ele>52.5292</ele>
        <time>2014-05-20T19:16:41Z</time>
      </trkpt>
      <trkpt lat="59.837497" lon="17.6429519">
        <ele>52.5292</ele>
        <time>2014-05-20T19:16:42Z</time>
      </trkpt>
      <trkpt lat="59.8375234" lon="17.64295">
        <ele>52.0486</ele>
        <time>2014-05-20T19:16:43Z</time>
      </trkpt>
      <trkpt lat="59.8375432" lon="17.6429412">
        <ele>51.5679</ele>
        <time>2014-05-20T19:16:44Z</time>
      </trkpt>
      <trkpt lat="59.8375748" lon="17.6429328">
        <ele>51.0872</ele>
        <time>2014-05-20T19:16:45Z</time>
      </trkpt>
      <trkpt lat="59.8376091" lon="17.6429294">
        <ele>51.5679</ele>
        <time>2014-05-20T19:16:46Z</time>
      </trkpt>
      <trkpt lat="59.8376407" lon="17.6429284">
        <ele>52.0486</ele>
        <time>2014-05-20T19:16:47Z</time>
      </trkpt>
      <trkpt lat="59.8376737" lon="17.642933">
        <ele>53.0098</ele>
        <time>2014-05-20T19:16:48Z</time>
      </trkpt>
      <trkpt lat="59.8377085" lon="17.6429346">
        <ele>53.9712</ele>
        <time>2014-05-20T19:16:49Z</time>
      </trkpt>
      <trkpt lat="59.8377405" lon="17.6429276">
        <ele>53.9712</ele>
        <time>2014-05-20T19:16:50Z</time>
      </trkpt>
      <trkpt lat="59.837774" lon="17.6429175">
        <ele>53.9712</ele>
        <time>2014-05-20T19:16:51Z</time>
      </trkpt>
      <trkpt lat="59.8377992" lon="17.6429064">
        <ele>52.5292</ele>
        <time>2014-05-20T19:16:52Z</time>
      </trkpt>
      <trkpt lat="59.8378124" lon="17.6428944">
        <ele>49.6453</ele>
        <time>2014-05-20T19:16:53Z</time>
      </trkpt>
      <trkpt lat="59.8378421" lon="17.6428787">
        <ele>49.1646</ele>
        <time>2014-05-20T19:16:54Z</time>
      </trkpt>
      <trkpt lat="59.8378603" lon="17.6428823">
        <ele>48.684</ele>
        <time>2014-05-20T19:16:55Z</time>
      </trkpt>
      <trkpt lat="59.837884" lon="17.6428811">
        <ele>49.1646</ele>
        <time>2014-05-20T19:16:56Z</time>
      </trkpt>
      <trkpt lat="59.8379037" lon="17.6428823">
        <ele>49.1646</ele>
        <time>2014-05-20T19:16:57Z</time>
      </trkpt>
      <trkpt lat="59.837925" lon="17.6428826">
        <ele>49.6453</ele>
        <time>2014-05-20T19:16:58Z</time>
      </trkpt>
      <trkpt lat="59.8379506" lon="17.642877">
        <ele>50.126</ele>
        <time>2014-05-20T19:16:59Z</time>
      </trkpt>
      <trkpt lat="59.8379767" lon="17.6428832">
        <ele>49.6453</ele>
        <time>2014-05-20T19:17:00Z</time>
      </trkpt>
      <trkpt lat="59.8380074" lon="17.6428812">
        <ele>49.6453</ele>
        <time>2014-05-20T19:17:01Z</time>
      </trkpt>
      <trkpt lat="59.8380349" lon="17.6428787">
        <ele>50.126</ele>
        <time>2014-05-20T19:17:02Z</time>
      </trkpt>
      <trkpt lat="59.8380643" lon="17.6428776">
        <ele>49.6453</ele>
        <time>2014-05-20T19:17:03Z</time>
      </trkpt>
      <trkpt lat="59.8381005" lon="17.6428812">
        <ele>50.126</ele>
        <time>2014-05-20T19:17:04Z</time>
      </trkpt>
      <trkpt lat="59.8381364" lon="17.6428921">
        <ele>50.6066</ele>
        <time>2014-05-20T19:17:05Z</time>
      </trkpt>
      <trkpt lat="59.8381727" lon="17.6429044">
        <ele>51.0872</ele>
        <time>2014-05-20T19:17:06Z</time>
      </trkpt>
      <trkpt lat="59.8382011" lon="17.6429217">
        <ele>51.0872</ele>
        <time>2014-05-20T19:17:07Z</time>
      </trkpt>
      <trkpt lat="59.8382216" lon="17.6429383">
        <ele>50.126</ele>
        <time>2014-05-20T19:17:08Z</time>
      </trkpt>
      <trkpt lat="59.8382537" lon="17.6429592">
        <ele>50.6066</ele>
        <time>2014-05-20T19:17:09Z</time>
      </trkpt>
      <trkpt lat="59.8382828" lon="17.6429784">
        <ele>51.0872</ele>
        <time>2014-05-20T19:17:10Z</time>
      </trkpt>
      <trkpt lat="59.8383132" lon="17.6429991">
        <ele>52.0486</ele>
        <time>2014-05-20T19:17:11Z</time>
      </trkpt>
      <trkpt lat="59.8383428" lon="17.6430236">
        <ele>52.0486</ele>
        <time>2014-05-20T19:17:12Z</time>
      </trkpt>
      <trkpt lat="59.8383673" lon="17.643056">
        <ele>52.0486</ele>
        <time>2014-05-20T19:17:13Z</time>
      </trkpt>
      <trkpt lat="59.8383868" lon="17.6430877">
        <ele>51.0872</ele>
        <time>2014-05-20T19:17:14Z</time>
      </trkpt>
      <trkpt lat="59.838418" lon="17.643112">
        <ele>51.5679</ele>
        <time>2014-05-20T19:17:15Z</time>
      </trkpt>
      <trkpt lat="59.8384334" lon="17.6431413">
        <ele>51.0872</ele>
        <time>2014-05-20T19:17:16Z</time>
      </trkpt>
      <trkpt lat="59.8384501" lon="17.6431744">
        <ele>50.126</ele>
        <time>2014-05-20T19:17:17Z</time>
      </trkpt>
      <trkpt lat="59.8384642" lon="17.6432068">
        <ele>49.1646</ele>
        <time>2014-05-20T19:17:18Z</time>
      </trkpt>
      <trkpt lat="59.8384741" lon="17.6432351">
        <ele>48.2034</ele>
        <time>2014-05-20T19:17:19Z</time>
      </trkpt>
      <trkpt lat="59.8384971" lon="17.6432689">
        <ele>48.2034</ele>
        <time>2014-05-20T19:17:20Z</time>
      </trkpt>
      <trkpt lat="59.8385166" lon="17.6433114">
        <ele>48.2034</ele>
        <time>2014-05-20T19:17:21Z</time>
      </trkpt>
      <trkpt lat="59.8385383" lon="17.643348">
        <ele>48.2034</ele>
        <time>2014-05-20T19:17:22Z</time>
      </trkpt>
      <trkpt lat="59.8385558" lon="17.643383">
        <ele>47.7225</ele>
        <time>2014-05-20T19:17:23Z</time>
      </trkpt>
      <trkpt lat="59.8385709" lon="17.6434132">
        <ele>46.7612</ele>
        <time>2014-05-20T19:17:24Z</time>
      </trkpt>
      <trkpt lat="59.8385901" lon="17.6434423">
        <ele>46.7612</ele>
        <time>2014-05-20T19:17:25Z</time>
      </trkpt>
      <trkpt lat="59.8386087" lon="17.6434784">
        <ele>45.7999</ele>
        <time>2014-05-20T19:17:26Z</time>
      </trkpt>
      <trkpt lat="59.8386314" lon="17.6435163">
        <ele>45.7999</ele>
        <time>2014-05-20T19:17:27Z</time>
      </trkpt>
      <trkpt lat="59.8386553" lon="17.6435419">
        <ele>45.3192</ele>
        <time>2014-05-20T19:17:28Z</time>
      </trkpt>
      <trkpt lat="59.8386816" lon="17.6435684">
        <ele>45.3192</ele>
        <time>2014-05-20T19:17:29Z</time>
      </trkpt>
      <trkpt lat="59.8387076" lon="17.6436059">
        <ele>45.3192</ele>
        <time>2014-05-20T19:17:30Z</time>
      </trkpt>
      <trkpt lat="59.8387427" lon="17.6436307">
        <ele>45.7999</ele>
        <time>2014-05-20T19:17:31Z</time>
      </trkpt>
      <trkpt lat="59.8387755" lon="17.6436565">
        <ele>45.7999</ele>
        <time>2014-05-20T19:17:32Z</time>
      </trkpt>
      <trkpt lat="59.8387963" lon="17.6436828">
        <ele>45.7999</ele>
        <time>2014-05-20T19:17:33Z</time>
      </trkpt>
      <trkpt lat="59.8388228" lon="17.643701">
        <ele>46.2806</ele>
        <time>2014-05-20T19:17:34Z</time>
      </trkpt>
      <trkpt lat="59.8388502" lon="17.6437199">
        <ele>45.7999</ele>
        <time>2014-05-20T19:17:35Z</time>
      </trkpt>
      <trkpt lat="59.8388843" lon="17.6437355">
        <ele>46.2806</ele>
        <time>2014-05-20T19:17:36Z</time>
      </trkpt>
      <trkpt lat="59.8389122" lon="17.6437528">
        <ele>46.7612</ele>
        <time>2014-05-20T19:17:37Z</time>
      </trkpt>
      <trkpt lat="59.8389328" lon="17.6437747">
        <ele>46.7612</ele>
        <time>2014-05-20T19:17:38Z</time>
      </trkpt>
      <trkpt lat="59.8389574" lon="17.6437984">
        <ele>47.2418</ele>
        <time>2014-05-20T19:17:39Z</time>
      </trkpt>
      <trkpt lat="59.8389851" lon="17.6438177">
        <ele>47.2418</ele>
        <time>2014-05-20T19:17:40Z</time>
      </trkpt>
      <trkpt lat="59.8390132" lon="17.6438364">
        <ele>47.2418</ele>
        <time>2014-05-20T19:17:41Z</time>
      </trkpt>
      <trkpt lat="59.8390365" lon="17.6438478">
        <ele>47.2418</ele>
        <time>2014-05-20T19:17:42Z</time>
      </trkpt>
      <trkpt lat="59.8390655" lon="17.6438471">
        <ele>48.684</ele>
        <time>2014-05-20T19:17:43Z</time>
      </trkpt>
      <trkpt lat="59.8390853" lon="17.6438588">
        <ele>48.684</ele>
        <time>2014-05-20T19:17:44Z</time>
      </trkpt>
      <trkpt lat="59.8391136" lon="17.6438781">
        <ele>49.6453</ele>
        <time>2014-05-20T19:17:45Z</time>
      </trkpt>
      <trkpt lat="59.8391421" lon="17.6439028">
        <ele>49.6453</ele>
        <time>2014-05-20T19:17:46Z</time>
      </trkpt>
      <trkpt lat="59.8391769" lon="17.6439255">
        <ele>50.126</ele>
        <time>2014-05-20T19:17:47Z</time>
      </trkpt>
      <trkpt lat="59.8392075" lon="17.6439444">
        <ele>49.6453</ele>
        <time>2014-05-20T19:17:48Z</time>
      </trkpt>
      <trkpt lat="59.8392408" lon="17.6439549">
        <ele>50.126</ele>
        <time>2014-05-20T19:17:49Z</time>
      </trkpt>
      <trkpt lat="59.8392692" lon="17.6439777">
        <ele>50.6066</ele>
        <time>2014-05-20T19:17:50Z</time>
      </trkpt>
      <trkpt lat="59.8392897" lon="17.6440048">
        <ele>49.6453</ele>
        <time>2014-05-20T19:17:51Z</time>
      </trkpt>
      <trkpt lat="59.8393094" lon="17.6440354">
        <ele>48.684</ele>
        <time>2014-05-20T19:17:52Z</time>
      </trkpt>
      <trkpt lat="59.8393244" lon="17.6440646">
        <ele>47.7225</ele>
        <time>2014-05-20T19:17:53Z</time>
      </trkpt>
      <trkpt lat="59.8393431" lon="17.644095">
        <ele>47.2418</ele>
        <time>2014-05-20T19:17:54Z</time>
      </trkpt>
      <trkpt lat="59.839368" lon="17.6441224">
        <ele>46.7612</ele>
        <time>2014-05-20T19:17:55Z</time>
      </trkpt>
      <trkpt lat="59.839389" lon="17.6441523">
        <ele>46.7612</ele>
        <time>2014-05-20T19:17:56Z</time>
      </trkpt>
      <trkpt lat="59.8394095" lon="17.6441836">
        <ele>46.7612</ele>
        <time>2014-05-20T19:17:57Z</time>
      </trkpt>
      <trkpt lat="59.8394314" lon="17.6442222">
        <ele>46.7612</ele>
        <time>2014-05-20T19:17:58Z</time>
      </trkpt>
      <trkpt lat="59.8394563" lon="17.6442569">
        <ele>46.7612</ele>
        <time>2014-05-20T19:17:59Z</time>
      </trkpt>
      <trkpt lat="59.8394815" lon="17.6442839">
        <ele>46.7612</ele>
        <time>2014-05-20T19:18:00Z</time>
      </trkpt>
      <trkpt lat="59.8395003" lon="17.644317">
        <ele>45.7999</ele>
        <time>2014-05-20T19:18:01Z</time>
      </trkpt>
      <trkpt lat="59.839523" lon="17.6443502">
        <ele>45.3192</ele>
        <time>2014-05-20T19:18:02Z</time>
      </trkpt>
      <trkpt lat="59.8395494" lon="17.6443787">
        <ele>44.8386</ele>
        <time>2014-05-20T19:18:03Z</time>
      </trkpt>
      <trkpt lat="59.8395738" lon="17.6444075">
        <ele>44.358</ele>
        <time>2014-05-20T19:18:04Z</time>
      </trkpt>
      <trkpt lat="59.8395901" lon="17.6444393">
        <ele>42.916</ele>
        <time>2014-05-20T19:18:05Z</time>
      </trkpt>
      <trkpt lat="59.8396096" lon="17.6444596">
        <ele>42.4354</ele>
        <time>2014-05-20T19:18:06Z</time>
      </trkpt>
      <trkpt lat="59.8396276" lon="17.6444821">
        <ele>41.474</ele>
        <time>2014-05-20T19:18:07Z</time>
      </trkpt>
      <trkpt lat="59.8396442" lon="17.6445039">
        <ele>40.5128</ele>
        <time>2014-05-20T19:18:08Z</time>
      </trkpt>
      <trkpt lat="59.8396632" lon="17.6445278">
        <ele>40.0321</ele>
        <time>2014-05-20T19:18:09Z</time>
      </trkpt>
      <trkpt lat="59.8396862" lon="17.6445511">
        <ele>39.5513</ele>
        <time>2014-05-20T19:18:10Z</time>
      </trkpt>
      <trkpt lat="59.8397053" lon="17.6445814">
        <ele>38.1094</ele>
        <time>2014-05-20T19:18:11Z</time>
      </trkpt>
      <trkpt lat="59.8397257" lon="17.6446242">
        <ele>38.1094</ele>
        <time>2014-05-20T19:18:12Z</time>
      </trkpt>
      <trkpt lat="59.8397458" lon="17.6446689">
        <ele>37.6287</ele>
        <time>2014-05-20T19:18:13Z</time>
      </trkpt>
      <trkpt lat="59.8397649" lon="17.644708">
        <ele>37.6287</ele>
        <time>2014-05-20T19:18:14Z</time>
      </trkpt>
      <trkpt lat="59.8397875" lon="17.644744">
        <ele>37.6287</ele>
        <time>2014-05-20T19:18:15Z</time>
      </trkpt>
      <trkpt lat="59.839812" lon="17.6447725">
        <ele>37.1481</ele>
        <time>2014-05-20T19:18:16Z</time>
      </trkpt>
      <trkpt lat="59.839845" lon="17.6447948">
        <ele>38.5901</ele>
        <time>2014-05-20T19:18:17Z</time>
      </trkpt>
      <trkpt lat="59.8398726" lon="17.6448128">
        <ele>39.0707</ele>
        <time>2014-05-20T19:18:18Z</time>
      </trkpt>
      <trkpt lat="59.8399009" lon="17.6448133">
        <ele>38.5901</ele>
        <time>2014-05-20T19:18:19Z</time>
      </trkpt>
      <trkpt lat="59.8399255" lon="17.6447953">
        <ele>38.5901</ele>
        <time>2014-05-20T19:18:20Z</time>
      </trkpt>
      <trkpt lat="59.8399493" lon="17.6447705">
        <ele>39.0707</ele>
        <time>2014-05-20T19:18:21Z</time>
      </trkpt>
      <trkpt lat="59.8399711" lon="17.6447396">
        <ele>38.5901</ele>
        <time>2014-05-20T19:18:22Z</time>
      </trkpt>
      <trkpt lat="59.8399893" lon="17.6447007">
        <ele>38.5901</ele>
        <time>2014-05-20T19:18:23Z</time>
      </trkpt>
      <trkpt lat="59.8400022" lon="17.6446551">
        <ele>38.1094</ele>
        <time>2014-05-20T19:18:24Z</time>
      </trkpt>
      <trkpt lat="59.8400193" lon="17.6446094">
        <ele>37.6287</ele>
        <time>2014-05-20T19:18:25Z</time>
      </trkpt>
      <trkpt lat="59.8400396" lon="17.6445684">
        <ele>38.1094</ele>
        <time>2014-05-20T19:18:26Z</time>
      </trkpt>
      <trkpt lat="59.8400598" lon="17.6445336">
        <ele>38.1094</ele>
        <time>2014-05-20T19:18:27Z</time>
      </trkpt>
      <trkpt lat="59.8400777" lon="17.6444959">
        <ele>37.1481</ele>
        <time>2014-05-20T19:18:28Z</time>
      </trkpt>
      <trkpt lat="59.8400994" lon="17.644458">
        <ele>37.1481</ele>
        <time>2014-05-20T19:18:29Z</time>
      </trkpt>
      <trkpt lat="59.8401229" lon="17.6444176">
        <ele>37.1481</ele>
        <time>2014-05-20T19:18:30Z</time>
      </trkpt>
      <trkpt lat="59.8401454" lon="17.6443778">
        <ele>36.6675</ele>
        <time>2014-05-20T19:18:31Z</time>
      </trkpt>
      <trkpt lat="59.8401698" lon="17.6443378">
        <ele>36.6675</ele>
        <time>2014-05-20T19:18:32Z</time>
      </trkpt>
      <trkpt lat="59.84019" lon="17.6442974">
        <ele>36.1868</ele>
        <time>2014-05-20T19:18:33Z</time>
      </trkpt>
      <trkpt lat="59.8402131" lon="17.6442578">
        <ele>36.1868</ele>
        <time>2014-05-20T19:18:34Z</time>
      </trkpt>
      <trkpt lat="59.8402358" lon="17.6442234">
        <ele>36.1868</ele>
        <time>2014-05-20T19:18:35Z</time>
      </trkpt>
      <trkpt lat="59.8402595" lon="17.6441871">
        <ele>36.1868</ele>
        <time>2014-05-20T19:18:36Z</time>
      </trkpt>
      <trkpt lat="59.8402866" lon="17.6441527">
        <ele>36.1868</ele>
        <time>2014-05-20T19:18:37Z</time>
      </trkpt>
      <trkpt lat="59.8403172" lon="17.6441226">
        <ele>36.1868</ele>
        <time>2014-05-20T19:18:38Z</time>
      </trkpt>
      <trkpt lat="59.8403399" lon="17.6440884">
        <ele>35.7061</ele>
        <time>2014-05-20T19:18:39Z</time>
      </trkpt>
      <trkpt lat="59.8403651" lon="17.6440535">
        <ele>35.7061</ele>
        <time>2014-05-20T19:18:40Z</time>
      </trkpt>
      <trkpt lat="59.8403894" lon="17.6440216">
        <ele>35.7061</ele>
        <time>2014-05-20T19:18:41Z</time>
      </trkpt>
      <trkpt lat="59.8404117" lon="17.6439883">
        <ele>35.7061</ele>
        <time>2014-05-20T19:18:42Z</time>
      </trkpt>
      <trkpt lat="59.8404347" lon="17.6439507">
        <ele>35.2255</ele>
        <time>2014-05-20T19:18:43Z</time>
      </trkpt>
      <trkpt lat="59.8404575" lon="17.6439071">
        <ele>35.2255</ele>
        <time>2014-05-20T19:18:44Z</time>
      </trkpt>
      <trkpt lat="59.8404797" lon="17.6438671">
        <ele>35.2255</ele>
        <time>2014-05-20T19:18:45Z</time>
      </trkpt>
      <trkpt lat="59.840503" lon="17.6438302">
        <ele>35.2255</ele>
        <time>2014-05-20T19:18:46Z</time>
      </trkpt>
      <trkpt lat="59.8405259" lon="17.6437919">
        <ele>35.2255</ele>
        <time>2014-05-20T19:18:47Z</time>
      </trkpt>
      <trkpt lat="59.8405465" lon="17.6437492">
        <ele>35.2255</ele>
        <time>2014-05-20T19:18:48Z</time>
      </trkpt>
      <trkpt lat="59.840569" lon="17.6437077">
        <ele>35.7061</ele>
        <time>2014-05-20T19:18:49Z</time>
      </trkpt>
      <trkpt lat="59.8405944" lon="17.643668">
        <ele>35.7061</ele>
        <time>2014-05-20T19:18:50Z</time>
      </trkpt>
      <trkpt lat="59.840618" lon="17.6436229">
        <ele>36.1868</ele>
        <time>2014-05-20T19:18:51Z</time>
      </trkpt>
      <trkpt lat="59.8406393" lon="17.64358">
        <ele>36.1868</ele>
        <time>2014-05-20T19:18:52Z</time>
      </trkpt>
      <trkpt lat="59.8406563" lon="17.6435451">
        <ele>36.1868</ele>
        <time>2014-05-20T19:18:53Z</time>
      </trkpt>
      <trkpt lat="59.8406785" lon="17.6435112">
        <ele>36.6675</ele>
        <time>2014-05-20T19:18:54Z</time>
      </trkpt>
      <trkpt lat="59.8407023" lon="17.643471">
        <ele>36.6675</ele>
        <time>2014-05-20T19:18:55Z</time>
      </trkpt>
      <trkpt lat="59.8407269" lon="17.6434254">
        <ele>36.6675</ele>
        <time>2014-05-20T19:18:56Z</time>
      </trkpt>
      <trkpt lat="59.840751" lon="17.6433842">
        <ele>36.1868</ele>
        <time>2014-05-20T19:18:57Z</time>
      </trkpt>
      <trkpt lat="59.8407728" lon="17.6433428">
        <ele>36.1868</ele>
        <time>2014-05-20T19:18:58Z</time>
      </trkpt>
      <trkpt lat="59.8407932" lon="17.6432992">
        <ele>36.1868</ele>
        <time>2014-05-20T19:18:59Z</time>
      </trkpt>
      <trkpt lat="59.8408158" lon="17.6432599">
        <ele>35.7061</ele>
        <time>2014-05-20T19:19:00Z</time>
      </trkpt>
      <trkpt lat="59.8408367" lon="17.6432225">
        <ele>35.2255</ele>
        <time>2014-05-20T19:19:01Z</time>
      </trkpt>
      <trkpt lat="59.8408588" lon="17.6431835">
        <ele>35.2255</ele>
        <time>2014-05-20T19:19:02Z</time>
      </trkpt>
      <trkpt lat="59.8408775" lon="17.6431402">
        <ele>34.7449</ele>
        <time>2014-05-20T19:19:03Z</time>
      </trkpt>
      <trkpt lat="59.8408982" lon="17.6430965">
        <ele>34.7449</ele>
        <time>2014-05-20T19:19:04Z</time>
      </trkpt>
      <trkpt lat="59.840917" lon="17.6430531">
        <ele>34.2642</ele>
        <time>2014-05-20T19:19:05Z</time>
      </trkpt>
      <trkpt lat="59.8409257" lon="17.6430028">
        <ele>33.7834</ele>
        <time>2014-05-20T19:19:06Z</time>
      </trkpt>
      <trkpt lat="59.8409292" lon="17.642947">
        <ele>33.3029</ele>
        <time>2014-05-20T19:19:07Z</time>
      </trkpt>
      <trkpt lat="59.8409362" lon="17.6428987">
        <ele>33.3029</ele>
        <time>2014-05-20T19:19:08Z</time>
      </trkpt>
      <trkpt lat="59.8409481" lon="17.6428642">
        <ele>32.8223</ele>
        <time>2014-05-20T19:19:09Z</time>
      </trkpt>
      <trkpt lat="59.8409666" lon="17.6428478">
        <ele>32.3416</ele>
        <time>2014-05-20T19:19:10Z</time>
      </trkpt>
      <trkpt lat="59.8409867" lon="17.6428449">
        <ele>31.8607</ele>
        <time>2014-05-20T19:19:11Z</time>
      </trkpt>
      <trkpt lat="59.8410081" lon="17.6428568">
        <ele>31.3801</ele>
        <time>2014-05-20T19:19:12Z</time>
      </trkpt>
      <trkpt lat="59.8410309" lon="17.6428958">
        <ele>30.8995</ele>
        <time>2014-05-20T19:19:13Z</time>
      </trkpt>
      <trkpt lat="59.8410479" lon="17.6429395">
        <ele>29.9381</ele>
        <time>2014-05-20T19:19:14Z</time>
      </trkpt>
      <trkpt lat="59.8410644" lon="17.6429817">
        <ele>29.9381</ele>
        <time>2014-05-20T19:19:15Z</time>
      </trkpt>
      <trkpt lat="59.8410791" lon="17.6430205">
        <ele>29.4575</ele>
        <time>2014-05-20T19:19:16Z</time>
      </trkpt>
      <trkpt lat="59.8410963" lon="17.6430552">
        <ele>28.9769</ele>
        <time>2014-05-20T19:19:17Z</time>
      </trkpt>
      <trkpt lat="59.8411149" lon="17.6430991">
        <ele>28.9769</ele>
        <time>2014-05-20T19:19:18Z</time>
      </trkpt>
      <trkpt lat="59.8411335" lon="17.6431462">
        <ele>29.4575</ele>
        <time>2014-05-20T19:19:19Z</time>
      </trkpt>
      <trkpt lat="59.8411545" lon="17.6431915">
        <ele>29.9381</ele>
        <time>2014-05-20T19:19:20Z</time>
      </trkpt>
      <trkpt lat="59.8411723" lon="17.6432381">
        <ele>29.9381</ele>
        <time>2014-05-20T19:19:21Z</time>
      </trkpt>
      <trkpt lat="59.8411932" lon="17.6432837">
        <ele>30.4188</ele>
        <time>2014-05-20T19:19:22Z</time>
      </trkpt>
      <trkpt lat="59.8412106" lon="17.64332">
        <ele>30.4188</ele>
        <time>2014-05-20T19:19:23Z</time>
      </trkpt>
      <trkpt lat="59.8412278" lon="17.6433578">
        <ele>30.8995</ele>
        <time>2014-05-20T19:19:24Z</time>
      </trkpt>
      <trkpt lat="59.8412433" lon="17.6433977">
        <ele>30.8995</ele>
        <time>2014-05-20T19:19:25Z</time>
      </trkpt>
      <trkpt lat="59.8412608" lon="17.6434318">
        <ele>30.4188</ele>
        <time>2014-05-20T19:19:26Z</time>
      </trkpt>
      <trkpt lat="59.8412844" lon="17.6434588">
        <ele>30.8995</ele>
        <time>2014-05-20T19:19:27Z</time>
      </trkpt>
      <trkpt lat="59.8413063" lon="17.6434896">
        <ele>30.8995</ele>
        <time>2014-05-20T19:19:28Z</time>
      </trkpt>
      <trkpt lat="59.8413242" lon="17.6435243">
        <ele>30.8995</ele>
        <time>2014-05-20T19:19:29Z</time>
      </trkpt>
      <trkpt lat="59.8413467" lon="17.6435691">
        <ele>30.4188</ele>
        <time>2014-05-20T19:19:30Z</time>
      </trkpt>
      <trkpt lat="59.8413727" lon="17.643614">
        <ele>30.8995</ele>
        <time>2014-05-20T19:19:31Z</time>
      </trkpt>
      <trkpt lat="59.8413972" lon="17.6436561">
        <ele>30.8995</ele>
        <time>2014-05-20T19:19:32Z</time>
      </trkpt>
      <trkpt lat="59.8414156" lon="17.6436955">
        <ele>30.8995</ele>
        <time>2014-05-20T19:19:33Z</time>
      </trkpt>
      <trkpt lat="59.8414345" lon="17.6437331">
        <ele>30.8995</ele>
        <time>2014-05-20T19:19:34Z</time>
      </trkpt>
      <trkpt lat="59.8414624" lon="17.643772">
        <ele>30.8995</ele>
        <time>2014-05-20T19:19:35Z</time>
      </trkpt>
      <trkpt lat="59.841495" lon="17.643808">
        <ele>31.8607</ele>
        <time>2014-05-20T19:19:36Z</time>
      </trkpt>
      <trkpt lat="59.8415208" lon="17.6438507">
        <ele>31.8607</ele>
        <time>2014-05-20T19:19:37Z</time>
      </trkpt>
      <trkpt lat="59.8415386" lon="17.6438995">
        <ele>31.3801</ele>
        <time>2014-05-20T19:19:38Z</time>
      </trkpt>
      <trkpt lat="59.8415526" lon="17.6439395">
        <ele>31.3801</ele>
        <time>2014-05-20T19:19:39Z</time>
      </trkpt>
      <trkpt lat="59.8415675" lon="17.6439799">
        <ele>31.8607</ele>
        <time>2014-05-20T19:19:40Z</time>
      </trkpt>
      <trkpt lat="59.8415852" lon="17.6440259">
        <ele>31.8607</ele>
        <time>2014-05-20T19:19:41Z</time>
      </trkpt>
      <trkpt lat="59.8416027" lon="17.6440711">
        <ele>32.3416</ele>
        <time>2014-05-20T19:19:42Z</time>
      </trkpt>
      <trkpt lat="59.8416199" lon="17.6441136">
        <ele>32.3416</ele>
        <time>2014-05-20T19:19:43Z</time>
      </trkpt>
      <trkpt lat="59.8416387" lon="17.6441525">
        <ele>33.3029</ele>
        <time>2014-05-20T19:19:44Z</time>
      </trkpt>
      <trkpt lat="59.8416563" lon="17.644189">
        <ele>33.3029</ele>
        <time>2014-05-20T19:19:45Z</time>
      </trkpt>
      <trkpt lat="59.8416763" lon="17.6442187">
        <ele>33.3029</ele>
        <time>2014-05-20T19:19:46Z</time>
      </trkpt>
      <trkpt lat="59.841701" lon="17.6442373">
        <ele>33.3029</ele>
        <time>2014-05-20T19:19:47Z</time>
      </trkpt>
      <trkpt lat="59.841723" lon="17.6442663">
        <ele>33.7834</ele>
        <time>2014-05-20T19:19:48Z</time>
      </trkpt>
      <trkpt lat="59.8417412" lon="17.6443151">
        <ele>33.7834</ele>
        <time>2014-05-20T19:19:49Z</time>
      </trkpt>
      <trkpt lat="59.8417624" lon="17.644356">
        <ele>33.7834</ele>
        <time>2014-05-20T19:19:50Z</time>
      </trkpt>
      <trkpt lat="59.8417915" lon="17.6443799">
        <ele>33.7834</ele>
        <time>2014-05-20T19:19:51Z</time>
      </trkpt>
      <trkpt lat="59.8418296" lon="17.6443891">
        <ele>33.7834</ele>
        <time>2014-05-20T19:19:52Z</time>
      </trkpt>
      <trkpt lat="59.8418647" lon="17.6443982">
        <ele>34.2642</ele>
        <time>2014-05-20T19:19:53Z</time>
      </trkpt>
      <trkpt lat="59.8418896" lon="17.6444176">
        <ele>34.7449</ele>
        <time>2014-05-20T19:19:54Z</time>
      </trkpt>
      <trkpt lat="59.8419153" lon="17.6444395">
        <ele>35.2255</ele>
        <time>2014-05-20T19:19:55Z</time>
      </trkpt>
      <trkpt lat="59.8419378" lon="17.6444514">
        <ele>35.2255</ele>
        <time>2014-05-20T19:19:56Z</time>
      </trkpt>
      <trkpt lat="59.8419559" lon="17.6444548">
        <ele>35.2255</ele>
        <time>2014-05-20T19:19:57Z</time>
      </trkpt>
      <trkpt lat="59.8419785" lon="17.6444476">
        <ele>35.7061</ele>
        <time>2014-05-20T19:19:58Z</time>
      </trkpt>
      <trkpt lat="59.8419981" lon="17.6444305">
        <ele>36.1868</ele>
        <time>2014-05-20T19:19:59Z</time>
      </trkpt>
      <trkpt lat="59.8420103" lon="17.6444078">
        <ele>35.2255</ele>
        <time>2014-05-20T19:20:00Z</time>
      </trkpt>
      <trkpt lat="59.842027" lon="17.6443759">
        <ele>34.7449</ele>
        <time>2014-05-20T19:20:01Z</time>
      </trkpt>
      <trkpt lat="59.8420384" lon="17.6443399">
        <ele>34.2642</ele>
        <time>2014-05-20T19:20:02Z</time>
      </trkpt>
      <trkpt lat="59.8420508" lon="17.6443005">
        <ele>33.7834</ele>
        <time>2014-05-20T19:20:03Z</time>
      </trkpt>
      <trkpt lat="59.8420658" lon="17.6442617">
        <ele>34.2642</ele>
        <time>2014-05-20T19:20:04Z</time>
      </trkpt>
      <trkpt lat="59.8420774" lon="17.6442228">
        <ele>33.7834</ele>
        <time>2014-05-20T19:20:05Z</time>
      </trkpt>
      <trkpt lat="59.8420875" lon="17.6441806">
        <ele>33.7834</ele>
        <time>2014-05-20T19:20:06Z</time>
      </trkpt>
      <trkpt lat="59.8420954" lon="17.6441275">
        <ele>33.7834</ele>
        <time>2014-05-20T19:20:07Z</time>
      </trkpt>
      <trkpt lat="59.8420999" lon="17.6440699">
        <ele>32.8223</ele>
        <time>2014-05-20T19:20:08Z</time>
      </trkpt>
      <trkpt lat="59.8421009" lon="17.6440095">
        <ele>32.8223</ele>
        <time>2014-05-20T19:20:09Z</time>
      </trkpt>
      <trkpt lat="59.842098" lon="17.6439445">
        <ele>32.8223</ele>
        <time>2014-05-20T19:20:10Z</time>
      </trkpt>
      <trkpt lat="59.842093" lon="17.6438799">
        <ele>32.8223</ele>
        <time>2014-05-20T19:20:11Z</time>
      </trkpt>
      <trkpt lat="59.842086" lon="17.6438207">
        <ele>32.3416</ele>
        <time>2014-05-20T19:20:12Z</time>
      </trkpt>
      <trkpt lat="59.842082" lon="17.6437602">
        <ele>31.8607</ele>
        <time>2014-05-20T19:20:13Z</time>
      </trkpt>
      <trkpt lat="59.8420776" lon="17.6437046">
        <ele>31.3801</ele>
        <time>2014-05-20T19:20:14Z</time>
      </trkpt>
      <trkpt lat="59.8420756" lon="17.6436524">
        <ele>31.3801</ele>
        <time>2014-05-20T19:20:15Z</time>
      </trkpt>
      <trkpt lat="59.8420758" lon="17.6435971">
        <ele>31.3801</ele>
        <time>2014-05-20T19:20:16Z</time>
      </trkpt>
      <trkpt lat="59.8420752" lon="17.6435416">
        <ele>31.3801</ele>
        <time>2014-05-20T19:20:17Z</time>
      </trkpt>
      <trkpt lat="59.8420815" lon="17.6434878">
        <ele>30.8995</ele>
        <time>2014-05-20T19:20:18Z</time>
      </trkpt>
      <trkpt lat="59.8420935" lon="17.6434383">
        <ele>31.3801</ele>
        <time>2014-05-20T19:20:19Z</time>
      </trkpt>
      <trkpt lat="59.842111" lon="17.6433954">
        <ele>31.3801</ele>
        <time>2014-05-20T19:20:20Z</time>
      </trkpt>
      <trkpt lat="59.8421383" lon="17.6433582">
        <ele>31.3801</ele>
        <time>2014-05-20T19:20:21Z</time>
      </trkpt>
      <trkpt lat="59.8421674" lon="17.6433313">
        <ele>31.3801</ele>
        <time>2014-05-20T19:20:22Z</time>
      </trkpt>
      <trkpt lat="59.8422073" lon="17.6433117">
        <ele>32.8223</ele>
        <time>2014-05-20T19:20:23Z</time>
      </trkpt>
      <trkpt lat="59.8422404" lon="17.643293">
        <ele>33.3029</ele>
        <time>2014-05-20T19:20:24Z</time>
      </trkpt>
      <trkpt lat="59.8422709" lon="17.6432754">
        <ele>34.2642</ele>
        <time>2014-05-20T19:20:25Z</time>
      </trkpt>
      <trkpt lat="59.8423017" lon="17.6432567">
        <ele>35.2255</ele>
        <time>2014-05-20T19:20:26Z</time>
      </trkpt>
      <trkpt lat="59.8423336" lon="17.6432307">
        <ele>36.1868</ele>
        <time>2014-05-20T19:20:27Z</time>
      </trkpt>
      <trkpt lat="59.8423634" lon="17.6432091">
        <ele>36.6675</ele>
        <time>2014-05-20T19:20:28Z</time>
      </trkpt>
      <trkpt lat="59.842395" lon="17.6431913">
        <ele>38.1094</ele>
        <time>2014-05-20T19:20:29Z</time>
      </trkpt>
      <trkpt lat="59.8424195" lon="17.6431817">
        <ele>39.0707</ele>
        <time>2014-05-20T19:20:30Z</time>
      </trkpt>
      <trkpt lat="59.8424392" lon="17.6431738">
        <ele>39.5513</ele>
        <time>2014-05-20T19:20:31Z</time>
      </trkpt>
      <trkpt lat="59.8424615" lon="17.643165">
        <ele>39.0707</ele>
        <time>2014-05-20T19:20:32Z</time>
      </trkpt>
      <trkpt lat="59.842485" lon="17.6431609">
        <ele>39.0707</ele>
        <time>2014-05-20T19:20:33Z</time>
      </trkpt>
      <trkpt lat="59.84251" lon="17.6431574">
        <ele>38.5901</ele>
        <time>2014-05-20T19:20:34Z</time>
      </trkpt>
      <trkpt lat="59.8425319" lon="17.6431567">
        <ele>38.1094</ele>
        <time>2014-05-20T19:20:35Z</time>
      </trkpt>
      <trkpt lat="59.8425487" lon="17.6431552">
        <ele>37.6287</ele>
        <time>2014-05-20T19:20:36Z</time>
      </trkpt>
      <trkpt lat="59.8425637" lon="17.64315">
        <ele>37.6287</ele>
        <time>2014-05-20T19:20:37Z</time>
      </trkpt>
      <trkpt lat="59.8425807" lon="17.6431474">
        <ele>37.6287</ele>
        <time>2014-05-20T19:20:38Z</time>
      </trkpt>
      <trkpt lat="59.8426021" lon="17.6431421">
        <ele>38.1094</ele>
        <time>2014-05-20T19:20:39Z</time>
      </trkpt>
      <trkpt lat="59.8426291" lon="17.6431344">
        <ele>39.0707</ele>
        <time>2014-05-20T19:20:40Z</time>
      </trkpt>
      <trkpt lat="59.842657" lon="17.6431258">
        <ele>40.5128</ele>
        <time>2014-05-20T19:20:41Z</time>
      </trkpt>
      <trkpt lat="59.8426899" lon="17.6431198">
        <ele>42.916</ele>
        <time>2014-05-20T19:20:42Z</time>
      </trkpt>
      <trkpt lat="59.8427093" lon="17.6431126">
        <ele>44.8386</ele>
        <time>2014-05-20T19:20:43Z</time>
      </trkpt>
      <trkpt lat="59.8427351" lon="17.643106">
        <ele>45.7999</ele>
        <time>2014-05-20T19:20:44Z</time>
      </trkpt>
      <trkpt lat="59.8427626" lon="17.6431024">
        <ele>46.2806</ele>
        <time>2014-05-20T19:20:45Z</time>
      </trkpt>
      <trkpt lat="59.8427833" lon="17.6430903">
        <ele>45.7999</ele>
        <time>2014-05-20T19:20:46Z</time>
      </trkpt>
      <trkpt lat="59.8428042" lon="17.6430675">
        <ele>46.2806</ele>
        <time>2014-05-20T19:20:47Z</time>
      </trkpt>
      <trkpt lat="59.8428316" lon="17.6430493">
        <ele>46.2806</ele>
        <time>2014-05-20T19:20:48Z</time>
      </trkpt>
      <trkpt lat="59.8428565" lon="17.6430348">
        <ele>45.3192</ele>
        <time>2014-05-20T19:20:49Z</time>
      </trkpt>
      <trkpt lat="59.84288" lon="17.6430261">
        <ele>44.8386</ele>
        <time>2014-05-20T19:20:50Z</time>
      </trkpt>
      <trkpt lat="59.8429035" lon="17.6430144">
        <ele>45.3192</ele>
        <time>2014-05-20T19:20:51Z</time>
      </trkpt>
      <trkpt lat="59.8429258" lon="17.6430003">
        <ele>45.7999</ele>
        <time>2014-05-20T19:20:52Z</time>
      </trkpt>
      <trkpt lat="59.8429491" lon="17.6429843">
        <ele>45.7999</ele>
        <time>2014-05-20T19:20:53Z</time>
      </trkpt>
      <trkpt lat="59.8429699" lon="17.6429661">
        <ele>45.3192</ele>
        <time>2014-05-20T19:20:54Z</time>
      </trkpt>
      <trkpt lat="59.8429879" lon="17.6429467">
        <ele>44.8386</ele>
        <time>2014-05-20T19:20:55Z</time>
      </trkpt>
      <trkpt lat="59.8430061" lon="17.6429314">
        <ele>44.358</ele>
        <time>2014-05-20T19:20:56Z</time>
      </trkpt>
      <trkpt lat="59.8430282" lon="17.6429165">
        <ele>44.358</ele>
        <time>2014-05-20T19:20:57Z</time>
      </trkpt>
      <trkpt lat="59.8430543" lon="17.6428978">
        <ele>44.8386</ele>
        <time>2014-05-20T19:20:58Z</time>
      </trkpt>
      <trkpt lat="59.8430781" lon="17.6428805">
        <ele>43.8773</ele>
        <time>2014-05-20T19:20:59Z</time>
      </trkpt>
      <trkpt lat="59.8431091" lon="17.6428732">
        <ele>44.358</ele>
        <time>2014-05-20T19:21:00Z</time>
      </trkpt>
      <trkpt lat="59.8431378" lon="17.6428654">
        <ele>43.8773</ele>
        <time>2014-05-20T19:21:01Z</time>
      </trkpt>
      <trkpt lat="59.8431709" lon="17.6428556">
        <ele>44.358</ele>
        <time>2014-05-20T19:21:02Z</time>
      </trkpt>
      <trkpt lat="59.8432008" lon="17.6428406">
        <ele>44.358</ele>
        <time>2014-05-20T19:21:03Z</time>
      </trkpt>
      <trkpt lat="59.8432333" lon="17.6428237">
        <ele>44.8386</ele>
        <time>2014-05-20T19:21:04Z</time>
      </trkpt>
      <trkpt lat="59.8432599" lon="17.6428102">
        <ele>44.358</ele>
        <time>2014-05-20T19:21:05Z</time>
      </trkpt>
      <trkpt lat="59.8432904" lon="17.6428023">
        <ele>44.358</ele>
        <time>2014-05-20T19:21:06Z</time>
      </trkpt>
      <trkpt lat="59.8433225" lon="17.6427946">
        <ele>44.8386</ele>
        <time>2014-05-20T19:21:07Z</time>
      </trkpt>
      <trkpt lat="59.843347" lon="17.6427868">
        <ele>44.358</ele>
        <time>2014-05-20T19:21:08Z</time>
      </trkpt>
      <trkpt lat="59.8433654" lon="17.6427707">
        <ele>43.8773</ele>
        <time>2014-05-20T19:21:09Z</time>
      </trkpt>
      <trkpt lat="59.8433773" lon="17.6427413">
        <ele>43.3966</ele>
        <time>2014-05-20T19:21:10Z</time>
      </trkpt>
      <trkpt lat="59.8433918" lon="17.6426965">
        <ele>42.916</ele>
        <time>2014-05-20T19:21:11Z</time>
      </trkpt>
      <trkpt lat="59.8434013" lon="17.6426455">
        <ele>41.9547</ele>
        <time>2014-05-20T19:21:12Z</time>
      </trkpt>
      <trkpt lat="59.8433971" lon="17.6425874">
        <ele>41.474</ele>
        <time>2014-05-20T19:21:13Z</time>
      </trkpt>
      <trkpt lat="59.8433882" lon="17.6425249">
        <ele>40.9934</ele>
        <time>2014-05-20T19:21:14Z</time>
      </trkpt>
      <trkpt lat="59.8433884" lon="17.6424725">
        <ele>40.5128</ele>
        <time>2014-05-20T19:21:15Z</time>
      </trkpt>
      <trkpt lat="59.8433866" lon="17.642419">
        <ele>40.0321</ele>
        <time>2014-05-20T19:21:16Z</time>
      </trkpt>
      <trkpt lat="59.8433775" lon="17.6423615">
        <ele>39.5513</ele>
        <time>2014-05-20T19:21:17Z</time>
      </trkpt>
      <trkpt lat="59.8433687" lon="17.6423057">
        <ele>39.0707</ele>
        <time>2014-05-20T19:21:18Z</time>
      </trkpt>
      <trkpt lat="59.8433615" lon="17.642243">
        <ele>39.0707</ele>
        <time>2014-05-20T19:21:19Z</time>
      </trkpt>
      <trkpt lat="59.8433585" lon="17.642175">
        <ele>38.5901</ele>
        <time>2014-05-20T19:21:20Z</time>
      </trkpt>
      <trkpt lat="59.8433551" lon="17.6421166">
        <ele>38.1094</ele>
        <time>2014-05-20T19:21:21Z</time>
      </trkpt>
      <trkpt lat="59.8433532" lon="17.6420612">
        <ele>38.1094</ele>
        <time>2014-05-20T19:21:22Z</time>
      </trkpt>
      <trkpt lat="59.8433471" lon="17.6420083">
        <ele>38.1094</ele>
        <time>2014-05-20T19:21:23Z</time>
      </trkpt>
      <trkpt lat="59.8433431" lon="17.6419539">
        <ele>38.1094</ele>
        <time>2014-05-20T19:21:24Z</time>
      </trkpt>
      <trkpt lat="59.8433355" lon="17.6418933">
        <ele>38.1094</ele>
        <time>2014-05-20T19:21:25Z</time>
      </trkpt>
      <trkpt lat="59.8433295" lon="17.6418385">
        <ele>37.6287</ele>
        <time>2014-05-20T19:21:26Z</time>
      </trkpt>
      <trkpt lat="59.8433323" lon="17.6417897">
        <ele>37.1481</ele>
        <time>2014-05-20T19:21:27Z</time>
      </trkpt>
      <trkpt lat="59.8433428" lon="17.6417431">
        <ele>36.6675</ele>
        <time>2014-05-20T19:21:28Z</time>
      </trkpt>
      <trkpt lat="59.8433608" lon="17.6417142">
        <ele>36.6675</ele>
        <time>2014-05-20T19:21:29Z</time>
      </trkpt>
      <trkpt lat="59.8433868" lon="17.641701">
        <ele>36.1868</ele>
        <time>2014-05-20T19:21:30Z</time>
      </trkpt>
      <trkpt lat="59.8434169" lon="17.6416906">
        <ele>36.1868</ele>
        <time>2014-05-20T19:21:31Z</time>
      </trkpt>
      <trkpt lat="59.8434431" lon="17.6416798">
        <ele>36.6675</ele>
        <time>2014-05-20T19:21:32Z</time>
      </trkpt>
      <trkpt lat="59.8434707" lon="17.6416695">
        <ele>36.6675</ele>
        <time>2014-05-20T19:21:33Z</time>
      </trkpt>
      <trkpt lat="59.8434928" lon="17.6416638">
        <ele>36.1868</ele>
        <time>2014-05-20T19:21:34Z</time>
      </trkpt>
      <trkpt lat="59.8435158" lon="17.6416653">
        <ele>36.1868</ele>
        <time>2014-05-20T19:21:35Z</time>
      </trkpt>
      <trkpt lat="59.8435421" lon="17.6416678">
        <ele>36.1868</ele>
        <time>2014-05-20T19:21:36Z</time>
      </trkpt>
      <trkpt lat="59.8435645" lon="17.6416694">
        <ele>35.7061</ele>
        <time>2014-05-20T19:21:37Z</time>
      </trkpt>
      <trkpt lat="59.8435876" lon="17.6416658">
        <ele>35.2255</ele>
        <time>2014-05-20T19:21:38Z</time>
      </trkpt>
      <trkpt lat="59.8436121" lon="17.6416608">
        <ele>35.2255</ele>
        <time>2014-05-20T19:21:39Z</time>
      </trkpt>
      <trkpt lat="59.8436329" lon="17.6416536">
        <ele>34.7449</ele>
        <time>2014-05-20T19:21:40Z</time>
      </trkpt>
      <trkpt lat="59.8436598" lon="17.6416447">
        <ele>34.7449</ele>
        <time>2014-05-20T19:21:41Z</time>
      </trkpt>
      <trkpt lat="59.8436861" lon="17.6416336">
        <ele>34.2642</ele>
        <time>2014-05-20T19:21:42Z</time>
      </trkpt>
      <trkpt lat="59.8437107" lon="17.6416189">
        <ele>34.2642</ele>
        <time>2014-05-20T19:21:43Z</time>
      </trkpt>
      <trkpt lat="59.8437339" lon="17.6416093">
        <ele>33.7834</ele>
        <time>2014-05-20T19:21:44Z</time>
      </trkpt>
      <trkpt lat="59.8437612" lon="17.6415995">
        <ele>33.7834</ele>
        <time>2014-05-20T19:21:45Z</time>
      </trkpt>
      <trkpt lat="59.8437893" lon="17.6415898">
        <ele>33.7834</ele>
        <time>2014-05-20T19:21:46Z</time>
      </trkpt>
      <trkpt lat="59.8438166" lon="17.6415856">
        <ele>33.7834</ele>
        <time>2014-05-20T19:21:47Z</time>
      </trkpt>
      <trkpt lat="59.8438473" lon="17.6415795">
        <ele>34.2642</ele>
        <time>2014-05-20T19:21:48Z</time>
      </trkpt>
      <trkpt lat="59.8438779" lon="17.6415665">
        <ele>34.7449</ele>
        <time>2014-05-20T19:21:49Z</time>
      </trkpt>
      <trkpt lat="59.84391" lon="17.6415543">
        <ele>35.2255</ele>
        <time>2014-05-20T19:21:50Z</time>
      </trkpt>
      <trkpt lat="59.8439425" lon="17.6415407">
        <ele>35.7061</ele>
        <time>2014-05-20T19:21:51Z</time>
      </trkpt>
      <trkpt lat="59.8439743" lon="17.6415272">
        <ele>36.6675</ele>
        <time>2014-05-20T19:21:52Z</time>
      </trkpt>
      <trkpt lat="59.8440073" lon="17.6415142">
        <ele>36.6675</ele>
        <time>2014-05-20T19:21:53Z</time>
      </trkpt>
      <trkpt lat="59.8440375" lon="17.6414994">
        <ele>37.1481</ele>
        <time>2014-05-20T19:21:54Z</time>
      </trkpt>
      <trkpt lat="59.8440665" lon="17.64148">
        <ele>37.6287</ele>
        <time>2014-05-20T19:21:55Z</time>
      </trkpt>
      <trkpt lat="59.8440977" lon="17.6414598">
        <ele>37.6287</ele>
        <time>2014-05-20T19:21:56Z</time>
      </trkpt>
      <trkpt lat="59.8441266" lon="17.6414414">
        <ele>38.1094</ele>
        <time>2014-05-20T19:21:57Z</time>
      </trkpt>
      <trkpt lat="59.8441581" lon="17.641424">
        <ele>38.5901</ele>
        <time>2014-05-20T19:21:58Z</time>
      </trkpt>
      <trkpt lat="59.8441846" lon="17.6414088">
        <ele>38.5901</ele>
        <time>2014-05-20T19:21:59Z</time>
      </trkpt>
      <trkpt lat="59.8442084" lon="17.6413918">
        <ele>38.1094</ele>
        <time>2014-05-20T19:22:00Z</time>
      </trkpt>
      <trkpt lat="59.8442338" lon="17.6413731">
        <ele>38.1094</ele>
        <time>2014-05-20T19:22:01Z</time>
      </trkpt>
      <trkpt lat="59.8442588" lon="17.6413487">
        <ele>38.1094</ele>
        <time>2014-05-20T19:22:02Z</time>
      </trkpt>
      <trkpt lat="59.8442772" lon="17.6413152">
        <ele>37.6287</ele>
        <time>2014-05-20T19:22:03Z</time>
      </trkpt>
      <trkpt lat="59.8442872" lon="17.6412712">
        <ele>37.1481</ele>
        <time>2014-05-20T19:22:04Z</time>
      </trkpt>
      <trkpt lat="59.8442869" lon="17.6412184">
        <ele>36.1868</ele>
        <time>2014-05-20T19:22:05Z</time>
      </trkpt>
      <trkpt lat="59.8442839" lon="17.6411606">
        <ele>35.7061</ele>
        <time>2014-05-20T19:22:06Z</time>
      </trkpt>
      <trkpt lat="59.8442799" lon="17.6410998">
        <ele>35.7061</ele>
        <time>2014-05-20T19:22:07Z</time>
      </trkpt>
      <trkpt lat="59.8442727" lon="17.6410334">
        <ele>34.7449</ele>
        <time>2014-05-20T19:22:08Z</time>
      </trkpt>
      <trkpt lat="59.8442618" lon="17.6409692">
        <ele>33.7834</ele>
        <time>2014-05-20T19:22:09Z</time>
      </trkpt>
      <trkpt lat="59.8442561" lon="17.6409065">
        <ele>33.3029</ele>
        <time>2014-05-20T19:22:10Z</time>
      </trkpt>
      <trkpt lat="59.844257" lon="17.6408464">
        <ele>33.3029</ele>
        <time>2014-05-20T19:22:11Z</time>
      </trkpt>
      <trkpt lat="59.8442598" lon="17.6407967">
        <ele>33.3029</ele>
        <time>2014-05-20T19:22:12Z</time>
      </trkpt>
      <trkpt lat="59.8442684" lon="17.6407497">
        <ele>33.3029</ele>
        <time>2014-05-20T19:22:13Z</time>
      </trkpt>
      <trkpt lat="59.8442768" lon="17.6406926">
        <ele>33.3029</ele>
        <time>2014-05-20T19:22:14Z</time>
      </trkpt>
      <trkpt lat="59.8442877" lon="17.6406319">
        <ele>32.8223</ele>
        <time>2014-05-20T19:22:15Z</time>
      </trkpt>
      <trkpt lat="59.8443044" lon="17.6405798">
        <ele>33.3029</ele>
        <time>2014-05-20T19:22:16Z</time>
      </trkpt>
      <trkpt lat="59.8443219" lon="17.6405344">
        <ele>33.3029</ele>
        <time>2014-05-20T19:22:17Z</time>
      </trkpt>
      <trkpt lat="59.844338" lon="17.6404852">
        <ele>33.3029</ele>
        <time>2014-05-20T19:22:18Z</time>
      </trkpt>
      <trkpt lat="59.8443545" lon="17.6404313">
        <ele>33.3029</ele>
        <time>2014-05-20T19:22:19Z</time>
      </trkpt>
      <trkpt lat="59.8443677" lon="17.6403738">
        <ele>33.3029</ele>
        <time>2014-05-20T19:22:20Z</time>
      </trkpt>
      <trkpt lat="59.8443817" lon="17.6403249">
        <ele>32.8223</ele>
        <time>2014-05-20T19:22:21Z</time>
      </trkpt>
      <trkpt lat="59.8443975" lon="17.6402782">
        <ele>32.8223</ele>
        <time>2014-05-20T19:22:22Z</time>
      </trkpt>
      <trkpt lat="59.844404" lon="17.6402269">
        <ele>32.8223</ele>
        <time>2014-05-20T19:22:23Z</time>
      </trkpt>
      <trkpt lat="59.844409" lon="17.6401809">
        <ele>33.3029</ele>
        <time>2014-05-20T19:22:24Z</time>
      </trkpt>
      <trkpt lat="59.8444119" lon="17.6401351">
        <ele>33.3029</ele>
        <time>2014-05-20T19:22:25Z</time>
      </trkpt>
      <trkpt lat="59.844416" lon="17.6400871">
        <ele>33.7834</ele>
        <time>2014-05-20T19:22:26Z</time>
      </trkpt>
      <trkpt lat="59.8444182" lon="17.6400384">
        <ele>33.7834</ele>
        <time>2014-05-20T19:22:27Z</time>
      </trkpt>
      <trkpt lat="59.8444172" lon="17.639982">
        <ele>34.2642</ele>
        <time>2014-05-20T19:22:28Z</time>
      </trkpt>
      <trkpt lat="59.8444188" lon="17.6399257">
        <ele>34.7449</ele>
        <time>2014-05-20T19:22:29Z</time>
      </trkpt>
      <trkpt lat="59.8444204" lon="17.6398703">
        <ele>34.7449</ele>
        <time>2014-05-20T19:22:30Z</time>
      </trkpt>
      <trkpt lat="59.8444214" lon="17.6398157">
        <ele>34.2642</ele>
        <time>2014-05-20T19:22:31Z</time>
      </trkpt>
      <trkpt lat="59.8444273" lon="17.6397592">
        <ele>34.2642</ele>
        <time>2014-05-20T19:22:32Z</time>
      </trkpt>
      <trkpt lat="59.8444311" lon="17.6397076">
        <ele>34.7449</ele>
        <time>2014-05-20T19:22:33Z</time>
      </trkpt>
      <trkpt lat="59.8444436" lon="17.6396637">
        <ele>34.7449</ele>
        <time>2014-05-20T19:22:34Z</time>
      </trkpt>
      <trkpt lat="59.8444617" lon="17.6396388">
        <ele>34.7449</ele>
        <time>2014-05-20T19:22:35Z</time>
      </trkpt>
      <trkpt lat="59.8444817" lon="17.6396258">
        <ele>34.2642</ele>
        <time>2014-05-20T19:22:36Z</time>
      </trkpt>
      <trkpt lat="59.8445086" lon="17.6396109">
        <ele>34.7449</ele>
        <time>2014-05-20T19:22:37Z</time>
      </trkpt>
      <trkpt lat="59.8445357" lon="17.6396073">
        <ele>34.7449</ele>
        <time>2014-05-20T19:22:38Z</time>
      </trkpt>
      <trkpt lat="59.8445587" lon="17.6396102">
        <ele>35.2255</ele>
        <time>2014-05-20T19:22:39Z</time>
      </trkpt>
      <trkpt lat="59.8445871" lon="17.6396082">
        <ele>35.2255</ele>
        <time>2014-05-20T19:22:40Z</time>
      </trkpt>
      <trkpt lat="59.8446196" lon="17.639599">
        <ele>35.2255</ele>
        <time>2014-05-20T19:22:41Z</time>
      </trkpt>
      <trkpt lat="59.8446534" lon="17.6395887">
        <ele>35.7061</ele>
        <time>2014-05-20T19:22:42Z</time>
      </trkpt>
      <trkpt lat="59.8446813" lon="17.639579">
        <ele>35.2255</ele>
        <time>2014-05-20T19:22:43Z</time>
      </trkpt>
      <trkpt lat="59.8447108" lon="17.6395668">
        <ele>35.2255</ele>
        <time>2014-05-20T19:22:44Z</time>
      </trkpt>
      <trkpt lat="59.8447398" lon="17.6395518">
        <ele>35.7061</ele>
        <time>2014-05-20T19:22:45Z</time>
      </trkpt>
      <trkpt lat="59.8447679" lon="17.6395473">
        <ele>36.1868</ele>
        <time>2014-05-20T19:22:46Z</time>
      </trkpt>
      <trkpt lat="59.8447946" lon="17.6395395">
        <ele>37.1481</ele>
        <time>2014-05-20T19:22:47Z</time>
      </trkpt>
      <trkpt lat="59.8448259" lon="17.639532">
        <ele>38.5901</ele>
        <time>2014-05-20T19:22:48Z</time>
      </trkpt>
      <trkpt lat="59.8448549" lon="17.6395277">
        <ele>38.5901</ele>
        <time>2014-05-20T19:22:49Z</time>
      </trkpt>
      <trkpt lat="59.8448921" lon="17.6395131">
        <ele>39.5513</ele>
        <time>2014-05-20T19:22:50Z</time>
      </trkpt>
      <trkpt lat="59.8449264" lon="17.6394991">
        <ele>40.0321</ele>
        <time>2014-05-20T19:22:51Z</time>
      </trkpt>
      <trkpt lat="59.8449621" lon="17.6394828">
        <ele>40.0321</ele>
        <time>2014-05-20T19:22:52Z</time>
      </trkpt>
      <trkpt lat="59.8450011" lon="17.6394678">
        <ele>40.5128</ele>
        <time>2014-05-20T19:22:53Z</time>
      </trkpt>
      <trkpt lat="59.8450373" lon="17.6394534">
        <ele>40.5128</ele>
        <time>2014-05-20T19:22:54Z</time>
      </trkpt>
      <trkpt lat="59.8450686" lon="17.6394447">
        <ele>40.5128</ele>
        <time>2014-05-20T19:22:55Z</time>
      </trkpt>
      <trkpt lat="59.8451031" lon="17.6394379">
        <ele>40.9934</ele>
        <time>2014-05-20T19:22:56Z</time>
      </trkpt>
      <trkpt lat="59.8451361" lon="17.6394272">
        <ele>41.474</ele>
        <time>2014-05-20T19:22:57Z</time>
      </trkpt>
      <trkpt lat="59.8451699" lon="17.6394129">
        <ele>40.9934</ele>
        <time>2014-05-20T19:22:58Z</time>
      </trkpt>
      <trkpt lat="59.8452017" lon="17.6394015">
        <ele>40.9934</ele>
        <time>2014-05-20T19:22:59Z</time>
      </trkpt>
      <trkpt lat="59.8452316" lon="17.6393922">
        <ele>40.5128</ele>
        <time>2014-05-20T19:23:00Z</time>
      </trkpt>
      <trkpt lat="59.8452567" lon="17.6393878">
        <ele>40.5128</ele>
        <time>2014-05-20T19:23:01Z</time>
      </trkpt>
      <trkpt lat="59.8452868" lon="17.6393825">
        <ele>40.5128</ele>
        <time>2014-05-20T19:23:02Z</time>
      </trkpt>
      <trkpt lat="59.8453266" lon="17.6393723">
        <ele>41.474</ele>
        <time>2014-05-20T19:23:03Z</time>
      </trkpt>
      <trkpt lat="59.8453647" lon="17.6393632">
        <ele>41.474</ele>
        <time>2014-05-20T19:23:04Z</time>
      </trkpt>
      <trkpt lat="59.8453977" lon="17.6393628">
        <ele>41.474</ele>
        <time>2014-05-20T19:23:05Z</time>
      </trkpt>
      <trkpt lat="59.8454294" lon="17.6393571">
        <ele>40.9934</ele>
        <time>2014-05-20T19:23:06Z</time>
      </trkpt>
      <trkpt lat="59.8454592" lon="17.6393411">
        <ele>40.9934</ele>
        <time>2014-05-20T19:23:07Z</time>
      </trkpt>
      <trkpt lat="59.8454872" lon="17.6393265">
        <ele>40.9934</ele>
        <time>2014-05-20T19:23:08Z</time>
      </trkpt>
      <trkpt lat="59.8455185" lon="17.6393022">
        <ele>41.474</ele>
        <time>2014-05-20T19:23:09Z</time>
      </trkpt>
      <trkpt lat="59.8455469" lon="17.6392823">
        <ele>41.474</ele>
        <time>2014-05-20T19:23:10Z</time>
      </trkpt>
      <trkpt lat="59.8455765" lon="17.6392687">
        <ele>40.5128</ele>
        <time>2014-05-20T19:23:11Z</time>
      </trkpt>
      <trkpt lat="59.845607" lon="17.639253">
        <ele>40.5128</ele>
        <time>2014-05-20T19:23:12Z</time>
      </trkpt>
      <trkpt lat="59.8456314" lon="17.6392459">
        <ele>40.0321</ele>
        <time>2014-05-20T19:23:13Z</time>
      </trkpt>
      <trkpt lat="59.8456562" lon="17.6392441">
        <ele>40.5128</ele>
        <time>2014-05-20T19:23:14Z</time>
      </trkpt>
      <trkpt lat="59.8456809" lon="17.6392562">
        <ele>39.0707</ele>
        <time>2014-05-20T19:23:15Z</time>
      </trkpt>
      <trkpt lat="59.8457039" lon="17.6392892">
        <ele>38.5901</ele>
        <time>2014-05-20T19:23:16Z</time>
      </trkpt>
      <trkpt lat="59.8457148" lon="17.6393442">
        <ele>37.6287</ele>
        <time>2014-05-20T19:23:17Z</time>
      </trkpt>
      <trkpt lat="59.8457258" lon="17.6394016">
        <ele>37.6287</ele>
        <time>2014-05-20T19:23:18Z</time>
      </trkpt>
      <trkpt lat="59.8457374" lon="17.6394617">
        <ele>37.6287</ele>
        <time>2014-05-20T19:23:19Z</time>
      </trkpt>
      <trkpt lat="59.8457464" lon="17.6395207">
        <ele>36.6675</ele>
        <time>2014-05-20T19:23:20Z</time>
      </trkpt>
      <trkpt lat="59.8457556" lon="17.6395816">
        <ele>36.1868</ele>
        <time>2014-05-20T19:23:21Z</time>
      </trkpt>
      <trkpt lat="59.8457666" lon="17.6396425">
        <ele>35.7061</ele>
        <time>2014-05-20T19:23:22Z</time>
      </trkpt>
      <trkpt lat="59.8457826" lon="17.639695">
        <ele>35.7061</ele>
        <time>2014-05-20T19:23:23Z</time>
      </trkpt>
      <trkpt lat="59.8458014" lon="17.6397482">
        <ele>34.7449</ele>
        <time>2014-05-20T19:23:24Z</time>
      </trkpt>
      <trkpt lat="59.8458242" lon="17.6397869">
        <ele>34.2642</ele>
        <time>2014-05-20T19:23:25Z</time>
      </trkpt>
      <trkpt lat="59.845842" lon="17.6398156">
        <ele>33.3029</ele>
        <time>2014-05-20T19:23:26Z</time>
      </trkpt>
      <trkpt lat="59.8458764" lon="17.6398191">
        <ele>32.8223</ele>
        <time>2014-05-20T19:23:27Z</time>
      </trkpt>
      <trkpt lat="59.8459168" lon="17.6398092">
        <ele>33.3029</ele>
        <time>2014-05-20T19:23:28Z</time>
      </trkpt>
      <trkpt lat="59.8459536" lon="17.639791">
        <ele>32.8223</ele>
        <time>2014-05-20T19:23:29Z</time>
      </trkpt>
      <trkpt lat="59.8459891" lon="17.6397798">
        <ele>32.3416</ele>
        <time>2014-05-20T19:23:30Z</time>
      </trkpt>
      <trkpt lat="59.8460197" lon="17.6397786">
        <ele>31.8607</ele>
        <time>2014-05-20T19:23:31Z</time>
      </trkpt>
      <trkpt lat="59.8460484" lon="17.6397729">
        <ele>31.8607</ele>
        <time>2014-05-20T19:23:32Z</time>
      </trkpt>
      <trkpt lat="59.846081" lon="17.6397613">
        <ele>32.3416</ele>
        <time>2014-05-20T19:23:33Z</time>
      </trkpt>
      <trkpt lat="59.8461152" lon="17.6397533">
        <ele>33.7834</ele>
        <time>2014-05-20T19:23:34Z</time>
      </trkpt>
      <trkpt lat="59.8461401" lon="17.6397551">
        <ele>33.7834</ele>
        <time>2014-05-20T19:23:35Z</time>
      </trkpt>
      <trkpt lat="59.8461691" lon="17.6397498">
        <ele>33.3029</ele>
        <time>2014-05-20T19:23:36Z</time>
      </trkpt>
      <trkpt lat="59.8461963" lon="17.6397437">
        <ele>32.8223</ele>
        <time>2014-05-20T19:23:37Z</time>
      </trkpt>
      <trkpt lat="59.8462246" lon="17.639744">
        <ele>32.8223</ele>
        <time>2014-05-20T19:23:38Z</time>
      </trkpt>
      <trkpt lat="59.8462604" lon="17.6397467">
        <ele>33.3029</ele>
        <time>2014-05-20T19:23:39Z</time>
      </trkpt>
      <trkpt lat="59.8462964" lon="17.6397494">
        <ele>33.3029</ele>
        <time>2014-05-20T19:23:40Z</time>
      </trkpt>
      <trkpt lat="59.8463295" lon="17.6397651">
        <ele>32.8223</ele>
        <time>2014-05-20T19:23:41Z</time>
      </trkpt>
      <trkpt lat="59.8463597" lon="17.6397991">
        <ele>32.8223</ele>
        <time>2014-05-20T19:23:42Z</time>
      </trkpt>
      <trkpt lat="59.8463825" lon="17.6398414">
        <ele>31.8607</ele>
        <time>2014-05-20T19:23:43Z</time>
      </trkpt>
      <trkpt lat="59.8464046" lon="17.6398897">
        <ele>30.8995</ele>
        <time>2014-05-20T19:23:44Z</time>
      </trkpt>
      <trkpt lat="59.8464306" lon="17.6399338">
        <ele>30.8995</ele>
        <time>2014-05-20T19:23:45Z</time>
      </trkpt>
      <trkpt lat="59.8464545" lon="17.6399786">
        <ele>29.9381</ele>
        <time>2014-05-20T19:23:46Z</time>
      </trkpt>
      <trkpt lat="59.8464737" lon="17.6400306">
        <ele>29.4575</ele>
        <time>2014-05-20T19:23:47Z</time>
      </trkpt>
      <trkpt lat="59.8464851" lon="17.6400927">
        <ele>28.4962</ele>
        <time>2014-05-20T19:23:48Z</time>
      </trkpt>
      <trkpt lat="59.8465069" lon="17.6401503">
        <ele>28.4962</ele>
        <time>2014-05-20T19:23:49Z</time>
      </trkpt>
      <trkpt lat="59.8465235" lon="17.6401974">
        <ele>28.0155</ele>
        <time>2014-05-20T19:23:50Z</time>
      </trkpt>
      <trkpt lat="59.8465364" lon="17.6402466">
        <ele>27.5349</ele>
        <time>2014-05-20T19:23:51Z</time>
      </trkpt>
      <trkpt lat="59.8465452" lon="17.6403082">
        <ele>26.5736</ele>
        <time>2014-05-20T19:23:52Z</time>
      </trkpt>
      <trkpt lat="59.8465487" lon="17.6403726">
        <ele>25.6123</ele>
        <time>2014-05-20T19:23:53Z</time>
      </trkpt>
      <trkpt lat="59.8465555" lon="17.6404373">
        <ele>25.6123</ele>
        <time>2014-05-20T19:23:54Z</time>
      </trkpt>
      <trkpt lat="59.8465632" lon="17.6405008">
        <ele>24.651</ele>
        <time>2014-05-20T19:23:55Z</time>
      </trkpt>
      <trkpt lat="59.8465681" lon="17.6405651">
        <ele>24.1703</ele>
        <time>2014-05-20T19:23:56Z</time>
      </trkpt>
      <trkpt lat="59.846574" lon="17.6406302">
        <ele>23.6896</ele>
        <time>2014-05-20T19:23:57Z</time>
      </trkpt>
      <trkpt lat="59.84658" lon="17.6406893">
        <ele>22.7283</ele>
        <time>2014-05-20T19:23:58Z</time>
      </trkpt>
      <trkpt lat="59.8465866" lon="17.6407506">
        <ele>22.7283</ele>
        <time>2014-05-20T19:23:59Z</time>
      </trkpt>
      <trkpt lat="59.8465898" lon="17.6408152">
        <ele>22.7283</ele>
        <time>2014-05-20T19:24:00Z</time>
      </trkpt>
      <trkpt lat="59.8465922" lon="17.6408774">
        <ele>21.767</ele>
        <time>2014-05-20T19:24:01Z</time>
      </trkpt>
      <trkpt lat="59.846604" lon="17.6409355">
        <ele>21.767</ele>
        <time>2014-05-20T19:24:02Z</time>
      </trkpt>
      <trkpt lat="59.8466135" lon="17.6409945">
        <ele>21.767</ele>
        <time>2014-05-20T19:24:03Z</time>
      </trkpt>
      <trkpt lat="59.8466221" lon="17.6410521">
        <ele>21.767</ele>
        <time>2014-05-20T19:24:04Z</time>
      </trkpt>
      <trkpt lat="59.8466349" lon="17.6411101">
        <ele>21.767</ele>
        <time>2014-05-20T19:24:05Z</time>
      </trkpt>
      <trkpt lat="59.8466465" lon="17.6411733">
        <ele>22.2476</ele>
        <time>2014-05-20T19:24:06Z</time>
      </trkpt>
      <trkpt lat="59.8466597" lon="17.6412301">
        <ele>22.2476</ele>
        <time>2014-05-20T19:24:07Z</time>
      </trkpt>
      <trkpt lat="59.8466668" lon="17.641286">
        <ele>22.2476</ele>
        <time>2014-05-20T19:24:08Z</time>
      </trkpt>
      <trkpt lat="59.8466729" lon="17.6413358">
        <ele>22.2476</ele>
        <time>2014-05-20T19:24:09Z</time>
      </trkpt>
      <trkpt lat="59.846689" lon="17.6413889">
        <ele>21.767</ele>
        <time>2014-05-20T19:24:10Z</time>
      </trkpt>
      <trkpt lat="59.8467056" lon="17.641445">
        <ele>21.2864</ele>
        <time>2014-05-20T19:24:11Z</time>
      </trkpt>
      <trkpt lat="59.8467233" lon="17.641497">
        <ele>20.8057</ele>
        <time>2014-05-20T19:24:12Z</time>
      </trkpt>
      <trkpt lat="59.8467467" lon="17.641552">
        <ele>20.8057</ele>
        <time>2014-05-20T19:24:13Z</time>
      </trkpt>
      <trkpt lat="59.8467696" lon="17.6416061">
        <ele>20.325</ele>
        <time>2014-05-20T19:24:14Z</time>
      </trkpt>
      <trkpt lat="59.8467891" lon="17.6416583">
        <ele>20.325</ele>
        <time>2014-05-20T19:24:15Z</time>
      </trkpt>
      <trkpt lat="59.8468098" lon="17.6417103">
        <ele>20.325</ele>
        <time>2014-05-20T19:24:16Z</time>
      </trkpt>
      <trkpt lat="59.846834" lon="17.6417556">
        <ele>19.8444</ele>
        <time>2014-05-20T19:24:17Z</time>
      </trkpt>
      <trkpt lat="59.8468591" lon="17.6418041">
        <ele>19.8444</ele>
        <time>2014-05-20T19:24:18Z</time>
      </trkpt>
      <trkpt lat="59.8468789" lon="17.6418463">
        <ele>19.3638</ele>
        <time>2014-05-20T19:24:19Z</time>
      </trkpt>
      <trkpt lat="59.8469026" lon="17.6418913">
        <ele>19.8444</ele>
        <time>2014-05-20T19:24:20Z</time>
      </trkpt>
      <trkpt lat="59.8469247" lon="17.6419371">
        <ele>19.3638</ele>
        <time>2014-05-20T19:24:21Z</time>
      </trkpt>
      <trkpt lat="59.8469471" lon="17.6419897">
        <ele>19.3638</ele>
        <time>2014-05-20T19:24:22Z</time>
      </trkpt>
      <trkpt lat="59.8469637" lon="17.6420456">
        <ele>18.8831</ele>
        <time>2014-05-20T19:24:23Z</time>
      </trkpt>
      <trkpt lat="59.8469804" lon="17.6421017">
        <ele>18.8831</ele>
        <time>2014-05-20T19:24:24Z</time>
      </trkpt>
      <trkpt lat="59.8469974" lon="17.6421522">
        <ele>17.9218</ele>
        <time>2014-05-20T19:24:25Z</time>
      </trkpt>
      <trkpt lat="59.8470146" lon="17.6421958">
        <ele>17.4412</ele>
        <time>2014-05-20T19:24:26Z</time>
      </trkpt>
      <trkpt lat="59.8470343" lon="17.6422348">
        <ele>16.9604</ele>
        <time>2014-05-20T19:24:27Z</time>
      </trkpt>
      <trkpt lat="59.8470558" lon="17.6422746">
        <ele>16.4797</ele>
        <time>2014-05-20T19:24:28Z</time>
      </trkpt>
      <trkpt lat="59.8470783" lon="17.6423123">
        <ele>16.4797</ele>
        <time>2014-05-20T19:24:29Z</time>
      </trkpt>
      <trkpt lat="59.8471037" lon="17.6423544">
        <ele>16.4797</ele>
        <time>2014-05-20T19:24:30Z</time>
      </trkpt>
      <trkpt lat="59.8471279" lon="17.6423901">
        <ele>15.999</ele>
        <time>2014-05-20T19:24:31Z</time>
      </trkpt>
      <trkpt lat="59.8471617" lon="17.6424148">
        <ele>16.4797</ele>
        <time>2014-05-20T19:24:32Z</time>
      </trkpt>
      <trkpt lat="59.8471864" lon="17.6424458">
        <ele>16.4797</ele>
        <time>2014-05-20T19:24:33Z</time>
      </trkpt>
      <trkpt lat="59.8472159" lon="17.6424865">
        <ele>16.9604</ele>
        <time>2014-05-20T19:24:34Z</time>
      </trkpt>
      <trkpt lat="59.8472456" lon="17.6425227">
        <ele>17.4412</ele>
        <time>2014-05-20T19:24:35Z</time>
      </trkpt>
      <trkpt lat="59.8472735" lon="17.6425568">
        <ele>16.9604</ele>
        <time>2014-05-20T19:24:36Z</time>
      </trkpt>
      <trkpt lat="59.8473066" lon="17.6425845">
        <ele>17.4412</ele>
        <time>2014-05-20T19:24:37Z</time>
      </trkpt>
      <trkpt lat="59.8473406" lon="17.6426117">
        <ele>17.4412</ele>
        <time>2014-05-20T19:24:38Z</time>
      </trkpt>
      <trkpt lat="59.8473824" lon="17.6426334">
        <ele>17.9218</ele>
        <time>2014-05-20T19:24:39Z</time>
      </trkpt>
      <trkpt lat="59.8474232" lon="17.6426589">
        <ele>18.8831</ele>
        <time>2014-05-20T19:24:40Z</time>
      </trkpt>
      <trkpt lat="59.847461" lon="17.64269">
        <ele>19.3638</ele>
        <time>2014-05-20T19:24:41Z</time>
      </trkpt>
      <trkpt lat="59.8475024" lon="17.6427171">
        <ele>20.325</ele>
        <time>2014-05-20T19:24:42Z</time>
      </trkpt>
      <trkpt lat="59.8475356" lon="17.6427439">
        <ele>20.8057</ele>
        <time>2014-05-20T19:24:43Z</time>
      </trkpt>
      <trkpt lat="59.8475687" lon="17.6427698">
        <ele>21.767</ele>
        <time>2014-05-20T19:24:44Z</time>
      </trkpt>
      <trkpt lat="59.8476045" lon="17.6427962">
        <ele>22.7283</ele>
        <time>2014-05-20T19:24:45Z</time>
      </trkpt>
      <trkpt lat="59.8476407" lon="17.6428195">
        <ele>22.7283</ele>
        <time>2014-05-20T19:24:46Z</time>
      </trkpt>
      <trkpt lat="59.847678" lon="17.6428404">
        <ele>23.6896</ele>
        <time>2014-05-20T19:24:47Z</time>
      </trkpt>
      <trkpt lat="59.847711" lon="17.6428687">
        <ele>24.651</ele>
        <time>2014-05-20T19:24:48Z</time>
      </trkpt>
      <trkpt lat="59.8477604" lon="17.6428801">
        <ele>27.0543</ele>
        <time>2014-05-20T19:24:49Z</time>
      </trkpt>
      <trkpt lat="59.8478023" lon="17.6428911">
        <ele>28.9769</ele>
        <time>2014-05-20T19:24:50Z</time>
      </trkpt>
      <trkpt lat="59.8478354" lon="17.6429129">
        <ele>29.4575</ele>
        <time>2014-05-20T19:24:51Z</time>
      </trkpt>
      <trkpt lat="59.847863" lon="17.6429355">
        <ele>29.4575</ele>
        <time>2014-05-20T19:24:52Z</time>
      </trkpt>
      <trkpt lat="59.847896" lon="17.6429562">
        <ele>29.9381</ele>
        <time>2014-05-20T19:24:53Z</time>
      </trkpt>
      <trkpt lat="59.8479262" lon="17.6429853">
        <ele>30.4188</ele>
        <time>2014-05-20T19:24:54Z</time>
      </trkpt>
      <trkpt lat="59.8479572" lon="17.6430117">
        <ele>29.9381</ele>
        <time>2014-05-20T19:24:55Z</time>
      </trkpt>
      <trkpt lat="59.847992" lon="17.6430294">
        <ele>30.4188</ele>
        <time>2014-05-20T19:24:56Z</time>
      </trkpt>
      <trkpt lat="59.8480197" lon="17.643046">
        <ele>29.9381</ele>
        <time>2014-05-20T19:24:57Z</time>
      </trkpt>
      <trkpt lat="59.8480492" lon="17.6430664">
        <ele>30.4188</ele>
        <time>2014-05-20T19:24:58Z</time>
      </trkpt>
      <trkpt lat="59.8480778" lon="17.6430889">
        <ele>30.4188</ele>
        <time>2014-05-20T19:24:59Z</time>
      </trkpt>
      <trkpt lat="59.8481121" lon="17.643112">
        <ele>30.8995</ele>
        <time>2014-05-20T19:25:00Z</time>
      </trkpt>
      <trkpt lat="59.8481407" lon="17.6431416">
        <ele>30.8995</ele>
        <time>2014-05-20T19:25:01Z</time>
      </trkpt>
      <trkpt lat="59.8481607" lon="17.6431794">
        <ele>29.4575</ele>
        <time>2014-05-20T19:25:02Z</time>
      </trkpt>
      <trkpt lat="59.8481866" lon="17.64321">
        <ele>28.4962</ele>
        <time>2014-05-20T19:25:03Z</time>
      </trkpt>
      <trkpt lat="59.848223" lon="17.6432339">
        <ele>28.9769</ele>
        <time>2014-05-20T19:25:04Z</time>
      </trkpt>
      <trkpt lat="59.8482573" lon="17.6432609">
        <ele>29.9381</ele>
        <time>2014-05-20T19:25:05Z</time>
      </trkpt>
      <trkpt lat="59.8482876" lon="17.6432863">
        <ele>28.9769</ele>
        <time>2014-05-20T19:25:06Z</time>
      </trkpt>
      <trkpt lat="59.8483219" lon="17.6432987">
        <ele>28.9769</ele>
        <time>2014-05-20T19:25:07Z</time>
      </trkpt>
      <trkpt lat="59.8483624" lon="17.6433054">
        <ele>29.9381</ele>
        <time>2014-05-20T19:25:08Z</time>
      </trkpt>
      <trkpt lat="59.8484037" lon="17.643312">
        <ele>31.8607</ele>
        <time>2014-05-20T19:25:09Z</time>
      </trkpt>
      <trkpt lat="59.8484307" lon="17.6433267">
        <ele>31.8607</ele>
        <time>2014-05-20T19:25:10Z</time>
      </trkpt>
      <trkpt lat="59.8484515" lon="17.6433485">
        <ele>31.8607</ele>
        <time>2014-05-20T19:25:11Z</time>
      </trkpt>
      <trkpt lat="59.8484772" lon="17.6433656">
        <ele>32.8223</ele>
        <time>2014-05-20T19:25:12Z</time>
      </trkpt>
      <trkpt lat="59.8484975" lon="17.6433976">
        <ele>32.8223</ele>
        <time>2014-05-20T19:25:13Z</time>
      </trkpt>
      <trkpt lat="59.8485163" lon="17.6434357">
        <ele>33.3029</ele>
        <time>2014-05-20T19:25:14Z</time>
      </trkpt>
      <trkpt lat="59.8485347" lon="17.6434765">
        <ele>32.8223</ele>
        <time>2014-05-20T19:25:15Z</time>
      </trkpt>
      <trkpt lat="59.8485466" lon="17.6435305">
        <ele>31.3801</ele>
        <time>2014-05-20T19:25:16Z</time>
      </trkpt>
      <trkpt lat="59.8485638" lon="17.6435767">
        <ele>30.4188</ele>
        <time>2014-05-20T19:25:17Z</time>
      </trkpt>
      <trkpt lat="59.848583" lon="17.6436203">
        <ele>29.4575</ele>
        <time>2014-05-20T19:25:18Z</time>
      </trkpt>
      <trkpt lat="59.8486089" lon="17.6436528">
        <ele>29.4575</ele>
        <time>2014-05-20T19:25:19Z</time>
      </trkpt>
      <trkpt lat="59.8486331" lon="17.643686">
        <ele>29.4575</ele>
        <time>2014-05-20T19:25:20Z</time>
      </trkpt>
      <trkpt lat="59.8486489" lon="17.643725">
        <ele>28.0155</ele>
        <time>2014-05-20T19:25:21Z</time>
      </trkpt>
      <trkpt lat="59.8486704" lon="17.6437526">
        <ele>27.0543</ele>
        <time>2014-05-20T19:25:22Z</time>
      </trkpt>
      <trkpt lat="59.8486871" lon="17.6437916">
        <ele>26.0929</ele>
        <time>2014-05-20T19:25:23Z</time>
      </trkpt>
      <trkpt lat="59.8487058" lon="17.6438306">
        <ele>24.651</ele>
        <time>2014-05-20T19:25:24Z</time>
      </trkpt>
      <trkpt lat="59.8487187" lon="17.6438776">
        <ele>23.209</ele>
        <time>2014-05-20T19:25:25Z</time>
      </trkpt>
      <trkpt lat="59.8487344" lon="17.6439203">
        <ele>22.2476</ele>
        <time>2014-05-20T19:25:26Z</time>
      </trkpt>
      <trkpt lat="59.8487449" lon="17.6439539">
        <ele>20.325</ele>
        <time>2014-05-20T19:25:27Z</time>
      </trkpt>
      <trkpt lat="59.8487638" lon="17.6439768">
        <ele>18.8831</ele>
        <time>2014-05-20T19:25:28Z</time>
      </trkpt>
      <trkpt lat="59.8487808" lon="17.6440062">
        <ele>17.4412</ele>
        <time>2014-05-20T19:25:29Z</time>
      </trkpt>
      <trkpt lat="59.8487947" lon="17.6440332">
        <ele>15.999</ele>
        <time>2014-05-20T19:25:30Z</time>
      </trkpt>
      <trkpt lat="59.8488121" lon="17.6440587">
        <ele>15.0377</ele>
        <time>2014-05-20T19:25:31Z</time>
      </trkpt>
      <trkpt lat="59.8488259" lon="17.6440802">
        <ele>14.0764</ele>
        <time>2014-05-20T19:25:32Z</time>
      </trkpt>
      <trkpt lat="59.8488482" lon="17.6440871">
        <ele>13.5958</ele>
        <time>2014-05-20T19:25:33Z</time>
      </trkpt>
      <trkpt lat="59.8488793" lon="17.6440815">
        <ele>13.5958</ele>
        <time>2014-05-20T19:25:34Z</time>
      </trkpt>
      <trkpt lat="59.8489055" lon="17.6440809">
        <ele>13.1151</ele>
        <time>2014-05-20T19:25:35Z</time>
      </trkpt>
      <trkpt lat="59.8489316" lon="17.6440901">
        <ele>13.1151</ele>
        <time>2014-05-20T19:25:36Z</time>
      </trkpt>
      <trkpt lat="59.8489586" lon="17.6441047">
        <ele>12.1538</ele>
        <time>2014-05-20T19:25:37Z</time>
      </trkpt>
      <trkpt lat="59.8489886" lon="17.6441146">
        <ele>11.6732</ele>
        <time>2014-05-20T19:25:38Z</time>
      </trkpt>
      <trkpt lat="59.849021" lon="17.6441171">
        <ele>11.1925</ele>
        <time>2014-05-20T19:25:39Z</time>
      </trkpt>
      <trkpt lat="59.8490579" lon="17.6441125">
        <ele>10.7118</ele>
        <time>2014-05-20T19:25:40Z</time>
      </trkpt>
      <trkpt lat="59.8490989" lon="17.644102">
        <ele>11.1925</ele>
        <time>2014-05-20T19:25:41Z</time>
      </trkpt>
      <trkpt lat="59.8491356" lon="17.6440953">
        <ele>11.1925</ele>
        <time>2014-05-20T19:25:42Z</time>
      </trkpt>
      <trkpt lat="59.849175" lon="17.6440895">
        <ele>11.6732</ele>
        <time>2014-05-20T19:25:43Z</time>
      </trkpt>
      <trkpt lat="59.8492094" lon="17.6440913">
        <ele>11.1925</ele>
        <time>2014-05-20T19:25:44Z</time>
      </trkpt>
      <trkpt lat="59.8492435" lon="17.6440912">
        <ele>11.1925</ele>
        <time>2014-05-20T19:25:45Z</time>
      </trkpt>
      <trkpt lat="59.8492801" lon="17.6440792">
        <ele>11.6732</ele>
        <time>2014-05-20T19:25:46Z</time>
      </trkpt>
      <trkpt lat="59.8493108" lon="17.6440731">
        <ele>11.6732</ele>
        <time>2014-05-20T19:25:47Z</time>
      </trkpt>
      <trkpt lat="59.849345" lon="17.6440699">
        <ele>11.6732</ele>
        <time>2014-05-20T19:25:48Z</time>
      </trkpt>
      <trkpt lat="59.8493705" lon="17.6440638">
        <ele>12.1538</ele>
        <time>2014-05-20T19:25:49Z</time>
      </trkpt>
      <trkpt lat="59.8493859" lon="17.6440696">
        <ele>11.6732</ele>
        <time>2014-05-20T19:25:50Z</time>
      </trkpt>
      <trkpt lat="59.8493994" lon="17.6440941">
        <ele>11.1925</ele>
        <time>2014-05-20T19:25:51Z</time>
      </trkpt>
      <trkpt lat="59.849402" lon="17.644127">
        <ele>10.7118</ele>
        <time>2014-05-20T19:25:52Z</time>
      </trkpt>
      <trkpt lat="59.8493818" lon="17.6441819">
        <ele>9.75061</ele>
        <time>2014-05-20T19:25:53Z</time>
      </trkpt>
      <trkpt lat="59.8493543" lon="17.6442229">
        <ele>9.2699</ele>
        <time>2014-05-20T19:25:54Z</time>
      </trkpt>
      <trkpt lat="59.8493165" lon="17.6442605">
        <ele>8.30859</ele>
        <time>2014-05-20T19:25:55Z</time>
      </trkpt>
      <trkpt lat="59.8492891" lon="17.6442932">
        <ele>8.30859</ele>
        <time>2014-05-20T19:25:56Z</time>
      </trkpt>
      <trkpt lat="59.8492632" lon="17.6443184">
        <ele>7.82788</ele>
        <time>2014-05-20T19:25:57Z</time>
      </trkpt>
      <trkpt lat="59.8492347" lon="17.644345">
        <ele>7.34717</ele>
        <time>2014-05-20T19:25:58Z</time>
      </trkpt>
      <trkpt lat="59.8492051" lon="17.6443729">
        <ele>6.86646</ele>
        <time>2014-05-20T19:25:59Z</time>
      </trkpt>
      <trkpt lat="59.8491746" lon="17.6444075">
        <ele>6.38586</ele>
        <time>2014-05-20T19:26:00Z</time>
      </trkpt>
      <trkpt lat="59.8491419" lon="17.6444393">
        <ele>6.38586</ele>
        <time>2014-05-20T19:26:01Z</time>
      </trkpt>
      <trkpt lat="59.8491109" lon="17.64447">
        <ele>6.38586</ele>
        <time>2014-05-20T19:26:02Z</time>
      </trkpt>
      <trkpt lat="59.8490818" lon="17.6444949">
        <ele>6.86646</ele>
        <time>2014-05-20T19:26:03Z</time>
      </trkpt>
      <trkpt lat="59.8490537" lon="17.6445154">
        <ele>6.86646</ele>
        <time>2014-05-20T19:26:04Z</time>
      </trkpt>
      <trkpt lat="59.8490285" lon="17.6445315">
        <ele>6.38586</ele>
        <time>2014-05-20T19:26:05Z</time>
      </trkpt>
      <trkpt lat="59.8490045" lon="17.6445417">
        <ele>5.90527</ele>
        <time>2014-05-20T19:26:06Z</time>
      </trkpt>
      <trkpt lat="59.8489806" lon="17.6445532">
        <ele>5.90527</ele>
        <time>2014-05-20T19:26:07Z</time>
      </trkpt>
      <trkpt lat="59.8489519" lon="17.6445501">
        <ele>5.42456</ele>
        <time>2014-05-20T19:26:08Z</time>
      </trkpt>
      <trkpt lat="59.8489239" lon="17.6445401">
        <ele>4.46326</ele>
        <time>2014-05-20T19:26:09Z</time>
      </trkpt>
      <trkpt lat="59.8488964" lon="17.6445358">
        <ele>3.98267</ele>
        <time>2014-05-20T19:26:10Z</time>
      </trkpt>
      <trkpt lat="59.8488701" lon="17.6445598">
        <ele>4.46326</ele>
        <time>2014-05-20T19:26:11Z</time>
      </trkpt>
      <trkpt lat="59.848845" lon="17.6445854">
        <ele>4.46326</ele>
        <time>2014-05-20T19:26:12Z</time>
      </trkpt>
      <trkpt lat="59.8488254" lon="17.6446191">
        <ele>5.90527</ele>
        <time>2014-05-20T19:26:13Z</time>
      </trkpt>
      <trkpt lat="59.8488057" lon="17.6446563">
        <ele>6.38586</ele>
        <time>2014-05-20T19:26:14Z</time>
      </trkpt>
      <trkpt lat="59.848789" lon="17.6446857">
        <ele>6.38586</ele>
        <time>2014-05-20T19:26:15Z</time>
      </trkpt>
      <trkpt lat="59.8487781" lon="17.6447241">
        <ele>6.38586</ele>
        <time>2014-05-20T19:26:16Z</time>
      </trkpt>
      <trkpt lat="59.848776" lon="17.6447698">
        <ele>6.86646</ele>
        <time>2014-05-20T19:26:17Z</time>
      </trkpt>
      <trkpt lat="59.8487848" lon="17.644801">
        <ele>6.86646</ele>
        <time>2014-05-20T19:26:18Z</time>
      </trkpt>
      <trkpt lat="59.8488011" lon="17.6448337">
        <ele>6.86646</ele>
        <time>2014-05-20T19:26:19Z</time>
      </trkpt>
      <trkpt lat="59.8488186" lon="17.6448678">
        <ele>7.34717</ele>
        <time>2014-05-20T19:26:20Z</time>
      </trkpt>
      <trkpt lat="59.848839" lon="17.6448989">
        <ele>7.82788</ele>
        <time>2014-05-20T19:26:21Z</time>
      </trkpt>
      <trkpt lat="59.8488615" lon="17.6449333">
        <ele>8.30859</ele>
        <time>2014-05-20T19:26:22Z</time>
      </trkpt>
      <trkpt lat="59.8488822" lon="17.6449744">
        <ele>7.82788</ele>
        <time>2014-05-20T19:26:23Z</time>
      </trkpt>
      <trkpt lat="59.8489005" lon="17.6450179">
        <ele>8.30859</ele>
        <time>2014-05-20T19:26:24Z</time>
      </trkpt>
      <trkpt lat="59.848914" lon="17.6450579">
        <ele>8.30859</ele>
        <time>2014-05-20T19:26:25Z</time>
      </trkpt>
      <trkpt lat="59.8489245" lon="17.6450918">
        <ele>7.82788</ele>
        <time>2014-05-20T19:26:26Z</time>
      </trkpt>
      <trkpt lat="59.8489373" lon="17.6451216">
        <ele>8.30859</ele>
        <time>2014-05-20T19:26:27Z</time>
      </trkpt>
      <trkpt lat="59.8489523" lon="17.64514">
        <ele>8.30859</ele>
        <time>2014-05-20T19:26:28Z</time>
      </trkpt>
      <trkpt lat="59.84897" lon="17.6451371">
        <ele>8.78918</ele>
        <time>2014-05-20T19:26:29Z</time>
      </trkpt>
      <trkpt lat="59.848991" lon="17.6451206">
        <ele>8.78918</ele>
        <time>2014-05-20T19:26:30Z</time>
      </trkpt>
      <trkpt lat="59.8490181" lon="17.6450868">
        <ele>8.78918</ele>
        <time>2014-05-20T19:26:31Z</time>
      </trkpt>
      <trkpt lat="59.8490496" lon="17.6450499">
        <ele>9.2699</ele>
        <time>2014-05-20T19:26:32Z</time>
      </trkpt>
      <trkpt lat="59.8490811" lon="17.6450191">
        <ele>8.78918</ele>
        <time>2014-05-20T19:26:33Z</time>
      </trkpt>
      <trkpt lat="59.8491124" lon="17.6449858">
        <ele>9.2699</ele>
        <time>2014-05-20T19:26:34Z</time>
      </trkpt>
      <trkpt lat="59.8491419" lon="17.6449523">
        <ele>9.2699</ele>
        <time>2014-05-20T19:26:35Z</time>
      </trkpt>
      <trkpt lat="59.8491739" lon="17.6449174">
        <ele>9.75061</ele>
        <time>2014-05-20T19:26:36Z</time>
      </trkpt>
      <trkpt lat="59.8492045" lon="17.6448797">
        <ele>9.75061</ele>
        <time>2014-05-20T19:26:37Z</time>
      </trkpt>
      <trkpt lat="59.8492357" lon="17.6448494">
        <ele>10.2312</ele>
        <time>2014-05-20T19:26:38Z</time>
      </trkpt>
      <trkpt lat="59.8492633" lon="17.6448237">
        <ele>10.2312</ele>
        <time>2014-05-20T19:26:39Z</time>
      </trkpt>
      <trkpt lat="59.8492962" lon="17.6447781">
        <ele>10.7118</ele>
        <time>2014-05-20T19:26:40Z</time>
      </trkpt>
      <trkpt lat="59.8493227" lon="17.644758">
        <ele>10.7118</ele>
        <time>2014-05-20T19:26:41Z</time>
      </trkpt>
      <trkpt lat="59.8493515" lon="17.6447237">
        <ele>10.7118</ele>
        <time>2014-05-20T19:26:42Z</time>
      </trkpt>
      <trkpt lat="59.8493745" lon="17.644686">
        <ele>10.7118</ele>
        <time>2014-05-20T19:26:43Z</time>
      </trkpt>
      <trkpt lat="59.8494055" lon="17.6446595">
        <ele>11.1925</ele>
        <time>2014-05-20T19:26:44Z</time>
      </trkpt>
      <trkpt lat="59.8494304" lon="17.6446252">
        <ele>11.1925</ele>
        <time>2014-05-20T19:26:45Z</time>
      </trkpt>
      <trkpt lat="59.8494567" lon="17.6445932">
        <ele>11.1925</ele>
        <time>2014-05-20T19:26:46Z</time>
      </trkpt>
      <trkpt lat="59.8494841" lon="17.6445572">
        <ele>11.1925</ele>
        <time>2014-05-20T19:26:47Z</time>
      </trkpt>
      <trkpt lat="59.8495139" lon="17.6445189">
        <ele>11.1925</ele>
        <time>2014-05-20T19:26:48Z</time>
      </trkpt>
      <trkpt lat="59.8495422" lon="17.6444827">
        <ele>11.6732</ele>
        <time>2014-05-20T19:26:49Z</time>
      </trkpt>
      <trkpt lat="59.849567" lon="17.644451">
        <ele>11.1925</ele>
        <time>2014-05-20T19:26:50Z</time>
      </trkpt>
      <trkpt lat="59.8495943" lon="17.6444238">
        <ele>11.1925</ele>
        <time>2014-05-20T19:26:51Z</time>
      </trkpt>
      <trkpt lat="59.8496185" lon="17.6443891">
        <ele>10.7118</ele>
        <time>2014-05-20T19:26:52Z</time>
      </trkpt>
      <trkpt lat="59.8496465" lon="17.6443565">
        <ele>11.1925</ele>
        <time>2014-05-20T19:26:53Z</time>
      </trkpt>
      <trkpt lat="59.8496713" lon="17.6443295">
        <ele>10.7118</ele>
        <time>2014-05-20T19:26:54Z</time>
      </trkpt>
      <trkpt lat="59.8496931" lon="17.6442969">
        <ele>10.7118</ele>
        <time>2014-05-20T19:26:55Z</time>
      </trkpt>
      <trkpt lat="59.8497201" lon="17.6442781">
        <ele>10.2312</ele>
        <time>2014-05-20T19:26:56Z</time>
      </trkpt>
      <trkpt lat="59.849751" lon="17.6442612">
        <ele>10.2312</ele>
        <time>2014-05-20T19:26:57Z</time>
      </trkpt>
      <trkpt lat="59.8497768" lon="17.6442397">
        <ele>10.7118</ele>
        <time>2014-05-20T19:26:58Z</time>
      </trkpt>
      <trkpt lat="59.8498013" lon="17.6442214">
        <ele>10.2312</ele>
        <time>2014-05-20T19:26:59Z</time>
      </trkpt>
      <trkpt lat="59.8498307" lon="17.644202">
        <ele>10.2312</ele>
        <time>2014-05-20T19:27:00Z</time>
      </trkpt>
      <trkpt lat="59.8498612" lon="17.6441864">
        <ele>10.2312</ele>
        <time>2014-05-20T19:27:01Z</time>
      </trkpt>
      <trkpt lat="59.8498934" lon="17.6441757">
        <ele>10.2312</ele>
        <time>2014-05-20T19:27:02Z</time>
      </trkpt>
      <trkpt lat="59.8499241" lon="17.6441687">
        <ele>10.2312</ele>
        <time>2014-05-20T19:27:03Z</time>
      </trkpt>
      <trkpt lat="59.8499509" lon="17.6441709">
        <ele>10.2312</ele>
        <time>2014-05-20T19:27:04Z</time>
      </trkpt>
      <trkpt lat="59.8499722" lon="17.6441825">
        <ele>9.75061</ele>
        <time>2014-05-20T19:27:05Z</time>
      </trkpt>
      <trkpt lat="59.8499964" lon="17.644195">
        <ele>10.2312</ele>
        <time>2014-05-20T19:27:06Z</time>
      </trkpt>
      <trkpt lat="59.8500229" lon="17.6442107">
        <ele>10.2312</ele>
        <time>2014-05-20T19:27:07Z</time>
      </trkpt>
      <trkpt lat="59.8500496" lon="17.6442285">
        <ele>10.2312</ele>
        <time>2014-05-20T19:27:08Z</time>
      </trkpt>
      <trkpt lat="59.8500765" lon="17.6442447">
        <ele>9.75061</ele>
        <time>2014-05-20T19:27:09Z</time>
      </trkpt>
      <trkpt lat="59.8501012" lon="17.6442648">
        <ele>9.75061</ele>
        <time>2014-05-20T19:27:10Z</time>
      </trkpt>
      <trkpt lat="59.8501255" lon="17.6442923">
        <ele>9.75061</ele>
        <time>2014-05-20T19:27:11Z</time>
      </trkpt>
      <trkpt lat="59.85015" lon="17.6443302">
        <ele>9.2699</ele>
        <time>2014-05-20T19:27:12Z</time>
      </trkpt>
      <trkpt lat="59.85017" lon="17.6443744">
        <ele>9.2699</ele>
        <time>2014-05-20T19:27:13Z</time>
      </trkpt>
      <trkpt lat="59.8501868" lon="17.6444196">
        <ele>8.78918</ele>
        <time>2014-05-20T19:27:14Z</time>
      </trkpt>
      <trkpt lat="59.8502121" lon="17.6444533">
        <ele>8.78918</ele>
        <time>2014-05-20T19:27:15Z</time>
      </trkpt>
      <trkpt lat="59.8502354" lon="17.6444936">
        <ele>8.30859</ele>
        <time>2014-05-20T19:27:16Z</time>
      </trkpt>
      <trkpt lat="59.8502541" lon="17.6445381">
        <ele>8.30859</ele>
        <time>2014-05-20T19:27:17Z</time>
      </trkpt>
      <trkpt lat="59.8502708" lon="17.6445827">
        <ele>8.30859</ele>
        <time>2014-05-20T19:27:18Z</time>
      </trkpt>
      <trkpt lat="59.8502852" lon="17.6446414">
        <ele>8.78918</ele>
        <time>2014-05-20T19:27:19Z</time>
      </trkpt>
      <trkpt lat="59.8502927" lon="17.644704">
        <ele>8.30859</ele>
        <time>2014-05-20T19:27:20Z</time>
      </trkpt>
      <trkpt lat="59.8502984" lon="17.6447645">
        <ele>8.30859</ele>
        <time>2014-05-20T19:27:21Z</time>
      </trkpt>
      <trkpt lat="59.8503012" lon="17.6448204">
        <ele>8.78918</ele>
        <time>2014-05-20T19:27:22Z</time>
      </trkpt>
      <trkpt lat="59.8503032" lon="17.6448854">
        <ele>9.2699</ele>
        <time>2014-05-20T19:27:23Z</time>
      </trkpt>
      <trkpt lat="59.8503007" lon="17.6449422">
        <ele>9.2699</ele>
        <time>2014-05-20T19:27:24Z</time>
      </trkpt>
      <trkpt lat="59.8502951" lon="17.6449981">
        <ele>9.2699</ele>
        <time>2014-05-20T19:27:25Z</time>
      </trkpt>
      <trkpt lat="59.8502914" lon="17.6450563">
        <ele>9.2699</ele>
        <time>2014-05-20T19:27:26Z</time>
      </trkpt>
      <trkpt lat="59.8502842" lon="17.6451139">
        <ele>9.2699</ele>
        <time>2014-05-20T19:27:27Z</time>
      </trkpt>
      <trkpt lat="59.8502707" lon="17.6451687">
        <ele>9.2699</ele>
        <time>2014-05-20T19:27:28Z</time>
      </trkpt>
      <trkpt lat="59.8502555" lon="17.6452375">
        <ele>9.75061</ele>
        <time>2014-05-20T19:27:29Z</time>
      </trkpt>
      <trkpt lat="59.8502371" lon="17.6453037">
        <ele>10.2312</ele>
        <time>2014-05-20T19:27:30Z</time>
      </trkpt>
      <trkpt lat="59.8502137" lon="17.6453675">
        <ele>10.2312</ele>
        <time>2014-05-20T19:27:31Z</time>
      </trkpt>
      <trkpt lat="59.8501867" lon="17.6454209">
        <ele>10.7118</ele>
        <time>2014-05-20T19:27:32Z</time>
      </trkpt>
      <trkpt lat="59.8501571" lon="17.6454661">
        <ele>10.2312</ele>
        <time>2014-05-20T19:27:33Z</time>
      </trkpt>
      <trkpt lat="59.8501282" lon="17.6455198">
        <ele>10.2312</ele>
        <time>2014-05-20T19:27:34Z</time>
      </trkpt>
      <trkpt lat="59.8500983" lon="17.6455729">
        <ele>10.2312</ele>
        <time>2014-05-20T19:27:35Z</time>
      </trkpt>
      <trkpt lat="59.8500681" lon="17.6456147">
        <ele>9.75061</ele>
        <time>2014-05-20T19:27:36Z</time>
      </trkpt>
      <trkpt lat="59.8500381" lon="17.6456484">
        <ele>9.75061</ele>
        <time>2014-05-20T19:27:37Z</time>
      </trkpt>
      <trkpt lat="59.8500042" lon="17.6456831">
        <ele>9.75061</ele>
        <time>2014-05-20T19:27:38Z</time>
      </trkpt>
      <trkpt lat="59.8499716" lon="17.6457169">
        <ele>9.2699</ele>
        <time>2014-05-20T19:27:39Z</time>
      </trkpt>
      <trkpt lat="59.8499407" lon="17.6457445">
        <ele>9.2699</ele>
        <time>2014-05-20T19:27:40Z</time>
      </trkpt>
      <trkpt lat="59.849909" lon="17.6457721">
        <ele>8.78918</ele>
        <time>2014-05-20T19:27:41Z</time>
      </trkpt>
      <trkpt lat="59.8498791" lon="17.6458121">
        <ele>8.78918</ele>
        <time>2014-05-20T19:27:42Z</time>
      </trkpt>
      <trkpt lat="59.8498465" lon="17.6458461">
        <ele>8.78918</ele>
        <time>2014-05-20T19:27:43Z</time>
      </trkpt>
      <trkpt lat="59.849817" lon="17.6458721">
        <ele>8.30859</ele>
        <time>2014-05-20T19:27:44Z</time>
      </trkpt>
      <trkpt lat="59.849788" lon="17.6458912">
        <ele>8.30859</ele>
        <time>2014-05-20T19:27:45Z</time>
      </trkpt>
      <trkpt lat="59.8497618" lon="17.6459115">
        <ele>7.82788</ele>
        <time>2014-05-20T19:27:46Z</time>
      </trkpt>
    </trkseg>
  </trk>
</gpx>